<<back to data home page
Ready for Summer and Hot Weather?? Stay in touch!! - DONATE ANY AMOUNT BY CLICKING THIS LINK!!!


    Month/Day/Year       Maximum   Minimum    Rel    Dew       Rainfall  Seasonal  Soil     Soil      Baro       Wind    Wind        Peak    Peak Gust  Evap     Leaf     Net
    and                  Air Temp  Air Temp   Hum    Point     Inches    Rainfall  Temp     Moisture  Pressure   Speed   Direction   Gust    Direction  Pan      Wetness  Radiation
    Local Time           Deg F     Deg F      %      Deg F               Inches    Deg F    dS/m      mbar       MPH     comp  deg   MPH     comp  deg  Inches   mV       W_m2
----------------------------------------------------------------------------------------------------------------------------------------------------------------------------------
   07/18/2018 05:40      67.0      66.5       82     61.1      0.00      0.00      86.3     0.33      1017.3     2.5       E    95   7.8     ENE    62   8.78    268      -24.0
   07/18/2018 05:30      67.4      66.8       82     61.2      0.00      0.00      86.3     0.33      1017.0     2.3     ENE    60   4.4       E    88   8.79    268      -48.1
   07/18/2018 05:20      67.3      66.8       82     61.3      0.00      0.00      86.4     0.33      1016.7     2.7      NE    51   4.4     NNE    33   8.79    268      -49.1
   07/18/2018 05:10      67.5      67.0       81     61.2      0.00      0.00      86.4     0.33      1016.5     1.8      NE    49   3.1     ENE    60   8.79    268      -49.5
   07/18/2018 05:00      67.6      67.0       81     61.1      0.00      0.00      86.5     0.33      1016.2     1.4      NE    54   3.1      NE    51   8.79    268      -49.7
   07/18/2018 04:50      67.5      67.1       80     60.9      0.00      0.00      86.5     0.33      1016.2     0.2     ENE    62   1.7      NE    55   8.79    268      -49.5
   07/18/2018 04:40      67.5      67.1       80     60.9      0.00      0.00      86.5     0.33      1016.0     0.9     ENE    63   2.4     ENE    71   8.79    268      -49.9
   07/18/2018 04:30      67.4      66.9       81     61.1      0.00      0.00      86.5     0.33      1015.9     1.1     ENE    78   2.9     ENE    61   8.79    268      -49.4
   07/18/2018 04:20      67.3      66.8       81     61.1      0.00      0.00      86.6     0.33      1015.8     1.2       E    95   3.4       E    84   8.79    268      -49.3
   07/18/2018 04:10      67.5      67.0       81     61.0      0.00      0.00      86.6     0.33      1015.6     0.4     ESE   110   1.5      SE   134   8.79    267      -49.6
   07/18/2018 04:00      67.4      67.1       81     61.0      0.00      0.00      86.6     0.33      1015.5     0.0       E    82   1.1       E   100   8.79    267      -50.0
   07/18/2018 03:50      67.6      67.1       80     60.9      0.00      0.00      86.7     0.33      1015.5     0.5     ESE   121   1.9      SE   143   8.79    268      -50.4
   07/18/2018 03:40      67.8      67.3       79     60.9      0.00      0.00      86.7     0.33      1015.4     0.4     ENE    73   1.6     ESE   121   8.80    268      -50.8
   07/18/2018 03:30      68.1      67.5       79     60.8      0.00      0.00      86.7     0.33      1015.4     0.6     ENE    70   2.7       E    89   8.80    268      -51.2
   07/18/2018 03:20      68.0      67.6       78     60.7      0.00      0.00      86.7     0.33      1015.5     1.2      NE    53   2.1     NNE    34   8.80    268      -51.9
   07/18/2018 03:10      68.0      67.6       78     60.6      0.00      0.00      86.8     0.33      1015.5     0.8     ENE    64   2.1     ENE    62   8.80    268      -52.1
   07/18/2018 03:00      68.1      67.6       78     60.5      0.00      0.00      86.8     0.33      1015.5     0.2      NE    53   1.1      NE    45   8.80    268      -52.4
   07/18/2018 02:50      68.0      67.6       78     60.6      0.00      0.00      86.8     0.33      1015.7     0.6     ENE    63   2.1     ENE    75   8.80    268      -51.7
   07/18/2018 02:40      67.9      67.6       78     60.6      0.00      0.00      86.9     0.33      1015.7     1.2     ESE   108   3.0       E    96   8.80    268      -50.9
   07/18/2018 02:30      67.9      67.4       78     60.5      0.00      0.00      86.8     0.33      1015.6     0.7       E    90   1.8     ENE    60   8.80    268      -51.1
   07/18/2018 02:20      67.7      67.3       78     60.2      0.00      0.00      86.9     0.33      1015.5     0.0       N     0   0.0       S   181   8.80    267      -52.5
   07/18/2018 02:10      67.7      67.3       78     60.3      0.00      0.00      86.9     0.33      1015.4     0.0       N     0   0.0       S   181   8.80    268      -52.2
   07/18/2018 02:00      67.9      67.3       77     60.1      0.00      0.00      87.0     0.33      1015.3     0.0       S   181   0.5       S   181   8.80    267      -51.9
   07/18/2018 01:50      68.1      67.5       77     60.3      0.00      0.00      87.1     0.33      1015.4     0.0       N     0   0.0       S   181   8.80    267      -53.3
   07/18/2018 01:40      68.1      67.6       77     60.4      0.00      0.00      87.0     0.33      1015.6     0.0       N     0   0.0       S   181   8.80    267      -54.0
   07/18/2018 01:30      67.9      67.6       77     60.4      0.00      0.00      87.1     0.33      1015.6     0.0       S   182   0.7       S   182   8.80    267      -54.5
   07/18/2018 01:20      68.0      67.6       78     60.5      0.00      0.00      87.1     0.33      1015.6     0.7      SE   139   2.0      SE   130   8.81    267      -54.9
   07/18/2018 01:10      68.1      67.6       78     60.6      0.00      0.00      87.1     0.33      1015.6     1.1      SE   136   2.3      SE   133   8.81    267      -55.3
   07/18/2018 01:00      68.1      67.6       78     60.6      0.00      0.00      87.1     0.33      1015.6     0.5     ESE   108   1.9      SE   137   8.81    267      -55.8
   07/18/2018 00:50      68.4      67.8       77     60.6      0.00      0.00      87.1     0.33      1015.6     1.0     ESE   124   1.8      SE   139   8.81    267      -56.2
   07/18/2018 00:40      68.6      68.1       76     60.5      0.00      0.00      87.1     0.33      1015.7     0.4       E   100   1.4      SE   137   8.81    267      -56.6
   07/18/2018 00:30      68.8      68.2       76     60.5      0.00      0.00      87.2     0.33      1015.9     0.7       E    80   2.2     ENE    68   8.81    267      -56.8
   07/18/2018 00:20      68.8      68.4       75     60.5      0.00      0.00      87.2     0.33      1015.9     1.4     ENE    57   2.9     ENE    59   8.81    267      -57.3
   07/18/2018 00:10      69.2      68.5       75     60.5      0.00      0.00      87.2     0.33      1016.0     1.7      NE    44   3.4     NNE    23   8.81    266      -57.8
   07/18/2018 00:00      69.6      68.8       74     60.4      0.00      0.00      87.2     0.33      1016.2     1.7      NE    41   4.5     NNE    31   8.82    266      -57.6
   07/17/2018 23:50      70.0      69.2       73     60.4      0.00      0.00      87.2     0.33      1016.2     1.3      NE    47   2.5     NNE    24   8.82    266      -57.0
   07/17/2018 23:40      70.1      69.6       72     60.4      0.00      0.00      87.2     0.33      1016.4     1.3      NE    39   3.5     NNW   345   8.82    266      -56.5
   07/17/2018 23:30      70.5      69.7       72     60.4      0.00      0.00      87.2     0.33      1016.3     1.4      NE    39   3.4      NE    36   8.82    266      -55.7
   07/17/2018 23:20      70.8      70.1       71     60.4      0.00      0.00      87.2     0.33      1016.3     1.8      NE    41   3.3      NE    50   8.83    266      -54.2
   07/17/2018 23:10      71.4      70.5       69     60.4      0.00      0.00      87.2     0.33      1016.2     1.4     ENE    64   3.0     ENE    78   8.83    266      -52.4
   07/17/2018 23:00      72.2      71.1       68     60.5      0.00      0.00      87.3     0.33      1016.1     1.6      NE    53   3.9      NE    44   8.83    266      -52.4
   07/17/2018 22:50      72.3      71.8       67     60.5      0.00      0.00      87.3     0.33      1016.0     1.9      NE    43   4.4     NNE    15   8.83    266      -52.5
   07/17/2018 22:40      72.6      72.0       67     60.5      0.00      0.00      87.3     0.33      1015.7     1.6      NE    52   3.5     ENE    56   8.83    266      -54.5
   07/17/2018 22:30      72.8      72.1       66     60.3      0.00      0.00      87.3     0.33      1015.6     0.9     ENE    62   2.6      NE    53   8.84    266      -56.8
   07/17/2018 22:20      73.5      72.4       65     60.4      0.00      0.00      87.3     0.33      1015.6     1.5       E    91   3.5     ENE    60   8.84    266      -58.3
   07/17/2018 22:10      74.2      73.2       63     60.3      0.00      0.00      87.3     0.33      1015.3     1.5     ENE    72   3.3     ENE    58   8.84    266      -60.2
   07/17/2018 22:00      74.5      74.0       62     60.4      0.00      0.00      87.3     0.33      1015.3     1.0     ENE    57   2.8     NNE    31   8.84    266      -61.7
   07/17/2018 21:50      74.5      74.0       62     60.5      0.00      0.00      87.3     0.33      1015.1     1.4      NE    37   2.5      NE    38   8.84    266      -62.4
   07/17/2018 21:40      74.6      74.2       62     60.5      0.00      0.00      87.2     0.33      1014.9     1.3      NE    46   3.7      NE    50   8.85    265      -62.8
   07/17/2018 21:30      75.1      74.3       61     60.5      0.00      0.00      87.3     0.33      1014.8     1.3      NE    51   2.8      NE    56   8.85    265      -63.8
   07/17/2018 21:20      75.7      74.9       60     60.6      0.00      0.00      87.2     0.33      1014.6     1.6     ENE    66   3.1       E    92   8.85    265      -64.0
   07/17/2018 21:10      76.2      75.3       59     60.5      0.00      0.00      87.2     0.33      1014.3     1.2       E    98   3.1     ESE   111   8.85    265      -64.7
   07/17/2018 21:00      76.6      75.8       58     60.5      0.00      0.00      87.2     0.33      1014.0     1.4       E    85   2.9     ENE    71   8.85    265      -66.2
   07/17/2018 20:50      77.3      76.3       58     60.5      0.00      0.00      87.1     0.33      1013.8     1.0       E    82   2.3       E    90   8.86    265      -67.4
   07/17/2018 20:40      78.0      76.9       56     60.7      0.00      0.00      87.2     0.33      1013.9     1.2       E    92   3.3     ESE   113   8.86    265      -68.7
   07/17/2018 20:30      79.3      77.7       55     60.8      0.00      0.00      87.0     0.33      1013.9     1.4       E    80   3.3      SE   126   8.86    264      -69.9
   07/17/2018 20:20      80.1      79.0       53     60.9      0.00      0.00      87.1     0.33      1013.7     2.0      NE    52   4.5     NNE    29   8.87    264      -70.9
   07/17/2018 20:10      81.7      79.7       51     60.8      0.00      0.00      87.1     0.33      1013.7     2.3      NE    54   4.0      NE    45   8.87    264      -70.0
   07/17/2018 20:00      83.9      81.2       48     60.9      0.00      0.00      87.1     0.33      1013.7     2.0      NE    47   3.7      NE    47   8.87    264      -67.5
   07/17/2018 19:50      84.4      83.5       45     60.1      0.00      0.00      87.0     0.33      1013.6     2.0     WSW   257   4.1      SW   235   8.88    264      -61.5
   07/17/2018 19:40      85.2      84.0       44     60.1      0.00      0.00      87.0     0.33      1013.5     3.2     WSW   241   5.5      SW   232   8.88    264      -49.6
   07/17/2018 19:30      86.0      84.8       43     60.3      0.00      0.00      87.0     0.33      1013.3     3.8     WSW   240   6.4      SW   228   8.89    263      -38.6
   07/17/2018 19:20      86.9      85.5       42     60.3      0.00      0.00      87.0     0.33      1013.2     3.9      SW   236   8.5     SSW   213   8.89    263      -23.1
   07/17/2018 19:10      87.7      86.7       41     60.5      0.00      0.00      86.9     0.33      1013.2     4.2       W   259   7.3     WSW   255   8.90    263       -5.5
   07/17/2018 19:00      88.4      87.4       40     60.5      0.00      0.00      86.8     0.33      1013.1     4.5       W   266   7.6     WNW   282   8.90    263       14.0
   07/17/2018 18:50      89.4      88.2       39     61.0      0.00      0.00      86.8     0.33      1012.9     3.7       W   259  13.6     NNW   338   8.91    263       34.3
   07/17/2018 18:40      90.3      89.0       39     61.1      0.00      0.00      86.8     0.33      1012.9     3.9       W   267   9.0       W   260   8.91    263       56.7
   07/17/2018 18:30      91.4      90.1       37     61.1      0.00      0.00      86.8     0.33      1012.9     3.4     WNW   292   6.9     WNW   301   8.92    263       76.0
   07/17/2018 18:20      92.8      91.1       36     61.2      0.00      0.00      86.7     0.33      1012.7     2.9     WNW   296   5.9       W   261   8.92    263       97.5
   07/17/2018 18:10      93.1      92.5       35     61.2      0.00      0.00      86.7     0.33      1012.7     2.1      NW   315   6.1      NW   321   8.93    263      120.2
   07/17/2018 18:00      93.1      92.2       35     61.1      0.00      0.00      86.5     0.33      1012.6     1.8     NNW   332   3.6      SW   234   8.93    263      144.4
   07/17/2018 17:50      93.6      92.4       35     61.3      0.00      0.00      86.6     0.33      1012.7     2.6     WNW   291   8.2     SSW   202   8.94    263      169.7
   07/17/2018 17:40      94.3      93.3       34     61.5      0.00      0.00      86.5     0.33      1012.7     2.9     WNW   293   7.8     WSW   240   8.94    263      191.9
   07/17/2018 17:30      94.4      93.0       35     61.6      0.00      0.00      86.4     0.33      1012.7     2.8       W   271   7.0     WNW   296   8.95    263      216.2
   07/17/2018 17:20      95.7      93.8       33     61.2      0.00      0.00      86.4     0.33      1012.7     3.1       W   268   6.7       W   263   8.95    263      236.0
   07/17/2018 17:10      95.6      94.4       33     61.1      0.00      0.00      86.4     0.33      1012.8     1.6       N    11   4.2     NNW   339   8.96    263      256.2
   07/17/2018 17:00      94.7      93.3       34     61.0      0.00      0.00      86.4     0.33      1012.7     2.1     ENE    61   6.0      NE    43   8.96    263      279.7
   07/17/2018 16:50      95.4      93.3       33     60.6      0.00      0.00      86.3     0.33      1012.7     3.4     ENE    72   6.3      NE    52   8.96    263      304.4
   07/17/2018 16:40      95.6      94.7       32     60.3      0.00      0.00      86.2     0.33      1012.7     3.0      NE    44   5.5       N     0   8.97    263      323.0
   07/17/2018 16:30      95.1      94.0       32     60.5      0.00      0.00      86.2     0.33      1012.8     2.6      NE    47   5.5     NNE    33   8.97    263      346.6
   07/17/2018 16:20      95.3      94.0       32     60.8      0.00      0.00      86.1     0.33      1012.8     3.5      NE    43   6.5     ENE    60   8.97    263      340.7
   07/17/2018 16:10      95.4      94.3       32     60.4      0.00      0.00      86.1     0.33      1012.9     2.6      NE    50   6.1     NNE    25   8.98    263      380.8
   07/17/2018 16:00      96.7      95.1       31     60.5      0.00      0.00      86.0     0.33      1013.0     2.3     NNW   343   5.5       N     2   8.98    263      398.4
   07/17/2018 15:50      95.6      94.5       32     60.5      0.00      0.00      85.9     0.33      1013.1     1.6     NNE    30   4.0     ENE    64   8.98    263      419.5
   07/17/2018 15:40      95.1      93.9       33     61.1      0.00      0.00      85.9     0.33      1013.2     2.1     NNE    24   4.7     NNE    19   8.99    263      434.3
   07/17/2018 15:30      95.3      94.0       33     61.3      0.00      0.00      85.8     0.32      1013.3     3.1     NNE    20   7.6       N   354   8.99    263      449.0
   07/17/2018 15:20      95.3      93.8       34     61.3      0.00      0.00      85.7     0.33      1013.5     1.9     NNE    12   5.3       N     0   8.99    263      463.6
   07/17/2018 15:10      94.0      92.1       36     61.4      0.00      0.00      85.7     0.32      1013.7     1.5      NE    54   4.0       E    93   9.00    263      483.7
   07/17/2018 15:00      92.9      91.3       37     62.1      0.00      0.00      85.6     0.32      1013.8     2.5      NE    51   5.4       N     2   9.00    263      494.8
   07/17/2018 14:50      92.9      91.5       37     62.3      0.00      0.00      85.6     0.32      1013.8     3.6      NE    43   6.5      NE    41   9.00    263      508.2
   07/17/2018 14:40      92.0      90.7       38     62.2      0.00      0.00      85.5     0.32      1013.9     2.2       E   100   6.0       E    91   9.00    263      523.4
   07/17/2018 14:30      91.3      90.5       39     62.2      0.00      0.00      85.4     0.32      1014.1     3.6     ENE    56   6.3       E    84   9.01    263      530.7
   07/17/2018 14:20      91.1      90.1       39     62.3      0.00      0.00      85.4     0.32      1014.2     3.3     ENE    57   6.3      NE    42   9.01    263      541.8
   07/17/2018 14:10      91.2      89.6       39     62.3      0.00      0.00      85.4     0.32      1014.3     3.5       E    83   7.7       E    87   9.01    263      551.2
   07/17/2018 14:00      91.3      90.1       39     62.3      0.00      0.00      85.4     0.32      1014.3     4.1      NE    51   8.8      NE    52   9.02    263      554.6
   07/17/2018 13:50      91.5      89.9       39     62.1      0.00      0.00      85.3     0.32      1014.3     2.8     ENE    60   6.5     ENE    71   9.02    263      563.3
   07/17/2018 13:40      90.9      89.8       38     61.8      0.00      0.00      85.2     0.32      1014.3     3.2     NNE    32   7.7     ENE    74   9.02    263      565.6
   07/17/2018 13:30      90.5      89.4       39     61.6      0.00      0.00      85.3     0.32      1014.3     3.4      NE    36   6.3      NE    52   9.02    263      570.9
   07/17/2018 13:20      90.5      88.9       39     61.2      0.00      0.00      85.2     0.32      1014.4     2.8       E   100   5.9      SE   125   9.02    263      576.6
   07/17/2018 13:10      90.3      89.1       38     60.6      0.00      0.00      85.2     0.32      1014.5     2.4      NE    54   4.8     NNE    23   9.03    263      576.5
   07/17/2018 13:00      89.6      88.3       39     60.5      0.00      0.00      85.2     0.32      1014.7     2.0     ENE    74   6.0       E   100   9.03    263      577.9
   07/17/2018 12:50      88.7      87.4       39     59.8      0.00      0.00      85.0     0.32      1014.8     2.3     NNE    30   5.6      NE    51   9.03    263      578.5
   07/17/2018 12:40      88.6      87.9       38     59.8      0.00      0.00      85.1     0.32      1014.8     2.0     NNE    32   4.3       N     0   9.03    263      577.2
   07/17/2018 12:30      88.1      87.0       41     60.7      0.00      0.00      85.1     0.32      1014.9     1.9     NNE    13   4.4      NW   318   9.03    263      572.9
   07/17/2018 12:20      88.0      85.3       43     61.4      0.00      0.00      85.1     0.32      1015.0     1.8      NE    48   4.6      NE    53   9.03    263      572.9
   07/17/2018 12:10      85.5      83.9       45     61.0      0.00      0.00      85.1     0.32      1015.1     1.9     WSW   250   3.0       W   279   9.03    263      569.6
   07/17/2018 12:00      85.4      83.6       45     61.2      0.00      0.00      85.1     0.32      1015.2     1.5       N   353   3.5      NE    52   9.03    263      564.9
   07/17/2018 11:50      84.9      83.3       47     61.4      0.00      0.00      85.1     0.32      1015.3     2.1     ENE    64   5.1     NNE    20   9.04    264      558.5
   07/17/2018 11:40      84.8      82.2       48     61.6      0.00      0.00      85.1     0.32      1015.5     1.5     NNE    19   3.9     NNE    17   9.04    263      552.0
   07/17/2018 11:30      82.5      81.4       50     61.5      0.00      0.00      85.1     0.32      1015.6     1.8      SE   133   4.2     WSW   258   9.04    264      544.6
   07/17/2018 11:20      82.7      81.4       50     61.5      0.00      0.00      85.1     0.32      1015.7     2.5     NNE    27   5.1       S   188   9.04    264      535.1
   07/17/2018 11:10      81.7      80.3       52     61.5      0.00      0.00      85.2     0.32      1015.7     2.2       E    83   4.1      SE   133   9.04    264      527.2
   07/17/2018 11:00      81.2      80.0       52     61.5      0.00      0.00      85.2     0.32      1015.7     2.3       N     5   5.0      SE   141   9.04    264      514.1
   07/17/2018 10:50      81.1      79.0       54     61.6      0.00      0.00      85.2     0.32      1015.7     1.2     NNE    20   3.1       N    11   9.04    264      504.2
   07/17/2018 10:40      79.5      78.1       56     62.1      0.00      0.00      85.3     0.32      1015.7     2.1       N    11   4.5       N     3   9.04    264      490.2
   07/17/2018 10:30      78.4      77.6       58     62.1      0.00      0.00      85.3     0.32      1015.8     2.5       N    11   5.9       N     0   9.04    264      477.6
   07/17/2018 10:20      78.1      76.9       60     62.3      0.00      0.00      85.3     0.32      1015.8     2.1     NNE    23   4.9     NNW   334   9.04    264      463.9
   07/17/2018 10:10      77.4      75.9       61     62.2      0.00      0.00      85.4     0.32      1016.0     2.1      NE    52   5.0     ENE    59   9.04    264      442.1
   07/17/2018 10:00      76.3      74.8       63     62.1      0.00      0.00      85.4     0.33      1016.0     2.7     NNE    23   5.1      NE    36   9.04    265      433.4
   07/17/2018 09:50      75.2      74.2       65     62.1      0.00      0.00      85.4     0.33      1016.0     2.9      NE    38   5.5      NE    53   9.04    265      413.6
   07/17/2018 09:40      74.9      73.9       65     62.0      0.00      0.00      85.5     0.33      1016.1     2.7      NE    37   4.7      NE    55   9.04    266      395.2
   07/17/2018 09:30      74.7      73.9       66     62.1      0.00      0.00      85.6     0.33      1016.2     2.6      NE    38   4.9      NE    47   9.04    266      374.2
   07/17/2018 09:20      74.1      73.4       67     61.9      0.00      0.00      85.5     0.33      1016.2     2.3      NE    54   6.1      NE    47   9.04    266      354.2
   07/17/2018 09:10      73.9      72.4       68     62.0      0.00      0.00      85.6     0.33      1016.2     2.0      NE    55   5.0      NE    50   9.04    266      338.1
   07/17/2018 09:00      72.5      71.3       71     61.7      0.00      0.00      85.6     0.33      1016.2     2.3     ENE    58   5.1       E    89   9.04    266      330.4
   07/17/2018 08:50      71.6      71.2       72     61.7      0.00      0.00      85.7     0.33      1016.2     2.3     ENE    76   4.2       E    95   9.04    267      281.5
   07/17/2018 08:40      71.5      70.8       72     61.6      0.00      0.00      85.7     0.33      1016.1     1.7     ENE    57   4.2     NNE    30   9.04    267       44.8
   07/17/2018 08:30      71.2      70.3       73     61.5      0.00      0.00      85.7     0.33      1016.1     1.7     ENE    73   4.1      NE    35   9.04    267       18.8
   07/17/2018 08:20      70.6      69.8       74     61.4      0.00      0.00      85.7     0.33      1016.1     1.9     NNE    22   4.0      NE    52   9.05    267       15.4
   07/17/2018 08:10      70.0      69.5       74     61.2      0.00      0.00      85.8     0.33      1015.9     2.0     NNE    18   3.9     NNW   346   9.05    267       17.0
   07/17/2018 08:00      69.7      69.0       75     61.0      0.00      0.00      85.8     0.33      1016.0     1.9     NNE    22   3.2       E    90   9.05    267       29.3
   07/17/2018 07:50      69.5      69.0       75     60.8      0.00      0.00      85.8     0.33      1015.9     1.8     NNE    30   3.9      NE    56   9.05    268       14.2
   07/17/2018 07:40      69.3      68.7       75     60.8      0.00      0.00      85.9     0.33      1015.9     1.8     NNE    28   3.5     NNE    30   9.05    268        3.6
   07/17/2018 07:30      68.9      68.4       76     60.9      0.00      0.00      85.9     0.33      1015.9     0.9     NNE    23   3.1      NE    55   9.05    268       -3.6
   07/17/2018 07:20      68.6      67.9       77     60.9      0.00      0.00      85.9     0.33      1015.8     1.1      NE    44   3.0      NE    40   9.05    268       -3.4
   07/17/2018 07:10      68.1      67.1       80     61.0      0.00      0.00      86.1     0.33      1015.7     0.7      NE    47   1.9      NE    48   9.05    268      -10.9
   07/17/2018 07:00      67.4      66.8       81     61.0      0.00      0.00      86.0     0.33      1015.7     0.8       E    86   2.3      SE   132   9.05    268      -16.8
   07/17/2018 06:50      67.1      66.5       82     61.0      0.00      0.00      86.1     0.33      1015.7     0.5       E    84   2.7      SE   134   9.05    268      -22.3
   07/17/2018 06:40      66.8      66.2       82     61.0      0.00      0.00      86.1     0.33      1015.6     0.8     ENE    71   2.6     ESE   118   9.05    268      -27.9
   07/17/2018 06:30      66.5      66.0       83     60.9      0.00      0.00      86.1     0.33      1015.4     0.4     ESE   115   1.8     ESE   102   9.05    268      -34.3
   07/17/2018 06:20      66.5      66.0       83     60.9      0.00      0.00      86.2     0.33      1015.4     0.4      SE   127   1.3     SSE   147   9.05    268      -39.0
   07/17/2018 06:10      66.4      66.1       83     60.9      0.00      0.00      86.2     0.33      1015.2     0.8      NE    45   1.8      NE    49   9.05    267      -44.5
   07/17/2018 06:00      66.6      66.0       83     60.9      0.00      0.00      86.2     0.33      1015.2     0.4     ENE    75   1.9      NE    50   9.05    266      -48.4
   07/17/2018 05:50      66.5      66.1       83     61.0      0.00      0.00      86.3     0.33      1015.1     0.9      NE    49   2.6     ENE    58   9.05    266      -50.3
   07/17/2018 05:40      66.5      66.1       83     60.9      0.00      0.00      86.3     0.33      1015.0     0.5     ENE    78   2.7     ESE   104   9.05    266      -51.0
   07/17/2018 05:30      66.5      66.2       82     60.9      0.00      0.00      86.3     0.33      1014.9     0.3     ENE    70   1.5       E    82   9.05    267      -51.2
   07/17/2018 05:20      66.8      66.3       82     60.9      0.00      0.00      86.4     0.33      1014.9     0.7     ENE    67   2.2      SE   134   9.05    267      -51.7
   07/17/2018 05:10      67.0      66.5       82     60.9      0.00      0.00      86.4     0.33      1014.9     1.4      NE    52   3.2     ENE    60   9.05    267      -51.9
   07/17/2018 05:00      67.0      66.7       81     60.9      0.00      0.00      86.4     0.33      1014.7     1.1      NE    49   3.0      NE    48   9.05    267      -52.2
   07/17/2018 04:50      67.1      66.7       81     60.8      0.00      0.00      86.5     0.33      1014.7     0.7      NE    51   2.1     ENE    60   9.05    268      -52.5
   07/17/2018 04:40      67.4      66.8       81     60.8      0.00      0.00      86.5     0.33      1014.8     0.9     ENE    71   1.9       E    95   9.05    268      -52.6
   07/17/2018 04:30      67.6      67.0       80     61.0      0.00      0.00      86.6     0.33      1014.8     0.9       E    86   3.7      SE   128   9.05    268      -52.9
   07/17/2018 04:20      67.8      67.3       80     61.0      0.00      0.00      86.6     0.33      1014.7     0.7       E    81   1.9       E    93   9.05    268      -53.1
   07/17/2018 04:10      68.0      67.5       79     61.1      0.00      0.00      86.6     0.33      1014.6     0.7       E    87   1.6      SE   133   9.05    268      -53.3
   07/17/2018 04:00      68.1      67.6       79     61.1      0.00      0.00      86.7     0.33      1014.8     0.7     ENE    62   1.6      NE    39   9.05    268      -53.1
   07/17/2018 03:50      68.4      67.8       79     61.2      0.00      0.00      86.7     0.33      1014.7     0.7     ENE    77   1.8      NE    52   9.05    268      -53.3
   07/17/2018 03:40      68.4      68.0       78     61.1      0.00      0.00      86.7     0.33      1014.6     0.2      NE    52   1.5      NE    52   9.05    268      -53.4
   07/17/2018 03:30      68.5      68.0       78     61.1      0.00      0.00      86.8     0.33      1014.7     0.5     ENE    60   2.1      NE    49   9.06    268      -53.7
   07/17/2018 03:20      68.5      68.1       78     61.0      0.00      0.00      86.8     0.33      1014.6     0.3     ENE    73   1.8     ENE    58   9.06    268      -54.0
   07/17/2018 03:10      68.6      68.1       78     61.0      0.00      0.00      86.8     0.33      1014.7     0.9       E    92   2.6      NE    39   9.06    268      -53.9
   07/17/2018 03:00      68.9      68.4       77     61.0      0.00      0.00      86.8     0.33      1014.7     0.4     ESE   111   1.6     SSE   155   9.06    268      -54.2
   07/17/2018 02:50      69.0      68.5       76     61.0      0.00      0.00      86.8     0.33      1014.7     0.1     ENE    69   1.1     ENE    59   9.06    267      -54.2
   07/17/2018 02:40      69.1      68.6       76     61.0      0.00      0.00      86.9     0.33      1014.8     1.1       E    89   3.2     ESE   113   9.06    267      -53.9
   07/17/2018 02:30      69.5      68.9       75     60.9      0.00      0.00      86.9     0.33      1014.9     0.8     ENE    71   2.8      NE    48   9.06    267      -54.3
   07/17/2018 02:20      69.5      69.0       74     60.8      0.00      0.00      86.9     0.33      1014.9     0.5     ENE    57   1.8      NE    44   9.06    267      -54.9
   07/17/2018 02:10      69.5      69.0       74     60.4      0.00      0.00      87.0     0.33      1015.0     0.4       E    79   2.3       E    96   9.06    267      -54.8
   07/17/2018 02:00      69.5      69.1       73     60.1      0.00      0.00      86.9     0.33      1015.1     0.3       E   100   1.7     ENE    63   9.07    267      -55.2
   07/17/2018 01:50      69.5      69.0       72     59.8      0.00      0.00      87.0     0.33      1015.1     0.4     ESE   104   1.9       E    82   9.07    267      -54.8
   07/17/2018 01:40      69.4      68.8       71     59.1      0.00      0.00      87.0     0.33      1015.1     0.3     ENE    65   1.5     ENE    65   9.07    266      -54.6
   07/17/2018 01:30      69.3      68.9       70     59.0      0.00      0.00      87.1     0.33      1015.1     0.0     SSE   149   0.7     SSE   149   9.07    266      -53.9
   07/17/2018 01:20      69.3      69.0       70     58.9      0.00      0.00      87.1     0.33      1015.1     0.0       N     0   0.0     SSE   149   9.07    266      -54.5
   07/17/2018 01:10      69.3      69.0       70     59.0      0.00      0.00      87.1     0.33      1015.1     0.0       N     0   0.0     SSE   149   9.07    266      -55.8
   07/17/2018 01:00      69.6      69.0       70     58.9      0.00      0.00      87.1     0.33      1015.3     0.0     SSE   149   0.3     SSE   149   9.07    266      -57.0
   07/17/2018 00:50      70.0      69.3       69     59.1      0.00      0.00      87.1     0.33      1015.3     0.0     SSE   149   0.8     SSE   149   9.07    266      -57.7
   07/17/2018 00:40      70.1      69.6       70     59.3      0.00      0.00      87.2     0.33      1015.3     0.0       N     0   0.0     ENE    67   9.07    266      -58.1
   07/17/2018 00:30      70.1      69.7       70     59.5      0.00      0.00      87.2     0.33      1015.4     0.3       E    97   1.3      SE   138   9.08    266      -58.3
   07/17/2018 00:20      70.3      69.7       70     59.6      0.00      0.00      87.2     0.33      1015.5     0.7      SE   127   1.4     ESE   120   9.08    266      -58.7
   07/17/2018 00:10      70.3      69.8       70     59.6      0.00      0.00      87.2     0.33      1015.5     0.4     ESE   104   1.3       E    91   9.08    266      -59.0
   07/17/2018 00:00      70.4      69.9       69     59.5      0.00      0.00      87.2     0.33      1015.4     0.6      SE   141   1.4      SE   141   9.08    266      -60.1
   07/16/2018 23:50      70.7      70.1       69     59.7      0.00      0.00      87.2     0.33      1015.4     0.4      SE   136   1.1      SE   141   9.08    266      -60.5
   07/16/2018 23:40      70.8      70.4       69     59.8      0.00      0.00      87.2     0.33      1015.5     0.5     ENE    71   2.0     ENE    58   9.08    266      -60.4
   07/16/2018 23:30      70.7      70.3       69     59.9      0.00      0.00      87.2     0.33      1015.5     0.4     ENE    63   1.4      NE    48   9.08    266      -60.3
   07/16/2018 23:20      70.9      70.3       69     59.9      0.00      0.00      87.3     0.33      1015.5     0.6       E    97   2.0     ESE   110   9.08    266      -60.5
   07/16/2018 23:10      71.1      70.6       68     59.8      0.00      0.00      87.3     0.33      1015.5     0.8       E    83   2.1     ENE    75   9.09    266      -61.2
   07/16/2018 23:00      71.4      70.7       68     59.8      0.00      0.00      87.3     0.33      1015.4     0.9     ENE    60   1.9       E    80   9.09    266      -61.5
   07/16/2018 22:50      72.3      71.0       67     59.9      0.00      0.00      87.3     0.33      1015.3     1.4       E    79   3.5       E   100   9.09    266      -62.0
   07/16/2018 22:40      72.5      71.8       65     59.9      0.00      0.00      87.3     0.33      1015.4     1.8     ENE    58   3.3      NE    50   9.09    266      -62.5
   07/16/2018 22:30      73.3      72.1       64     59.8      0.00      0.00      87.3     0.33      1015.3     1.8     ENE    65   3.2     ENE    61   9.10    266      -62.8
   07/16/2018 22:20      74.2      73.0       62     59.7      0.00      0.00      87.3     0.33      1015.2     1.6     ENE    65   3.1      NE    40   9.10    266      -64.0
   07/16/2018 22:10      74.8      73.9       60     59.6      0.00      0.00      87.3     0.33      1015.2     1.5     ENE    56   3.1     ENE    65   9.10    265      -65.1
   07/16/2018 22:00      75.5      74.6       59     59.4      0.00      0.00      87.3     0.33      1015.1     1.4     ENE    64   3.2      NE    51   9.10    265      -65.5
   07/16/2018 21:50      77.0      75.2       54     58.3      0.00      0.00      87.3     0.33      1015.0     1.7       E    90   4.1       E    92   9.11    264      -66.4
   07/16/2018 21:40      77.1      76.7       50     56.6      0.00      0.00      87.2     0.33      1014.8     0.2       S   191   1.3      SW   227   9.11    264      -67.5
   07/16/2018 21:30      77.6      76.7       50     56.8      0.00      0.00      87.3     0.33      1014.7     1.5     SSW   204   4.4     SSW   195   9.11    264      -68.0
   07/16/2018 21:20      78.1      77.1       49     57.0      0.00      0.00      87.3     0.33      1014.5     1.3     SSW   202   3.0      SW   223   9.11    264      -68.7
   07/16/2018 21:10      78.2      77.7       49     57.4      0.00      0.00      87.3     0.33      1014.4     2.1      SW   228   5.1     WSW   250   9.11    264      -69.0
   07/16/2018 21:00      78.8      77.9       49     57.6      0.00      0.00      87.2     0.33      1014.3     2.8      SW   231   4.7     WSW   239   9.12    264      -69.6
   07/16/2018 20:50      79.1      78.4       49     57.9      0.00      0.00      87.2     0.33      1014.2     3.1     WSW   236   5.6     WSW   247   9.12    264      -70.4
   07/16/2018 20:40      79.7      78.8       48     57.8      0.00      0.00      87.2     0.33      1014.0     3.8      SW   235   6.1      SW   231   9.12    264      -71.4
   07/16/2018 20:30      80.4      79.3       48     58.2      0.00      0.00      87.1     0.33      1013.8     3.9      SW   215   6.6     SSW   205   9.13    264      -72.5
   07/16/2018 20:20      81.7      80.3       46     58.2      0.00      0.00      87.1     0.33      1013.7     4.0      SW   228   6.4      SW   215   9.13    264      -73.3
   07/16/2018 20:10      83.0      81.3       44     58.0      0.00      0.00      87.1     0.33      1013.5     3.9     WSW   237   5.7       W   265   9.14    263      -72.6
   07/16/2018 20:00      84.0      82.4       42     58.0      0.00      0.00      87.1     0.33      1013.4     3.5      SW   233   6.6     WSW   238   9.14    263      -70.9
   07/16/2018 19:50      85.4      83.6       41     58.3      0.00      0.00      87.0     0.33      1013.3     3.0      SW   231   5.2      SW   219   9.15    263      -67.6
   07/16/2018 19:40      86.4      85.1       39     58.1      0.00      0.00      87.0     0.33      1013.1     2.5       W   265   5.0     WSW   252   9.15    263      -55.4
   07/16/2018 19:30      87.9      86.1       38     57.9      0.00      0.00      86.9     0.33      1012.9     3.0     WNW   295   6.2      NW   318   9.16    263      -44.4
   07/16/2018 19:20      88.4      87.6       37     58.6      0.00      0.00      86.9     0.33      1012.8     2.4       W   265   5.2     SSW   213   9.16    263      -28.0
   07/16/2018 19:10      88.8      87.5       37     58.6      0.00      0.00      86.9     0.33      1012.7     3.2     WSW   250   9.3      SW   224   9.17    263      -11.1
   07/16/2018 19:00      89.9      88.5       36     58.5      0.00      0.00      86.9     0.33      1012.5     3.9     WNW   300   6.9     WSW   255   9.17    263        9.6
   07/16/2018 18:50      90.5      89.6       35     58.7      0.00      0.00      86.8     0.33      1012.4     3.1     WNW   290   6.4      NW   307   9.18    263       32.3
   07/16/2018 18:40      91.8      90.3       34     58.7      0.00      0.00      86.8     0.33      1012.3     3.4       W   280   6.6       W   264   9.18    263       53.9
   07/16/2018 18:30      92.7      91.6       33     58.8      0.00      0.00      86.7     0.33      1012.2     3.6       W   264   7.4     WSW   247   9.19    263       75.0
   07/16/2018 18:20      94.3      92.2       32     59.2      0.00      0.00      86.7     0.33      1012.1     3.9     WNW   295   6.6       W   279   9.19    263       97.4
   07/16/2018 18:10      94.2      93.3       32     59.5      0.00      0.00      86.7     0.33      1012.1     2.8     WNW   300   5.6      NW   306   9.20    263      121.0
   07/16/2018 18:00      94.1      93.0       32     59.5      0.00      0.00      86.6     0.33      1012.1     3.3       W   261   6.5       W   280   9.20    263      146.5
   07/16/2018 17:50      94.3      92.8       32     59.6      0.00      0.00      86.6     0.33      1012.1     4.3      SW   236   7.0     WSW   240   9.21    263      171.3
   07/16/2018 17:40      95.1      94.1       32     60.1      0.00      0.00      86.5     0.33      1012.2     2.6     WSW   244   7.3     WSW   237   9.21    263      192.4
   07/16/2018 17:30      95.3      94.2       32     60.6      0.00      0.00      86.5     0.33      1012.2     3.4     WSW   242   8.8     WSW   251   9.22    263      216.9
   07/16/2018 17:20      95.4      94.7       32     60.6      0.00      0.00      86.4     0.33      1012.3     2.4     NNW   335   5.8      NW   315   9.22    263      238.2
   07/16/2018 17:10      95.5      94.4       32     60.8      0.00      0.00      86.4     0.33      1012.3     2.8      SW   233   6.0      SW   226   9.23    263      262.8
   07/16/2018 17:00      96.7      95.0       32     61.3      0.00      0.00      86.3     0.33      1012.4     2.6       W   269   7.0      SW   233   9.23    263      281.7
   07/16/2018 16:50      96.8      95.8       31     60.7      0.00      0.00      86.3     0.33      1012.5     1.6       N   355   5.2      NW   318   9.23    263      299.9
   07/16/2018 16:40      96.6      95.4       28     57.4      0.00      0.00      86.2     0.33      1012.6     2.8     NNW   328   6.0     WNW   302   9.24    262      321.2
   07/16/2018 16:30      96.6      95.1       29     58.1      0.00      0.00      86.2     0.33      1012.6     3.7       N     2   6.6      NE    38   9.24    263      344.7
   07/16/2018 16:20      96.9      95.3       32     61.8      0.00      0.00      86.1     0.33      1012.6     4.5      NW   325   9.3     NNW   332   9.25    263      366.2
   07/16/2018 16:10      97.6      96.2       29     59.0      0.00      0.00      86.1     0.33      1012.6     3.4     WNW   292   7.2       W   276   9.25    263      381.3
   07/16/2018 16:00      96.8      95.8       28     57.8      0.00      0.00      86.0     0.33      1012.6     2.3     ENE    78   6.9     ENE    78   9.25    262      392.0
   07/16/2018 15:50      97.0      95.7       27     56.6      0.00      0.00      85.9     0.33      1012.6     3.1     ENE    79   6.3       E    80   9.26    263      417.9
   07/16/2018 15:40      98.3      96.3       25     56.2      0.00      0.00      85.9     0.33      1012.8     2.8     ENE    68   7.2       E    94   9.26    262      432.0
   07/16/2018 15:30      98.1      96.8       26     56.5      0.00      0.00      85.7     0.33      1012.9     2.7      NE    37   7.0       N    10   9.27    263      446.4
   07/16/2018 15:20      97.1      94.7       28     57.1      0.00      0.00      85.7     0.33      1013.0     1.7     ENE    64   4.6     NNE    23   9.28    263      464.5
   07/16/2018 15:10      95.8      94.1       28     56.5      0.00      0.00      85.7     0.33      1013.1     1.9     ESE   104   4.6     ESE   110   9.29    263      483.3
   07/16/2018 15:00      97.1      93.6       27     55.8      0.00      0.00      85.7     0.33      1013.2     3.2     ESE   121   7.4      SE   132   9.29    263      496.4
   07/16/2018 14:50      97.0      94.3       28     56.9      0.00      0.00      85.6     0.32      1013.3     1.8      NE    44   4.0     NNE    18   9.29    263      510.8
   07/16/2018 14:40      94.9      94.1       29     57.4      0.00      0.00      85.5     0.32      1013.4     2.5     NNW   342   6.6      NW   310   9.30    263      517.3
   07/16/2018 14:30      94.3      93.5       30     57.3      0.00      0.00      85.5     0.32      1013.5     1.8      NW   310   3.5      NW   324   9.30    263      525.9
   07/16/2018 14:20      94.3      93.5       29     57.3      0.00      0.00      85.3     0.32      1013.7     2.6       N     2   5.6     NNE    33   9.30    263      547.5
   07/16/2018 14:10      93.5      91.9       31     57.2      0.00      0.00      85.4     0.32      1013.8     2.6     ESE   111   6.6      NE    55   9.31    263      570.3
   07/16/2018 14:00      93.0      91.7       31     57.4      0.00      0.00      85.4     0.32      1014.0     3.1     ENE    61   5.7       E    90   9.31    263      554.7
   07/16/2018 13:50      93.3      91.8       32     58.1      0.00      0.00      85.3     0.32      1014.2     2.8      NE    51   6.9      NE    38   9.31    263      576.8
   07/16/2018 13:40      93.4      91.6       32     58.2      0.00      0.00      85.3     0.32      1014.3     2.3     ENE    73   5.4     ENE    76   9.31    263      584.1
   07/16/2018 13:30      93.9      91.9       32     58.7      0.00      0.00      85.3     0.32      1014.4     2.2     ENE    74   5.0       E    87   9.32    263      580.1
   07/16/2018 13:20      92.3      90.1       33     58.5      0.00      0.00      85.2     0.32      1014.5     2.5     NNE    33   6.1     ENE    78   9.32    263      568.6
   07/16/2018 13:10      91.0      89.5       34     58.0      0.00      0.00      85.2     0.32      1014.6     2.7     ENE    61   5.8      NE    42   9.32    263      575.4
   07/16/2018 13:00      90.2      88.1       35     57.5      0.00      0.00      85.2     0.32      1014.7     2.8       E    82   5.3     ENE    69   9.32    263      557.0
   07/16/2018 12:50      89.8      88.7       34     57.3      0.00      0.00      85.2     0.32      1014.8     2.7      NE    43   6.3       E    93   9.32    263      565.8
   07/16/2018 12:40      89.4      87.7       35     57.5      0.00      0.00      85.1     0.32      1014.9     3.0      NE    42   5.0      NE    38   9.33    263      578.3
   07/16/2018 12:30      88.6      87.4       36     57.9      0.00      0.00      85.1     0.32      1015.0     3.7      NE    35   8.3      NE    47   9.33    263      567.1
   07/16/2018 12:20      88.3      87.1       38     58.7      0.00      0.00      85.1     0.32      1015.1     3.3      NE    53   5.5     ENE    58   9.33    263      549.4
   07/16/2018 12:10      88.7      88.1       37     58.7      0.00      0.00      85.1     0.32      1015.1     3.0     NNE    26   6.4      NE    41   9.33    263      530.7
   07/16/2018 12:00      88.7      86.8       38     58.8      0.00      0.00      85.0     0.32      1015.1     2.5     NNE    25   5.3       N   349   9.33    263      546.3
   07/16/2018 11:50      87.7      86.8       38     58.7      0.00      0.00      85.1     0.32      1015.2     3.2     NNE    33   6.0     NNE    14   9.33    263      556.1
   07/16/2018 11:40      87.3      86.4       39     59.0      0.00      0.00      85.1     0.32      1015.2     3.0     NNE    33   8.1       N   351   9.33    263      507.5
   07/16/2018 11:30      87.1      85.9       40     59.2      0.00      0.00      85.2     0.32      1015.3     2.0     ENE    75   5.4       E    99   9.33    263      522.5
   07/16/2018 11:20      86.1      84.8       41     59.3      0.00      0.00      85.2     0.32      1015.3     2.4     NNE    33   6.8      NE    44   9.33    263      504.9
   07/16/2018 11:10      85.7      84.2       42     59.6      0.00      0.00      85.2     0.32      1015.4     2.8      NE    48   7.0      NE    37   9.33    264      498.4
   07/16/2018 11:00      85.8      84.4       44     60.6      0.00      0.00      85.1     0.32      1015.4     2.1      NE    50   5.8     ESE   113   9.33    263      528.3
   07/16/2018 10:50      85.2      83.5       45     60.6      0.00      0.00      85.2     0.32      1015.4     1.7     NNE    32   5.4      NE    55   9.33    263      510.7
   07/16/2018 10:40      83.7      82.4       47     60.5      0.00      0.00      85.3     0.33      1015.4     1.7      NE    45   4.5     NNE    33   9.33    263      483.4
   07/16/2018 10:30      82.6      81.2       48     60.0      0.00      0.00      85.3     0.33      1015.4     2.4     NNE    32   4.7       N     2   9.33    264      464.4
   07/16/2018 10:20      81.3      80.8       48     59.6      0.00      0.00      85.3     0.33      1015.5     2.6     NNE    16   5.9     NNW   347   9.33    264      463.1
   07/16/2018 10:10      81.3      80.4       49     60.1      0.00      0.00      85.4     0.33      1015.6     2.4      NE    38   5.1     ENE    58   9.33    264      450.0
   07/16/2018 10:00      80.8      79.4       52     61.1      0.00      0.00      85.4     0.33      1015.6     2.0      NE    35   4.6      NE    35   9.33    264      432.7
   07/16/2018 09:50      79.6      78.4       56     61.7      0.00      0.00      85.5     0.33      1015.7     2.0     ENE    73   6.5     ENE    60   9.33    264      414.2
   07/16/2018 09:40      79.1      77.8       57     62.2      0.00      0.00      85.5     0.33      1015.8     1.9      NE    55   5.1     NNE    15   9.34    264      397.6
   07/16/2018 09:30      78.0      76.9       59     62.1      0.00      0.00      85.5     0.33      1015.9     1.9       N     0   4.1       N   355   9.34    265      380.2
   07/16/2018 09:20      77.1      76.0       61     62.3      0.00      0.00      85.5     0.33      1016.0     2.0     ENE    69   5.7       N     7   9.34    266      359.2
   07/16/2018 09:10      76.2      74.8       64     62.4      0.00      0.00      85.6     0.33      1016.0     2.5      NE    35   4.8     NNE    21   9.34    266      336.5
   07/16/2018 09:00      74.9      73.8       67     62.4      0.00      0.00      85.6     0.33      1016.0     2.5     NNE    27   5.3     NNW   345   9.34    266      331.6
   07/16/2018 08:50      74.1      73.2       68     62.4      0.00      0.00      85.7     0.33      1016.0     1.4     ENE    61   3.7     ENE    61   9.34    267      281.6
   07/16/2018 08:40      73.4      72.1       70     62.3      0.00      0.00      85.7     0.33      1016.0     2.0      NE    39   4.8       N     8   9.34    267       42.6
   07/16/2018 08:30      72.7      72.0       71     62.2      0.00      0.00      85.7     0.33      1016.0     1.9       N     8   4.3     NNE    21   9.33    267       13.1
   07/16/2018 08:20      72.2      71.2       72     62.1      0.00      0.00      85.8     0.33      1015.9     1.7     NNE    19   4.1     NNW   347   9.33    267        9.7
   07/16/2018 08:10      71.6      71.0       72     62.0      0.00      0.00      85.8     0.33      1015.9     1.5      NE    38   3.5       N     3   9.33    267        8.0
   07/16/2018 08:00      71.2      70.6       73     61.9      0.00      0.00      85.8     0.33      1015.9     1.1     ESE   107   2.7      SE   137   9.33    267       23.3
   07/16/2018 07:50      70.9      70.0       74     61.9      0.00      0.00      85.9     0.33      1015.8     1.3     ENE    65   2.8     ESE   104   9.33    268       11.9
   07/16/2018 07:40      70.3      69.7       75     61.8      0.00      0.00      86.0     0.33      1015.7     1.2     NNE    31   2.8     NNE    30   9.33    268       -4.1
   07/16/2018 07:30      70.0      69.1       77     61.8      0.00      0.00      86.0     0.33      1015.6     0.5      NE    52   1.9      NE    51   9.33    268      -10.7
   07/16/2018 07:20      69.3      68.5       78     61.8      0.00      0.00      86.0     0.33      1015.6     0.8     ENE    71   2.1     ENE    76   9.33    268      -10.1
   07/16/2018 07:10      68.7      68.1       79     61.7      0.00      0.00      86.0     0.33      1015.6     0.6     ENE    79   1.6      SE   132   9.33    268      -17.6
   07/16/2018 07:00      68.2      67.5       81     61.7      0.00      0.00      86.0     0.33      1015.5     0.2       E    82   1.6       E    83   9.34    268      -23.9
   07/16/2018 06:50      67.8      66.9       81     61.4      0.00      0.00      86.1     0.33      1015.5     0.1     ENE    69   0.7     ENE    70   9.34    268      -29.6
   07/16/2018 06:40      67.1      66.5       82     61.1      0.00      0.00      86.2     0.33      1015.5     0.0       N     0   0.0     ENE    72   9.34    268      -34.6
   07/16/2018 06:30      66.8      66.3       83     61.2      0.00      0.00      86.2     0.33      1015.5     0.0     ENE    72   0.7     ENE    72   9.34    268      -38.2
   07/16/2018 06:20      66.5      66.0       84     61.2      0.00      0.00      86.2     0.33      1015.4     0.2     SSE   162   1.2       S   175   9.34    268      -40.0
   07/16/2018 06:10      66.4      66.0       84     61.1      0.00      0.00      86.2     0.33      1015.3     0.0       S   175   0.8       S   175   9.34    267      -44.2
   07/16/2018 06:00      66.6      66.0       83     60.9      0.00      0.00      86.3     0.33      1015.1     0.6       S   175   1.5       S   175   9.34    267      -48.6
   07/16/2018 05:50      67.0      66.3       82     61.0      0.00      0.00      86.3     0.33      1015.0     0.8       S   191   1.3     SSW   199   9.34    267      -50.3
   07/16/2018 05:40      67.0      66.4       83     61.2      0.00      0.00      86.3     0.33      1014.9     0.6       W   270   1.5       W   268   9.34    267      -50.8
   07/16/2018 05:30      67.0      66.6       82     61.2      0.00      0.00      86.4     0.33      1014.8     0.0       N     0   0.0       E    82   9.34    267      -52.0
   07/16/2018 05:20      67.4      66.7       82     61.3      0.00      0.00      86.4     0.33      1014.8     0.1     ENE    72   1.2       E    91   9.34    267      -52.8
   07/16/2018 05:10      67.5      67.0       81     61.3      0.00      0.00      86.5     0.33      1014.8     0.5     ENE    65   1.7     ENE    64   9.34    267      -53.1
   07/16/2018 05:00      67.8      67.3       81     61.3      0.00      0.00      86.5     0.33      1014.8     0.3     ENE    61   1.2     NNE    24   9.34    267      -53.7
   07/16/2018 04:50      67.9      67.5       81     61.4      0.00      0.00      86.5     0.33      1014.8     1.1      NE    43   2.0     NNE    32   9.34    268      -53.7
   07/16/2018 04:40      68.0      67.6       80     61.4      0.00      0.00      86.6     0.33      1014.9     1.1     ENE    59   2.6      NE    37   9.34    268      -53.5
   07/16/2018 04:30      68.0      67.6       80     61.2      0.00      0.00      86.6     0.33      1014.8     0.6      NE    53   1.6      NE    47   9.34    268      -53.5
   07/16/2018 04:20      68.1      67.6       80     61.2      0.00      0.00      86.6     0.33      1014.8     0.8     ENE    64   2.2      NE    51   9.34    268      -53.7
   07/16/2018 04:10      68.0      67.6       79     61.1      0.00      0.00      86.7     0.33      1014.7     0.5     ENE    75   2.2     ENE    72   9.34    268      -53.6
   07/16/2018 04:00      68.1      67.6       79     61.2      0.00      0.00      86.7     0.33      1014.6     0.8     ENE    78   2.5       E    92   9.34    268      -53.6
   07/16/2018 03:50      68.0      67.6       79     61.1      0.00      0.00      86.7     0.33      1014.5     0.8       E    96   2.1     ENE    71   9.34    268      -53.8
   07/16/2018 03:40      68.1      67.6       79     61.1      0.00      0.00      86.7     0.33      1014.5     0.5       E    98   1.6     ENE    57   9.35    268      -54.0
   07/16/2018 03:30      68.2      67.7       79     61.1      0.00      0.00      86.8     0.33      1014.4     0.6       E    87   1.9       E    80   9.35    268      -54.5
   07/16/2018 03:20      68.0      67.6       79     60.9      0.00      0.00      86.8     0.33      1014.4     0.6     ESE   102   2.3     ENE    71   9.35    268      -55.1
   07/16/2018 03:10      68.5      67.7       78     60.7      0.00      0.00      86.8     0.33      1014.4     0.4     ESE   119   1.6     ESE   120   9.35    267      -55.2
   07/16/2018 03:00      68.7      68.1       77     60.7      0.00      0.00      86.9     0.33      1014.4     0.0       N     0   0.0     NNE    21   9.35    268      -55.7
   07/16/2018 02:50      69.0      68.3       76     60.8      0.00      0.00      86.9     0.33      1014.5     0.0       N     0   0.0     NNE    21   9.35    268      -56.1
   07/16/2018 02:40      69.1      68.7       76     61.2      0.00      0.00      86.9     0.33      1014.5     0.2      NE    37   1.1       N   352   9.35    267      -56.7
   07/16/2018 02:30      69.3      68.7       77     61.3      0.00      0.00      87.0     0.33      1014.6     0.4      NE    49   1.3     NNE    18   9.35    267      -57.0
   07/16/2018 02:20      69.2      68.7       76     61.2      0.00      0.00      87.0     0.33      1014.8     0.6      NE    50   2.1      NE    52   9.35    267      -57.1
   07/16/2018 02:10      69.5      68.8       76     61.2      0.00      0.00      87.0     0.33      1014.8     0.3       E    94   1.9       E    87   9.35    267      -57.7
   07/16/2018 02:00      69.6      69.0       76     61.2      0.00      0.00      87.1     0.33      1015.0     1.0      NE    56   2.4     NNE    32   9.35    267      -58.0
   07/16/2018 01:50      70.1      69.3       75     61.3      0.00      0.00      87.0     0.33      1015.1     1.8      NE    51   3.7      NE    51   9.35    267      -58.1
   07/16/2018 01:40      70.2      69.7       74     61.3      0.00      0.00      87.1     0.33      1015.2     1.4      NE    47   3.0      NE    38   9.36    267      -58.6
   07/16/2018 01:30      70.6      69.8       74     61.3      0.00      0.00      87.1     0.33      1015.3     1.6     ENE    71   3.5     ENE    67   9.36    266      -58.4
   07/16/2018 01:20      70.8      70.1       73     61.3      0.00      0.00      87.1     0.33      1015.4     2.4     ENE    61   4.3      NE    54   9.36    266      -58.7
   07/16/2018 01:10      71.1      70.5       72     61.3      0.00      0.00      87.1     0.33      1015.4     2.0      NE    50   4.1     NNE    28   9.36    266      -58.9
   07/16/2018 01:00      71.5      70.8       71     61.4      0.00      0.00      87.2     0.33      1015.4     2.0     ENE    60   3.7      NE    44   9.36    266      -58.9
   07/16/2018 00:50      72.0      71.2       70     61.4      0.00      0.00      87.2     0.33      1015.4     2.0      NE    53   3.7     ENE    58   9.36    266      -59.3
   07/16/2018 00:40      72.3      71.7       69     61.5      0.00      0.00      87.1     0.33      1015.4     2.2      NE    51   4.3      NE    41   9.36    266      -59.7
   07/16/2018 00:30      72.5      72.0       69     61.4      0.00      0.00      87.2     0.33      1015.4     1.6     ENE    59   3.4      NE    45   9.36    266      -60.0
   07/16/2018 00:20      72.8      72.2       68     61.3      0.00      0.00      87.2     0.33      1015.3     1.5      NE    56   2.6     ENE    70   9.37    266      -60.8
   07/16/2018 00:10      73.0      72.4       67     61.3      0.00      0.00      87.3     0.33      1015.3     1.8      NE    53   3.5      NE    45   9.37    266      -62.5
   07/16/2018 00:00      73.1      72.6       67     61.2      0.00      0.00      87.3     0.33      1015.3     1.3      NE    55   2.9     ENE    71   9.37    266      -64.5
   07/15/2018 23:50      73.4      72.8       67     61.2      0.00      0.00      87.3     0.33      1015.2     1.1     ENE    59   2.4      NE    54   9.37    266      -66.1
   07/15/2018 23:40      73.6      73.0       66     61.3      0.00      0.00      87.4     0.33      1015.0     1.9      NE    45   4.0      NE    38   9.37    266      -66.6
   07/15/2018 23:30      73.9      73.3       65     61.0      0.00      0.00      87.3     0.33      1015.0     1.9      NE    50   3.5      NE    49   9.37    266      -66.5
   07/15/2018 23:20      74.2      73.5       64     61.0      0.00      0.00      87.3     0.33      1015.0     1.9      NE    41   3.8     ENE    62   9.37    266      -66.8
   07/15/2018 23:10      74.4      73.7       64     60.9      0.00      0.00      87.4     0.33      1015.0     1.8      NE    40   4.3      NE    39   9.38    266      -67.1
   07/15/2018 23:00      74.7      74.2       63     60.8      0.00      0.00      87.4     0.33      1015.0     1.9      NE    46   3.2     ENE    61   9.38    266      -67.2
   07/15/2018 22:50      75.0      74.4       61     60.6      0.00      0.00      87.4     0.33      1015.1     1.7     ENE    58   3.7      NE    54   9.38    266      -67.2
   07/15/2018 22:40      75.3      74.8       59     59.8      0.00      0.00      87.4     0.33      1015.1     1.0     ENE    59   2.5      NE    36   9.38    265      -67.1
   07/15/2018 22:30      75.2      75.0       59     59.7      0.00      0.00      87.4     0.33      1015.0     1.2     ENE    58   2.9     ENE    60   9.38    265      -67.1
   07/15/2018 22:20      75.5      74.9       59     59.8      0.00      0.00      87.4     0.33      1015.0     0.6     ENE    68   1.7      NE    52   9.38    265      -67.6
   07/15/2018 22:10      75.8      75.2       58     59.6      0.00      0.00      87.3     0.33      1015.0     1.5     ENE    64   3.7       E    94   9.39    265      -68.4
   07/15/2018 22:00      76.2      75.6       56     58.8      0.00      0.00      87.3     0.33      1014.9     1.2      NE    53   2.9      NE    55   9.39    265      -69.2
   07/15/2018 21:50      76.3      75.8       54     58.1      0.00      0.00      87.4     0.33      1014.7     1.0     ENE    60   2.8      NE    44   9.39    265      -69.6
   07/15/2018 21:40      76.7      76.1       53     58.1      0.00      0.00      87.4     0.33      1014.6     0.6     ENE    73   2.4     ENE    70   9.39    264      -70.5
   07/15/2018 21:30      76.5      76.1       54     58.5      0.00      0.00      87.3     0.33      1014.4     1.3      NE    52   3.0      NE    49   9.39    264      -71.5
   07/15/2018 21:20      77.0      76.3       55     59.1      0.00      0.00      87.3     0.33      1014.2     1.8      NE    52   3.8     ENE    64   9.39    264      -71.7
   07/15/2018 21:10      77.5      76.8       53     58.9      0.00      0.00      87.3     0.33      1014.0     2.2      NE    45   3.6     ENE    66   9.40    264      -72.3
   07/15/2018 21:00      77.8      77.2       52     58.2      0.00      0.00      87.2     0.33      1013.9     2.0      NE    44   3.7      NE    45   9.40    264      -73.0
   07/15/2018 20:50      79.0      77.6       49     57.6      0.00      0.00      87.3     0.33      1013.8     2.6      NE    44   4.3      NE    48   9.40    264      -74.2
   07/15/2018 20:40      80.0      78.7       46     56.9      0.00      0.00      87.3     0.33      1013.7     2.2      NE    38   3.7     NNE    28   9.41    263      -75.2
   07/15/2018 20:30      81.4      79.7       43     55.8      0.00      0.00      87.3     0.33      1013.6     2.7      NE    44   4.3     ENE    63   9.41    263      -76.0
   07/15/2018 20:20      81.4      80.9       39     53.5      0.00      0.00      87.2     0.33      1013.5     1.0      SE   133   3.2     ENE    57   9.41    263      -75.9
   07/15/2018 20:10      82.3      81.2       38     53.4      0.00      0.00      87.2     0.33      1013.3     2.5     SSE   162   4.6      SE   144   9.42    263      -73.6
   07/15/2018 20:00      82.9      82.0       36     53.1      0.00      0.00      87.2     0.33      1013.2     2.4      SE   146   5.2     SSE   159   9.42    263      -69.9
   07/15/2018 19:50      84.5      82.6       36     53.6      0.00      0.00      87.1     0.33      1013.1     3.8     SSE   161   6.7      SE   137   9.43    263      -63.7
   07/15/2018 19:40      85.8      84.2       36     55.2      0.00      0.00      87.1     0.33      1013.0     3.7     SSE   162   6.7       S   190   9.43    263      -50.8
   07/15/2018 19:30      86.6      85.4       37     56.6      0.00      0.00      87.1     0.33      1012.8     3.8       S   180   6.7       S   179   9.44    263      -40.2
   07/15/2018 19:20      88.0      86.2       37     57.7      0.00      0.00      87.1     0.33      1012.7     4.2       S   184   6.6       S   180   9.44    263      -23.9
   07/15/2018 19:10      89.6      87.7       36     58.1      0.00      0.00      87.0     0.33      1012.5     4.0     SSW   204   6.6     SSW   211   9.45    263       -6.5
   07/15/2018 19:00      90.6      89.4       36     60.0      0.00      0.00      87.0     0.33      1012.4     2.5      SW   226   5.8     SSW   200   9.46    263       13.1
   07/15/2018 18:50      91.3      90.3       37     61.3      0.00      0.00      86.9     0.33      1012.3     2.9     WNW   287   5.6     WNW   287   9.46    263       34.9
   07/15/2018 18:40      91.9      90.8       37     61.4      0.00      0.00      86.9     0.33      1012.1     3.0      NW   318   6.2      NW   314   9.46    263       56.5
   07/15/2018 18:30      92.8      91.3       36     61.6      0.00      0.00      86.8     0.33      1011.9     2.7       N   352   5.3     NNW   348   9.47    263       78.3
   07/15/2018 18:20      93.5      92.7       35     61.7      0.00      0.00      86.8     0.33      1011.9     2.7     WNW   300   6.2     WSW   245   9.47    263      101.3
   07/15/2018 18:10      93.5      92.7       35     61.8      0.00      0.00      86.8     0.33      1011.8     2.6      NW   319   5.2       N   353   9.48    263      124.0
   07/15/2018 18:00      93.7      92.9       35     61.7      0.00      0.00      86.7     0.33      1011.8     2.7      NW   320   6.9     NNW   337   9.48    263      149.3
   07/15/2018 17:50      94.0      92.7       35     61.6      0.00      0.00      86.6     0.33      1011.8     3.6      NW   305   7.7       W   269   9.48    263      175.6
   07/15/2018 17:40      94.5      93.7       34     61.4      0.00      0.00      86.6     0.33      1011.8     3.8       W   281   7.4      NW   313   9.49    263      199.1
   07/15/2018 17:30      94.5      93.5       33     60.9      0.00      0.00      86.6     0.33      1011.7     3.7     WSW   247   6.9     WNW   293   9.49    263      224.5
   07/15/2018 17:20      94.8      93.8       34     61.4      0.00      0.00      86.5     0.33      1011.7     5.1     WSW   256   8.6       W   267   9.50    263      247.9
   07/15/2018 17:10      95.2      94.3       32     60.1      0.00      0.00      86.5     0.33      1011.7     4.2     WSW   246   7.9     WSW   252   9.51    263      269.1
   07/15/2018 17:00      95.2      94.3       29     57.6      0.00      0.00      86.4     0.33      1011.8     3.8     SSW   200   7.1       S   187   9.51    263      291.3
   07/15/2018 16:50      95.0      94.2       29     57.4      0.00      0.00      86.4     0.33      1011.8     4.5       S   170   9.0       S   188   9.52    262      315.2
   07/15/2018 16:40      95.2      94.0       29     57.1      0.00      0.00      86.3     0.33      1011.8     4.8       S   180   9.5       S   187   9.52    263      336.8
   07/15/2018 16:30      95.6      94.6       28     57.2      0.00      0.00      86.2     0.33      1011.9     5.2       S   182   9.3      SW   218   9.53    262      357.4
   07/15/2018 16:20      95.9      94.6       29     57.6      0.00      0.00      86.2     0.33      1011.9     4.8       S   179   8.0      SE   134   9.54    263      376.2
   07/15/2018 16:10      96.7      94.7       28     57.6      0.00      0.00      86.1     0.33      1011.9     5.0       S   169   9.2       S   184   9.54    263      393.9
   07/15/2018 16:00      99.1      96.2       27     57.9      0.00      0.00      86.1     0.33      1011.9     5.1     SSE   164   8.8       S   169   9.55    263      410.8
   07/15/2018 15:50      99.6      98.5       25     57.5      0.00      0.00      85.9     0.33      1012.0     3.5      NE    50   7.3      SE   135   9.56    262      419.8
   07/15/2018 15:40      99.0      97.3       26     57.3      0.00      0.00      85.8     0.33      1012.2     1.8      NE    39   5.1     ENE    69   9.56    263      435.8
   07/15/2018 15:30      98.1      96.1       28     58.0      0.00      0.00      85.8     0.33      1012.4     2.4     SSE   152   5.3       S   174   9.56    263      454.5
   07/15/2018 15:20      98.1      97.1       28     59.0      0.00      0.00      85.8     0.33      1012.4     1.7       S   176   5.0     SSW   207   9.57    262      468.5
   07/15/2018 15:10      97.6      95.1       29     59.0      0.00      0.00      85.7     0.33      1012.6     1.9     NNE    14   4.7       E    91   9.57    263      483.3
   07/15/2018 15:00      97.0      94.2       30     59.4      0.00      0.00      85.5     0.33      1012.7     2.0     ENE    56   5.1      SE   134   9.58    263      495.4
   07/15/2018 14:50      94.9      93.4       31     59.2      0.00      0.00      85.6     0.33      1012.8     3.0     SSE   159   6.5      SE   136   9.58    263      513.1
   07/15/2018 14:40      95.4      93.8       31     59.6      0.00      0.00      85.6     0.33      1013.1     2.5      SE   124   5.0      NE    47   9.58    263      522.3
   07/15/2018 14:30      95.5      93.8       31     59.1      0.00      0.00      85.5     0.32      1013.2     3.1       E    79   8.5      SE   145   9.59    263      532.0
   07/15/2018 14:20      94.4      93.4       31     58.7      0.00      0.00      85.5     0.32      1013.3     3.9     ENE    75   9.7       E   100   9.59    263      544.0
   07/15/2018 14:10      93.5      92.7       31     58.3      0.00      0.00      85.4     0.32      1013.5     4.4      NE    45   8.1     NNE    28   9.60    263      548.9
   07/15/2018 14:00      93.2      92.3       32     58.5      0.00      0.00      85.3     0.32      1013.7     4.5      NE    48   7.2      NE    43   9.60    263      557.7
   07/15/2018 13:50      93.2      92.0       32     58.7      0.00      0.00      85.2     0.32      1013.7     4.7      NE    42   8.1       E    83   9.60    263      563.5
   07/15/2018 13:40      93.8      92.3       32     58.8      0.00      0.00      85.3     0.32      1013.8     3.6      NE    39   7.1      NE    40   9.60    263      568.3
   07/15/2018 13:30      93.7      92.5       32     58.7      0.00      0.00      85.3     0.32      1013.9     3.5     ENE    59   6.8     NNE    31   9.61    262      573.8
   07/15/2018 13:20      93.1      91.3       32     58.5      0.00      0.00      85.1     0.32      1014.0     3.2      NE    47   6.9     NNE    32   9.61    263      578.0
   07/15/2018 13:10      92.6      92.0       33     58.8      0.00      0.00      85.2     0.32      1014.0     3.5      NE    49   6.6     NNE    26   9.61    263      578.8
   07/15/2018 13:00      92.6      91.9       36     61.1      0.00      0.00      85.1     0.32      1014.1     3.5     NNE    33   7.9      NE    55   9.61    263      580.1
   07/15/2018 12:50      92.0      90.6       37     61.5      0.00      0.00      85.0     0.32      1014.3     2.6     ENE    70   6.1     ENE    65   9.61    263      583.0
   07/15/2018 12:40      91.9      90.9       36     60.6      0.00      0.00      85.1     0.32      1014.3     2.4      NE    56   5.7      NE    52   9.61    263      579.4
   07/15/2018 12:30      91.3      90.2       36     60.0      0.00      0.00      85.2     0.32      1014.4     3.2      NE    49   5.7     NNE    31   9.62    263      575.7
   07/15/2018 12:20      91.6      90.6       35     59.4      0.00      0.00      85.0     0.32      1014.4     2.9      NE    36   7.5      NE    46   9.62    263      571.1
   07/15/2018 12:10      91.3      89.7       35     59.0      0.00      0.00      85.1     0.32      1014.5     2.2      NE    50   5.0     NNE    22   9.62    263      568.3
   07/15/2018 12:00      89.8      88.8       35     58.5      0.00      0.00      85.0     0.32      1014.6     3.1      NE    42   6.0      NE    44   9.62    263      560.1
   07/15/2018 11:50      89.1      88.1       36     58.1      0.00      0.00      85.0     0.32      1014.6     3.0     NNE    34   6.3      NE    36   9.62    263      556.5
   07/15/2018 11:40      89.0      87.9       37     58.7      0.00      0.00      85.1     0.32      1014.7     2.9      NE    39   5.5      NE    34   9.62    263      550.5
   07/15/2018 11:30      88.1      86.6       38     58.6      0.00      0.00      85.1     0.32      1014.7     3.3     NNE    21   6.6     NNW   337   9.62    263      542.8
   07/15/2018 11:20      88.0      86.7       39     59.2      0.00      0.00      85.1     0.32      1014.7     2.8     NNE    33   6.3     NNE    18   9.63    263      534.1
   07/15/2018 11:10      86.8      85.5       39     58.6      0.00      0.00      85.1     0.32      1014.8     3.0     NNE    26   6.2      NE    48   9.63    263      525.6
   07/15/2018 11:00      85.8      84.5       41     59.2      0.00      0.00      85.2     0.33      1014.8     3.2      NE    47   6.4      NE    47   9.63    263      516.2
   07/15/2018 10:50      85.3      84.1       43     59.7      0.00      0.00      85.2     0.33      1014.8     3.6      NE    38   7.1     ENE    60   9.63    263      504.1
   07/15/2018 10:40      84.7      83.4       44     59.7      0.00      0.00      85.3     0.33      1014.8     3.2      NE    41   5.7     ENE    59   9.63    263      492.0
   07/15/2018 10:30      83.7      83.0       44     59.5      0.00      0.00      85.2     0.33      1014.7     3.1      NE    44   6.1      NE    52   9.63    263      478.1
   07/15/2018 10:20      83.7      82.2       47     60.2      0.00      0.00      85.3     0.33      1014.7     2.6      NE    51   5.1       E    82   9.63    263      461.9
   07/15/2018 10:10      82.2      80.9       49     60.7      0.00      0.00      85.4     0.33      1014.7     3.1     NNE    33   5.1      NE    55   9.63    263      445.7
   07/15/2018 10:00      81.7      80.8       50     60.6      0.00      0.00      85.4     0.33      1014.8     3.0      NE    35   6.7      NE    48   9.63    263      428.8
   07/15/2018 09:50      81.6      80.5       50     60.8      0.00      0.00      85.4     0.33      1014.8     2.5      NE    37   6.1       N     2   9.63    263      411.2
   07/15/2018 09:40      81.0      79.9       50     60.4      0.00      0.00      85.4     0.33      1014.9     2.1      NE    44   5.3     ENE    75   9.63    264      393.5
   07/15/2018 09:30      80.1      79.5       51     60.1      0.00      0.00      85.5     0.33      1015.0     2.1      NE    50   4.6     NNE    26   9.63    264      375.6
   07/15/2018 09:20      79.7      78.5       52     60.3      0.00      0.00      85.5     0.33      1015.1     1.9      NE    47   4.3     NNE    34   9.63    264      359.4
   07/15/2018 09:10      78.7      77.7       54     60.2      0.00      0.00      85.5     0.33      1015.1     2.0     NNE    20   5.3       N     7   9.63    264      346.8
   07/15/2018 09:00      77.8      76.0       56     60.0      0.00      0.00      85.6     0.33      1015.1     1.9     NNE    17   3.9      NE    41   9.63    265      343.3
   07/15/2018 08:50      76.1      75.2       58     59.7      0.00      0.00      85.6     0.33      1015.1     2.0       N     4   4.4       N   354   9.63    266      241.8
   07/15/2018 08:40      75.5      74.7       59     59.7      0.00      0.00      85.7     0.33      1015.1     1.6      NE    37   4.1      NE    54   9.63    266       15.3
   07/15/2018 08:30      75.0      73.8       61     59.8      0.00      0.00      85.7     0.33      1015.1     1.0      SE   128   2.8       E    83   9.63    266      -12.2
   07/15/2018 08:20      74.1      73.4       61     59.6      0.00      0.00      85.8     0.33      1015.1     1.6       E    96   3.5       E    93   9.63    266      -13.6
   07/15/2018 08:10      73.8      73.1       62     59.6      0.00      0.00      85.8     0.33      1015.1     1.3     NNE    24   3.4       N     6   9.63    266       -8.8
   07/15/2018 08:00      73.3      72.5       63     59.7      0.00      0.00      85.8     0.33      1015.1     1.2       E    83   3.3     ESE   122   9.63    266       17.9
   07/15/2018 07:50      72.7      71.7       64     59.5      0.00      0.00      85.8     0.33      1015.0     1.2      NE    45   3.1      NE    51   9.63    266       -3.6
   07/15/2018 07:40      71.9      71.3       65     59.4      0.00      0.00      85.9     0.33      1014.9     0.9      SE   133   2.4       E    84   9.63    266      -16.2
   07/15/2018 07:30      71.6      71.1       67     59.7      0.00      0.00      86.0     0.33      1014.9     1.6      SE   133   3.0     SSE   146   9.63    266      -17.3
   07/15/2018 07:20      71.3      70.6       67     59.5      0.00      0.00      86.0     0.33      1014.9     0.6     ESE   117   2.0     ESE   115   9.63    266      -17.1
   07/15/2018 07:10      70.8      70.3       68     59.4      0.00      0.00      86.0     0.33      1014.9     1.6       E    99   4.0     ESE   103   9.63    266      -20.0
   07/15/2018 07:00      70.5      69.6       69     59.5      0.00      0.00      86.1     0.33      1014.8     0.8       E    80   2.1     ENE    57   9.63    266      -25.7
   07/15/2018 06:50      69.8      68.8       71     59.4      0.00      0.00      86.1     0.33      1014.7     0.7       E    87   2.3     ENE    67   9.63    266      -28.9
   07/15/2018 06:40      68.9      68.1       72     59.3      0.00      0.00      86.1     0.33      1014.6     0.4      SE   130   1.5      SE   142   9.63    267      -33.8
   07/15/2018 06:30      68.3      67.6       73     59.1      0.00      0.00      86.2     0.33      1014.6     0.1     ESE   124   0.9     ESE   123   9.63    266      -38.0
   07/15/2018 06:20      67.9      67.1       74     58.8      0.00      0.00      86.2     0.33      1014.7     0.1      SE   144   0.7      SE   144   9.63    266      -38.3
   07/15/2018 06:10      67.4      67.0       74     58.6      0.00      0.00      86.3     0.33      1014.6     0.0      SE   144   0.9      SE   144   9.63    267      -43.5
   07/15/2018 06:00      67.4      67.0       75     58.9      0.00      0.00      86.3     0.33      1014.6     0.0      SE   144   0.5      SE   144   9.64    267      -46.8
   07/15/2018 05:50      67.4      67.0       74     58.8      0.00      0.00      86.3     0.33      1014.6     0.1      SE   144   1.3      SE   137   9.64    267      -49.7
   07/15/2018 05:40      67.4      67.0       74     58.7      0.00      0.00      86.4     0.33      1014.6     0.1     ESE   115   0.8     ESE   114   9.64    267      -50.8
   07/15/2018 05:30      67.6      67.0       74     58.7      0.00      0.00      86.4     0.33      1014.5     0.0       N     0   0.0     ESE   114   9.64    267      -51.3
   07/15/2018 05:20      67.6      67.2       73     58.6      0.00      0.00      86.4     0.33      1014.5     0.0       N     0   0.0     ESE   114   9.64    267      -50.9
   07/15/2018 05:10      68.2      67.3       72     58.5      0.00      0.00      86.5     0.33      1014.5     0.0     ESE   114   0.6     ESE   114   9.64    267      -51.9
   07/15/2018 05:00      68.4      67.9       72     58.7      0.00      0.00      86.5     0.33      1014.3     0.0       N     0   0.0     ESE   114   9.64    267      -51.8
   07/15/2018 04:50      68.8      67.9       71     58.4      0.00      0.00      86.5     0.33      1014.2     0.0       N     0   0.0     ESE   114   9.64    266      -52.0
   07/15/2018 04:40      69.3      68.3       69     58.3      0.00      0.00      86.6     0.33      1014.3     0.0     ESE   114   0.6     ESE   114   9.64    266      -52.6
   07/15/2018 04:30      69.3      69.0       69     58.6      0.00      0.00      86.6     0.33      1014.3     0.5       E   101   1.5       E    80   9.64    266      -53.3
   07/15/2018 04:20      69.2      68.6       70     58.6      0.00      0.00      86.6     0.33      1014.5     0.8     ESE   104   2.0       E    88   9.64    266      -53.5
   07/15/2018 04:10      68.9      68.2       71     58.5      0.00      0.00      86.7     0.33      1014.4     0.9      SE   133   1.7      SE   139   9.64    266      -53.1
   07/15/2018 04:00      69.0      68.4       70     58.5      0.00      0.00      86.7     0.33      1014.4     0.0      SE   134   0.1      SE   134   9.64    266      -53.3
   07/15/2018 03:50      69.2      68.6       70     58.7      0.00      0.00      86.7     0.33      1014.4     0.0       N     0   0.0      SE   134   9.64    266      -53.7
   07/15/2018 03:40      69.3      68.8       70     58.7      0.00      0.00      86.8     0.33      1014.5     0.3      SE   132   1.3      SE   134   9.65    266      -54.2
   07/15/2018 03:30      69.5      68.8       70     58.7      0.00      0.00      86.8     0.33      1014.5     0.1     ESE   114   1.0     ESE   114   9.65    266      -53.8
   07/15/2018 03:20      69.7      69.1       69     58.8      0.00      0.00      86.8     0.33      1014.5     0.0       N     0   0.0     ESE   113   9.65    266      -54.4
   07/15/2018 03:10      70.0      69.3       68     58.7      0.00      0.00      86.9     0.33      1014.4     0.0     ESE   113   0.7     ESE   113   9.65    266      -55.5
   07/15/2018 03:00      70.1      69.7       68     58.8      0.00      0.00      86.9     0.33      1014.4     0.0     ESE   121   0.5     ESE   113   9.65    266      -56.4
   07/15/2018 02:50      70.3      69.8       68     59.0      0.00      0.00      86.9     0.33      1014.4     0.4     ESE   105   1.2       E    96   9.65    266      -56.1
   07/15/2018 02:40      70.3      69.7       68     59.0      0.00      0.00      86.9     0.33      1014.5     0.6       E   101   1.9       E    90   9.65    266      -55.9
   07/15/2018 02:30      70.3      69.7       68     58.7      0.00      0.00      87.0     0.33      1014.5     0.0     ESE   124   0.9      SE   145   9.65    266      -55.5
   07/15/2018 02:20      70.8      70.0       68     59.1      0.00      0.00      87.0     0.33      1014.5     0.0       S   183   0.5       S   183   9.65    266      -55.7
   07/15/2018 02:10      71.0      70.4       67     59.2      0.00      0.00      87.0     0.33      1014.6     0.0       N     0   0.0       S   183   9.65    266      -56.5
   07/15/2018 02:00      71.1      70.6       67     59.3      0.00      0.00      87.0     0.33      1014.6     0.3       E    80   1.4       E    90   9.65    266      -56.8
   07/15/2018 01:50      71.3      70.7       67     59.4      0.00      0.00      87.1     0.33      1014.7     0.3       E    95   1.2     ESE   109   9.66    266      -57.1
   07/15/2018 01:40      71.6      70.9       67     59.6      0.00      0.00      87.1     0.33      1014.8     0.5     ENE    76   2.2      NE    40   9.66    266      -57.5
   07/15/2018 01:30      71.5      71.1       67     59.7      0.00      0.00      87.1     0.33      1014.9     1.0      NE    51   2.8     ENE    57   9.66    266      -57.7
   07/15/2018 01:20      71.5      71.1       67     59.7      0.00      0.00      87.1     0.33      1015.0     1.3      NE    54   2.6     ENE    58   9.66    266      -57.7
   07/15/2018 01:10      71.5      71.1       67     59.7      0.00      0.00      87.2     0.33      1014.9     1.4      NE    55   3.2      NE    50   9.66    266      -57.8
   07/15/2018 01:00      71.4      71.0       67     59.7      0.00      0.00      87.2     0.33      1014.8     1.1     ENE    59   2.8       E    99   9.66    266      -58.1
   07/15/2018 00:50      71.5      71.0       67     59.7      0.00      0.00      87.2     0.33      1014.8     0.7       E    89   2.5       E    82   9.66    266      -58.2
   07/15/2018 00:40      71.5      71.2       67     59.6      0.00      0.00      87.3     0.33      1014.8     0.9       E    87   2.9     ENE    79   9.66    266      -58.6
   07/15/2018 00:30      72.0      71.2       66     59.5      0.00      0.00      87.2     0.33      1014.8     1.7     ENE    74   4.2       E    79   9.67    266      -59.2
   07/15/2018 00:20      72.4      71.7       66     59.8      0.00      0.00      87.2     0.33      1014.8     1.9      NE    56   5.1     ENE    58   9.67    266      -60.1
   07/15/2018 00:10      72.5      71.8       66     60.3      0.00      0.00      87.3     0.33      1014.8     1.7      NE    53   3.9      NE    37   9.67    266      -60.7
   07/15/2018 00:00      72.6      72.2       66     60.6      0.00      0.00      87.3     0.33      1014.8     2.3      NE    54   4.1      NE    47   9.67    266      -61.1
   07/14/2018 23:50      72.6      72.2       67     60.7      0.00      0.00      87.3     0.33      1014.8     1.6     ENE    62   4.0      NE    49   9.67    266      -61.3
   07/14/2018 23:40      72.8      72.2       67     60.8      0.00      0.00      87.3     0.33      1014.8     1.2     ENE    68   2.7     ENE    59   9.67    266      -61.5
   07/14/2018 23:30      73.0      72.5       66     60.9      0.00      0.00      87.3     0.33      1014.6     2.1      NE    49   3.5     ENE    57   9.68    266      -62.1
   07/14/2018 23:20      73.6      72.6       66     60.9      0.00      0.00      87.3     0.33      1014.7     2.0     ENE    60   4.0     ENE    59   9.68    266      -62.1
   07/14/2018 23:10      74.1      73.3       64     60.8      0.00      0.00      87.3     0.33      1014.7     2.3     ENE    58   4.7     ENE    60   9.68    266      -62.7
   07/14/2018 23:00      75.1      73.8       62     60.6      0.00      0.00      87.3     0.33      1014.5     2.1       E    85   4.1     ENE    72   9.68    265      -63.4
   07/14/2018 22:50      75.8      74.8       59     59.9      0.00      0.00      87.3     0.33      1014.5     1.3     ENE    76   3.1       E    96   9.68    265      -64.7
   07/14/2018 22:40      76.2      75.4       57     59.3      0.00      0.00      87.3     0.33      1014.5     1.7     ENE    63   3.7     ENE    71   9.69    265      -64.9
   07/14/2018 22:30      77.0      75.8       55     59.1      0.00      0.00      87.3     0.33      1014.4     1.8       E    91   4.0       E    91   9.69    264      -65.4
   07/14/2018 22:20      77.6      76.7       53     58.8      0.00      0.00      87.3     0.33      1014.4     1.1     ESE   103   2.4     ENE    60   9.69    264      -66.0
   07/14/2018 22:10      78.0      77.3       52     58.8      0.00      0.00      87.3     0.33      1014.2     1.0       E    81   2.1      NE    35   9.69    264      -67.0
   07/14/2018 22:00      78.5      77.7       51     58.7      0.00      0.00      87.3     0.33      1014.1     0.7       E    98   2.0     ESE   110   9.70    264      -67.5
   07/14/2018 21:50      79.2      78.1       50     58.3      0.00      0.00      87.3     0.33      1014.1     1.3     ENE    68   3.5      SE   132   9.70    264      -68.7
   07/14/2018 21:40      80.1      78.7       49     58.6      0.00      0.00      87.2     0.33      1014.0     1.5     ENE    67   3.3     ESE   120   9.70    264      -69.7
   07/14/2018 21:30      80.5      79.7       48     58.8      0.00      0.00      87.2     0.33      1013.8     1.6      NE    47   3.5     ENE    64   9.70    264      -70.5
   07/14/2018 21:20      81.2      80.0       48     58.9      0.00      0.00      87.2     0.33      1013.7     1.1       E    98   2.1       E    91   9.71    264      -71.3
   07/14/2018 21:10      81.9      80.8       46     58.6      0.00      0.00      87.2     0.33      1013.4     0.9       E    95   2.8     ENE    57   9.71    263      -72.6
   07/14/2018 21:00      82.8      81.6       45     58.6      0.00      0.00      87.2     0.33      1013.3     1.1     ENE    64   2.6     ENE    59   9.71    263      -73.6
   07/14/2018 20:50      83.6      82.5       44     59.1      0.00      0.00      87.2     0.33      1013.2     1.2     ENE    60   2.7      NE    43   9.72    263      -74.5
   07/14/2018 20:40      84.1      83.4       43     58.9      0.00      0.00      87.2     0.33      1013.2     0.9     ENE    61   2.1      NE    54   9.72    263      -75.6
   07/14/2018 20:30      85.7      83.9       42     59.2      0.00      0.00      87.1     0.33      1013.1     1.3       E    87   3.3     ESE   113   9.72    263      -76.8
   07/14/2018 20:20      86.9      85.5       39     58.4      0.00      0.00      87.1     0.33      1013.1     1.5      NE    39   3.1       E    84   9.73    263      -77.5
   07/14/2018 20:10      87.7      86.7       37     57.5      0.00      0.00      87.0     0.33      1013.0     1.8     NNW   340   3.8      NW   326   9.73    263      -77.0
   07/14/2018 20:00      88.4      87.2       36     57.4      0.00      0.00      87.0     0.33      1012.9     1.6     NNW   331   4.4     NNW   345   9.73    263      -75.3
   07/14/2018 19:50      89.4      88.1       35     57.3      0.00      0.00      87.0     0.33      1012.8     1.9     NNW   334   4.2     WSW   258   9.74    263      -72.2
   07/14/2018 19:40      90.2      89.0       34     57.2      0.00      0.00      87.0     0.33      1012.7     2.1      NW   313   5.3      NW   323   9.74    263      -61.7
   07/14/2018 19:30      92.0      90.1       32     57.1      0.00      0.00      86.9     0.33      1012.6     3.1     WNW   300   5.5      NW   315   9.74    263      -51.1
   07/14/2018 19:20      93.0      91.7       31     57.0      0.00      0.00      86.9     0.33      1012.4     2.1     WNW   301   5.9      NW   316   9.75    262      -34.1
   07/14/2018 19:10      92.9      92.2       28     54.5      0.00      0.00      86.8     0.33      1012.4     3.4     WSW   257   7.1      SW   228   9.75    262      -12.1
   07/14/2018 19:00      94.1      92.6       26     53.7      0.00      0.00      86.8     0.33      1012.2     4.8     WSW   237   7.7     WSW   246   9.76    262        9.8
   07/14/2018 18:50      94.3      93.9       26     54.3      0.00      0.00      86.8     0.33      1012.1     3.9     WSW   253   6.5     WSW   246   9.76    262       31.7
   07/14/2018 18:40      94.2      93.7       27     54.4      0.00      0.00      86.7     0.33      1012.0     4.4      SW   233   7.5      SW   227   9.77    262       54.9
   07/14/2018 18:30      94.4      93.8       26     54.3      0.00      0.00      86.7     0.33      1012.0     5.1     SSW   204   9.0     SSW   203   9.78    262       78.0
   07/14/2018 18:20      95.4      94.0       26     54.7      0.00      0.00      86.6     0.33      1012.0     5.1      SW   226  10.1      SW   220   9.78    262       99.8
   07/14/2018 18:10      95.6      94.9       26     54.8      0.00      0.00      86.6     0.33      1012.1     4.5      SW   225   8.5       W   273   9.79    262      124.0
   07/14/2018 18:00      96.2      95.4       26     54.9      0.00      0.00      86.5     0.33      1012.1     5.8     WSW   258   9.3      SW   226   9.80    262      148.6
   07/14/2018 17:50      96.7      95.5       26     55.6      0.00      0.00      86.5     0.33      1012.2     5.1       W   265   9.2     WSW   244   9.80    262      172.0
   07/14/2018 17:40      96.9      96.1       26     56.1      0.00      0.00      86.4     0.33      1012.2     4.2     WSW   250   8.0       W   273   9.81    262      196.5
   07/14/2018 17:30      97.1      96.1       26     56.5      0.00      0.00      86.4     0.33      1012.1     5.1       W   264   9.8      SW   234   9.82    262      222.7
   07/14/2018 17:20      96.9      96.0       27     56.7      0.00      0.00      86.3     0.33      1012.1     5.8       W   262   9.3       W   260   9.82    262      247.1
   07/14/2018 17:10      98.6      96.2       26     56.4      0.00      0.00      86.2     0.33      1012.1     5.3      SW   235   9.6      SW   223   9.83    262      270.0
   07/14/2018 17:00      98.6      97.2       26     57.3      0.00      0.00      86.2     0.33      1012.2     4.4     WSW   255   9.1       W   261   9.84    262      292.2
   07/14/2018 16:50      97.7      96.2       27     57.3      0.00      0.00      86.1     0.33      1012.2     5.2     WNW   284   8.9     WSW   250   9.84    262      316.1
   07/14/2018 16:40      97.1      96.6       27     57.4      0.00      0.00      86.0     0.33      1012.3     6.0     WSW   254   9.1      NW   308   9.85    262      337.6
   07/14/2018 16:30      98.2      96.7       27     57.8      0.00      0.00      86.0     0.33      1012.3     6.1       W   263   9.6     WSW   256   9.86    262      357.8
   07/14/2018 16:20      98.1      97.2       27     58.3      0.00      0.00      85.9     0.33      1012.3     6.0     WSW   252   9.5     WSW   250   9.87    262      378.0
   07/14/2018 16:10      98.5      97.8       27     58.9      0.00      0.00      85.8     0.33      1012.3     6.1     WSW   250  10.2      SW   215   9.87    262      395.9
   07/14/2018 16:00      99.6      98.3       27     59.0      0.00      0.00      85.8     0.33      1012.3     5.8     WSW   244  12.2     WNW   286   9.88    262      410.4
   07/14/2018 15:50     100.2      99.3       26     58.4      0.00      0.00      85.7     0.33      1012.3     3.8     WSW   246   7.5      SW   226   9.88    262      424.5
   07/14/2018 15:40     100.7      99.4       25     58.3      0.00      0.00      85.6     0.33      1012.3     3.9       W   277   9.2     WNW   302   9.89    262      441.0
   07/14/2018 15:30     100.4      99.0       25     57.7      0.00      0.00      85.5     0.33      1012.5     3.8     NNW   328   8.1       W   274   9.89    262      454.4
   07/14/2018 15:20      99.6      98.0       26     58.0      0.00      0.00      85.5     0.33      1012.5     4.0     WNW   282   7.9      NW   308   9.90    262      472.0
   07/14/2018 15:10      99.1      98.0       27     58.5      0.00      0.00      85.4     0.33      1012.6     5.0      SW   218   8.5      SW   228   9.90    263      488.7
   07/14/2018 15:00      99.7      98.7       27     59.0      0.00      0.00      85.3     0.33      1012.6     4.3     WSW   251   7.5       W   260   9.91    263      497.5
   07/14/2018 14:50      99.7      98.5       27     59.4      0.00      0.00      85.3     0.33      1012.7     2.8     WSW   247   7.3      SW   233   9.91    263      509.9
   07/14/2018 14:40      99.3      97.9       28     60.1      0.00      0.00      85.2     0.32      1012.9     4.7      SW   221   8.9     SSW   208   9.92    263      523.3
   07/14/2018 14:30      99.6      98.2       28     60.2      0.00      0.00      85.1     0.32      1013.0     3.7      SW   235   8.7      SW   224   9.92    263      534.9
   07/14/2018 14:20      98.9      98.0       28     59.9      0.00      0.00      85.1     0.32      1013.1     4.6     SSW   201  10.5      SW   231   9.92    263      543.0
   07/14/2018 14:10     100.2      98.4       27     59.6      0.00      0.00      85.0     0.32      1013.2     4.2       W   276   9.1      NW   312   9.93    263      546.9
   07/14/2018 14:00     100.0      97.6       28     60.3      0.00      0.00      85.0     0.32      1013.3     1.8     WNW   300   5.6       W   264   9.93    263      554.8
   07/14/2018 13:50      98.7      97.1       29     60.2      0.00      0.00      84.9     0.32      1013.4     4.1      SW   216  10.4     SSW   202   9.93    263      563.2
   07/14/2018 13:40      98.9      97.9       28     59.9      0.00      0.00      84.9     0.32      1013.5     2.7     WNW   285   5.5      SW   218   9.94    262      564.0
   07/14/2018 13:30      98.2      96.9       29     59.7      0.00      0.00      84.8     0.32      1013.7     3.3      NW   316   6.4      NW   314   9.94    263      566.8
   07/14/2018 13:20      97.8      96.4       29     59.7      0.00      0.00      84.8     0.32      1013.9     2.4     NNW   332   5.5     WNW   286   9.94    263      571.3
   07/14/2018 13:10      96.4      94.9       30     59.5      0.00      0.00      84.8     0.32      1014.0     2.2     WNW   288   6.4       W   263   9.94    263      577.8
   07/14/2018 13:00      95.3      94.3       31     59.4      0.00      0.00      84.8     0.32      1014.2     1.7     SSE   166   5.0     WNW   289   9.94    263      579.6
   07/14/2018 12:50      94.9      92.5       32     59.5      0.00      0.00      84.7     0.32      1014.4     1.6      SW   232   4.6     WSW   241   9.94    262      581.7
   07/14/2018 12:40      93.2      92.3       33     59.5      0.00      0.00      84.7     0.32      1014.6     2.8     WNW   292   6.7       W   269   9.95    263      580.1
   07/14/2018 12:30      93.8      91.8       33     59.6      0.00      0.00      84.7     0.32      1014.8     2.8     WNW   290   6.0     WSW   251   9.95    263      578.1
   07/14/2018 12:20      93.7      92.3       34     60.2      0.00      0.00      84.7     0.32      1014.9     2.3     NNW   345   6.1       W   263   9.95    262      571.7
   07/14/2018 12:10      92.4      90.7       35     60.2      0.00      0.00      84.6     0.32      1015.1     2.5       N   356   5.1     NNW   348   9.95    263      567.7
   07/14/2018 12:00      91.0      90.2       36     60.0      0.00      0.00      84.5     0.32      1015.2     1.7     WNW   293   4.5      NE    50   9.95    263      567.0
   07/14/2018 11:50      90.9      89.6       37     60.0      0.00      0.00      84.6     0.32      1015.3     2.5     ENE    64   5.7       E    81   9.95    263      560.7
   07/14/2018 11:40      89.9      88.8       38     60.4      0.00      0.00      84.6     0.32      1015.4     2.5      NE    40   4.7      NE    51   9.95    263      552.5
   07/14/2018 11:30      89.9      88.3       38     60.4      0.00      0.00      84.6     0.32      1015.5     2.4     NNE    23   5.7      SE   136   9.95    263      544.9
   07/14/2018 11:20      88.2      86.4       40     60.2      0.00      0.00      84.6     0.32      1015.6     2.0     NNE    29   4.4     NNW   341   9.95    263      539.2
   07/14/2018 11:10      87.5      86.2       41     60.1      0.00      0.00      84.7     0.32      1015.7     2.7       E    93   4.6     ESE   105   9.95    263      529.2
   07/14/2018 11:00      87.4      86.3       41     60.2      0.00      0.00      84.7     0.33      1015.8     2.0      NE    42   4.1     WSW   246   9.95    263      518.7
   07/14/2018 10:50      87.1      85.6       42     60.2      0.00      0.00      84.8     0.33      1015.9     1.3      NE    47   3.5     NNE    19   9.95    263      504.4
   07/14/2018 10:40      86.0      84.5       43     60.3      0.00      0.00      84.8     0.33      1015.9     1.7     ENE    61   4.0     NNE    22   9.95    263      493.9
   07/14/2018 10:30      85.3      83.3       45     60.3      0.00      0.00      84.8     0.33      1015.9     1.7       N    10   3.3       S   181   9.95    263      480.1
   07/14/2018 10:20      84.0      83.4       46     60.4      0.00      0.00      84.9     0.33      1016.0     1.9      NE    44   4.8     NNE    24   9.95    263      465.4
   07/14/2018 10:10      83.6      81.4       48     60.3      0.00      0.00      84.9     0.33      1016.0     1.4       E    98   3.6       E   101   9.95    264      450.4
   07/14/2018 10:00      81.9      80.9       49     60.3      0.00      0.00      84.9     0.33      1016.1     2.5       E    83   4.4     ENE    77   9.95    263      432.0
   07/14/2018 09:50      82.4      80.9       49     60.7      0.00      0.00      85.0     0.33      1016.2     1.5     NNE    26   3.7       N   355   9.95    263      413.8
   07/14/2018 09:40      81.1      80.4       51     60.8      0.00      0.00      85.0     0.33      1016.4     1.9     NNE    13   5.0      NE    43   9.95    264      397.6
   07/14/2018 09:30      80.5      78.8       53     60.8      0.00      0.00      85.0     0.33      1016.4     1.4      NE    50   4.1       E    82   9.95    264      380.5
   07/14/2018 09:20      79.2      78.7       54     60.7      0.00      0.00      85.1     0.33      1016.5     1.7       E    80   4.1     ESE   114   9.95    264      363.8
   07/14/2018 09:10      79.0      76.8       56     61.0      0.00      0.00      85.1     0.33      1016.5     1.5       N     4   3.3     NNW   331   9.95    264      351.0
   07/14/2018 09:00      77.0      75.2       60     61.0      0.00      0.00      85.2     0.33      1016.5     1.7     NNE    29   4.1     NNE    23   9.95    266      347.7
   07/14/2018 08:50      75.5      74.7       62     61.1      0.00      0.00      85.2     0.33      1016.5     1.8     NNE    23   2.8       N   349   9.95    267      213.4
   07/14/2018 08:40      74.9      73.9       64     61.3      0.00      0.00      85.2     0.33      1016.4     1.6     ENE    65   3.0     ESE   118   9.95    267        5.6
   07/14/2018 08:30      74.0      73.3       65     61.2      0.00      0.00      85.3     0.33      1016.4     1.7     NNE    29   4.3       E    80   9.95    267      -18.0
   07/14/2018 08:20      73.5      73.1       66     61.1      0.00      0.00      85.4     0.33      1016.4     1.6     NNE    24   3.5      NE    42   9.95    267      -19.0
   07/14/2018 08:10      73.3      72.5       66     61.0      0.00      0.00      85.3     0.33      1016.5     1.2      NE    49   3.0     ENE    59   9.95    267      -12.8
   07/14/2018 08:00      72.7      72.0       67     60.9      0.00      0.00      85.4     0.33      1016.4     1.1       N   351   2.7     NNE    24   9.95    267       14.4
   07/14/2018 07:50      72.3      71.6       68     60.8      0.00      0.00      85.5     0.33      1016.4     1.2     NNE    21   2.5      NE    50   9.95    267      -11.6
   07/14/2018 07:40      71.8      71.1       69     60.7      0.00      0.00      85.5     0.33      1016.3     0.9       E    97   3.2     ENE    67   9.95    267      -19.5
   07/14/2018 07:30      71.2      70.6       70     60.7      0.00      0.00      85.6     0.33      1016.2     0.9      NE    40   2.1       E    93   9.95    267      -21.2
   07/14/2018 07:20      70.9      70.1       71     60.6      0.00      0.00      85.6     0.33      1016.2     0.5      NE    40   1.6      NE    36   9.90    267      -22.9
   07/14/2018 07:10      70.3      69.1       73     60.4      0.00      0.00      85.6     0.33      1016.2     0.6      NE    54   1.7       N     6   9.02    267      -20.4
   07/14/2018 07:00      69.3      68.5       74     60.3      0.00      0.00      85.7     0.33      1016.2     0.0       S   173   0.4       S   172   9.02    267      -32.0
   07/14/2018 06:50      68.7      67.5       76     60.3      0.00      0.00      85.7     0.33      1016.2     0.0       S   173   0.7       S   173   9.02    267      -33.3
   07/14/2018 06:40      67.6      66.8       78     60.0      0.00      0.00      85.7     0.33      1016.1     0.1       S   172   0.6       S   172   9.02    268      -38.5
   07/14/2018 06:30      67.0      66.2       79     59.9      0.00      0.00      85.7     0.33      1016.2     0.2       S   173   0.7       S   173   9.02    267      -43.3
   07/14/2018 06:20      66.4      65.5       80     59.4      0.00      0.00      85.8     0.33      1016.1     0.0       N     0   0.0       S   173   9.02    267      -42.0
   07/14/2018 06:10      66.2      65.6       79     59.2      0.00      0.00      85.8     0.33      1016.0     0.0       N     0   0.0       S   173   9.02    268      -47.6
   07/14/2018 06:00      66.2      65.7       79     59.3      0.00      0.00      85.8     0.33      1016.0     0.4     SSW   193   1.6     SSW   210   9.02    268      -50.6
   07/14/2018 05:50      66.1      65.6       80     59.3      0.00      0.00      85.9     0.33      1016.0     1.0     SSW   210   2.2     SSW   210   9.02    268      -52.0
   07/14/2018 05:40      66.4      65.6       79     59.3      0.00      0.00      86.0     0.33      1016.0     0.0       N     0   0.0     SSW   210   9.02    268      -53.9
   07/14/2018 05:30      66.5      65.8       78     59.1      0.00      0.00      86.0     0.33      1015.9     0.5     SSW   210   1.6     SSW   210   9.02    268      -53.7
   07/14/2018 05:20      66.7      66.2       78     59.5      0.00      0.00      86.0     0.33      1015.9     0.3     SSW   210   1.6     SSW   210   9.02    268      -53.5
   07/14/2018 05:10      67.1      66.3       78     59.5      0.00      0.00      86.0     0.33      1015.9     0.0       N     0   0.0     SSW   210   9.02    268      -53.6
   07/14/2018 05:00      67.1      66.7       77     59.6      0.00      0.00      86.1     0.33      1015.9     0.0       N     0   0.0     SSW   210   9.03    268      -54.4
   07/14/2018 04:50      67.1      66.7       78     59.9      0.00      0.00      86.1     0.33      1015.8     0.8     SSW   210   1.9     SSW   210   9.03    267      -53.9
   07/14/2018 04:40      66.9      66.4       78     59.7      0.00      0.00      86.1     0.33      1015.9     0.3     SSW   210   1.4     SSW   210   9.03    268      -54.0
   07/14/2018 04:30      67.1      66.5       78     59.7      0.00      0.00      86.2     0.33      1015.9     0.0       N     0   0.0     SSW   210   9.03    268      -54.4
   07/14/2018 04:20      67.1      66.6       78     59.6      0.00      0.00      86.2     0.33      1016.0     0.0       N     0   0.0     SSW   210   9.03    267      -54.8
   07/14/2018 04:10      67.5      66.8       78     59.9      0.00      0.00      86.2     0.33      1015.9     0.0       N     0   0.0     SSW   210   9.03    267      -54.9
   07/14/2018 04:00      67.6      67.1       77     59.6      0.00      0.00      86.3     0.33      1015.9     0.0       N     0   0.0     SSW   210   9.03    267      -55.5
   07/14/2018 03:50      67.6      67.2       76     59.7      0.00      0.00      86.3     0.33      1016.0     0.6     SSW   210   1.6     SSW   210   9.03    267      -55.4
   07/14/2018 03:40      68.0      67.5       76     59.7      0.00      0.00      86.3     0.33      1016.1     0.4     SSW   210   1.3     SSW   210   9.03    267      -55.7
   07/14/2018 03:30      67.9      67.5       76     59.8      0.00      0.00      86.3     0.33      1016.2     0.9     SSW   193   1.6     SSW   211   9.03    267      -56.3
   07/14/2018 03:20      67.9      67.4       76     59.6      0.00      0.00      86.4     0.33      1016.2     0.4       S   171   1.4       S   173   9.03    267      -56.4
   07/14/2018 03:10      68.1      67.6       75     59.3      0.00      0.00      86.4     0.33      1016.2     0.0      SE   128   0.8      SE   128   9.03    267      -56.7
   07/14/2018 03:00      68.5      67.8       74     59.6      0.00      0.00      86.5     0.33      1016.2     0.2      SE   128   0.7      SE   128   9.03    267      -56.7
   07/14/2018 02:50      68.6      68.0       74     59.7      0.00      0.00      86.5     0.33      1016.2     0.0       N     0   0.0      SE   128   9.03    267      -57.4
   07/14/2018 02:40      68.7      68.2       74     59.7      0.00      0.00      86.5     0.33      1016.2     0.2      SE   128   0.9      SE   128   9.03    267      -57.8
   07/14/2018 02:30      69.2      68.5       73     59.9      0.00      0.00      86.6     0.33      1016.3     0.3      SE   128   1.0      SE   128   9.04    267      -57.9
   07/14/2018 02:20      69.4      68.8       73     60.0      0.00      0.00      86.6     0.33      1016.4     0.0       N     0   0.0      SE   127   9.04    267      -58.8
   07/14/2018 02:10      69.6      69.1       72     60.0      0.00      0.00      86.6     0.33      1016.4     0.0       E    80   0.5      SE   128   9.04    266      -59.4
   07/14/2018 02:00      70.0      69.2       72     60.1      0.00      0.00      86.5     0.33      1016.4     0.6       E    95   2.0     ENE    70   9.04    266      -59.4
   07/14/2018 01:50      70.1      69.6       71     60.0      0.00      0.00      86.7     0.33      1016.4     0.3     ENE    72   2.1      NE    45   9.04    266      -59.9
   07/14/2018 01:40      70.5      69.8       71     60.1      0.00      0.00      86.7     0.33      1016.4     0.6     ENE    70   1.6      NE    48   9.04    266      -60.1
   07/14/2018 01:30      70.4      70.0       71     60.2      0.00      0.00      86.7     0.33      1016.5     1.1      NE    53   2.8      NE    50   9.04    266      -60.3
   07/14/2018 01:20      70.4      70.0       71     60.2      0.00      0.00      86.7     0.33      1016.5     0.7     ENE    69   2.9       E    88   9.04    266      -60.3
   07/14/2018 01:10      70.6      70.1       70     60.2      0.00      0.00      86.8     0.33      1016.6     0.3       E    97   1.2       E    98   9.04    266      -60.5
   07/14/2018 01:00      71.0      70.3       70     60.3      0.00      0.00      86.7     0.33      1016.7     0.5       E    94   1.8     ENE    65   9.05    266      -61.0
   07/14/2018 00:50      70.9      70.6       70     60.4      0.00      0.00      86.8     0.33      1016.7     1.1     ENE    57   2.8      NE    50   9.05    266      -62.3
   07/14/2018 00:40      71.2      70.6       70     60.4      0.00      0.00      86.8     0.33      1016.7     0.8     ENE    58   2.3     ENE    69   9.05    266      -62.8
   07/14/2018 00:30      71.7      70.9       69     60.6      0.00      0.00      86.8     0.33      1016.7     1.0     ENE    62   2.5      NE    45   9.05    266      -63.4
   07/14/2018 00:20      71.5      71.2       69     60.5      0.00      0.00      86.8     0.33      1016.7     1.8      NE    51   4.2      NE    43   9.05    266      -63.4
   07/14/2018 00:10      71.8      71.2       68     60.5      0.00      0.00      86.8     0.33      1016.7     1.9      NE    50   3.8      NE    36   9.05    266      -63.5
   07/14/2018 00:00      71.8      71.4       68     60.5      0.00      0.00      86.8     0.33      1016.6     1.4      NE    50   2.6      NE    52   9.05    266      -63.7
   07/13/2018 23:50      72.0      71.5       68     60.3      0.00      0.00      86.9     0.33      1016.7     0.7     ENE    57   2.8      NE    53   9.05    266      -63.9
   07/13/2018 23:40      72.0      71.5       67     60.3      0.00      0.00      86.9     0.33      1016.7     0.8     ENE    63   1.9      NE    50   9.06    266      -64.3
   07/13/2018 23:30      72.0      71.5       67     60.2      0.00      0.00      86.9     0.33      1016.7     1.0     ENE    78   3.3     ENE    69   9.06    266      -64.4
   07/13/2018 23:20      72.5      71.8       66     60.2      0.00      0.00      86.9     0.33      1016.7     1.4       E    84   2.7       E    90   9.06    266      -65.0
   07/13/2018 23:10      73.3      72.2       65     60.5      0.00      0.00      86.9     0.33      1016.5     1.5     ENE    71   3.9     ENE    65   9.06    266      -65.8
   07/13/2018 23:00      73.5      72.9       65     60.8      0.00      0.00      87.0     0.33      1016.5     1.8     ENE    66   3.4      NE    50   9.06    266      -65.8
   07/13/2018 22:50      73.9      73.2       65     60.8      0.00      0.00      86.9     0.33      1016.5     1.5       E   101   3.1     ENE    76   9.07    266      -65.9
   07/13/2018 22:40      74.3      73.6       64     60.8      0.00      0.00      86.9     0.33      1016.4     1.2       E    88   2.9     ENE    65   9.07    265      -66.6
   07/13/2018 22:30      74.8      74.1       63     60.8      0.00      0.00      86.9     0.33      1016.4     1.6     ENE    77   3.5     ENE    75   9.07    265      -66.9
   07/13/2018 22:20      75.2      74.5       62     60.8      0.00      0.00      86.9     0.33      1016.4     1.4     ENE    60   3.1      NE    56   9.07    265      -67.8
   07/13/2018 22:10      75.3      74.8       62     60.8      0.00      0.00      86.9     0.33      1016.4     1.1     ENE    58   2.4      NE    36   9.08    264      -68.4
   07/13/2018 22:00      76.0      75.0       60     60.8      0.00      0.00      86.9     0.33      1016.3     0.8     ESE   106   2.7      SE   137   9.08    264      -69.4
   07/13/2018 21:50      76.4      75.7       60     60.8      0.00      0.00      86.9     0.33      1016.2     0.6     ENE    67   1.4       E    84   9.08    264      -70.0
   07/13/2018 21:40      77.2      76.2       58     60.8      0.00      0.00      86.9     0.33      1016.2     1.9     ENE    58   3.3      NE    40   9.08    264      -71.1
   07/13/2018 21:30      78.7      77.1       56     60.9      0.00      0.00      86.8     0.33      1016.0     2.2      NE    53   3.9     ENE    57   9.08    264      -71.9
   07/13/2018 21:20      80.6      78.5       49     58.6      0.00      0.00      86.9     0.33      1015.9     1.7      NE    54   3.1     NNE    30   9.09    263      -73.3
   07/13/2018 21:10      80.7      80.2       38     52.6      0.00      0.00      86.8     0.33      1015.9     0.7     SSW   192   3.2      SW   216   9.09    263      -73.9
   07/13/2018 21:00      81.2      80.4       38     52.6      0.00      0.00      86.8     0.33      1015.7     2.4     SSW   193   4.0     SSW   201   9.09    263      -74.3
   07/13/2018 20:50      81.7      80.9       39     53.9      0.00      0.00      86.8     0.33      1015.6     2.4     SSW   207   5.0     SSW   211   9.10    263      -75.0
   07/13/2018 20:40      82.5      81.4       39     54.8      0.00      0.00      86.8     0.33      1015.4     2.7      SW   231   5.1     WSW   248   9.10    263      -75.6
   07/13/2018 20:30      83.1      82.3       39     55.3      0.00      0.00      86.8     0.33      1015.3     3.2     WSW   246   5.6       W   265   9.11    263      -75.9
   07/13/2018 20:20      84.2      83.0       37     54.8      0.00      0.00      86.7     0.33      1015.2     3.4     WSW   255   6.1      SW   225   9.11    263      -76.1
   07/13/2018 20:10      85.1      83.9       35     54.0      0.00      0.00      86.7     0.33      1015.0     2.0       W   261   4.6     WSW   251   9.11    263      -75.1
   07/13/2018 20:00      86.4      84.8       34     54.1      0.00      0.00      86.6     0.33      1014.9     3.0     WNW   286   6.3      NW   318   9.12    263      -72.5
   07/13/2018 19:50      88.0      86.2       33     54.7      0.00      0.00      86.6     0.33      1014.6     2.7      NW   316   5.6     WNW   301   9.12    263      -68.8
   07/13/2018 19:40      88.5      87.7       34     56.1      0.00      0.00      86.6     0.33      1014.5     3.1       W   273   6.2     WSW   252   9.13    263      -54.4
   07/13/2018 19:30      88.9      88.2       33     55.7      0.00      0.00      86.6     0.33      1014.4     3.1     WSW   256   5.8      NW   319   9.13    263      -41.6
   07/13/2018 19:20      89.8      88.6       32     55.8      0.00      0.00      86.5     0.33      1014.4     3.5     WNW   297   6.0       W   280   9.14    263      -25.1
   07/13/2018 19:10      91.0      89.5       32     56.1      0.00      0.00      86.5     0.33      1014.3     3.9      NW   304   6.4       W   277   9.14    262       -6.3
   07/13/2018 19:00      91.8      90.7       31     56.0      0.00      0.00      86.5     0.33      1014.1     2.8      NW   310   7.7       N   349   9.15    262       13.2
   07/13/2018 18:50      91.8      91.2       30     56.0      0.00      0.00      86.5     0.33      1013.9     2.2     WNW   302   4.8     NNW   345   9.15    262       34.9
   07/13/2018 18:40      91.9      91.0       30     55.6      0.00      0.00      86.4     0.33      1013.8     3.5     WNW   296   8.0       W   270   9.15    262       58.9
   07/13/2018 18:30      93.0      91.7       29     55.4      0.00      0.00      86.4     0.33      1013.7     3.8     WNW   299   8.7      NW   322   9.16    262       80.5
   07/13/2018 18:20      93.2      92.5       28     55.4      0.00      0.00      86.3     0.33      1013.7     3.5     WNW   292   7.7       W   262   9.17    262      103.2
   07/13/2018 18:10      94.1      92.9       28     55.5      0.00      0.00      86.3     0.33      1013.7     4.6     WNW   293   8.8     WSW   248   9.17    262      126.2
   07/13/2018 18:00      95.1      93.8       27     55.5      0.00      0.00      86.2     0.33      1013.7     4.2       W   275   9.5      NW   314   9.18    262      149.4
   07/13/2018 17:50      94.7      94.0       27     55.6      0.00      0.00      86.2     0.33      1013.7     4.1     WNW   299   7.2     WNW   299   9.18    262      172.4
   07/13/2018 17:40      95.2      94.3       27     55.5      0.00      0.00      86.1     0.33      1013.7     3.9     NNW   327   7.8      NW   317   9.19    262      195.3
   07/13/2018 17:30      95.4      94.8       27     55.7      0.00      0.00      86.0     0.33      1013.7     3.4     NNW   330   6.8     WNW   298   9.19    262      219.3
   07/13/2018 17:20      95.7      94.3       27     55.5      0.00      0.00      86.0     0.33      1013.8     4.0      NW   321  10.0      NW   306   9.20    262      244.0
   07/13/2018 17:10      95.4      94.6       27     55.9      0.00      0.00      85.9     0.33      1013.8     4.4      NW   307   8.4       W   279   9.20    262      268.1
   07/13/2018 17:00      95.8      94.9       27     56.2      0.00      0.00      85.9     0.33      1013.8     4.4     WNW   299   8.1     NNW   335   9.21    262      289.6
   07/13/2018 16:50      95.7      95.0       28     56.8      0.00      0.00      85.8     0.33      1013.9     4.5       W   281   7.8       W   268   9.21    262      313.2
   07/13/2018 16:40      95.4      94.7       29     57.8      0.00      0.00      85.8     0.33      1013.9     5.4       W   272  10.9     WSW   258   9.22    262      335.7
   07/13/2018 16:30      96.3      94.9       29     57.9      0.00      0.00      85.7     0.33      1014.0     5.3     WSW   248  11.0       W   277   9.23    262      356.0
   07/13/2018 16:20      96.6      95.0       29     58.4      0.00      0.00      85.6     0.33      1014.0     5.2     WSW   249  10.5     WSW   250   9.23    262      375.9
   07/13/2018 16:10      96.4      94.8       29     58.4      0.00      0.00      85.5     0.33      1014.1     5.9       W   266  10.5     WSW   255   9.24    262      395.2
   07/13/2018 16:00      96.6      95.5       28     57.6      0.00      0.00      85.5     0.33      1014.2     5.3     WNW   288  10.7     NNW   331   9.24    262      411.7
   07/13/2018 15:50      97.1      96.3       28     58.0      0.00      0.00      85.4     0.33      1014.2     4.7      NW   307   9.2     WSW   254   9.25    262      426.3
   07/13/2018 15:40      99.3      96.4       27     58.2      0.00      0.00      85.3     0.33      1014.2     5.4     WNW   300   9.2     WSW   256   9.26    262      441.0
   07/13/2018 15:30      99.2      98.5       27     58.9      0.00      0.00      85.3     0.33      1014.2     4.5      NW   304   8.7     WNW   295   9.26    262      455.6
   07/13/2018 15:20      99.8      98.1       27     59.4      0.00      0.00      85.2     0.33      1014.3     4.9      NW   307   8.7      NW   324   9.27    262      467.1
   07/13/2018 15:10     100.1      98.9       27     60.1      0.00      0.00      85.1     0.33      1014.3     2.8     NNW   339   6.0       W   271   9.28    262      476.8
   07/13/2018 15:00     100.2      99.1       28     60.4      0.00      0.00      85.1     0.33      1014.3     2.7     NNW   338   6.3     NNW   330   9.28    262      490.7
   07/13/2018 14:50      99.9      98.3       28     60.2      0.00      0.00      85.0     0.33      1014.4     3.7      NW   311   7.3      NW   323   9.28    263      501.8
   07/13/2018 14:40      99.6      98.7       28     60.2      0.00      0.00      84.9     0.33      1014.5     3.2      NW   308   6.5       N   353   9.29    262      515.6
   07/13/2018 14:30     100.0      98.7       27     59.5      0.00      0.00      84.9     0.32      1014.5     4.4     WNW   282   9.6     WSW   251   9.29    263      526.7
   07/13/2018 14:20      99.8      98.2       29     61.4      0.00      0.00      84.8     0.32      1014.5     2.3     SSW   199   6.1     SSE   160   9.30    263      537.2
   07/13/2018 14:10     100.6      98.6       29     61.9      0.00      0.00      84.7     0.32      1014.6     2.8     ENE    71   7.1      NE    51   9.30    262      540.9
   07/13/2018 14:00      98.9      97.4       30     61.6      0.00      0.00      84.7     0.32      1014.7     4.2      NE    45   6.3      NE    41   9.31    263      547.0
   07/13/2018 13:50      99.5      97.7       29     61.0      0.00      0.00      84.7     0.32      1014.8     3.3      NE    42   6.7     ENE    66   9.31    262      554.9
   07/13/2018 13:40      98.1      96.8       30     60.7      0.00      0.00      84.6     0.32      1014.9     3.9     NNE    33   7.7      NE    48   9.31    262      561.1
   07/13/2018 13:30      98.4      96.5       27     58.5      0.00      0.00      84.5     0.32      1015.1     3.0     ENE    59   6.3     ESE   107   9.31    262      567.1
   07/13/2018 13:20      98.2      96.5       27     58.1      0.00      0.00      84.5     0.32      1015.2     2.6      NE    37   6.1     ENE    65   9.31    262      568.5
   07/13/2018 13:10      97.5      95.9       27     57.4      0.00      0.00      84.4     0.32      1015.4     2.6       N   355   5.8     NNE    14   9.32    262      572.0
   07/13/2018 13:00      96.5      95.1       27     57.0      0.00      0.00      84.4     0.32      1015.5     2.4       E    89   5.9       E    84   9.32    262      574.7
   07/13/2018 12:50      97.1      95.4       27     57.0      0.00      0.00      84.3     0.32      1015.6     2.1       E    85   5.1       E    80   9.32    262      572.7
   07/13/2018 12:40      96.0      94.8       27     55.9      0.00      0.00      84.4     0.32      1015.7     2.0     ESE   104   3.9      SE   128   9.32    261      572.0
   07/13/2018 12:30      97.2      95.0       27     56.4      0.00      0.00      84.4     0.32      1015.8     2.1     NNE    31   5.7      NE    44   9.32    261      566.9
   07/13/2018 12:20      95.6      94.5       27     56.2      0.00      0.00      84.4     0.32      1015.9     1.6     WNW   290   3.3     WSW   257   9.33    262      564.4
   07/13/2018 12:10      94.6      93.9       28     55.8      0.00      0.00      84.3     0.32      1016.1     2.8       N   356   5.1      NE    41   9.33    262      559.7
   07/13/2018 12:00      94.1      93.2       28     55.8      0.00      0.00      84.3     0.32      1016.2     2.1     NNW   341   5.0       N   351   9.33    262      555.7
   07/13/2018 11:50      93.9      92.9       28     55.9      0.00      0.00      84.3     0.32      1016.2     2.6       N   354   4.6     NNE    13   9.33    262      550.1
   07/13/2018 11:40      93.1      92.0       29     55.7      0.00      0.00      84.3     0.32      1016.3     2.0       N     1   4.4       N   351   9.33    262      544.1
   07/13/2018 11:30      92.8      90.7       30     55.6      0.00      0.00      84.3     0.32      1016.4     1.7     NNE    29   4.5       N     4   9.33    262      538.7
   07/13/2018 11:20      91.5      90.7       30     55.5      0.00      0.00      84.3     0.32      1016.5     1.9      NE    55   3.9     ESE   119   9.33    262      530.2
   07/13/2018 11:10      91.5      89.6       31     55.9      0.00      0.00      84.4     0.32      1016.6     2.1     NNE    13   4.6      NE    35   9.33    262      520.3
   07/13/2018 11:00      90.5      88.3       32     55.9      0.00      0.00      84.4     0.32      1016.7     1.7      NW   325   3.8     NNE    25   9.33    262      512.5
   07/13/2018 10:50      88.8      88.0       33     55.7      0.00      0.00      84.4     0.33      1016.7     2.0      NW   310   3.6     ENE    72   9.33    262      500.8
   07/13/2018 10:40      88.7      87.7       34     56.0      0.00      0.00      84.5     0.33      1016.7     1.8       N   359   3.4     WSW   257   9.33    262      488.3
   07/13/2018 10:30      88.3      86.2       35     56.4      0.00      0.00      84.4     0.33      1016.7     1.6      NE    36   3.3     ENE    56   9.33    262      474.5
   07/13/2018 10:20      86.8      86.0       36     56.0      0.00      0.00      84.5     0.33      1016.7     2.1     NNE    15   4.2     NNE    28   9.33    262      458.5
   07/13/2018 10:10      86.4      85.6       35     55.5      0.00      0.00      84.5     0.33      1016.6     1.9       N     7   4.0      NE    41   9.33    262      443.0
   07/13/2018 10:00      86.0      84.5       37     56.0      0.00      0.00      84.6     0.33      1016.6     1.4      NE    55   3.5     ENE    75   9.33    262      427.8
   07/13/2018 09:50      84.7      83.4       39     56.1      0.00      0.00      84.6     0.33      1016.6     1.7       N   350   3.1       N     7   9.33    262      410.0
   07/13/2018 09:40      83.7      82.6       40     56.6      0.00      0.00      84.7     0.33      1016.7     1.5     NNE    13   2.9       N     2   9.33    263      393.6
   07/13/2018 09:30      82.7      81.3       42     56.9      0.00      0.00      84.7     0.33      1016.8     1.6     NNE    18   2.4      NW   319   9.33    263      376.4
   07/13/2018 09:20      81.6      80.8       44     57.5      0.00      0.00      84.7     0.33      1016.7     2.3     NNE    19   4.5     ENE    59   9.34    263      360.0
   07/13/2018 09:10      81.6      79.9       46     57.6      0.00      0.00      84.8     0.33      1016.7     1.7     ENE    64   3.7      SE   137   9.34    263      347.0
   07/13/2018 09:00      80.0      77.7       48     57.6      0.00      0.00      84.8     0.33      1016.7     1.2      NE    39   2.9     ESE   114   9.34    263      343.6
   07/13/2018 08:50      77.9      76.5       51     57.6      0.00      0.00      84.8     0.33      1016.7     1.1     WNW   289   2.7       W   270   9.34    266      198.3
   07/13/2018 08:40      76.8      76.0       52     57.4      0.00      0.00      84.9     0.33      1016.7     1.2     NNE    14   2.6     NNE    24   9.34    266        6.9
   07/13/2018 08:30      76.2      75.2       53     57.4      0.00      0.00      84.9     0.33      1016.7     0.8      NE    43   2.7     NNW   337   9.34    266      -10.5
   07/13/2018 08:20      75.4      74.9       54     57.3      0.00      0.00      85.0     0.33      1016.7     1.4     NNW   330   2.6     NNW   333   9.34    266      -11.8
   07/13/2018 08:10      75.1      74.3       55     57.3      0.00      0.00      85.0     0.33      1016.6     0.8      NE    35   2.1     NNE    33   9.34    266       -6.0
   07/13/2018 08:00      74.4      73.7       56     57.3      0.00      0.00      85.1     0.33      1016.5     0.9     NNW   337   2.7     NNW   341   9.34    266       16.7
   07/13/2018 07:50      73.9      73.5       56     57.0      0.00      0.00      85.1     0.33      1016.5     1.1      NW   317   2.4      NW   316   9.34    266       -8.2
   07/13/2018 07:40      73.7      73.1       55     56.5      0.00      0.00      85.1     0.33      1016.5     0.7       N   357   3.0       N   351   9.34    266       -8.7
   07/13/2018 07:30      73.3      72.5       55     55.9      0.00      0.00      85.2     0.33      1016.4     0.6     WNW   285   2.5      NW   323   9.34    266      -14.9
   07/13/2018 07:20      72.7      71.7       56     55.6      0.00      0.00      85.2     0.33      1016.4     1.2      SW   230   3.4      SW   217   9.34    266      -17.2
   07/13/2018 07:10      71.9      70.9       58     56.0      0.00      0.00      85.2     0.33      1016.4     0.2     WNW   303   1.4      NW   310   9.34    266      -11.8
   07/13/2018 07:00      71.1      70.1       62     56.7      0.00      0.00      85.3     0.33      1016.4     0.0       N   356   0.9     NNE    19   9.34    266      -23.6
   07/13/2018 06:50      70.3      69.0       64     56.9      0.00      0.00      85.3     0.33      1016.4     0.0     ESE   110   0.7     ESE   110   9.34    266      -26.1
   07/13/2018 06:40      69.1      68.0       66     56.6      0.00      0.00      85.3     0.33      1016.3     0.4      SE   135   1.4      SE   146   9.34    266      -31.7
   07/13/2018 06:30      68.2      67.6       67     56.3      0.00      0.00      85.4     0.33      1016.3     0.3       S   174   1.0       S   177   9.34    266      -36.7
   07/13/2018 06:20      67.8      66.9       68     56.6      0.00      0.00      85.4     0.33      1016.2     0.6       S   177   1.6       S   177   9.34    266      -40.3
   07/13/2018 06:10      67.1      66.7       69     56.4      0.00      0.00      85.5     0.33      1016.2     0.3       S   178   1.4       S   183   9.34    266      -43.7
   07/13/2018 06:00      67.6      66.8       70     57.0      0.00      0.00      85.5     0.33      1016.1     0.7     SSE   167   1.4       S   183   9.34    266      -46.7
   07/13/2018 05:50      67.5      67.0       70     57.0      0.00      0.00      85.5     0.33      1016.0     0.3     SSE   154   0.9     SSE   154   9.34    266      -48.8
   07/13/2018 05:40      67.4      66.8       70     56.9      0.00      0.00      85.6     0.33      1015.9     0.3     SSE   153   0.8     SSE   153   9.34    266      -49.0
   07/13/2018 05:30      67.3      66.7       69     56.5      0.00      0.00      85.6     0.33      1015.9     0.2     SSE   153   0.7     SSE   153   9.34    266      -49.5
   07/13/2018 05:20      67.5      67.0       69     56.7      0.00      0.00      85.7     0.33      1015.9     0.2     SSE   153   0.7     SSE   153   9.34    266      -49.9
   07/13/2018 05:10      67.6      67.1       68     56.6      0.00      0.00      85.7     0.33      1016.0     0.5     SSE   153   0.9     SSE   153   9.34    266      -50.0
   07/13/2018 05:00      67.7      67.3       68     56.5      0.00      0.00      85.7     0.33      1016.0     0.1     SSE   153   0.7     SSE   153   9.34    266      -50.2
   07/13/2018 04:50      68.1      67.2       65     55.5      0.00      0.00      85.8     0.33      1016.1     0.7       S   179   1.7     SSW   202   9.34    266      -50.3
   07/13/2018 04:40      68.0      67.5       66     56.0      0.00      0.00      85.8     0.33      1016.2     1.3       S   188   1.7       S   185   9.35    266      -50.3
   07/13/2018 04:30      68.0      67.6       67     56.4      0.00      0.00      85.8     0.33      1016.1     0.2       S   177   0.9       S   177   9.35    266      -50.5
   07/13/2018 04:20      68.0      67.6       66     55.9      0.00      0.00      85.9     0.33      1016.1     0.0       N     0   0.0       S   177   9.35    266      -51.3
   07/13/2018 04:10      68.4      67.7       65     55.9      0.00      0.00      85.9     0.33      1016.1     0.2       S   179   1.1       S   177   9.35    266      -51.5
   07/13/2018 04:00      68.2      67.7       65     55.6      0.00      0.00      85.9     0.33      1016.1     0.0     SSW   211   0.4     SSW   211   9.35    266      -51.7
   07/13/2018 03:50      68.5      67.8       64     55.3      0.00      0.00      86.0     0.33      1016.0     0.0       N     0   0.0     SSW   211   9.35    266      -52.2
   07/13/2018 03:40      68.8      68.2       63     55.2      0.00      0.00      86.0     0.33      1016.1     0.0     SSW   211   0.8     SSW   211   9.35    266      -51.9
   07/13/2018 03:30      68.8      68.5       62     55.1      0.00      0.00      86.0     0.33      1016.1     0.1     SSW   211   0.9     SSW   211   9.35    266      -51.9
   07/13/2018 03:20      68.8      68.4       62     55.0      0.00      0.00      86.1     0.33      1016.0     0.3     SSW   211   1.3     SSW   211   9.35    266      -52.0
   07/13/2018 03:10      68.8      68.6       61     54.9      0.00      0.00      86.1     0.33      1016.2     0.0     SSE   151   0.6     SSE   150   9.35    266      -52.6
   07/13/2018 03:00      68.9      68.5       62     54.9      0.00      0.00      86.1     0.33      1016.2     0.2     SSE   150   1.0     SSE   150   9.35    266      -53.1
   07/13/2018 02:50      69.1      68.6       61     54.6      0.00      0.00      86.2     0.33      1016.4     0.1       S   185   0.9     SSE   150   9.35    266      -52.9
   07/13/2018 02:40      69.4      68.7       59     54.2      0.00      0.00      86.2     0.33      1016.5     0.0     SSW   197   0.4     SSW   197   9.36    266      -53.4
   07/13/2018 02:30      69.5      69.0       59     54.0      0.00      0.00      86.2     0.33      1016.5     0.5     SSW   197   1.4     SSW   197   9.36    266      -53.3
   07/13/2018 02:20      69.6      69.0       58     53.9      0.00      0.00      86.3     0.33      1016.5     0.0     SSW   197   1.1     SSW   197   9.36    266      -53.1
   07/13/2018 02:10      70.0      69.2       57     53.4      0.00      0.00      86.3     0.33      1016.5     0.0       N     0   0.0     SSW   197   9.36    266      -54.3
   07/13/2018 02:00      70.5      69.7       56     53.4      0.00      0.00      86.3     0.33      1016.5     0.0     SSW   197   0.5     SSW   197   9.36    265      -54.8
   07/13/2018 01:50      70.6      70.1       55     53.4      0.00      0.00      86.3     0.33      1016.5     0.3     SSW   197   1.6     SSW   197   9.36    265      -55.2
   07/13/2018 01:40      70.6      70.1       56     53.8      0.00      0.00      86.4     0.33      1016.6     1.0       S   187   1.9     SSW   201   9.36    265      -55.5
   07/13/2018 01:30      70.6      70.1       57     54.3      0.00      0.00      86.4     0.33      1016.6     0.2      SE   136   0.9     SSE   156   9.36    266      -56.4
   07/13/2018 01:20      70.6      70.1       58     54.9      0.00      0.00      86.4     0.33      1016.7     0.3      SE   128   1.4      SE   144   9.36    266      -56.5
   07/13/2018 01:10      70.7      70.2       60     56.0      0.00      0.00      86.4     0.33      1016.7     0.2     ESE   114   0.8     ESE   114   9.37    266      -56.7
   07/13/2018 01:00      70.9      70.3       63     57.3      0.00      0.00      86.4     0.33      1016.8     0.0     ESE   114   0.5     ESE   114   9.37    266      -57.1
   07/13/2018 00:50      71.3      70.6       64     58.0      0.00      0.00      86.4     0.33      1016.7     0.0     NNW   330   0.0     NNW   330   9.37    266      -57.8
   07/13/2018 00:40      71.5      71.0       64     58.6      0.00      0.00      86.5     0.33      1016.7     0.0       N     0   0.0      SE   142   9.37    266      -57.9
   07/13/2018 00:30      71.6      71.1       64     58.7      0.00      0.00      86.5     0.33      1016.7     0.0      SE   140   1.3      SE   142   9.37    266      -58.8
   07/13/2018 00:20      71.8      71.3       64     58.8      0.00      0.00      86.5     0.33      1016.7     0.9     ESE   109   2.8       E    83   9.37    266      -59.0
   07/13/2018 00:10      72.2      71.4       64     59.1      0.00      0.00      86.5     0.33      1016.7     1.2     ENE    76   2.3       E    87   9.37    266      -59.3
   07/13/2018 00:00      72.7      71.7       64     59.4      0.00      0.00      86.5     0.33      1016.7     1.4       E    86   3.4      SE   126   9.37    266      -59.6
   07/12/2018 23:50      73.0      72.4       62     59.1      0.00      0.00      86.6     0.33      1016.6     1.3     ENE    66   3.3       E    99   9.38    265      -60.0
   07/12/2018 23:40      73.5      72.7       60     58.3      0.00      0.00      86.6     0.33      1016.5     1.2       E    81   2.7     ENE    66   9.38    265      -60.2
   07/12/2018 23:30      73.6      73.1       58     57.6      0.00      0.00      86.6     0.33      1016.5     0.5     ENE    77   1.5     ENE    72   9.38    265      -60.5
   07/12/2018 23:20      73.8      73.3       58     57.5      0.00      0.00      86.6     0.33      1016.4     0.7     ESE   108   1.9      SE   145   9.38    265      -60.6
   07/12/2018 23:10      73.9      73.4       57     57.7      0.00      0.00      86.5     0.33      1016.3     0.3     ENE    70   1.5      NE    51   9.38    265      -61.1
   07/12/2018 23:00      74.4      73.7       56     57.6      0.00      0.00      86.6     0.33      1016.4     0.3     ENE    60   1.9     ENE    60   9.38    264      -61.6
   07/12/2018 22:50      74.5      73.9       56     57.8      0.00      0.00      86.6     0.33      1016.3     0.4     ENE    59   1.4      NE    39   9.39    264      -62.1
   07/12/2018 22:40      74.7      74.2       56     57.7      0.00      0.00      86.6     0.33      1016.3     0.3       E    80   1.7       E    83   9.39    264      -62.5
   07/12/2018 22:30      75.0      74.3       56     57.7      0.00      0.00      86.6     0.33      1016.4     0.7       E    97   2.0     ENE    71   9.39    264      -62.9
   07/12/2018 22:20      75.5      74.7       56     58.1      0.00      0.00      86.6     0.33      1016.4     1.4       E    87   4.3     ESE   123   9.39    264      -63.5
   07/12/2018 22:10      76.3      75.3       54     57.7      0.00      0.00      86.6     0.33      1016.3     1.0     ESE   109   2.8     ESE   119   9.39    264      -64.5
   07/12/2018 22:00      77.2      76.0       51     56.8      0.00      0.00      86.6     0.33      1016.2     1.2       E    95   3.2     ENE    67   9.39    264      -65.2
   07/12/2018 21:50      77.3      76.8       49     56.3      0.00      0.00      86.6     0.33      1016.1     1.1     ENE    68   2.6      NE    49   9.40    264      -65.6
   07/12/2018 21:40      77.3      76.7       49     56.4      0.00      0.00      86.6     0.33      1015.9     1.5     ENE    65   3.8      NE    49   9.40    264      -66.0
   07/12/2018 21:30      77.6      77.0       49     56.6      0.00      0.00      86.6     0.33      1015.7     0.8       E    97   1.7     ENE    73   9.40    264      -66.6
   07/12/2018 21:20      78.1      77.4       48     56.3      0.00      0.00      86.6     0.33      1015.5     0.9       E    98   2.4     ESE   109   9.40    264      -67.4
   07/12/2018 21:10      78.8      77.9       47     56.3      0.00      0.00      86.6     0.33      1015.4     0.8       E    89   2.0     ENE    70   9.40    263      -68.2
   07/12/2018 21:00      79.2      78.6       46     56.1      0.00      0.00      86.6     0.33      1015.4     0.8     ENE    75   2.2     ENE    64   9.41    263      -69.3
   07/12/2018 20:50      80.1      78.9       45     56.3      0.00      0.00      86.5     0.33      1015.2     1.3     ENE    65   2.5      NE    52   9.41    263      -70.2
   07/12/2018 20:40      80.3      79.7       45     56.6      0.00      0.00      86.6     0.33      1015.2     1.6      NE    50   2.8     ENE    60   9.41    263      -71.1
   07/12/2018 20:30      81.7      80.1       44     56.9      0.00      0.00      86.5     0.33      1015.0     1.6     ENE    66   3.0      NE    54   9.42    263      -72.1
   07/12/2018 20:20      82.0      81.3       43     57.0      0.00      0.00      86.5     0.33      1014.8     1.6     NNE    33   3.0      NE    35   9.42    263      -72.0
   07/12/2018 20:10      82.3      81.7       44     58.2      0.00      0.00      86.5     0.33      1014.6     3.0      SW   226   6.4     NNE    31   9.42    263      -69.8
   07/12/2018 20:00      83.0      82.0       45     58.7      0.00      0.00      86.4     0.33      1014.5     2.6     SSW   205   5.8     WSW   240   9.43    263      -66.6
   07/12/2018 19:50      83.9      82.7       44     59.0      0.00      0.00      86.4     0.33      1014.4     2.7     SSW   205   4.5     SSW   204   9.43    263      -63.4
   07/12/2018 19:40      84.1      83.4       43     59.0      0.00      0.00      86.4     0.33      1014.3     2.6     SSW   196   4.7     SSW   192   9.44    263      -58.9
   07/12/2018 19:30      85.2      83.7       42     58.8      0.00      0.00      86.4     0.33      1014.2     3.4       S   179   6.1      SW   219   9.44    263      -46.5
   07/12/2018 19:20      86.7      85.0       41     59.2      0.00      0.00      86.3     0.33      1014.0     3.4       S   172   5.5     SSW   198   9.45    263      -21.5
   07/12/2018 19:10      88.8      86.3       39     59.4      0.00      0.00      86.3     0.33      1013.9     3.4     SSE   168   6.2      SE   124   9.45    263       -3.6
   07/12/2018 19:00      90.1      88.6       34     57.7      0.00      0.00      86.2     0.33      1013.7     2.9      SW   220   6.2     SSW   211   9.46    263       16.0
   07/12/2018 18:50      90.0      89.5       32     55.7      0.00      0.00      86.2     0.33      1013.5     3.3     WSW   255   6.8     WSW   255   9.46    263       37.8
   07/12/2018 18:40      89.9      89.1       31     54.9      0.00      0.00      86.2     0.33      1013.3     4.2      NW   310   7.2     NNE    14   9.47    262       60.1
   07/12/2018 18:30      90.2      89.6       31     54.9      0.00      0.00      86.1     0.33      1013.2     3.9      NW   312   8.3      NW   321   9.47    262       82.3
   07/12/2018 18:20      90.6      89.8       31     55.3      0.00      0.00      86.1     0.33      1013.1     3.8      NW   312   8.3       N   354   9.48    262      105.1
   07/12/2018 18:10      91.0      90.5       32     56.5      0.00      0.00      86.0     0.33      1013.0     3.9      NW   310   8.0     WNW   301   9.48    262      127.0
   07/12/2018 18:00      91.4      90.3       32     56.6      0.00      0.00      85.8     0.33      1013.0     4.5      NW   312   9.6      NW   320   9.49    262      152.1
   07/12/2018 17:50      91.6      90.7       32     57.0      0.00      0.00      85.9     0.33      1013.0     4.3      NW   307  10.0       W   266   9.49    262      176.0
   07/12/2018 17:40      92.2      91.3       31     57.1      0.00      0.00      85.9     0.33      1013.0     4.4      NW   306   8.5      NW   323   9.50    262      198.9
   07/12/2018 17:30      92.9      91.8       31     57.3      0.00      0.00      85.8     0.33      1013.0     4.7      NW   309  10.9     WNW   293   9.50    262      223.1
   07/12/2018 17:20      94.3      92.5       30     57.4      0.00      0.00      85.7     0.33      1013.0     4.3      NW   308  10.5     WNW   284   9.51    262      244.1
   07/12/2018 17:10      94.0      93.3       29     56.8      0.00      0.00      85.7     0.33      1012.9     3.6       W   269   7.3       W   268   9.51    262      268.7
   07/12/2018 17:00      94.1      93.2       29     56.7      0.00      0.00      85.6     0.33      1012.9     4.4     WSW   240   8.9     WSW   254   9.52    262      291.0
   07/12/2018 16:50      94.1      93.4       29     56.8      0.00      0.00      85.6     0.33      1012.8     5.6      SW   235   9.8     WSW   251   9.52    262      314.5
   07/12/2018 16:40      94.5      93.2       28     56.1      0.00      0.00      85.5     0.33      1012.9     4.2       S   188   8.4      SE   143   9.53    262      335.4
   07/12/2018 16:30      94.2      93.0       27     54.8      0.00      0.00      85.4     0.33      1012.9     4.9       S   181   8.1      SE   126   9.53    262      357.6
   07/12/2018 16:20      94.8      93.5       27     55.2      0.00      0.00      85.3     0.33      1012.8     5.5       S   177   9.9      SE   146   9.54    262      376.5
   07/12/2018 16:10      94.7      93.4       27     55.4      0.00      0.00      85.3     0.33      1012.9     4.6       S   190   9.8      SW   214   9.55    262      395.5
   07/12/2018 16:00      94.5      93.3       27     54.7      0.00      0.00      85.2     0.33      1012.9     4.7       S   181  11.2       S   184   9.56    262      414.3
   07/12/2018 15:50      93.7      92.4       27     54.1      0.00      0.00      85.1     0.33      1012.9     5.9       S   173  10.5       S   184   9.56    262      433.8
   07/12/2018 15:40      93.6      92.8       27     54.0      0.00      0.00      85.0     0.33      1013.0     6.2       S   172  10.8     SSE   165   9.57    262      451.4
   07/12/2018 15:30      95.0      93.1       27     55.0      0.00      0.00      84.9     0.33      1013.1     7.0       S   179  11.2     SSW   203   9.57    262      465.4
   07/12/2018 15:20      95.2      94.3       27     55.3      0.00      0.00      84.9     0.33      1013.0     5.6     SSW   193  10.1     WSW   243   9.59    262      476.7
   07/12/2018 15:10      95.9      94.3       27     55.3      0.00      0.00      84.8     0.33      1013.0     6.7     SSW   209  10.0     SSW   203   9.59    262      490.0
   07/12/2018 15:00      96.5      94.8       27     55.9      0.00      0.00      84.8     0.33      1013.1     4.4       S   191   8.7      SW   230   9.60    262      497.2
   07/12/2018 14:50      97.0      95.2       26     56.2      0.00      0.00      84.7     0.33      1013.1     3.7      SW   228  10.3      SW   216   9.60    262      505.1
   07/12/2018 14:40      95.6      94.9       27     56.3      0.00      0.00      84.6     0.33      1013.2     3.0       S   181   6.7     SSW   198   9.61    263      521.2
   07/12/2018 14:30      95.4      94.2       28     56.2      0.00      0.00      84.5     0.33      1013.2     4.0       S   186   8.3     SSW   198   9.61    263      533.5
   07/12/2018 14:20      95.3      94.1       28     56.5      0.00      0.00      84.5     0.33      1013.3     5.2     SSW   202  12.8     SSW   206   9.62    262      546.2
   07/12/2018 14:10      96.1      94.4       28     56.6      0.00      0.00      84.5     0.33      1013.4     6.3       S   185  10.5     SSW   203   9.62    262      552.7
   07/12/2018 14:00      96.1      95.1       28     56.7      0.00      0.00      84.4     0.32      1013.4     3.6     SSE   162   7.8      SE   133   9.62    262      557.7
   07/12/2018 13:50      96.0      95.2       27     56.8      0.00      0.00      84.3     0.32      1013.5     3.0     SSE   148   9.2      SE   133   9.63    262      557.2
   07/12/2018 13:40      96.0      94.3       29     58.0      0.00      0.00      84.1     0.32      1013.6     2.3       E    96   5.3       E    91   9.63    262      564.0
   07/12/2018 13:30      96.1      94.4       29     58.4      0.00      0.00      84.2     0.32      1013.7     2.4     ESE   119   8.5      SE   136   9.64    262      563.6
   07/12/2018 13:20      95.1      92.9       31     58.4      0.00      0.00      84.2     0.32      1013.7     3.1     ESE   117   9.2      SE   135   9.64    262      567.1
   07/12/2018 13:10      95.6      94.8       29     57.8      0.00      0.00      84.0     0.32      1013.8     2.3     WNW   300   4.9       W   277   9.64    262      567.6
   07/12/2018 13:00      95.0      93.0       30     57.8      0.00      0.00      84.1     0.32      1013.9     1.8      NE    47   4.4       E    87   9.64    262      570.2
   07/12/2018 12:50      94.6      93.5       30     57.8      0.00      0.00      84.1     0.32      1014.0     2.8     SSE   153   7.9      SW   235   9.65    262      569.9
   07/12/2018 12:40      95.2      92.6       30     57.8      0.00      0.00      84.0     0.32      1014.1     2.2     NNE    12   6.0      NW   309   9.65    261      567.2
   07/12/2018 12:30      93.1      92.3       31     57.6      0.00      0.00      84.0     0.32      1014.2     2.3     WNW   293   6.7       W   276   9.65    261      566.0
   07/12/2018 12:20      92.8      89.7       33     57.9      0.00      0.00      84.0     0.32      1014.4     1.9      NE    41   5.9      NE    36   9.65    262      565.6
   07/12/2018 12:10      93.2      89.9       32     58.1      0.00      0.00      84.0     0.32      1014.4     3.9     SSE   169   8.1       S   187   9.65    262      561.8
   07/12/2018 12:00      92.2      90.6       33     58.1      0.00      0.00      84.0     0.32      1014.6     2.3     NNE    16   6.4       W   269   9.66    262      556.4
   07/12/2018 11:50      91.2      89.9       33     57.9      0.00      0.00      84.0     0.32      1014.7     3.3       N   359   6.3      SW   222   9.66    262      549.5
   07/12/2018 11:40      91.4      89.9       33     57.7      0.00      0.00      83.9     0.32      1014.9     2.1     NNW   338   5.2      SW   227   9.66    261      538.9
   07/12/2018 11:30      91.0      89.3       33     57.1      0.00      0.00      83.9     0.32      1014.9     2.3       N     6   5.1     ENE    72   9.66    262      531.6
   07/12/2018 11:20      90.6      89.5       33     56.6      0.00      0.00      83.9     0.33      1015.1     1.6     NNE    26   3.7     NNE    17   9.66    262      524.3
   07/12/2018 11:10      89.9      87.9       33     56.2      0.00      0.00      84.0     0.33      1015.1     1.1     SSW   205   2.9      SW   226   9.66    262      520.2
   07/12/2018 11:00      88.3      87.5       34     55.9      0.00      0.00      83.9     0.33      1015.2     1.6      SE   138   3.6     SSE   166   9.66    262      502.5
   07/12/2018 10:50      87.8      85.9       35     56.0      0.00      0.00      84.0     0.33      1015.2     1.6      NE    41   3.3      NE    40   9.67    262      496.9
   07/12/2018 10:40      87.3      85.9       35     55.9      0.00      0.00      84.0     0.33      1015.2     1.8      SE   132   3.7     SSW   197   9.67    262      483.3
   07/12/2018 10:30      87.5      86.4       35     56.3      0.00      0.00      84.0     0.33      1015.2     1.8      NE    48   4.8     ESE   123   9.67    262      467.3
   07/12/2018 10:20      86.4      84.2       38     56.5      0.00      0.00      84.0     0.33      1015.1     1.3     NNW   332   4.2       N     2   9.67    262      451.2
   07/12/2018 10:10      85.2      84.2       39     57.1      0.00      0.00      84.0     0.33      1015.1     1.7     ENE    62   3.3      NE    49   9.67    262      435.5
   07/12/2018 10:00      84.2      83.3       40     57.1      0.00      0.00      84.0     0.33      1015.1     2.1      NW   313   4.7      NW   319   9.67    262      419.1
   07/12/2018 09:50      83.6      82.8       42     57.5      0.00      0.00      84.0     0.33      1015.1     2.3       N   352   6.0       N   355   9.67    262      396.9
   07/12/2018 09:40      83.6      81.7       41     56.9      0.00      0.00      84.1     0.33      1015.1     1.6     NNE    15   3.9     NNW   348   9.67    262      389.2
   07/12/2018 09:30      82.4      81.3       40     55.6      0.00      0.00      84.2     0.33      1015.1     1.1      SE   128   3.7     ESE   115   9.67    262      387.3
   07/12/2018 09:20      81.6      80.8       44     57.1      0.00      0.00      84.0     0.33      1015.1     1.4     NNE    13   3.3     NNW   348   9.67    263      393.2
   07/12/2018 09:10      81.2      80.4       45     57.5      0.00      0.00      84.2     0.33      1015.1     1.5     NNW   335   2.9     NNE    30   9.67    263      386.0
   07/12/2018 09:00      80.6      77.8       48     57.5      0.00      0.00      84.2     0.33      1015.1     0.9     NNW   345   2.7     NNE    32   9.67    263      423.6
   07/12/2018 08:50      78.0      77.0       51     58.0      0.00      0.00      84.3     0.33      1015.1     1.3     NNE    22   2.7      NW   306   9.67    264      224.1
   07/12/2018 08:40      78.0      77.2       50     57.7      0.00      0.00      84.3     0.33      1015.1     1.0      NE    48   2.6      NE    46   9.67    264      120.9
   07/12/2018 08:30      77.9      76.7       51     57.9      0.00      0.00      84.3     0.33      1015.0     0.2       N   351   1.3     NNE    31   9.67    264      103.6
   07/12/2018 08:20      77.0      75.7       53     57.9      0.00      0.00      84.3     0.33      1014.9     0.3       W   274   1.9       W   275   9.67    265       87.4
   07/12/2018 08:10      76.1      75.0       54     57.8      0.00      0.00      84.4     0.33      1014.8     0.5     NNE    32   1.8     SSW   195   9.67    264       79.5
   07/12/2018 08:00      75.4      74.8       56     58.2      0.00      0.00      84.4     0.33      1014.7     1.3       W   264   3.3       W   274   9.67    265       70.7
   07/12/2018 07:50      75.0      74.2       57     58.4      0.00      0.00      84.4     0.33      1014.6     0.4      NW   317   2.2     NNW   328   9.68    265       65.7
   07/12/2018 07:40      74.4      73.4       59     58.8      0.00      0.00      84.5     0.33      1014.5     0.3       S   188   1.2       S   188   9.68    265       60.2
   07/12/2018 07:30      73.7      73.1       61     59.2      0.00      0.00      84.5     0.33      1014.5     1.2     SSE   166   2.4       S   180   9.68    266       43.3
   07/12/2018 07:20      73.5      72.8       63     59.7      0.00      0.00      84.5     0.33      1014.4     1.0     ESE   115   2.3      SE   135   9.68    265       31.5
   07/12/2018 07:10      73.0      72.4       64     59.6      0.00      0.00      84.6     0.33      1014.3     1.0     ENE    79   2.1     ENE    72   9.68    266       25.6
   07/12/2018 07:00      72.7      72.1       65     59.7      0.00      0.00      84.6     0.33      1014.2     0.6     ESE   105   1.5      SE   128   9.68    266       17.8
   07/12/2018 06:50      72.2      71.7       65     59.6      0.00      0.00      84.6     0.33      1014.2     0.7      SE   127   1.8       E   100   9.68    266        6.6
   07/12/2018 06:40      71.9      71.2       65     59.0      0.00      0.00      84.7     0.33      1014.2     0.8     ESE   106   1.8     ESE   115   9.68    266      -10.9
   07/12/2018 06:30      71.5      70.8       63     58.0      0.00      0.00      84.6     0.33      1014.2     0.3      SE   134   1.5      SE   139   9.68    266      -25.3
   07/12/2018 06:20      71.0      70.4       62     57.0      0.00      0.00      84.7     0.33      1014.1     0.1     SSE   149   1.1     SSE   149   9.68    265      -30.2
   07/12/2018 06:10      70.6      70.2       62     56.5      0.00      0.00      84.7     0.33      1014.0     0.0     SSE   156   1.3     SSE   149   9.68    266      -38.8
   07/12/2018 06:00      70.8      70.3       60     56.1      0.00      0.00      84.7     0.33      1014.0     0.0       S   173   0.3       S   173   9.68    266      -47.5
   07/12/2018 05:50      71.3      70.6       59     55.9      0.00      0.00      84.7     0.33      1013.9     0.5       S   191   1.9     SSW   198   9.68    266      -50.1
   07/12/2018 05:40      71.5      71.0       60     56.5      0.00      0.00      84.8     0.33      1013.8     0.3      SW   214   1.7     SSW   208   9.68    266      -49.5
   07/12/2018 05:30      72.1      71.3       60     56.8      0.00      0.00      84.7     0.33      1013.7     0.0     ENE    70   0.8     ENE    70   9.68    266      -50.2
   07/12/2018 05:20      72.3      71.6       60     57.1      0.00      0.00      84.9     0.33      1013.5     0.0       N     0   0.0     ENE    70   9.68    265      -49.6
   07/12/2018 05:10      72.4      72.0       60     57.4      0.00      0.00      84.8     0.33      1013.5     0.0     ENE    70   0.3     ENE    70   9.68    265      -41.3
   07/12/2018 05:00      72.3      71.7       59     57.1      0.00      0.00      84.9     0.33      1013.5     0.0     SSE   166   0.5     SSE   166   9.68    265      -33.3
   07/12/2018 04:50      72.3      71.9       59     57.1      0.00      0.00      84.9     0.33      1013.3     0.0     SSE   154   0.3     SSE   165   9.69    265      -29.9
   07/12/2018 04:40      72.3      71.9       60     57.4      0.00      0.00      85.0     0.33      1013.3     0.1      SE   126   0.8      SE   143   9.69    265      -28.3
   07/12/2018 04:30      72.3      71.8       60     57.4      0.00      0.00      84.9     0.33      1013.3     0.0       N     0   0.0       E    79   9.69    265      -28.0
   07/12/2018 04:20      72.1      71.7       60     57.3      0.00      0.00      85.0     0.33      1013.4     0.0       N     0   0.0       E    79   9.69    265      -29.3
   07/12/2018 04:10      72.1      71.7       60     57.2      0.00      0.00      85.1     0.33      1013.3     0.0       N     0   0.0       E    79   9.69    265      -31.4
   07/12/2018 04:00      72.0      71.6       60     57.0      0.00      0.00      85.1     0.33      1013.3     0.3     ESE   108   1.0      SE   130   9.69    265      -34.4
   07/12/2018 03:50      72.2      71.6       59     56.8      0.00      0.00      85.1     0.33      1013.3     0.7     ESE   122   1.4      SE   129   9.69    265      -37.2
   07/12/2018 03:40      72.5      71.8       58     56.8      0.00      0.00      85.1     0.33      1013.4     0.8     ESE   115   1.8     SSE   147   9.69    265      -39.2
   07/12/2018 03:30      72.5      72.1       59     57.0      0.00      0.00      85.1     0.33      1013.3     0.9      NE    37   2.8      NE    50   9.69    265      -39.1
   07/12/2018 03:20      72.5      72.1       59     57.1      0.00      0.00      85.2     0.33      1013.3     1.2      NE    44   2.9      NE    40   9.69    265      -39.0
   07/12/2018 03:10      72.7      72.2       58     56.8      0.00      0.00      85.1     0.33      1013.4     1.0     ENE    66   2.1       E    88   9.69    264      -40.9
   07/12/2018 03:00      72.8      72.2       57     56.5      0.00      0.00      85.2     0.33      1013.5     0.6     ENE    70   1.6      SE   135   9.69    264      -44.4
   07/12/2018 02:50      72.8      72.4       56     56.0      0.00      0.00      85.2     0.33      1013.5     1.2      NE    54   2.7      NE    50   9.70    264      -47.8
   07/12/2018 02:40      73.0      72.6       54     55.0      0.00      0.00      85.3     0.33      1013.7     1.2      NE    46   3.5      NE    54   9.70    264      -48.2
   07/12/2018 02:30      73.5      72.8       50     53.4      0.00      0.00      85.3     0.33      1013.7     0.9     ENE    70   2.5     ENE    79   9.70    264      -45.9
   07/12/2018 02:20      73.5      73.1       48     52.4      0.00      0.00      85.3     0.33      1013.7     0.8     ENE    60   1.7     ENE    59   9.70    263      -42.4
   07/12/2018 02:10      73.6      73.3       45     50.7      0.00      0.00      85.3     0.33      1013.8     0.5     ENE    69   2.0     ENE    70   9.70    263      -40.2
   07/12/2018 02:00      74.0      73.3       42     49.1      0.00      0.00      85.3     0.33      1013.7     0.5       E    90   2.7      NE    54   9.70    263      -42.4
   07/12/2018 01:50      74.0      73.6       42     49.1      0.00      0.00      85.4     0.33      1013.8     0.4      NE    54   1.6      NE    55   9.70    263      -42.0
   07/12/2018 01:40      74.0      73.6       42     49.2      0.00      0.00      85.4     0.33      1013.8     0.0       N     0   0.0      NE    55   9.70    263      -43.5
   07/12/2018 01:30      74.5      73.7       42     49.5      0.00      0.00      85.4     0.33      1013.8     0.0       N     0   0.0      NE    55   9.70    263      -45.2
   07/12/2018 01:20      74.5      74.0       42     49.7      0.00      0.00      85.4     0.33      1013.8     0.1      NE    40   0.8      NE    37   9.71    263      -44.7
   07/12/2018 01:10      74.5      74.1       42     49.8      0.00      0.00      85.4     0.33      1013.8     0.4      NE    48   1.9      NE    47   9.71    263      -44.2
   07/12/2018 01:00      74.8      74.2       43     50.2      0.00      0.00      85.5     0.33      1013.8     1.3     ENE    59   2.4     ENE    61   9.71    263      -44.6
   07/12/2018 00:50      75.5      74.5       44     51.4      0.00      0.00      85.5     0.33      1013.8     1.7      NE    52   3.1     ENE    58   9.71    263      -45.0
   07/12/2018 00:40      76.0      75.2       42     51.2      0.00      0.00      85.6     0.33      1013.7     1.2     ENE    65   3.4      NE    48   9.71    263      -45.8
   07/12/2018 00:30      76.4      75.7       36     47.1      0.00      0.00      85.5     0.33      1013.6     0.4       E   101   1.8       E    86   9.71    263      -45.4
   07/12/2018 00:20      76.6      76.1       34     46.1      0.00      0.00      85.5     0.33      1013.6     0.9     SSE   148   2.0       S   187   9.71    263      -47.2
   07/12/2018 00:10      76.9      76.2       33     45.2      0.00      0.00      85.5     0.33      1013.7     1.1       S   174   2.6       S   190   9.71    263      -46.4
   07/12/2018 00:00      76.9      76.4       33     45.1      0.00      0.00      85.5     0.33      1013.6     1.0     SSE   169   2.4      SE   136   9.72    263      -47.6
   07/11/2018 23:50      77.2      76.6       33     45.3      0.00      0.00      85.6     0.33      1013.6     1.3       S   187   2.4     SSW   199   9.72    263      -47.9
   07/11/2018 23:40      77.2      76.8       34     46.6      0.00      0.00      85.6     0.33      1013.5     2.0       S   189   4.1     SSW   197   9.72    263      -47.9
   07/11/2018 23:30      77.2      76.9       37     48.6      0.00      0.00      85.6     0.33      1013.5     1.2       S   184   2.3     SSE   162   9.72    263      -41.4
   07/11/2018 23:20      77.2      76.7       37     48.9      0.00      0.00      85.6     0.33      1013.5     0.3     ESE   109   1.6     SSW   204   9.72    263      -38.4
   07/11/2018 23:10      77.2      76.7       37     48.8      0.00      0.00      85.6     0.33      1013.5     0.2     SSE   159   1.0       S   172   9.73    263      -38.2
   07/11/2018 23:00      77.8      76.9       37     48.8      0.00      0.00      85.6     0.33      1013.4     0.0      SE   143   0.5      SE   143   9.73    263      -41.4
   07/11/2018 22:50      77.7      77.2       37     48.8      0.00      0.00      85.6     0.33      1013.3     0.2      SE   134   0.9      SE   134   9.73    263      -44.0
   07/11/2018 22:40      77.8      77.3       36     48.8      0.00      0.00      85.6     0.33      1013.3     0.5       E    97   2.5     NNE    19   9.73    263      -43.0
   07/11/2018 22:30      77.5      77.2       37     49.2      0.00      0.00      85.7     0.33      1013.2     0.4      NE    52   1.7     NNE    24   9.73    263      -43.0
   07/11/2018 22:20      77.6      77.2       37     49.4      0.00      0.00      85.6     0.33      1013.1     0.1     ENE    60   1.5     ENE    75   9.73    263      -43.5
   07/11/2018 22:10      77.6      77.2       38     49.6      0.00      0.00      85.6     0.33      1012.9     0.6     ENE    67   1.8     ENE    70   9.74    263      -45.5
   07/11/2018 22:00      77.6      77.2       38     49.9      0.00      0.00      85.6     0.33      1012.9     1.3     ENE    68   2.5       E    88   9.74    263      -49.9
   07/11/2018 21:50      78.1      77.3       38     50.2      0.00      0.00      85.6     0.33      1012.8     1.8       E    88   4.5     NNE    14   9.74    263      -54.7
   07/11/2018 21:40      79.0      77.9       37     50.3      0.00      0.00      85.6     0.33      1012.7     1.5       E    87   3.4      NE    55   9.74    263      -58.5
   07/11/2018 21:30      79.9      78.8       36     49.9      0.00      0.00      85.6     0.33      1012.5     1.5       E    92   3.1     ENE    64   9.74    263      -62.7
   07/11/2018 21:20      80.7      79.6       35     49.6      0.00      0.00      85.6     0.33      1012.4     1.5       E    81   3.6       E    91   9.75    263      -61.9
   07/11/2018 21:10      81.5      80.4       33     49.4      0.00      0.00      85.5     0.33      1012.2     1.5     ENE    68   3.0      NE    50   9.75    262      -61.0
   07/11/2018 21:00      82.7      81.2       31     48.6      0.00      0.00      85.5     0.33      1012.1     2.2      NE    51   4.0     ENE    57   9.76    262      -62.3
   07/11/2018 20:50      83.6      82.4       30     48.6      0.00      0.00      85.4     0.33      1012.0     1.5      NE    47   2.7     ENE    59   9.76    262      -61.5
   07/11/2018 20:40      84.2      83.4       32     50.6      0.00      0.00      85.5     0.33      1011.9     1.7       N     5   3.7     WNW   298   9.76    262      -59.5
   07/11/2018 20:30      84.5      83.9       34     52.5      0.00      0.00      85.4     0.33      1011.8     2.0      NW   305   4.8     WNW   303   9.76    262      -60.6
   07/11/2018 20:20      85.0      84.1       34     52.9      0.00      0.00      85.4     0.33      1011.7     2.2       W   276   4.2       W   265   9.77    262      -62.3
   07/11/2018 20:10      85.5      84.6       33     52.9      0.00      0.00      85.4     0.33      1011.6     1.9      NW   305   4.7     WSW   244   9.77    262      -64.0
   07/11/2018 20:00      86.1      85.1       30     50.6      0.00      0.00      85.4     0.33      1011.4     2.1       W   271   4.1       W   272   9.77    262      -60.7
   07/11/2018 19:50      86.4      85.6       25     45.9      0.00      0.00      85.3     0.33      1011.3     1.4     SSW   201   4.0     SSW   199   9.78    262      -57.5
   07/11/2018 19:40      86.5      85.9       25     46.2      0.00      0.00      85.3     0.33      1011.3     1.9     SSW   205   4.2     SSW   195   9.78    262      -47.9
   07/11/2018 19:30      86.8      85.7       25     46.1      0.00      0.00      85.3     0.33      1011.2     3.1       S   180   6.9       S   181   9.79    262      -33.2
   07/11/2018 19:20      87.5      86.5       24     45.7      0.00      0.00      85.2     0.33      1011.1     3.9       S   170   7.6       S   176   9.80    261      -22.7
   07/11/2018 19:10      88.5      87.2       23     45.5      0.00      0.00      85.2     0.33      1010.9     4.0       S   179   6.6       S   181   9.80    261       -8.0
   07/11/2018 19:00      89.0      88.0       23     45.5      0.00      0.00      85.2     0.33      1010.8     3.3       S   172   6.4       S   188   9.81    261       12.6
   07/11/2018 18:50      89.3      88.8       23     46.2      0.00      0.00      85.1     0.33      1010.7     3.6     SSE   169   7.1      SW   214   9.81    261       37.0
   07/11/2018 18:40      89.9      89.1       23     46.8      0.00      0.00      85.1     0.33      1010.5     3.6       S   181   6.7     SSE   162   9.82    261       60.1
   07/11/2018 18:30      90.5      89.5       24     48.1      0.00      0.00      85.0     0.33      1010.5     4.7     SSW   193   8.2     SSW   194   9.83    262       81.5
   07/11/2018 18:20      90.6      90.0       24     48.8      0.00      0.00      85.0     0.33      1010.4     4.0       S   188   8.1     WSW   238   9.84    261      105.8
   07/11/2018 18:10      90.8      90.4       25     49.5      0.00      0.00      85.0     0.33      1010.3     4.0       S   178   7.2     SSW   207   9.84    261      129.9
   07/11/2018 18:00      91.1      90.2       24     49.4      0.00      0.00      84.9     0.33      1010.2     4.3     SSE   159   6.7      SE   143   9.85    262      151.4
   07/11/2018 17:50      91.6      90.5       24     49.4      0.00      0.00      84.9     0.33      1010.2     4.8       S   184   9.3     SSE   161   9.85    262      176.1
   07/11/2018 17:40      92.5      91.3       23     49.0      0.00      0.00      84.8     0.33      1010.3     4.9       S   181   9.1     SSE   147   9.86    261      198.7
   07/11/2018 17:30      94.1      92.1       23     49.4      0.00      0.00      84.7     0.33      1010.3     4.9       S   188   7.6     SSW   206   9.87    262      224.9
   07/11/2018 17:20      94.0      93.5       22     49.8      0.00      0.00      84.7     0.33      1010.3     4.4     SSW   193   8.0     SSW   200   9.87    261      244.4
   07/11/2018 17:10      94.1      92.9       22     49.7      0.00      0.00      84.6     0.33      1010.2     4.3     SSW   208   8.2     SSW   195   9.88    261      266.3
   07/11/2018 17:00      94.0      93.2       22     49.5      0.00      0.00      84.5     0.33      1010.2     4.5       S   184   8.0       S   180   9.89    261      288.4
   07/11/2018 16:50      94.3      93.1       22     49.4      0.00      0.00      84.5     0.33      1010.2     4.1     SSE   160   9.1     SSE   153   9.89    261      309.2
   07/11/2018 16:40      94.1      93.0       22     49.0      0.00      0.00      84.4     0.33      1010.3     5.3       S   174   9.9       S   184   9.90    261      332.5
   07/11/2018 16:30      94.3      93.5       22     48.9      0.00      0.00      84.4     0.33      1010.2     5.7     SSE   165   9.9      SE   138   9.90    261      354.2
   07/11/2018 16:20      94.8      93.4       22     49.3      0.00      0.00      84.3     0.33      1010.3     5.3     SSE   167   8.9     SSE   160   9.91    261      372.1
   07/11/2018 16:10      94.6      93.2       22     49.5      0.00      0.00      84.3     0.33      1010.3     4.7       S   188   9.6     SSW   193   9.92    262      391.7
   07/11/2018 16:00      94.3      92.9       22     49.3      0.00      0.00      84.2     0.33      1010.3     5.0       S   171  10.2     SSE   165   9.92    261      412.2
   07/11/2018 15:50      93.5      92.7       22     49.0      0.00      0.00      84.1     0.33      1010.3     6.6       S   172  10.9       S   184   9.93    261      433.5
   07/11/2018 15:40      94.3      93.0       22     48.7      0.00      0.00      84.1     0.33      1010.4     6.4       S   171   9.8       S   177   9.94    261      445.9
   07/11/2018 15:30      95.7      93.8       20     47.9      0.00      0.00      84.0     0.33      1010.4     6.0     SSW   197  10.5     SSW   198   9.95    261      460.8
   07/11/2018 15:20      96.1      93.9       21     48.7      0.00      0.00      83.9     0.33      1010.3     7.0       S   178  12.4       S   174   9.95    262      476.1
   07/11/2018 15:10      96.9      95.5       21     49.7      0.00      0.00      83.8     0.33      1010.4     6.0     SSE   168  10.6       S   180   9.96    262      485.9
   07/11/2018 15:00      98.5      95.9       21     50.3      0.00      0.00      83.8     0.33      1010.4     5.1     SSE   147   9.1       S   189   9.96    262      494.1
   07/11/2018 14:50      99.1      96.3       21     50.7      0.00      0.00      83.8     0.33      1010.4     5.5     SSW   210   9.8       W   259   9.97    262      506.5
   07/11/2018 14:40      99.2      98.1       21     51.9      0.00      0.00      83.7     0.33      1010.5     4.3     NNW   333   8.3     WNW   297   9.98    261      511.2
   07/11/2018 14:30      98.6      98.1       21     51.8      0.00      0.00      83.7     0.32      1010.7     3.2     NNE    17   6.2      NW   325   9.98    261      479.8
   07/11/2018 14:20      99.9      98.1       21     51.7      0.00      0.00      83.6     0.32      1010.8     2.4       N    11   6.0      NE    44   9.98    262      529.4
   07/11/2018 14:10      98.7      97.6       21     51.3      0.00      0.00      83.4     0.32      1011.0     2.4     NNE    28   5.2     ENE    65   9.99    262      544.8
   07/11/2018 14:00      98.2      96.6       21     51.0      0.00      0.00      83.3     0.32      1011.2     3.8     NNE    19   6.1       N     3   9.99    261      552.7
   07/11/2018 13:50      98.1      96.1       22     51.3      0.00      0.00      83.5     0.32      1011.3     1.8     NNW   342   5.5     NNE    20   9.99    261      559.4
   07/11/2018 13:40      97.9      95.7       22     51.5      0.00      0.00      83.4     0.32      1011.5     2.2       N     6   5.6       N   352  10.00    261      560.6
   07/11/2018 13:30      97.0      96.2       22     51.8      0.00      0.00      83.4     0.32      1011.6     3.2       N   351   5.9     NNW   340  10.00    261      559.8
   07/11/2018 13:20      96.8      95.5       23     52.0      0.00      0.00      83.3     0.32      1011.7     2.4     NNE    24   4.6     NNE    32  10.00    261      568.9
   07/11/2018 13:10      96.0      95.2       23     52.1      0.00      0.00      83.4     0.32      1011.8     2.3     NNW   344   6.9      NE    42  10.00    261      575.5
   07/11/2018 13:00      95.9      94.0       24     52.2      0.00      0.00      83.3     0.32      1012.0     2.3     NNW   348   4.7       N     4  10.00    261      590.9
   07/11/2018 12:50      95.1      94.0       24     52.0      0.00      0.00      83.2     0.32      1012.2     2.6     NNW   329   6.0       N     0  10.00    261      602.0
   07/11/2018 12:40      94.9      92.6       25     52.5      0.00      0.00      83.2     0.32      1012.4     1.9       N   359   4.7      NW   308  10.01    261      621.0
   07/11/2018 12:30      92.6      91.6       26     52.8      0.00      0.00      83.2     0.33      1012.5     2.1     NNE    15   5.4     NNW   347  10.01    262      530.4
   07/11/2018 12:20      92.3      91.0       27     52.7      0.00      0.00      83.1     0.33      1012.6     2.7     NNE    12   5.4     NNE    26  10.01    262      256.4
   07/11/2018 12:10      92.4      91.7       26     52.5      0.00      0.00      83.2     0.32      1012.8     2.0       E    82   4.1       E    85  10.01    261      336.1
   07/11/2018 12:00      92.6      91.5       26     52.2      0.00      0.00      83.2     0.32      1012.9     2.4     NNE    17   4.5       N   355  10.01    261      386.6
   07/11/2018 11:50      92.4      91.7       26     52.2      0.00      0.00      83.2     0.32      1013.0     2.2     NNE    22   4.8      NE    39  10.01    261      499.5
   07/11/2018 11:40      92.0      90.4       27     52.4      0.00      0.00      83.2     0.32      1013.1     2.7     NNE    23   6.0     ENE    61  10.02    261      586.7
   07/11/2018 11:30      90.9      89.7       27     52.2      0.00      0.00      83.2     0.32      1013.1     1.9     ENE    63   4.7      NW   305  10.02    262      552.3
   07/11/2018 11:20      90.1      89.0       27     51.5      0.00      0.00      83.2     0.32      1013.1     1.9      SW   228   4.2       S   188  10.02    262      535.9
   07/11/2018 11:10      89.1      87.8       28     51.0      0.00      0.00      83.2     0.33      1013.2     2.4      NE    37   4.2       E    88  10.02    262      544.4
   07/11/2018 11:00      89.0      87.5       27     49.5      0.00      0.00      83.2     0.33      1013.3     2.1       E    85   6.6       E    91  10.02    262      481.3
   07/11/2018 10:50      88.1      87.3       27     49.5      0.00      0.00      83.2     0.33      1013.3     2.2     ENE    68   5.3      SE   133  10.02    261      476.6
   07/11/2018 10:40      87.5      86.0       26     47.9      0.00      0.00      83.3     0.33      1013.3     2.2      NE    38   5.1       N     0  10.02    261      472.5
   07/11/2018 10:30      87.4      86.1       23     44.9      0.00      0.00      83.3     0.33      1013.5     2.2     ENE    73   4.9       E    84  10.02    262      272.1
   07/11/2018 10:20      86.9      86.0       25     46.6      0.00      0.00      83.3     0.33      1013.4     2.7     NNE    28   4.8       E    88  10.02    261      490.3
   07/11/2018 10:10      86.0      84.5       29     49.6      0.00      0.00      83.4     0.33      1013.5     2.0      NE    48   4.3     ENE    63  10.02    262      457.6
   07/11/2018 10:00      84.8      84.2       31     50.9      0.00      0.00      83.4     0.33      1013.5     2.3     NNE    20   4.9      NE    53  10.02    262      386.9
   07/11/2018 09:50      84.5      83.5       35     53.4      0.00      0.00      83.4     0.33      1013.4     2.3       N   350   4.1     WNW   294  10.02    263      341.8
   07/11/2018 09:40      83.9      83.0       37     54.8      0.00      0.00      83.4     0.33      1013.5     2.0     NNW   348   6.2       N     7  10.02    263      386.9
   07/11/2018 09:30      83.2      81.6       39     54.6      0.00      0.00      83.4     0.33      1013.8     1.5      NE    49   3.1       E    90  10.02    263      370.6
   07/11/2018 09:20      81.8      80.5       43     56.4      0.00      0.00      83.5     0.33      1013.8     1.6       N     5   4.4     NNE    20  10.02    263      356.4
   07/11/2018 09:10      80.7      79.7       43     56.0      0.00      0.00      83.6     0.33      1013.8     2.0     NNE    13   4.4     NNE    23  10.02    263      342.9
   07/11/2018 09:00      80.0      77.9       47     56.9      0.00      0.00      83.6     0.33      1013.9     1.2       N    11   2.7       N     8  10.02    263      332.6
   07/11/2018 08:50      78.0      76.9       49     56.4      0.00      0.00      83.6     0.33      1014.0     1.1       E    81   2.8       E    88  10.02    265      162.3
   07/11/2018 08:40      77.3      76.2       52     57.8      0.00      0.00      83.6     0.33      1014.0     1.6      NE    50   3.4       E    92  10.02    265       13.3
   07/11/2018 08:30      76.4      75.3       56     59.1      0.00      0.00      83.7     0.33      1014.0     1.3     ESE   102   3.5      SE   137  10.02    266        1.8
   07/11/2018 08:20      75.5      74.4       58     59.3      0.00      0.00      83.7     0.33      1014.0     0.8     NNE    15   2.2       N     3  10.02    266       -0.1
   07/11/2018 08:10      74.7      74.0       61     59.8      0.00      0.00      83.7     0.33      1013.9     0.8       S   171   2.4     ESE   116  10.02    266        8.2
   07/11/2018 08:00      74.3      73.6       61     59.5      0.00      0.00      83.8     0.33      1013.9     0.8      NE    43   2.6      NE    50  10.02    266       17.5
   07/11/2018 07:50      73.8      72.8       61     59.0      0.00      0.00      83.8     0.33      1013.8     0.5       E    95   1.8     SSE   155   9.95    266        1.6
   07/11/2018 07:40      73.0      72.5       62     58.9      0.00      0.00      83.9     0.33      1013.8     0.8     ESE   120   1.9       E    96   9.17    266        4.5
   07/11/2018 07:30      72.7      72.2       62     58.9      0.00      0.00      83.9     0.33      1013.9     1.1     ENE    61   2.4       E    96   9.18    266       -4.1
   07/11/2018 07:20      72.4      71.3       61     57.8      0.00      0.00      84.0     0.33      1013.9     0.0       N     0   0.0     SSE   153   9.18    266       -9.0
   07/11/2018 07:10      71.4      70.1       59     56.0      0.00      0.00      84.0     0.33      1014.0     0.0       N     0   0.0     SSE   153   9.18    266       -8.7
   07/11/2018 07:00      70.4      69.8       61     55.7      0.00      0.00      84.0     0.33      1013.9     0.0       N     0   0.0     SSE   153   9.18    266      -18.4
   07/11/2018 06:50      70.0      69.4       62     56.1      0.00      0.00      84.1     0.33      1013.9     0.0       N     0   0.0     SSE   153   9.18    266      -25.0
   07/11/2018 06:40      69.6      69.0       61     55.3      0.00      0.00      84.1     0.33      1013.9     0.3     SSE   153   1.5     SSE   152   9.18    266      -31.5
   07/11/2018 06:30      69.3      68.1       60     54.3      0.00      0.00      84.1     0.33      1013.7     0.0     SSE   153   0.8     SSE   153   9.18    265      -34.2
   07/11/2018 06:20      68.3      67.7       59     53.4      0.00      0.00      84.2     0.33      1013.8     0.2     SSE   153   1.0     SSE   153   9.18    266      -34.1
   07/11/2018 06:10      67.9      67.6       59     53.1      0.00      0.00      84.2     0.33      1013.8     0.1     SSE   152   0.7     SSE   152   9.18    266      -39.9
   07/11/2018 06:00      68.0      67.4       60     53.3      0.00      0.00      84.2     0.33      1013.8     0.0     SSE   152   0.6     SSE   152   9.18    265      -44.2
   07/11/2018 05:50      67.9      67.3       61     53.4      0.00      0.00      84.2     0.33      1013.8     0.0       N     0   0.0     SSE   152   9.18    266      -47.2
   07/11/2018 05:40      67.9      67.4       61     53.5      0.00      0.00      84.3     0.33      1013.7     0.1     SSE   152   0.8     SSE   153   9.18    266      -49.3
   07/11/2018 05:30      68.2      67.6       60     53.3      0.00      0.00      84.4     0.33      1013.6     0.0     SSE   152   0.4     SSE   152   9.18    266      -50.6
   07/11/2018 05:20      68.4      68.0       59     53.5      0.00      0.00      84.3     0.33      1013.5     0.2     SSE   152   1.6      SE   145   9.18    266      -51.5
   07/11/2018 05:10      68.5      67.7       59     53.3      0.00      0.00      84.4     0.33      1013.5     1.0     SSE   155   2.5      SE   141   9.18    266      -51.0
   07/11/2018 05:00      68.6      68.1       59     53.4      0.00      0.00      84.4     0.33      1013.5     0.6       S   171   1.4       S   176   9.18    266      -50.6
   07/11/2018 04:50      68.8      68.2       58     53.3      0.00      0.00      84.4     0.33      1013.5     0.2       S   170   1.0       S   170   9.18    265      -50.8
   07/11/2018 04:40      69.0      68.2       58     53.1      0.00      0.00      84.5     0.33      1013.5     0.4     SSE   158   1.4     SSE   157   9.19    266      -51.2
   07/11/2018 04:30      69.2      68.6       57     53.0      0.00      0.00      84.5     0.33      1013.5     0.4     SSE   157   0.7     SSE   157   9.19    265      -50.9
   07/11/2018 04:20      69.6      68.9       56     52.9      0.00      0.00      84.5     0.33      1013.5     0.0     SSE   157   0.5     SSE   157   9.19    265      -50.8
   07/11/2018 04:10      69.8      69.1       56     53.1      0.00      0.00      84.6     0.33      1013.5     0.4     SSE   157   1.4     SSE   157   9.19    265      -51.3
   07/11/2018 04:00      69.6      69.0       56     52.9      0.00      0.00      84.6     0.33      1013.6     0.0     SSE   157   0.7     SSE   157   9.19    265      -51.7
   07/11/2018 03:50      69.7      69.1       56     53.1      0.00      0.00      84.6     0.33      1013.7     0.5     SSE   151   1.6     SSE   151   9.19    265      -52.0
   07/11/2018 03:40      70.0      69.5       55     52.9      0.00      0.00      84.7     0.33      1013.9     0.7     SSE   164   1.4     SSW   193   9.19    265      -51.5
   07/11/2018 03:30      70.5      69.7       55     52.9      0.00      0.00      84.7     0.33      1013.8     0.3       S   169   1.6     SSW   198   9.19    265      -51.6
   07/11/2018 03:20      70.6      70.1       52     52.0      0.00      0.00      84.7     0.33      1013.8     0.2      SW   219   1.3      SW   219   9.19    265      -51.4
   07/11/2018 03:10      70.6      70.0       54     52.6      0.00      0.00      84.8     0.33      1013.8     0.9       S   183   1.4     SSW   212   9.19    264      -52.1
   07/11/2018 03:00      70.7      70.3       53     52.6      0.00      0.00      84.8     0.33      1013.9     0.9       S   191   1.6     SSW   213   9.19    265      -51.7
   07/11/2018 02:50      71.4      70.6       54     53.1      0.00      0.00      84.8     0.33      1013.8     0.2       S   173   1.5      SW   219   9.20    264      -51.9
   07/11/2018 02:40      71.8      71.0       52     52.8      0.00      0.00      84.8     0.33      1013.8     0.1      SE   146   1.1      SE   142   9.20    265      -52.2
   07/11/2018 02:30      71.8      71.3       50     52.0      0.00      0.00      84.8     0.33      1013.8     0.6       S   183   1.8     WSW   254   9.20    264      -51.2
   07/11/2018 02:20      72.1      71.4       51     52.5      0.00      0.00      84.9     0.33      1013.9     0.1     SSE   152   0.7     SSE   152   9.20    264      -51.8
   07/11/2018 02:10      72.4      71.7       49     51.6      0.00      0.00      84.9     0.33      1013.9     0.2     SSE   152   1.2     SSE   152   9.20    264      -52.7
   07/11/2018 02:00      72.3      71.5       49     51.7      0.00      0.00      84.9     0.33      1014.0     0.7       S   179   1.8       S   187   9.20    264      -53.1
   07/11/2018 01:50      72.1      71.5       51     52.5      0.00      0.00      84.9     0.33      1014.2     0.0      SE   143   0.9       E    93   9.20    264      -53.7
   07/11/2018 01:40      72.4      71.8       50     52.2      0.00      0.00      85.0     0.33      1014.1     0.8       S   173   1.6      SW   221   9.20    264      -53.3
   07/11/2018 01:30      73.2      72.2       49     52.5      0.00      0.00      84.9     0.33      1014.1     0.0     SSW   197   0.7     SSW   197   9.20    264      -54.3
   07/11/2018 01:20      73.6      72.8       49     52.6      0.00      0.00      85.0     0.33      1014.1     0.8     SSW   198   1.6     SSW   197   9.21    264      -54.0
   07/11/2018 01:10      73.6      73.2       48     52.8      0.00      0.00      85.0     0.33      1014.2     0.9     SSW   214   1.4     SSW   197   9.21    264      -55.2
   07/11/2018 01:00      73.9      73.3       49     53.1      0.00      0.00      85.0     0.33      1014.3     0.0       S   179   0.8      SE   141   9.21    264      -56.6
   07/11/2018 00:50      73.9      73.5       49     53.5      0.00      0.00      85.1     0.33      1014.4     0.5     ESE   118   1.8     ESE   118   9.21    264      -56.4
   07/11/2018 00:40      74.0      73.6       50     54.0      0.00      0.00      85.1     0.33      1014.4     0.2     ENE    61   1.4     ENE    58   9.21    264      -55.9
   07/11/2018 00:30      74.4      73.8       50     54.4      0.00      0.00      85.1     0.33      1014.4     0.0       N     0   0.0      SE   129   9.21    264      -56.2
   07/11/2018 00:20      74.5      74.1       51     55.0      0.00      0.00      85.1     0.33      1014.4     0.0      SE   129   0.9      SE   129   9.21    264      -56.3
   07/11/2018 00:10      74.6      73.9       52     55.5      0.00      0.00      85.1     0.33      1014.5     0.8      SE   135   2.1      SE   128   9.21    264      -56.3
   07/11/2018 00:00      74.5      73.9       52     55.3      0.00      0.00      85.1     0.33      1014.4     0.2     SSE   149   1.1     SSE   149   9.22    264      -56.3
   07/10/2018 23:50      74.7      74.2       51     55.2      0.00      0.00      85.2     0.33      1014.5     0.2     SSE   149   1.0     SSE   149   9.22    264      -55.6
   07/10/2018 23:40      75.2      74.3       51     55.0      0.00      0.00      85.1     0.33      1014.5     0.3     SSE   148   1.4     SSE   149   9.22    264      -57.0
   07/10/2018 23:30      75.8      74.7       50     55.1      0.00      0.00      85.2     0.33      1014.4     0.3      SE   136   1.4     SSE   148   9.22    264      -57.9
   07/10/2018 23:20      76.1      75.6       49     55.2      0.00      0.00      85.2     0.33      1014.5     0.0       N     0   0.0     ESE   118   9.22    264      -59.0
   07/10/2018 23:10      76.6      75.8       48     55.2      0.00      0.00      85.2     0.33      1014.5     0.5       E    96   1.8       E    89   9.22    264      -59.9
   07/10/2018 23:00      76.9      76.3       47     54.8      0.00      0.00      85.3     0.33      1014.5     0.9     ESE   103   2.3     ESE   105   9.22    264      -60.4
   07/10/2018 22:50      77.3      76.7       45     54.1      0.00      0.00      85.2     0.33      1014.5     0.6     ESE   103   2.1      SE   142   9.23    263      -60.5
   07/10/2018 22:40      77.5      76.9       44     53.4      0.00      0.00      85.2     0.33      1014.4     0.9       E    97   2.8     ENE    67   9.23    263      -60.1
   07/10/2018 22:30      77.8      77.0       43     53.0      0.00      0.00      85.2     0.33      1014.3     0.5     ESE   121   1.3     ESE   106   9.23    263      -60.2
   07/10/2018 22:20      78.1      77.4       42     53.0      0.00      0.00      85.2     0.33      1014.2     0.5      SE   134   1.6      SE   132   9.23    263      -61.0
   07/10/2018 22:10      78.6      77.9       42     53.3      0.00      0.00      85.2     0.33      1014.1     0.3     SSE   153   1.5       S   184   9.23    263      -62.6
   07/10/2018 22:00      79.1      78.4       42     53.5      0.00      0.00      85.2     0.33      1014.0     0.4     ESE   102   1.4     ENE    69   9.23    263      -63.9
   07/10/2018 21:50      79.5      78.8       42     53.9      0.00      0.00      85.2     0.33      1013.8     0.5     ESE   108   1.6       E    88   9.23    263      -64.2
   07/10/2018 21:40      80.0      79.0       40     52.8      0.00      0.00      85.2     0.33      1013.8     0.0     ENE    67   1.0     ENE    68   9.24    263      -64.5
   07/10/2018 21:30      80.7      79.7       38     52.5      0.00      0.00      85.2     0.33      1013.7     0.4       S   182   1.2     SSW   194   9.24    263      -64.3
   07/10/2018 21:20      81.8      80.5       37     52.5      0.00      0.00      85.2     0.33      1013.6     0.3      SE   137   1.0      SE   137   9.24    263      -65.6
   07/10/2018 21:10      82.6      81.5       36     52.7      0.00      0.00      85.1     0.33      1013.4     0.8     WSW   254   1.9       W   278   9.24    263      -66.7
   07/10/2018 21:00      82.8      82.2       36     52.9      0.00      0.00      85.1     0.33      1013.2     1.5     WNW   303   3.5     WNW   290   9.24    263      -67.9
   07/10/2018 20:50      83.1      82.4       36     52.8      0.00      0.00      85.1     0.33      1013.1     1.6     WNW   294   3.3     WNW   285   9.25    263      -68.9
   07/10/2018 20:40      83.5      82.8       35     52.8      0.00      0.00      85.1     0.33      1013.0     1.8     WNW   290   4.1       W   265   9.25    263      -69.6
   07/10/2018 20:30      84.1      83.3       35     53.1      0.00      0.00      85.1     0.33      1013.0     2.0       W   279   5.3       W   280   9.25    263      -70.5
   07/10/2018 20:20      84.6      83.7       36     53.9      0.00      0.00      85.1     0.33      1013.0     2.6     WNW   291   6.2     NNW   345   9.26    263      -70.6
   07/10/2018 20:10      85.1      84.3       36     54.6      0.00      0.00      85.0     0.33      1013.0     2.0     WNW   292   3.9       W   270   9.26    263      -69.1
   07/10/2018 20:00      85.7      84.7       36     55.2      0.00      0.00      85.1     0.33      1013.0     2.1     WSW   252   4.5     WSW   256   9.26    263      -66.4
   07/10/2018 19:50      86.4      85.5       36     55.7      0.00      0.00      85.0     0.33      1012.9     1.7     WNW   286   5.4     WNW   299   9.27    263      -62.3
   07/10/2018 19:40      87.1      86.1       35     55.9      0.00      0.00      85.0     0.33      1012.8     2.3       W   277   5.1      SW   218   9.27    263      -54.6
   07/10/2018 19:30      88.0      86.8       34     55.7      0.00      0.00      84.9     0.33      1012.7     2.6     WNW   290   5.4     WNW   282   9.28    263      -39.8
   07/10/2018 19:20      88.9      87.8       33     55.4      0.00      0.00      84.9     0.33      1012.5     2.7     WNW   287   6.0       W   264   9.28    263      -25.9
   07/10/2018 19:10      89.4      88.4       33     55.6      0.00      0.00      84.9     0.33      1012.4     2.6     WNW   301   5.9       W   273   9.29    263       -8.4
   07/10/2018 19:00      89.9      89.0       32     55.5      0.00      0.00      84.9     0.33      1012.4     3.1      NW   310   6.2      NW   316   9.29    263       11.7
   07/10/2018 18:50      90.4      89.5       32     55.9      0.00      0.00      84.8     0.33      1012.3     3.0     WNW   297   7.3     NNW   337   9.30    263       33.0
   07/10/2018 18:40      90.9      89.8       33     57.3      0.00      0.00      84.8     0.33      1012.2     3.9     WNW   286   9.2     WSW   240   9.30    263       56.3
   07/10/2018 18:30      91.0      90.2       34     58.2      0.00      0.00      84.7     0.33      1012.2     3.8     WNW   295   7.5       W   263   9.31    262       79.9
   07/10/2018 18:20      90.8      90.0       33     57.1      0.00      0.00      84.7     0.33      1012.0     4.5      SW   223  10.8     SSW   201   9.31    263      100.9
   07/10/2018 18:10      90.4      89.8       31     55.7      0.00      0.00      84.7     0.33      1012.1     4.0       S   181   6.6       S   186   9.32    262      124.8
   07/10/2018 18:00      90.5      89.9       31     55.1      0.00      0.00      84.7     0.33      1012.1     3.9       S   175   7.6     SSE   157   9.32    262      148.3
   07/10/2018 17:50      91.1      90.0       30     54.6      0.00      0.00      84.5     0.33      1012.1     4.8       S   183   8.3     SSW   198   9.32    262      171.5
   07/10/2018 17:40      91.8      90.8       29     54.4      0.00      0.00      84.6     0.33      1012.2     5.0       S   188   9.2      SE   143   9.33    262      195.4
   07/10/2018 17:30      92.2      91.4       28     54.1      0.00      0.00      84.5     0.33      1012.3     4.2     SSE   164   7.5     SSE   155   9.33    262      216.7
   07/10/2018 17:20      93.1      91.8       27     53.5      0.00      0.00      84.4     0.33      1012.4     3.9       S   176   7.7     SSW   210   9.34    262      238.9
   07/10/2018 17:10      92.6      91.5       27     53.3      0.00      0.00      84.4     0.33      1012.4     3.5       S   183   6.9     SSW   193   9.34    262      264.6
   07/10/2018 17:00      92.6      91.9       26     52.6      0.00      0.00      84.3     0.33      1012.5     4.0       S   175   7.2      SE   146   9.35    262      288.9
   07/10/2018 16:50      92.4      91.5       27     53.0      0.00      0.00      84.3     0.33      1012.6     4.1       S   171   6.7      SW   218   9.35    262      313.0
   07/10/2018 16:40      92.1      91.6       27     52.8      0.00      0.00      84.2     0.33      1012.7     5.3     SSE   150   8.9       S   179   9.36    262      334.8
   07/10/2018 16:30      92.7      91.3       26     52.3      0.00      0.00      84.2     0.33      1012.7     4.7     SSE   164   8.7      SE   144   9.36    262      353.6
   07/10/2018 16:20      92.4      91.5       26     51.6      0.00      0.00      84.1     0.33      1012.7     5.1       S   174   9.4       S   186   9.37    262      376.7
   07/10/2018 16:10      92.9      91.7       26     52.5      0.00      0.00      84.1     0.33      1012.8     5.2     SSE   168  10.1     SSW   203   9.38    262      425.6
   07/10/2018 16:00      91.9      90.9       27     52.8      0.00      0.00      84.0     0.33      1012.9     5.0     SSE   165   8.4      SE   136   9.38    262      300.6
   07/10/2018 15:50      93.3      91.1       29     54.7      0.00      0.00      84.0     0.33      1012.9     4.5       S   171   9.4       S   174   9.39    262       54.9
   07/10/2018 15:40      94.2      93.0       28     55.2      0.00      0.00      83.9     0.33      1013.0     5.0       S   183   8.7       S   191   9.39    262      449.3
   07/10/2018 15:30      94.5      93.3       28     55.5      0.00      0.00      83.9     0.33      1013.1     3.0       S   184   6.4      SE   125   9.40    262      365.0
   07/10/2018 15:20      95.0      93.8       27     55.4      0.00      0.00      83.8     0.33      1013.2     3.1     ESE   118   5.9     SSE   149   9.40    262      286.4
   07/10/2018 15:10      94.9      93.3       27     55.2      0.00      0.00      83.8     0.33      1013.2     3.7      NE    55   8.0     ENE    59   9.41    262      272.9
   07/10/2018 15:00      95.7      94.8       27     56.3      0.00      0.00      83.7     0.33      1013.4     4.0     ENE    60   8.1      NE    46   9.41    262      375.5
   07/10/2018 14:50      95.7      94.6       28     56.7      0.00      0.00      83.7     0.33      1013.5     4.6     ENE    58   7.5      NE    53   9.42    262      575.4
   07/10/2018 14:40      96.5      94.0       28     56.4      0.00      0.00      83.6     0.33      1013.6     3.6       E    94   7.4     ENE    77   9.42    263      428.4
   07/10/2018 14:30      96.8      94.4       27     56.2      0.00      0.00      83.6     0.33      1013.6     2.0     ESE   116   4.3     SSE   155   9.42    262      534.0
   07/10/2018 14:20      96.1      93.9       28     56.5      0.00      0.00      83.6     0.33      1013.7     4.5      SE   127   8.1      SE   142   9.43    263      547.9
   07/10/2018 14:10      95.6      94.6       28     56.9      0.00      0.00      83.5     0.33      1013.8     3.7     SSE   154   9.7      SE   136   9.43    262      550.9
   07/10/2018 14:00      95.1      94.3       31     59.3      0.00      0.00      83.5     0.33      1014.0     3.2     ESE   110   6.0      SE   141   9.43    263      556.9
   07/10/2018 13:50      94.5      93.1       32     59.5      0.00      0.00      83.5     0.33      1014.1     3.1     ESE   116   7.4     ESE   106   9.43    262      570.0
   07/10/2018 13:40      94.2      93.1       32     59.4      0.00      0.00      83.4     0.33      1014.2     4.9      SE   128   8.0      SE   144   9.44    263      577.6
   07/10/2018 13:30      96.0      94.0       31     59.7      0.00      0.00      83.3     0.33      1014.2     4.1     ESE   123   8.5     SSE   163   9.44    262      580.2
   07/10/2018 13:20      96.1      94.5       32     61.4      0.00      0.00      83.4     0.33      1014.3     3.4      NE    53   8.1     ESE   104   9.44    262      579.9
   07/10/2018 13:10      95.3      94.0       31     58.9      0.00      0.00      83.4     0.33      1014.5     2.4       E    98   4.8       E    99   9.44    262      599.4
   07/10/2018 13:00      94.9      93.7       31     58.8      0.00      0.00      83.3     0.33      1014.6     2.6     ENE    75   5.4      SE   136   9.44    262      483.4
   07/10/2018 12:50      94.8      93.7       31     58.7      0.00      0.00      83.4     0.33      1014.7     3.0       E    94   5.3       E    93   9.45    263      470.2
   07/10/2018 12:40      94.7      93.4       32     59.8      0.00      0.00      83.4     0.33      1014.9     2.5       N     5   6.3       N     0   9.45    262      595.5
   07/10/2018 12:30      93.9      92.0       33     59.7      0.00      0.00      83.4     0.33      1015.0     1.4       N   356   3.4       N     4   9.45    263      550.3
   07/10/2018 12:20      92.0      90.4       34     59.1      0.00      0.00      83.4     0.33      1015.2     1.8       N   355   5.2     NNE    25   9.45    263      564.3
   07/10/2018 12:10      90.4      89.4       36     59.1      0.00      0.00      83.4     0.33      1015.4     1.8      NE    44   5.6      NE    42   9.45    262      569.0
   07/10/2018 12:00      90.1      89.1       35     58.8      0.00      0.00      83.5     0.33      1015.5     1.9     NNE    32   4.3       E    85   9.45    263      564.2
   07/10/2018 11:50      89.9      88.0       36     59.0      0.00      0.00      83.5     0.33      1015.5     2.1     NNE    23   3.9       N   351   9.45    263      564.7
   07/10/2018 11:40      88.3      86.6       39     59.4      0.00      0.00      83.5     0.33      1015.6     1.5      NE    40   4.9       N     6   9.45    262      575.3
   07/10/2018 11:30      86.8      85.0       41     59.7      0.00      0.00      83.5     0.33      1015.7     1.7       N    11   4.2     NNE    33   9.45    263      598.5
   07/10/2018 11:20      85.2      84.2       43     59.6      0.00      0.00      83.5     0.33      1015.8     1.5       N     9   4.3       N    10   9.45    263      367.9
   07/10/2018 11:10      84.6      83.0       45     60.0      0.00      0.00      83.5     0.33      1015.8     1.7       N   359   3.4       N     0   9.45    263      391.9
   07/10/2018 11:00      83.1      82.1       46     59.6      0.00      0.00      83.5     0.33      1015.7     1.5     NNW   327   3.9       N     8   9.45    263      319.9
   07/10/2018 10:50      82.4      81.5       47     59.8      0.00      0.00      83.5     0.33      1015.7     1.6       N   353   3.0      NW   324   9.45    264      190.2
   07/10/2018 10:40      81.5      80.8       48     59.8      0.00      0.00      83.6     0.33      1015.8     1.3     NNW   345   3.3     NNE    18   9.45    264      214.0
   07/10/2018 10:30      80.9      79.8       49     59.6      0.00      0.00      83.6     0.33      1015.9     1.0       N   349   3.0       N     2   9.45    264      167.8
   07/10/2018 10:20      80.2      79.8       50     59.8      0.00      0.00      83.6     0.33      1015.9     1.9     NNE    16   3.5     NNE    19   9.45    264      125.4
   07/10/2018 10:10      80.1      79.5       50     59.5      0.00      0.00      83.7     0.33      1015.9     1.8     NNE    17   4.4     NNE    21   9.45    264       96.5
   07/10/2018 10:00      80.1      79.6       51     59.8      0.00      0.00      83.7     0.33      1015.8     2.2       N   358   3.9     NNE    20   9.45    264       97.7
   07/10/2018 09:50      80.0      79.5       51     59.8      0.00      0.00      83.7     0.33      1015.8     1.6     NNE    33   3.3     NNE    18   9.45    264      135.1
   07/10/2018 09:40      79.8      79.3       51     59.7      0.00      0.00      83.8     0.33      1015.9     1.5      NE    45   3.9      NE    46   9.45    264      147.0
   07/10/2018 09:30      79.7      79.2       51     59.6      0.00      0.00      83.8     0.33      1016.0     1.8      NE    45   3.7       E    87   9.45    264      142.4
   07/10/2018 09:20      79.4      78.5       51     59.1      0.00      0.00      83.8     0.33      1016.0     1.7     ENE    59   3.3       E    85   9.45    264      162.8
   07/10/2018 09:10      79.2      78.6       50     58.5      0.00      0.00      83.9     0.33      1016.1     1.9       E    82   3.5     NNE    30   9.45    264       96.1
   07/10/2018 09:00      79.1      78.8       47     57.2      0.00      0.00      83.9     0.33      1016.0     2.1     ENE    60   4.3     ENE    63   9.45    264       96.7
   07/10/2018 08:50      79.1      78.5       48     57.6      0.00      0.00      83.9     0.33      1015.9     1.9      NE    52   4.5      NE    36   9.45    265       82.7
   07/10/2018 08:40      78.8      77.8       50     58.3      0.00      0.00      84.0     0.33      1015.9     1.3      NE    54   3.3      NE    45   9.45    265       75.4
   07/10/2018 08:30      78.3      77.8       51     58.5      0.00      0.00      84.0     0.33      1015.7     2.0     NNE    30   3.8     NNW   334   9.45    265       84.7
   07/10/2018 08:20      78.2      77.8       52     58.7      0.00      0.00      84.0     0.33      1015.6     1.1     NNW   343   3.5      NE    34   9.45    265       64.3
   07/10/2018 08:10      78.1      77.2       51     58.3      0.00      0.00      84.0     0.33      1015.6     0.3     ENE    58   2.0      NE    50   9.46    265       45.0
   07/10/2018 08:00      77.4      76.5       53     58.3      0.00      0.00      84.1     0.33      1015.4     0.9     NNE    29   2.6     NNE    18   9.46    265       57.0
   07/10/2018 07:50      76.8      76.3       53     58.3      0.00      0.00      84.1     0.33      1015.2     0.3       E    86   1.9      NE    38   9.46    266       20.5
   07/10/2018 07:40      76.7      75.9       53     58.2      0.00      0.00      84.2     0.33      1015.2     0.5     ENE    61   2.0      NE    36   9.46    266       -6.6
   07/10/2018 07:30      76.1      75.2       55     58.2      0.00      0.00      84.2     0.33      1015.1     0.6     ESE   112   2.3     ESE   121   9.46    266       -6.8
   07/10/2018 07:20      75.8      75.2       57     59.0      0.00      0.00      84.2     0.33      1015.1     0.9      SE   132   2.8      SE   140   9.46    266      -15.3
   07/10/2018 07:10      75.6      75.1       58     59.4      0.00      0.00      84.3     0.33      1015.0     0.8       E    80   3.0       E    83   9.46    266       -5.5
   07/10/2018 07:00      75.3      74.5       60     60.0      0.00      0.00      84.3     0.33      1014.9     1.3       N   355   2.8      NW   314   9.46    266       17.5
   07/10/2018 06:50      74.6      73.1       62     60.2      0.00      0.00      84.3     0.33      1014.8     0.4     NNE    34   1.8     NNW   333   9.46    266       29.6
   07/10/2018 06:40      73.3      71.9       65     60.1      0.00      0.00      84.4     0.33      1014.8     0.2     SSW   194   1.1     ENE    74   9.46    266       20.1
   07/10/2018 06:30      72.0      71.1       66     59.7      0.00      0.00      84.4     0.33      1014.9     0.0       N     0   0.0      SW   220   9.46    266        2.0
   07/10/2018 06:20      71.5      70.6       68     59.7      0.00      0.00      84.5     0.33      1014.9     0.0      SW   220   0.8      SW   220   9.46    266       -8.9
   07/10/2018 06:10      70.8      70.1       67     59.2      0.00      0.00      84.5     0.33      1014.8     0.3      SW   220   1.8      SW   220   9.46    266      -23.9
   07/10/2018 06:00      70.5      69.8       69     59.4      0.00      0.00      84.5     0.33      1014.7     0.5     SSW   204   2.4      SW   215   9.46    266      -32.5
   07/10/2018 05:50      70.3      69.8       69     59.4      0.00      0.00      84.6     0.33      1014.7     0.3     SSE   163   1.4     SSE   150   9.46    266      -35.3
   07/10/2018 05:40      70.3      69.7       69     59.3      0.00      0.00      84.6     0.33      1014.7     0.1      SE   138   1.2      SE   138   9.46    266      -39.5
   07/10/2018 05:30      71.0      70.0       67     59.0      0.00      0.00      84.7     0.33      1014.6     0.4      SE   142   1.6      SE   143   9.46    266      -48.5
   07/10/2018 05:20      71.2      70.6       67     59.5      0.00      0.00      84.7     0.33      1014.6     0.5       W   276   2.1       S   190   9.46    266      -55.5
   07/10/2018 05:10      71.5      70.9       67     59.8      0.00      0.00      84.7     0.33      1014.7     0.2       S   173   2.2       S   180   9.46    266      -56.4
   07/10/2018 05:00      71.5      71.0       68     60.1      0.00      0.00      84.8     0.33      1014.7     0.3       S   179   1.6       S   187   9.46    266      -45.5
   07/10/2018 04:50      71.4      70.6       69     60.4      0.00      0.00      84.8     0.33      1014.8     1.5       S   188   2.2     SSW   197   9.46    266      -37.6
   07/10/2018 04:40      70.8      70.1       71     60.6      0.00      0.00      84.8     0.33      1014.9     0.9     SSE   166   1.5       S   185   9.46    266      -35.3
   07/10/2018 04:30      70.3      69.2       72     60.3      0.00      0.00      84.9     0.33      1015.0     1.1     SSE   161   2.3     SSE   147   9.46    266      -31.3
   07/10/2018 04:20      69.5      68.9       71     59.4      0.00      0.00      84.9     0.33      1015.1     0.6     SSE   168   1.5      SE   144   9.47    266      -34.9
   07/10/2018 04:10      69.8      69.0       71     59.4      0.00      0.00      84.9     0.33      1015.1     0.6       S   170   1.7      SE   142   9.47    266      -48.4
   07/10/2018 04:00      70.6      69.5       70     59.9      0.00      0.00      85.0     0.33      1015.2     1.1       S   171   2.1      SW   218   9.47    266      -58.0
   07/10/2018 03:50      70.8      70.3       70     60.3      0.00      0.00      85.0     0.33      1015.3     1.2     SSW   194   2.4      SW   215   9.47    266      -58.5
   07/10/2018 03:40      71.5      70.5       69     60.1      0.00      0.00      85.0     0.33      1015.4     0.0      SE   137   0.5      SE   137   9.47    265      -58.7
   07/10/2018 03:30      71.5      71.1       68     60.4      0.00      0.00      85.1     0.33      1015.3     0.2      SE   135   1.0      SE   137   9.47    265      -55.1
   07/10/2018 03:20      71.8      71.2       67     59.8      0.00      0.00      85.1     0.33      1015.4     0.2       E    81   1.6     ENE    65   9.47    265      -51.1
   07/10/2018 03:10      71.7      71.0       66     59.5      0.00      0.00      85.2     0.33      1015.4     0.1     NNW   341   1.2       N   355   9.47    264      -50.4
   07/10/2018 03:00      71.5      70.7       61     56.8      0.00      0.00      85.2     0.33      1015.3     0.0     SSE   160   0.4     SSE   161   9.47    264      -54.6
   07/10/2018 02:50      71.5      70.9       58     55.4      0.00      0.00      85.2     0.33      1015.4     0.7      SW   224   1.7     SSW   206   9.47    264      -55.6
   07/10/2018 02:40      70.9      70.1       52     51.8      0.00      0.00      85.2     0.33      1015.4     0.4     SSW   194   1.2     SSE   166   9.47    264      -57.2
   07/10/2018 02:30      70.7      70.1       49     50.0      0.00      0.00      85.3     0.33      1015.3     0.5       S   180   1.0       S   180   9.47    264      -57.9
   07/10/2018 02:20      71.1      70.3       47     49.6      0.00      0.00      85.3     0.33      1015.1     0.2       S   179   0.9       S   179   9.47    264      -55.3
   07/10/2018 02:10      71.5      70.7       46     49.0      0.00      0.00      85.3     0.33      1015.1     0.5     SSE   162   1.5      SE   145   9.48    264      -59.4
   07/10/2018 02:00      71.7      71.1       42     47.3      0.00      0.00      85.4     0.33      1015.0     1.1     SSW   192   2.1     SSW   213   9.48    264      -60.1
   07/10/2018 01:50      71.5      70.7       43     47.6      0.00      0.00      85.4     0.33      1015.1     1.0       S   190   1.7     SSW   200   9.48    264      -59.7
   07/10/2018 01:40      71.8      70.8       43     47.8      0.00      0.00      85.4     0.33      1015.0     0.3       S   180   0.8       S   180   9.48    264      -60.3
   07/10/2018 01:30      72.8      71.5       43     48.1      0.00      0.00      85.5     0.33      1015.0     0.3       S   180   1.1       S   180   9.48    263      -60.8
   07/10/2018 01:20      73.6      72.5       41     48.0      0.00      0.00      85.5     0.33      1014.9     0.0       N     0   0.0       S   180   9.49    263      -63.4
   07/10/2018 01:10      74.3      73.3       41     48.7      0.00      0.00      85.5     0.33      1014.8     0.6     SSE   156   1.5      SE   125   9.49    263      -65.0
   07/10/2018 01:00      74.4      73.8       42     49.3      0.00      0.00      85.6     0.33      1014.8     0.9       E    94   2.4       E    99   9.49    263      -65.5
   07/10/2018 00:50      74.5      73.9       42     49.4      0.00      0.00      85.5     0.33      1014.8     0.7     ESE   110   2.4     ESE   122   9.49    263      -66.1
   07/10/2018 00:40      74.4      74.1       42     49.6      0.00      0.00      85.6     0.33      1014.7     0.5      SE   124   1.6     ESE   113   9.49    263      -66.6
   07/10/2018 00:30      74.2      73.7       41     49.0      0.00      0.00      85.6     0.33      1014.5     0.5     ESE   117   2.4       E    92   9.49    263      -67.0
   07/10/2018 00:20      74.6      73.7       39     47.7      0.00      0.00      85.6     0.33      1014.4     0.4      SE   137   1.8      SE   141   9.49    263      -67.2
   07/10/2018 00:10      74.7      74.2       38     47.5      0.00      0.00      85.6     0.33      1014.2     0.0     SSE   149   0.7     SSE   160   9.50    263      -67.1
   07/10/2018 00:00      75.3      74.5       37     47.3      0.00      0.00      85.6     0.33      1014.3     0.0     SSE   165   1.0     SSE   165   9.50    263      -68.2
   07/09/2018 23:50      75.5      75.0       37     47.2      0.00      0.00      85.7     0.33      1014.2     0.0     ENE    75   1.4     ENE    71   9.50    263      -68.7
   07/09/2018 23:40      75.5      75.1       37     47.2      0.00      0.00      85.7     0.33      1014.2     0.1     ESE   115   1.5     SSE   149   9.50    263      -69.0
   07/09/2018 23:30      76.2      75.2       36     47.1      0.00      0.00      85.7     0.33      1014.2     0.7      SE   131   1.4      SE   145   9.50    263      -68.7
   07/09/2018 23:20      76.6      76.1       35     46.8      0.00      0.00      85.7     0.33      1014.2     0.2       S   189   1.3      SW   217   9.50    263      -68.0
   07/09/2018 23:10      77.3      76.4       34     46.4      0.00      0.00      85.7     0.33      1014.3     0.2     SSE   157   1.0      SE   142   9.51    262      -66.4
   07/09/2018 23:00      77.6      77.0       33     46.1      0.00      0.00      85.7     0.33      1014.3     0.4      SE   137   1.1     ESE   103   9.51    263      -68.4
   07/09/2018 22:50      77.4      76.9       34     46.3      0.00      0.00      85.7     0.33      1014.4     0.4     ENE    73   1.6      NE    47   9.51    263      -70.1
   07/09/2018 22:40      77.6      76.8       36     47.8      0.00      0.00      85.7     0.33      1014.2     0.0      NE    49   0.6       E    99   9.51    263      -70.5
   07/09/2018 22:30      78.0      77.1       36     48.9      0.00      0.00      85.7     0.33      1014.2     0.5      SE   133   1.2      SE   137   9.51    263      -71.7
   07/09/2018 22:20      78.7      77.8       37     49.4      0.00      0.00      85.7     0.33      1014.1     0.3     SSE   148   1.2     SSW   213   9.52    263      -72.7
   07/09/2018 22:10      79.3      78.4       36     49.7      0.00      0.00      85.7     0.33      1014.1     0.5     SSE   146   2.2       N    11   9.52    262      -73.6
   07/09/2018 22:00      80.2      79.1       36     50.3      0.00      0.00      85.7     0.33      1014.0     0.0      SE   129   0.4       E    95   9.52    262      -75.3
   07/09/2018 21:50      80.6      79.8       36     50.6      0.00      0.00      85.7     0.33      1014.0     0.5      NE    49   1.6       E    80   9.52    262      -75.0
   07/09/2018 21:40      81.7      80.3       36     51.6      0.00      0.00      85.7     0.33      1014.0     1.2     ENE    59   2.2     ENE    56   9.53    262      -74.1
   07/09/2018 21:30      82.4      81.2       34     51.1      0.00      0.00      85.7     0.33      1013.9     1.2     ENE    70   3.2     ESE   104   9.53    262      -73.1
   07/09/2018 21:20      83.0      82.0       33     50.7      0.00      0.00      85.6     0.33      1013.8     1.3     ENE    59   2.5       E    97   9.53    262      -71.4
   07/09/2018 21:10      83.8      82.8       31     49.3      0.00      0.00      85.7     0.33      1013.6     1.1     ENE    76   2.5     ENE    57   9.54    262      -69.6
   07/09/2018 21:00      84.4      83.5       30     49.1      0.00      0.00      85.7     0.33      1013.5     0.7     ESE   111   2.2      SE   135   9.54    262      -71.6
   07/09/2018 20:50      85.5      84.2       30     49.5      0.00      0.00      85.7     0.33      1013.4     1.1     ESE   103   3.3     ENE    66   9.54    262      -70.1
   07/09/2018 20:40      86.5      85.1       30     50.8      0.00      0.00      85.7     0.33      1013.2     1.1     ESE   110   3.2       E    87   9.54    262      -69.2
   07/09/2018 20:30      87.3      86.1       30     51.1      0.00      0.00      85.6     0.33      1013.1     0.6     ENE    63   1.9     ENE    73   9.55    262      -66.3
   07/09/2018 20:20      89.0      87.1       29     51.6      0.00      0.00      85.6     0.33      1013.1     1.0     ENE    74   3.3       E    79   9.55    262      -64.2
   07/09/2018 20:10      90.7      88.8       27     51.1      0.00      0.00      85.6     0.33      1013.0     0.9     ENE    62   1.9      SE   130   9.55    262      -64.3
   07/09/2018 20:00      91.0      90.2       22     46.9      0.00      0.00      85.6     0.33      1012.8     1.2     WSW   249   4.0      SW   222   9.56    261      -66.3
   07/09/2018 19:50      91.8      90.6       22     46.5      0.00      0.00      85.5     0.33      1012.7     1.8      SW   224   3.7     SSW   212   9.56    261      -61.0
   07/09/2018 19:40      92.8      91.5       21     46.4      0.00      0.00      85.5     0.33      1012.7     1.4     WSW   253   4.5     WSW   236   9.57    261      -54.5
   07/09/2018 19:30      92.8      92.2       21     46.9      0.00      0.00      85.5     0.33      1012.7     0.6     WNW   293   3.4      NW   322   9.57    261      -50.2
   07/09/2018 19:20      92.6      92.1       21     46.5      0.00      0.00      85.5     0.33      1012.7     2.3     NNW   335   4.9      NW   320   9.58    261      -38.9
   07/09/2018 19:10      92.7      92.3       21     46.9      0.00      0.00      85.4     0.33      1012.8     2.3     NNW   330   5.1      NW   320   9.58    261      -28.4
   07/09/2018 19:00      92.9      92.3       21     47.3      0.00      0.00      85.4     0.33      1012.7     3.3      NW   312   6.0     WNW   290   9.58    261      -21.8
   07/09/2018 18:50      93.3      92.6       22     48.2      0.00      0.00      85.4     0.33      1012.7     3.5      NW   310   6.4     NNW   329   9.59    261      -19.6
   07/09/2018 18:40      94.1      93.0       22     48.9      0.00      0.00      85.3     0.33      1012.7     3.1      NW   326   6.4     NNW   330   9.59    261      -10.1
   07/09/2018 18:30      94.7      93.7       22     49.7      0.00      0.00      85.3     0.33      1012.7     3.2     WNW   299   6.6      NW   317   9.60    261       -5.6
   07/09/2018 18:20      95.4      94.4       23     51.0      0.00      0.00      85.3     0.33      1012.7     3.6      NW   306   7.1      NW   312   9.60    261       -5.4
   07/09/2018 18:10      95.8      95.0       24     52.7      0.00      0.00      85.2     0.33      1012.7     4.9      NW   307   9.2      NE    38   9.61    261      140.2
   07/09/2018 18:00      97.2      95.7       25     54.2      0.00      0.00      85.2     0.33      1012.7     5.1      NW   309  10.8     WNW   295   9.61    261      169.4
   07/09/2018 17:50      99.6      96.8       23     54.2      0.00      0.00      85.2     0.33      1012.7     4.5     WNW   298   8.5      NW   325   9.62    261       76.2
   07/09/2018 17:40     101.1      99.4       18     49.4      0.00      0.00      85.1     0.33      1012.8     2.6     NNW   330   6.4       N   355   9.62    261      148.2
   07/09/2018 17:30     100.9      98.7       16     45.1      0.00      0.00      85.1     0.33      1012.9     1.4     ENE    76   3.6       E    85   9.63    261      304.1
   07/09/2018 17:20     100.0      98.7       16     44.9      0.00      0.00      85.0     0.33      1012.9     2.8     ESE   109   5.0      SE   126   9.63    261      285.9
   07/09/2018 17:10     100.4      99.2       15     44.3      0.00      0.00      85.0     0.33      1013.1     1.8     ENE    63   4.8     ENE    75   9.64    261      234.3
   07/09/2018 17:00      99.3      97.7       15     43.6      0.00      0.00      84.9     0.33      1013.2     2.7      SW   227   6.4     SSW   196   9.64    261      414.9
   07/09/2018 16:50      98.4      96.2       17     44.9      0.00      0.00      84.9     0.33      1013.3     3.0     SSE   149   8.0      SE   125   9.65    261      360.2
   07/09/2018 16:40      97.3      95.5       18     46.1      0.00      0.00      84.8     0.33      1013.4     4.7       S   180   9.3     WSW   245   9.65    261      408.5
   07/09/2018 16:30      96.9      95.0       19     47.5      0.00      0.00      84.8     0.33      1013.5     5.2     SSW   200   9.3       S   174   9.66    261      372.7
   07/09/2018 16:20      97.0      95.1       21     48.9      0.00      0.00      84.8     0.33      1013.6     5.6       S   177   9.1       S   169   9.66    261      187.1
   07/09/2018 16:10      97.4      96.0       20     49.2      0.00      0.00      84.7     0.33      1013.7     4.3     SSE   160   7.9       S   185   9.67    261      327.5
   07/09/2018 16:00      97.0      95.9       20     48.6      0.00      0.00      84.6     0.33      1013.7     5.7       S   180   9.2       S   182   9.67    261      468.2
   07/09/2018 15:50      96.2      95.2       20     47.6      0.00      0.00      84.6     0.33      1013.8     6.0       S   172   9.9       S   180   9.68    261      457.8
   07/09/2018 15:40      95.9      94.9       21     49.0      0.00      0.00      84.5     0.33      1013.7     6.5       S   179  11.3     SSW   194   9.69    261      486.1
   07/09/2018 15:30      97.2      94.7       21     49.6      0.00      0.00      84.4     0.33      1013.7     6.5       S   178  11.1       S   180   9.69    261      331.7
   07/09/2018 15:20      97.8      96.6       20     49.6      0.00      0.00      84.4     0.33      1013.6     6.3     SSW   204  11.5     SSW   195   9.70    261      447.6
   07/09/2018 15:10      97.9      96.4       21     50.4      0.00      0.00      84.3     0.33      1013.5     4.9       S   170   8.9     SSW   194   9.71    261      506.4
   07/09/2018 15:00      98.9      96.8       20     50.1      0.00      0.00      84.3     0.33      1013.4     4.7     SSE   147  10.4      SE   132   9.71    261      171.4
   07/09/2018 14:50      99.9      98.7       19     49.9      0.00      0.00      84.3     0.33      1013.4     3.8     ESE   123   7.6     ESE   121   9.72    261      194.6
   07/09/2018 14:40     100.6      99.8       18     49.3      0.00      0.00      84.2     0.33      1013.4     3.5      SE   127   6.7     SSE   167   9.73    261      336.2
   07/09/2018 14:30     101.7      99.9       19     50.2      0.00      0.00      84.2     0.33      1013.4     4.9     SSE   150  10.7      SE   137   9.73    261      427.5
   07/09/2018 14:20     103.5     101.5       16     47.7      0.00      0.00      84.1     0.33      1013.3     3.2     SSE   154   8.9     SSE   149   9.74    261      374.8
   07/09/2018 14:10     102.2     101.5       15     46.3      0.00      0.00      84.1     0.33      1013.4     2.3      SE   142   5.3       E    80   9.74    261      440.0
   07/09/2018 14:00     102.1     100.9       16     46.6      0.00      0.00      84.0     0.33      1013.4     2.6      SE   143   7.5      SE   141   9.75    261      357.0
   07/09/2018 13:50     102.8     102.1       16     47.9      0.00      0.00      84.0     0.33      1013.4     3.4     ESE   114   7.8     ESE   115   9.75    261      564.2
   07/09/2018 13:40     102.7     100.4       18     49.3      0.00      0.00      84.0     0.33      1013.5     3.3       E    91   7.6     ENE    76   9.76    261      578.7
   07/09/2018 13:30     101.3     100.4       18     50.2      0.00      0.00      83.9     0.33      1013.5     3.6     SSE   153   9.4     SSE   154   9.76    261      565.7
   07/09/2018 13:20     101.2     100.4       19     50.7      0.00      0.00      83.9     0.33      1013.6     3.7     SSE   166   8.7       S   188   9.76    261      577.2
   07/09/2018 13:10     101.7     100.4       18     49.5      0.00      0.00      83.9     0.33      1013.7     3.4       E    91   7.4       E    82   9.77    261      558.6
   07/09/2018 13:00     101.6      99.6       18     48.5      0.00      0.00      83.9     0.33      1013.9     2.8       E   100   6.8       E    80   9.77    261      578.5
   07/09/2018 12:50     101.3     100.1       17     48.1      0.00      0.00      83.9     0.33      1014.0     2.0       E    86   5.4       E    99   9.77    261      528.1
   07/09/2018 12:40     100.7      99.0       18     48.3      0.00      0.00      83.8     0.33      1014.1     2.7       E    81   4.9     ENE    67   9.77    261      555.1
   07/09/2018 12:30      98.9      97.0       19     48.8      0.00      0.00      83.8     0.33      1014.2     3.0       E    84   6.4     NNE    33   9.78    261      571.3
   07/09/2018 12:20      97.4      96.5       20     49.7      0.00      0.00      83.8     0.33      1014.3     3.6       E    99   6.5     ENE    78   9.78    261      580.7
   07/09/2018 12:10      98.6      96.6       20     49.1      0.00      0.00      83.8     0.33      1014.4     4.0       E    93   6.5     ESE   115   9.78    261      412.0
   07/09/2018 12:00      98.7      97.0       20     50.1      0.00      0.00      83.8     0.33      1014.5     2.7       E    93   7.1       S   172   9.78    261      550.6
   07/09/2018 11:50      97.1      96.2       22     51.3      0.00      0.00      83.8     0.33      1014.6     3.0     ENE    75   6.5     ESE   103   9.78    261      567.0
   07/09/2018 11:40      97.1      96.4       22     51.5      0.00      0.00      83.8     0.33      1014.7     2.3     NNE    18   4.4      NE    51   9.78    261      379.1
   07/09/2018 11:30      97.0      95.4       23     51.8      0.00      0.00      83.8     0.33      1014.9     2.1      NE    44   5.0     NNE    21   9.79    261      490.9
   07/09/2018 11:20      95.9      94.5       24     52.1      0.00      0.00      83.8     0.33      1015.1     2.3      NE    43   4.7     ENE    70   9.79    261      478.6
   07/09/2018 11:10      95.0      93.3       24     52.0      0.00      0.00      83.9     0.33      1015.2     2.8     ENE    60   4.8       E    82   9.79    261      533.5
   07/09/2018 11:00      93.5      92.2       25     51.3      0.00      0.00      83.9     0.33      1015.3     2.1     NNE    12   4.5     NNE    23   9.79    261      495.8
   07/09/2018 10:50      92.7      91.1       25     51.2      0.00      0.00      83.9     0.33      1015.3     1.6      NE    44   4.8       N     6   9.79    261      479.6
   07/09/2018 10:40      91.1      90.2       26     51.4      0.00      0.00      83.9     0.33      1015.4     1.2     NNE    34   3.4     NNE    16   9.79    262      349.2
   07/09/2018 10:30      91.2      90.1       26     50.7      0.00      0.00      84.0     0.33      1015.5     1.7       N   350   4.6     NNE    16   9.79    261      314.1
   07/09/2018 10:20      91.7      89.5       25     50.4      0.00      0.00      84.0     0.33      1015.6     0.9      NE    53   4.0      NE    35   9.79    261      464.2
   07/09/2018 10:10      89.7      88.0       25     49.0      0.00      0.00      84.0     0.33      1015.6     1.1     ESE   108   3.2     ENE    61   9.79    261      411.7
   07/09/2018 10:00      88.3      86.6       25     47.3      0.00      0.00      84.0     0.33      1015.5     1.1      NW   323   2.7     NNE    16   9.79    261      444.0
   07/09/2018 09:50      87.5      86.6       25     47.0      0.00      0.00      84.1     0.33      1015.6     1.6      NE    42   3.1       E    82   9.79    262      336.7
   07/09/2018 09:40      87.3      85.5       26     47.4      0.00      0.00      84.2     0.33      1015.6     1.0       E    94   3.0      SE   124   9.79    261      366.2
   07/09/2018 09:30      85.7      84.3       30     49.7      0.00      0.00      84.2     0.33      1015.8     1.2     WNW   296   3.4       W   267   9.64    261      361.4
   07/09/2018 09:20      84.6      82.9       30     48.8      0.00      0.00      84.1     0.33      1016.0     0.9     NNE    29   3.1     WNW   287   8.29    262      264.4
   07/09/2018 09:10      82.9      82.1       36     52.8      0.00      0.00      84.2     0.33      1016.0     0.6     SSE   158   1.8     SSW   199   8.29    263      196.5
   07/09/2018 09:00      82.6      81.2       37     53.3      0.00      0.00      84.3     0.33      1015.9     0.2       E    89   1.5     ESE   119   8.29    263      169.6
   07/09/2018 08:50      81.4      80.1       39     53.7      0.00      0.00      84.2     0.33      1015.8     0.4     NNW   328   1.5      SW   228   8.29    263      125.1
   07/09/2018 08:40      80.3      79.2       40     53.2      0.00      0.00      84.3     0.33      1015.8     0.8     WSW   244   1.9     WSW   247   8.29    263       88.2
   07/09/2018 08:30      79.6      78.6       42     53.7      0.00      0.00      84.4     0.33      1015.9     1.3     WNW   291   2.3      NW   307   8.29    263       50.1
   07/09/2018 08:20      78.8      78.0       46     55.6      0.00      0.00      84.3     0.33      1015.8     1.4     WNW   300   3.3     WNW   303   8.29    263       40.1
   07/09/2018 08:10      78.2      77.4       48     56.6      0.00      0.00      84.4     0.33      1015.9     1.0      NW   313   2.3       W   271   8.29    264       29.2
   07/09/2018 08:00      77.5      77.2       49     57.0      0.00      0.00      84.4     0.33      1015.9     1.6     NNW   334   3.1     NNW   345   8.29    264       12.8
   07/09/2018 07:50      77.4      76.9       50     57.2      0.00      0.00      84.5     0.33      1016.0     1.3     NNW   346   2.6      NW   320   8.30    264        4.0
   07/09/2018 07:40      77.3      76.9       49     56.7      0.00      0.00      84.6     0.33      1015.9     1.0     NNE    26   2.3      NE    42   8.30    264       -0.4
   07/09/2018 07:30      77.3      76.9       49     56.3      0.00      0.00      84.5     0.33      1015.9     0.6      NE    55   1.8     ENE    71   8.30    264        4.5
   07/09/2018 07:20      77.1      76.2       48     55.5      0.00      0.00      84.6     0.33      1015.7     0.5     ENE    57   1.7     ENE    61   8.30    264       19.3
   07/09/2018 07:10      76.3      75.2       47     54.0      0.00      0.00      84.6     0.33      1015.6     0.7      NE    53   1.5      NE    43   8.30    264       27.1
   07/09/2018 07:00      75.3      74.3       45     52.2      0.00      0.00      84.7     0.33      1015.6     0.3       N    11   1.4     NNW   333   8.30    264       21.6
   07/09/2018 06:50      74.4      73.6       44     50.7      0.00      0.00      84.6     0.33      1015.5     0.4     NNW   329   2.1      NW   310   8.30    264        0.5
   07/09/2018 06:40      73.8      72.7       44     50.1      0.00      0.00      84.8     0.33      1015.4     0.6      NW   323   1.4     NNW   332   8.30    264      -18.0
   07/09/2018 06:30      73.0      72.0       44     49.6      0.00      0.00      84.8     0.33      1015.3     0.3       E    98   2.0     ENE    69   8.30    264      -31.1
   07/09/2018 06:20      71.9      71.4       50     51.7      0.00      0.00      84.8     0.33      1015.0     0.5     ESE   110   2.5     ENE    78   8.30    264      -42.1
   07/09/2018 06:10      71.6      71.2       54     53.9      0.00      0.00      84.8     0.33      1014.7     0.5      SE   136   1.7      SE   141   8.30    264      -47.7
   07/09/2018 06:00      72.0      71.2       55     54.4      0.00      0.00      84.9     0.33      1014.2     0.7      SE   141   1.9      SE   141   8.30    264      -47.6
   07/09/2018 05:50      72.5      71.7       53     53.9      0.00      0.00      84.9     0.33      1014.0     0.5      SE   144   1.3     SSE   147   8.30    264      -46.2
   07/09/2018 05:40      72.3      71.7       51     53.0      0.00      0.00      84.9     0.33      1013.7     0.4      SW   221   1.9     WSW   258   8.30    264      -44.1
   07/09/2018 05:30      72.4      71.7       53     54.0      0.00      0.00      85.0     0.33      1013.8     0.4       S   169   0.9       S   175   8.30    264      -43.7
   07/09/2018 05:20      72.7      72.2       52     53.9      0.00      0.00      85.0     0.33      1013.8     0.0     SSE   168   0.2     SSE   168   8.30    264      -44.0
   07/09/2018 05:10      72.4      72.0       53     54.0      0.00      0.00      85.0     0.33      1013.8     0.2     SSE   148   0.9      SE   130   8.30    264      -40.7
   07/09/2018 05:00      72.3      71.7       53     53.7      0.00      0.00      85.1     0.33      1013.8     0.4       S   172   1.1       S   180   8.30    264      -41.1
   07/09/2018 04:50      72.7      72.0       53     54.0      0.00      0.00      85.1     0.33      1013.7     0.2     SSE   161   1.1      SE   141   8.30    264      -45.6
   07/09/2018 04:40      72.7      72.2       53     54.2      0.00      0.00      85.1     0.33      1013.6     0.3     SSE   146   1.3      SE   141   8.30    264      -47.8
   07/09/2018 04:30      73.3      72.4       52     54.1      0.00      0.00      85.2     0.33      1013.5     0.3     SSE   156   1.0     SSE   154   8.30    264      -46.5
   07/09/2018 04:20      73.1      72.5       51     53.7      0.00      0.00      85.2     0.33      1013.5     0.0      SE   131   0.7      SE   131   8.31    264      -43.0
   07/09/2018 04:10      72.8      72.3       53     54.3      0.00      0.00      85.2     0.33      1013.7     0.0       N     0   0.0      SE   131   8.31    264      -41.8
   07/09/2018 04:00      72.8      72.2       52     54.0      0.00      0.00      85.3     0.33      1013.8     0.0      SE   131   0.5      SE   131   8.31    264      -40.8
   07/09/2018 03:50      73.0      72.1       53     54.1      0.00      0.00      85.3     0.33      1013.8     0.3      SE   131   1.1      SE   131   8.31    264      -43.7
   07/09/2018 03:40      73.1      72.6       53     54.7      0.00      0.00      85.4     0.33      1013.7     0.0       N     0   0.0      SE   131   8.31    264      -52.9
   07/09/2018 03:30      73.3      72.7       53     54.6      0.00      0.00      85.3     0.33      1013.7     0.7     SSE   156   1.9      SE   142   8.31    264      -57.5
   07/09/2018 03:20      73.3      72.7       52     54.3      0.00      0.00      85.4     0.33      1013.6     0.6     SSE   158   1.4     SSE   152   8.31    264      -58.3
   07/09/2018 03:10      73.5      72.9       51     53.9      0.00      0.00      85.4     0.33      1013.5     0.1     SSE   168   0.8     SSE   168   8.31    264      -58.8
   07/09/2018 03:00      73.6      73.0       50     53.5      0.00      0.00      85.4     0.33      1013.5     0.5     SSE   159   1.6      SE   143   8.31    264      -60.2
   07/09/2018 02:50      74.5      73.3       48     52.7      0.00      0.00      85.4     0.33      1013.5     0.3     SSE   163   1.5      SE   142   8.32    264      -60.0
   07/09/2018 02:40      74.8      74.2       47     53.1      0.00      0.00      85.5     0.33      1013.4     0.5     SSE   163   1.6     SSE   148   8.32    264      -57.7
   07/09/2018 02:30      75.3      74.5       47     53.0      0.00      0.00      85.5     0.33      1013.4     0.5     SSE   160   1.5      SE   139   8.32    264      -51.2
   07/09/2018 02:20      75.7      75.1       45     52.7      0.00      0.00      85.6     0.33      1013.3     0.2     SSE   153   1.6      SE   143   8.32    264      -45.6
   07/09/2018 02:10      75.7      75.1       45     52.7      0.00      0.00      85.6     0.33      1013.4     0.5     SSW   204   1.6     SSW   204   8.32    264      -43.0
   07/09/2018 02:00      75.2      74.7       45     52.4      0.00      0.00      85.6     0.33      1013.5     0.0       N     0   0.0       E    88   8.32    264      -40.5
   07/09/2018 01:50      75.0      74.5       45     52.0      0.00      0.00      85.6     0.33      1013.5     0.3     SSE   168   1.2     SSE   150   8.32    264      -41.7
   07/09/2018 01:40      75.0      74.2       44     51.4      0.00      0.00      85.7     0.33      1013.6     0.6     SSW   210   1.3     WSW   238   8.32    264      -48.8
   07/09/2018 01:30      75.0      74.2       45     51.6      0.00      0.00      85.7     0.33      1013.7     0.4     SSE   163   1.7      SE   138   8.33    263      -59.5
   07/09/2018 01:20      75.0      74.4       45     51.8      0.00      0.00      85.7     0.33      1013.6     0.3       S   184   1.3      SE   133   8.33    263      -59.6
   07/09/2018 01:10      75.0      74.5       44     51.2      0.00      0.00      85.7     0.33      1013.5     1.5     SSW   192   2.5     SSW   213   8.33    263      -59.1
   07/09/2018 01:00      75.7      74.7       45     52.3      0.00      0.00      85.7     0.33      1013.4     0.2     SSE   150   1.0       S   181   8.33    263      -60.5
   07/09/2018 00:50      76.0      75.4       43     51.8      0.00      0.00      85.8     0.33      1013.3     0.5     SSE   158   1.1     SSW   195   8.33    263      -60.3
   07/09/2018 00:40      76.1      75.3       44     52.1      0.00      0.00      85.8     0.33      1013.3     0.8       S   176   1.6       S   185   8.33    263      -59.9
   07/09/2018 00:30      76.7      75.8       43     52.4      0.00      0.00      85.8     0.33      1013.3     0.0     ESE   105   1.1       S   178   8.33    263      -60.0
   07/09/2018 00:20      76.6      76.1       43     52.4      0.00      0.00      85.8     0.33      1013.2     1.1       S   185   2.8      SW   218   8.34    263      -60.3
   07/09/2018 00:10      77.2      76.1       43     52.6      0.00      0.00      85.8     0.33      1013.3     0.6     SSE   169   1.9     SSW   194   8.34    263      -61.3
   07/09/2018 00:00      77.4      76.9       43     53.1      0.00      0.00      85.9     0.33      1013.2     0.2     SSE   149   1.0     SSE   161   8.34    263      -62.4
   07/08/2018 23:50      77.2      76.9       43     52.6      0.00      0.00      85.9     0.33      1013.3     0.5     SSW   192   1.5      SW   215   8.34    263      -63.0
   07/08/2018 23:40      77.4      76.7       43     52.8      0.00      0.00      85.9     0.33      1013.4     0.4     SSE   157   1.1       S   180   8.34    263      -64.4
   07/08/2018 23:30      77.8      76.9       42     52.3      0.00      0.00      85.9     0.33      1013.3     1.0       S   190   1.9     SSW   207   8.35    263      -64.5
   07/08/2018 23:20      78.3      77.5       42     52.9      0.00      0.00      85.9     0.33      1013.4     0.4       S   177   1.6       S   173   8.35    263      -65.3
   07/08/2018 23:10      78.5      77.9       41     52.8      0.00      0.00      85.9     0.33      1013.5     0.6     SSE   168   1.4       S   187   8.35    263      -65.8
   07/08/2018 23:00      78.8      78.1       40     51.9      0.00      0.00      85.9     0.33      1013.5     1.0     SSW   203   1.8     SSW   209   8.35    263      -65.9
   07/08/2018 22:50      79.5      78.5       39     51.8      0.00      0.00      85.9     0.33      1013.6     1.0     SSW   193   1.8       S   190   8.35    263      -66.0
   07/08/2018 22:40      79.8      79.3       38     51.5      0.00      0.00      86.0     0.33      1013.6     0.3       S   190   1.1       S   190   8.35    262      -67.0
   07/08/2018 22:30      80.7      79.6       37     51.2      0.00      0.00      85.9     0.33      1013.4     0.3       S   190   1.1       S   190   8.36    262      -68.0
   07/08/2018 22:20      81.1      80.4       36     51.2      0.00      0.00      86.0     0.33      1013.3     0.2       S   189   0.9       S   183   8.36    262      -68.3
   07/08/2018 22:10      81.1      80.6       36     51.2      0.00      0.00      85.9     0.33      1013.3     0.1     SSW   201   1.1       S   183   8.36    262      -69.4
   07/08/2018 22:00      81.6      80.6       35     50.6      0.00      0.00      85.9     0.33      1013.2     0.5     SSE   150   1.8      SE   142   8.36    262      -70.8
   07/08/2018 21:50      81.6      81.3       34     50.7      0.00      0.00      85.9     0.33      1013.0     0.0     SSE   164   0.5     SSE   158   8.36    262      -71.3
   07/08/2018 21:40      81.7      81.3       33     49.4      0.00      0.00      85.9     0.33      1012.9     0.0     SSE   166   0.6     SSE   166   8.36    262      -71.6
   07/08/2018 21:30      82.5      81.4       30     47.9      0.00      0.00      85.9     0.33      1012.8     0.2     SSE   147   1.1      SE   144   8.37    262      -72.8
   07/08/2018 21:20      82.9      82.2       28     45.9      0.00      0.00      85.8     0.33      1012.9     0.3     SSW   213   1.2      SW   227   8.37    261      -72.5
   07/08/2018 21:10      83.5      82.5       26     44.8      0.00      0.00      85.9     0.33      1012.8     0.5     SSW   193   1.7     SSW   195   8.37    261      -73.3
   07/08/2018 21:00      83.9      83.1       26     44.7      0.00      0.00      85.8     0.33      1012.7     0.8     SSW   200   1.3       S   180   8.37    261      -73.5
   07/08/2018 20:50      84.4      83.5       25     44.2      0.00      0.00      85.8     0.33      1012.7     0.2       S   172   1.2       S   175   8.38    261      -75.7
   07/08/2018 20:40      85.4      84.1       24     43.9      0.00      0.00      85.8     0.33      1012.6     0.2     SSE   153   0.9      SE   141   8.38    261      -77.4
   07/08/2018 20:30      86.9      85.2       23     43.4      0.00      0.00      85.8     0.33      1012.5     0.6      SE   145   1.4     SSW   212   8.38    261      -78.5
   07/08/2018 20:20      87.9      86.7       21     43.0      0.00      0.00      85.8     0.33      1012.4     0.2       S   187   1.6     SSW   212   8.39    261      -79.3
   07/08/2018 20:10      88.5      87.5       21     42.6      0.00      0.00      85.7     0.33      1012.4     0.4       S   190   1.6     SSW   191   8.39    261      -79.2
   07/08/2018 20:00      89.0      88.1       20     41.8      0.00      0.00      85.6     0.33      1012.2     0.6     SSE   160   2.3     SSE   169   8.39    261      -76.4
   07/08/2018 19:50      89.5      88.7       19     41.1      0.00      0.00      85.7     0.33      1012.2     1.4     SSE   167   3.5       S   179   8.39    261      -72.2
   07/08/2018 19:40      90.5      89.1       18     41.0      0.00      0.00      85.6     0.33      1012.0     1.9       S   179   3.7       S   188   8.40    261      -63.2
   07/08/2018 19:30      91.5      90.1       18     40.8      0.00      0.00      85.6     0.33      1011.9     2.9       S   178   5.3     SSE   167   8.40    261      -49.5
   07/08/2018 19:20      91.5      90.9       17     39.6      0.00      0.00      85.6     0.33      1011.9     2.4     SSE   162   4.4     SSE   163   8.41    261      -33.3
   07/08/2018 19:10      92.1      91.1       16     39.4      0.00      0.00      85.5     0.33      1011.8     4.5       S   186   7.0     SSW   201   8.41    261      -15.4
   07/08/2018 19:00      92.6      91.6       15     38.3      0.00      0.00      85.5     0.33      1011.7     4.9       S   186   8.4       S   189   8.42    261        3.9
   07/08/2018 18:50      93.7      92.3       15     38.4      0.00      0.00      85.5     0.33      1011.6     5.4       S   181   7.9       S   170   8.42    261       25.0
   07/08/2018 18:40      94.9      93.5       15     39.9      0.00      0.00      85.4     0.33      1011.5     5.1       S   189   8.8     SSW   201   8.43    261       46.5
   07/08/2018 18:30      96.3      94.8       15     41.2      0.00      0.00      85.4     0.33      1011.4     4.0       S   184   6.6       S   182   8.44    261       64.5
   07/08/2018 18:20      97.4      96.1       15     42.0      0.00      0.00      85.3     0.33      1011.2     4.3     SSE   149   8.0     SSE   158   8.44    261       86.3
   07/08/2018 18:10      98.0      97.1       15     42.9      0.00      0.00      85.3     0.33      1011.1     3.7     SSE   160   7.2      SE   143   8.45    261      110.5
   07/08/2018 18:00      99.3      97.8       15     43.4      0.00      0.00      85.2     0.33      1011.1     5.1     SSE   156   8.5       S   188   8.46    261      134.8
   07/08/2018 17:50      99.4      98.8       15     44.0      0.00      0.00      85.2     0.33      1011.1     3.9     SSE   152   6.5      SE   143   8.46    261      156.8
   07/08/2018 17:40      99.4      98.7       16     45.2      0.00      0.00      85.2     0.33      1011.1     3.7     SSE   168   7.0       S   191   8.47    261      182.3
   07/08/2018 17:30      99.0      98.1       16     45.0      0.00      0.00      85.1     0.33      1011.1     4.5     SSE   160   7.8      SE   140   8.47    261      207.5
   07/08/2018 17:20      99.0      98.3       16     44.5      0.00      0.00      85.1     0.33      1011.0     5.1       S   181   9.7       S   184   8.48    261      231.0
   07/08/2018 17:10     100.0      98.7       15     43.9      0.00      0.00      85.0     0.33      1011.0     5.0       S   173   7.9     SSE   161   8.49    261      251.4
   07/08/2018 17:00      99.9      99.3       15     44.7      0.00      0.00      85.0     0.33      1011.1     4.5     SSW   198   6.4     SSE   159   8.50    261      271.0
   07/08/2018 16:50     101.3      99.3       15     44.7      0.00      0.00      84.9     0.33      1011.1     5.2     SSW   207   8.0     SSW   207   8.50    261      294.2
   07/08/2018 16:40     101.3      99.8       15     44.6      0.00      0.00      84.8     0.33      1011.1     3.7       S   190   8.1      SW   216   8.51    261      313.3
   07/08/2018 16:30     100.1      99.3       16     44.9      0.00      0.00      84.8     0.33      1011.2     4.3     SSW   193   8.6       S   183   8.51    261      335.1
   07/08/2018 16:20      99.9      99.3       16     45.0      0.00      0.00      84.7     0.33      1011.2     5.0       S   183   9.6     SSW   200   8.52    261      355.0
   07/08/2018 16:10     101.6      99.6       16     45.8      0.00      0.00      84.6     0.33      1011.3     5.3       S   183   9.2     SSW   192   8.53    261      372.3
   07/08/2018 16:00     101.4     100.3       16     46.2      0.00      0.00      84.6     0.33      1011.3     4.3       S   191   7.9       S   190   8.53    261      390.2
   07/08/2018 15:50     101.6     100.4       16     45.6      0.00      0.00      84.5     0.33      1011.5     4.6       S   173   7.9      SW   220   8.54    261      407.4
   07/08/2018 15:40     102.2     100.9       15     45.0      0.00      0.00      84.5     0.33      1011.5     3.8     SSE   166   8.9     SSW   208   8.55    261      424.2
   07/08/2018 15:30     102.0     101.2       15     44.6      0.00      0.00      84.5     0.33      1011.5     3.7       S   183   7.7       S   189   8.56    261      438.6
   07/08/2018 15:20     102.7     101.3       14     44.5      0.00      0.00      84.4     0.33      1011.5     4.4       S   186   8.3       S   187   8.56    261      454.3
   07/08/2018 15:10     102.7     101.5       14     44.4      0.00      0.00      84.3     0.33      1011.5     3.1     SSE   168   6.8      SE   135   8.57    261      466.3
   07/08/2018 15:00     102.5     100.7       14     43.8      0.00      0.00      84.3     0.33      1011.6     4.6      SE   137   8.3      SE   143   8.58    261      482.4
   07/08/2018 14:50     102.2     101.5       14     43.7      0.00      0.00      84.1     0.33      1011.7     4.3     ESE   118   8.1      SE   146   8.59    261      491.5
   07/08/2018 14:40     102.3     101.7       13     42.0      0.00      0.00      84.2     0.33      1011.8     3.3       E    87   7.3     NNE    30   8.59    261      500.1
   07/08/2018 14:30     102.8     101.5       13     42.0      0.00      0.00      84.0     0.33      1011.8     3.4       E   101   8.2     ENE    71   8.60    261      510.2
   07/08/2018 14:20     103.0     102.5       13     42.4      0.00      0.00      83.9     0.33      1011.8     3.0     ENE    77   7.8     ENE    60   8.60    261      518.2
   07/08/2018 14:10     102.7     100.4       13     41.4      0.00      0.00      84.0     0.33      1012.0     3.2     ENE    74   7.3     ESE   105   8.61    261      527.4
   07/08/2018 14:00     103.1     101.3       13     41.2      0.00      0.00      84.0     0.33      1012.0     3.1     ESE   107   6.9     ENE    64   8.61    261      480.6
   07/08/2018 13:50     102.4     100.9       12     39.4      0.00      0.00      84.0     0.33      1012.2     2.7     ESE   120   7.8     SSE   160   8.62    261      545.1
   07/08/2018 13:40     101.7     100.4       12     38.3      0.00      0.00      83.9     0.33      1012.3     3.4     ESE   111   5.9      SE   136   8.62    261      539.6
   07/08/2018 13:30     102.0     100.6       12     39.4      0.00      0.00      83.8     0.33      1012.5     3.1     ESE   105   6.9     ENE    66   8.63    260      594.1
   07/08/2018 13:20     101.3      99.4       13     40.2      0.00      0.00      83.8     0.33      1012.6     3.7       E   100   9.5      SE   124   8.63    261      437.4
   07/08/2018 13:10     103.1     101.0       13     41.7      0.00      0.00      83.7     0.33      1012.6     3.8       E    95   8.9     ESE   103   8.64    260      383.0
   07/08/2018 13:00     102.8     101.2       14     43.4      0.00      0.00      83.7     0.33      1012.6     3.0      NE    54   6.8       E    79   8.64    261      674.0
   07/08/2018 12:50     102.1     100.6       14     42.6      0.00      0.00      83.6     0.33      1012.7     2.5     ENE    62   5.1     ENE    78   8.64    261      392.7
   07/08/2018 12:40     101.3     100.4       13     40.8      0.00      0.00      83.7     0.33      1012.8     2.6     ESE   108   5.7      SE   136   8.65    261      350.5
   07/08/2018 12:30     102.2     100.5       12     40.0      0.00      0.00      83.7     0.33      1012.9     2.9      SE   139   6.5     SSW   194   8.65    260      613.8
   07/08/2018 12:20     100.5      99.0       14     41.3      0.00      0.00      83.7     0.33      1012.9     3.2     ESE   119   9.0      SE   142   8.66    261      632.2
   07/08/2018 12:10      99.7      98.6       14     41.3      0.00      0.00      83.5     0.33      1012.9     4.1      SE   141   8.0      SE   137   8.66    261      493.4
   07/08/2018 12:00     100.6      98.5       14     41.8      0.00      0.00      83.7     0.33      1012.9     4.3      SE   124   8.3     SSE   147   8.66    261      528.7
   07/08/2018 11:50     100.8      99.7       14     43.2      0.00      0.00      83.7     0.33      1012.9     3.2      SE   127   5.8      SE   136   8.67    261      656.4
   07/08/2018 11:40     100.5      99.3       15     44.2      0.00      0.00      83.7     0.33      1013.0     2.0     ESE   123   4.8      NE    36   8.67    261      341.0
   07/08/2018 11:30     100.5      99.9       14     43.1      0.00      0.00      83.7     0.33      1013.0     3.0      NE    55   6.4       S   180   8.68    261      333.2
   07/08/2018 11:20     100.6      99.3       16     44.9      0.00      0.00      83.7     0.33      1013.0     3.2      NE    34   7.3      NE    53   8.68    260      685.2
   07/08/2018 11:10      99.6      96.7       18     47.6      0.00      0.00      83.7     0.33      1013.0     2.1      NE    35   4.8     NNW   348   8.68    261      600.2
   07/08/2018 11:00      96.8      95.1       19     47.2      0.00      0.00      83.6     0.33      1013.0     1.5      NE    49   3.1       E    88   8.68    261      340.1
   07/08/2018 10:50      95.9      94.9       20     48.5      0.00      0.00      83.8     0.33      1013.0     2.9     ENE    68   5.3      NE    46   8.68    261      379.5
   07/08/2018 10:40      95.6      94.9       20     48.5      0.00      0.00      83.8     0.33      1012.9     2.8       E    81   5.3     ENE    77   8.68    261      472.7
   07/08/2018 10:30      95.5      94.0       21     48.8      0.00      0.00      83.8     0.33      1012.8     2.4     ENE    61   4.2      NE    38   8.68    261      437.7
   07/08/2018 10:20      94.0      93.1       23     50.1      0.00      0.00      83.8     0.33      1012.8     2.7      NE    55   4.4     ENE    65   8.68    261      359.7
   07/08/2018 10:10      94.1      92.5       25     52.0      0.00      0.00      83.9     0.33      1012.8     2.5       E    90   4.9      SE   130   8.68    261      432.8
   07/08/2018 10:00      92.8      91.3       26     52.3      0.00      0.00      83.8     0.33      1012.8     1.7     ENE    61   5.4      NE    44   8.69    262      308.8
   07/08/2018 09:50      91.5      91.0       26     51.7      0.00      0.00      83.9     0.33      1012.8     2.3     ENE    61   3.9     ENE    58   8.69    262      170.3
   07/08/2018 09:40      91.5      91.0       26     51.9      0.00      0.00      83.9     0.33      1012.8     2.0     ENE    59   5.1      NE    44   8.69    262      149.6
   07/08/2018 09:30      92.1      91.1       27     53.0      0.00      0.00      83.9     0.33      1012.8     2.9      NE    39   5.7      NE    48   8.69    261      304.1
   07/08/2018 09:20      91.8      90.4       28     53.8      0.00      0.00      83.9     0.33      1012.8     1.5      NE    36   3.5     NNE    15   8.69    261      356.3
   07/08/2018 09:10      90.7      89.2       29     53.9      0.00      0.00      83.9     0.33      1012.8     1.5     NNE    12   3.5       N     6   8.69    261      378.7
   07/08/2018 09:00      89.3      87.1       31     53.5      0.00      0.00      84.0     0.33      1012.9     1.1     NNE    24   3.7     NNE    28   8.69    262      389.7
   07/08/2018 08:50      87.3      85.8       32     53.2      0.00      0.00      84.0     0.33      1013.0     1.3     NNE    22   2.9     NNE    22   8.69    263      210.3
   07/08/2018 08:40      86.0      84.7       35     54.3      0.00      0.00      84.1     0.33      1013.0     1.3     NNE    25   2.8      NE    47   8.69    263       26.0
   07/08/2018 08:30      84.9      84.1       36     54.9      0.00      0.00      84.1     0.33      1013.0     1.9       N   358   3.0       N     0   8.69    263        9.7
   07/08/2018 08:20      84.4      83.3       37     55.2      0.00      0.00      84.2     0.33      1012.9     0.8     ENE    74   2.8       E    85   8.69    263        7.3
   07/08/2018 08:10      83.7      82.7       38     55.1      0.00      0.00      84.2     0.33      1012.9     1.2       N    10   3.1       N     3   8.69    263       16.6
   07/08/2018 08:00      82.9      81.9       39     54.9      0.00      0.00      84.2     0.33      1012.9     1.0       N     8   2.9       N     2   8.69    263       11.8
   07/08/2018 07:50      82.0      81.3       40     55.1      0.00      0.00      84.3     0.33      1012.8     1.3       N   350   2.6     NNW   341   8.69    263       18.6
   07/08/2018 07:40      81.6      81.1       41     55.6      0.00      0.00      84.3     0.33      1012.8     1.1       N   359   2.3     NNE    24   8.69    263       20.4
   07/08/2018 07:30      81.4      80.8       41     55.3      0.00      0.00      84.3     0.33      1012.8     0.7       N     7   2.4       N     3   8.69    263       10.8
   07/08/2018 07:20      81.1      80.0       42     55.3      0.00      0.00      84.4     0.33      1012.7     0.3       E    83   2.1     ENE    77   8.69    263       13.0
   07/08/2018 07:10      80.1      78.9       45     56.3      0.00      0.00      84.4     0.33      1012.6     0.4     ESE   102   1.4     ENE    78   8.69    263       23.9
   07/08/2018 07:00      79.1      78.0       46     55.8      0.00      0.00      84.4     0.33      1012.6     1.0      SE   143   1.6      SE   143   8.70    264       10.0
   07/08/2018 06:50      78.1      77.2       46     55.5      0.00      0.00      84.4     0.33      1012.4     1.0      SE   141   1.7      SE   143   8.70    264       -2.7
   07/08/2018 06:40      77.3      76.4       46     54.8      0.00      0.00      84.5     0.33      1012.3     0.0      SE   126   0.5      SE   126   8.70    263      -10.4
   07/08/2018 06:30      76.7      76.1       47     54.7      0.00      0.00      84.5     0.33      1012.2     0.0       N     0   0.0      SE   126   8.70    263      -16.2
   07/08/2018 06:20      76.5      76.0       47     54.5      0.00      0.00      84.5     0.33      1012.1     0.0      SE   126   0.6      SE   126   8.70    264      -25.9
   07/08/2018 06:10      76.7      76.1       47     54.7      0.00      0.00      84.6     0.33      1012.1     0.0       N     0   0.0      SE   126   8.70    264      -32.0
   07/08/2018 06:00      76.9      76.4       46     54.6      0.00      0.00      84.6     0.33      1012.1     0.3     NNE    32   1.3     NNE    12   8.70    264      -33.8
   07/08/2018 05:50      76.5      75.9       48     55.0      0.00      0.00      84.6     0.33      1012.0     0.3       N     7   1.5     NNW   345   8.70    264      -32.4
   07/08/2018 05:40      76.1      75.7       48     54.6      0.00      0.00      84.7     0.33      1011.9     0.3     SSE   154   1.5      SE   139   8.70    264      -31.1
   07/08/2018 05:30      76.5      75.8       47     54.4      0.00      0.00      84.7     0.33      1011.9     0.3     SSE   164   0.9       S   171   8.70    264      -31.4
   07/08/2018 05:20      76.4      75.8       47     54.6      0.00      0.00      84.7     0.33      1011.9     0.5     SSE   148   1.6      SE   138   8.70    264      -31.5
   07/08/2018 05:10      76.3      75.7       47     54.5      0.00      0.00      84.7     0.33      1011.8     0.1      SE   136   0.6     SSE   167   8.70    264      -29.4
   07/08/2018 05:00      76.3      75.8       47     54.5      0.00      0.00      84.8     0.33      1011.8     1.0     SSE   154   2.3      SE   142   8.70    264      -31.2
   07/08/2018 04:50      76.0      75.4       48     54.7      0.00      0.00      84.8     0.33      1011.8     1.3      SE   143   2.2      SE   135   8.70    264      -33.5
   07/08/2018 04:40      75.7      75.2       48     54.3      0.00      0.00      84.8     0.33      1011.7     0.4     SSE   159   1.8      SE   143   8.70    264      -34.9
   07/08/2018 04:30      75.5      75.1       48     54.4      0.00      0.00      84.9     0.33      1011.7     0.3       S   169   0.9     SSE   148   8.71    264      -34.7
   07/08/2018 04:20      75.8      75.2       48     54.1      0.00      0.00      84.9     0.33      1011.7     0.2      SE   142   0.9      SE   142   8.71    264      -33.7
   07/08/2018 04:10      75.8      75.2       48     54.3      0.00      0.00      84.9     0.33      1011.7     0.5      SE   140   1.5      SE   132   8.71    263      -35.7
   07/08/2018 04:00      75.6      75.2       48     54.1      0.00      0.00      85.0     0.33      1011.7     0.7     SSE   153   1.5      SE   146   8.71    264      -39.1
   07/08/2018 03:50      75.4      74.9       48     54.0      0.00      0.00      85.0     0.33      1011.7     0.8       S   185   1.7      SE   143   8.71    264      -45.7
   07/08/2018 03:40      75.2      74.8       48     54.3      0.00      0.00      85.0     0.33      1011.6     0.8     SSE   150   1.9     SSE   159   8.71    264      -45.9
   07/08/2018 03:30      75.2      74.8       47     53.4      0.00      0.00      85.1     0.33      1011.6     0.7       S   176   1.7      SW   232   8.71    263      -45.3
   07/08/2018 03:20      75.2      74.7       48     53.8      0.00      0.00      85.1     0.33      1011.7     0.6     SSE   165   2.1      SE   141   8.71    263      -53.2
   07/08/2018 03:10      75.3      74.7       47     53.6      0.00      0.00      85.1     0.33      1011.6     0.6      SE   140   1.0      SE   140   8.71    263      -54.0
   07/08/2018 03:00      75.5      74.8       47     53.3      0.00      0.00      85.1     0.33      1011.6     0.4     SSE   163   1.4      SE   145   8.71    263      -54.5
   07/08/2018 02:50      76.1      75.2       46     53.2      0.00      0.00      85.2     0.33      1011.7     0.8     SSE   159   1.4     SSE   153   8.71    263      -55.3
   07/08/2018 02:40      76.1      75.6       45     53.1      0.00      0.00      85.2     0.33      1011.7     0.6     SSE   162   1.1     SSE   157   8.71    263      -54.6
   07/08/2018 02:30      76.0      75.6       44     52.1      0.00      0.00      85.2     0.33      1011.8     1.0       S   175   1.9     SSW   203   8.71    263      -54.5
   07/08/2018 02:20      76.5      75.7       43     52.0      0.00      0.00      85.2     0.33      1011.8     0.6     SSE   163   1.4     SSE   151   8.72    263      -55.6
   07/08/2018 02:10      76.6      76.1       42     51.7      0.00      0.00      85.3     0.33      1011.7     0.5       S   179   1.5     SSW   205   8.72    263      -55.3
   07/08/2018 02:00      76.8      76.3       43     52.3      0.00      0.00      85.3     0.33      1011.8     0.2     SSE   151   1.2     SSE   146   8.72    263      -56.0
   07/08/2018 01:50      77.4      76.5       42     51.9      0.00      0.00      85.3     0.33      1011.8     1.2     SSW   193   2.3     WSW   242   8.72    263      -55.8
   07/08/2018 01:40      78.0      77.0       42     52.6      0.00      0.00      85.3     0.33      1011.8     0.3      SW   221   1.4      SW   221   8.72    263      -56.4
   07/08/2018 01:30      78.3      77.4       42     52.9      0.00      0.00      85.4     0.33      1011.8     0.4      SW   224   1.4      SW   224   8.72    263      -56.8
   07/08/2018 01:20      78.3      77.7       42     53.0      0.00      0.00      85.4     0.33      1011.9     0.5     ESE   102   2.0      SE   134   8.72    263      -59.1
   07/08/2018 01:10      78.0      77.2       43     53.3      0.00      0.00      85.4     0.33      1011.7     1.1     SSE   154   2.6      SE   144   8.72    263      -58.2
   07/08/2018 01:00      78.2      77.4       44     53.9      0.00      0.00      85.4     0.33      1011.7     0.4     SSE   157   0.9     SSE   168   8.73    263      -58.0
   07/08/2018 00:50      78.8      77.9       43     54.0      0.00      0.00      85.4     0.33      1011.9     0.1      SE   144   0.8     SSE   149   8.73    263      -57.5
   07/08/2018 00:40      79.1      78.5       41     53.2      0.00      0.00      85.4     0.33      1012.1     0.6       S   184   1.5       S   182   8.73    263      -57.2
   07/08/2018 00:30      79.8      78.7       42     53.8      0.00      0.00      85.5     0.33      1012.2     1.2       S   178   2.1     SSW   211   8.73    263      -57.4
   07/08/2018 00:20      79.6      79.1       42     54.4      0.00      0.00      85.5     0.33      1012.4     0.9     SSW   208   2.3     SSW   211   8.73    263      -57.4
   07/08/2018 00:10      79.6      79.1       43     54.7      0.00      0.00      85.5     0.33      1012.4     0.8     SSW   197   2.1       S   183   8.73    263      -59.4
   07/08/2018 00:00      79.9      79.2       43     55.0      0.00      0.00      85.5     0.33      1012.5     0.4     SSE   150   1.2     SSE   168   8.74    263      -60.5
   07/07/2018 23:50      80.2      79.6       41     54.3      0.00      0.00      85.5     0.33      1012.5     0.4     SSE   156   1.7     SSE   153   8.74    263      -61.6
   07/07/2018 23:40      80.4      79.8       40     53.5      0.00      0.00      85.5     0.33      1012.4     0.7       S   189   1.5     SSW   209   8.74    263      -61.2
   07/07/2018 23:30      80.9      80.1       40     54.0      0.00      0.00      85.5     0.33      1012.4     0.6       S   174   1.1     SSW   210   8.74    263      -62.2
   07/07/2018 23:20      81.0      80.5       40     54.0      0.00      0.00      85.5     0.33      1012.4     0.0       N     0   0.0     SSE   168   8.74    263      -62.6
   07/07/2018 23:10      81.8      80.6       39     53.6      0.00      0.00      85.5     0.33      1012.4     1.1     SSW   193   2.2      SW   218   8.74    263      -63.5
   07/07/2018 23:00      82.1      81.2       39     54.1      0.00      0.00      85.5     0.33      1012.4     0.5     SSW   212   1.8     SSW   212   8.75    263      -63.8
   07/07/2018 22:50      82.6      81.7       38     54.1      0.00      0.00      85.5     0.33      1012.4     0.5     ESE   123   1.6      SE   135   8.75    263      -65.4
   07/07/2018 22:40      83.6      82.4       37     54.0      0.00      0.00      85.5     0.33      1012.3     0.3      SE   126   1.4     ESE   102   8.75    263      -67.0
   07/07/2018 22:30      84.2      83.3       36     54.4      0.00      0.00      85.5     0.33      1012.3     0.0     ESE   107   1.1      SE   134   8.75    263      -68.9
   07/07/2018 22:20      84.6      83.9       36     54.5      0.00      0.00      85.5     0.33      1012.3     0.3     ESE   104   1.2       E    98   8.75    263      -70.6
   07/07/2018 22:10      85.0      84.3       36     54.6      0.00      0.00      85.6     0.33      1012.2     1.0     ESE   112   3.0       E    88   8.76    263      -71.8
   07/07/2018 22:00      85.4      84.5       36     54.7      0.00      0.00      85.5     0.33      1012.2     0.7       E    84   2.3     ESE   116   8.76    263      -71.0
   07/07/2018 21:50      85.6      85.0       35     54.6      0.00      0.00      85.5     0.33      1012.2     1.5       E    91   3.8     ESE   110   8.76    262      -71.4
   07/07/2018 21:40      85.8      85.2       35     54.9      0.00      0.00      85.5     0.33      1012.1     1.2       E    87   3.5     ENE    64   8.76    263      -71.0
   07/07/2018 21:30      86.4      85.5       35     54.9      0.00      0.00      85.5     0.33      1011.9     0.4       E    97   1.6       E    81   8.77    262      -71.3
   07/07/2018 21:20      87.2      86.1       34     54.6      0.00      0.00      85.4     0.33      1011.9     1.0     ENE    69   2.7      NE    51   8.77    262      -72.7
   07/07/2018 21:10      88.0      86.9       33     54.4      0.00      0.00      85.4     0.33      1011.7     2.4      NE    44   3.5     NNE    23   8.77    262      -73.3
   07/07/2018 21:00      88.0      87.4       32     54.1      0.00      0.00      85.3     0.33      1011.6     1.9      NE    48   3.3      NE    49   8.77    262      -73.2
   07/07/2018 20:50      88.2      87.6       32     54.4      0.00      0.00      85.4     0.33      1011.5     1.5      NE    52   3.2      NE    49   8.78    262      -73.9
   07/07/2018 20:40      88.8      87.9       32     54.9      0.00      0.00      85.4     0.33      1011.5     1.2       E    81   3.2      NE    56   8.78    262      -76.2
   07/07/2018 20:30      89.3      88.3       32     55.4      0.00      0.00      85.3     0.33      1011.5     1.7      NE    48   3.0      NE    50   8.78    262      -78.4
   07/07/2018 20:20      89.9      89.0       31     55.2      0.00      0.00      85.3     0.33      1011.3     1.9      NE    45   3.4     ENE    62   8.79    262      -79.0
   07/07/2018 20:10      91.0      89.6       31     55.1      0.00      0.00      85.3     0.33      1011.1     2.5      NE    55   4.5     NNE    27   8.79    261      -77.3
   07/07/2018 20:00      92.2      90.6       29     54.8      0.00      0.00      85.2     0.33      1010.9     2.1      NE    49   3.6     ENE    62   8.79    261      -74.4
   07/07/2018 19:50      93.3      91.8       27     53.6      0.00      0.00      85.3     0.33      1010.8     2.3     ENE    63   4.7     ESE   118   8.80    261      -69.5
   07/07/2018 19:40      95.5      93.2       25     52.9      0.00      0.00      85.2     0.33      1010.6     3.1      NE    54   5.2      NE    52   8.80    261      -65.8
   07/07/2018 19:30      96.3      95.2       22     50.4      0.00      0.00      85.1     0.33      1010.5     1.9     ENE    78   3.9     NNE    32   8.80    261      -59.0
   07/07/2018 19:20      97.0      96.0       21     50.1      0.00      0.00      85.1     0.33      1010.5     2.2       E    89   4.9       E    88   8.81    261      -47.5
   07/07/2018 19:10      98.2      96.8       20     50.0      0.00      0.00      85.0     0.33      1010.4     2.4       E    88   4.8     ENE    76   8.81    261      -50.1
   07/07/2018 19:00      99.6      97.9       20     50.3      0.00      0.00      85.0     0.33      1010.3     3.6     ESE   119   5.9       E   100   8.82    261      -19.9
   07/07/2018 18:50     100.2      99.3       19     50.0      0.00      0.00      84.9     0.33      1010.3     2.4       E    93   4.6       E   100   8.82    261       -8.4
   07/07/2018 18:40     100.7      99.6       19     50.6      0.00      0.00      84.9     0.33      1010.2     2.0     SSE   151   4.4       S   191   8.83    261       26.9
   07/07/2018 18:30     101.0     100.4       18     49.8      0.00      0.00      84.9     0.33      1010.1     1.3      SE   124   3.1     ESE   110   8.83    261      -19.8
   07/07/2018 18:20     100.7     100.1       18     48.6      0.00      0.00      84.8     0.33      1010.1     2.4       E    88   5.7       E    99   8.84    261       57.5
   07/07/2018 18:10     100.7     100.2       17     48.1      0.00      0.00      84.7     0.33      1010.1     4.0      SE   135   7.8      SE   139   8.84    261      126.2
   07/07/2018 18:00     101.1     100.1       17     48.1      0.00      0.00      84.7     0.33      1010.1     3.3     ESE   114   7.0      SE   134   8.85    261      111.7
   07/07/2018 17:50     101.1     100.4       18     49.0      0.00      0.00      84.6     0.33      1010.1     3.7     ESE   120   7.7      SE   127   8.85    261      144.3
   07/07/2018 17:40     101.2     100.3       18     49.8      0.00      0.00      84.6     0.33      1010.1     4.6     ESE   119   8.7      SE   133   8.86    261      189.7
   07/07/2018 17:30     102.1     100.6       18     50.3      0.00      0.00      84.5     0.33      1010.1     6.0      SE   144  10.8      SE   134   8.87    261      221.5
   07/07/2018 17:20     102.1     101.3       19     51.5      0.00      0.00      84.5     0.33      1010.2     5.3      SE   137  10.1     SSE   165   8.88    261      240.7
   07/07/2018 17:10     102.4     101.4       21     54.7      0.00      0.00      84.3     0.33      1010.2     4.8     SSE   163   8.9     SSW   202   8.88    261      171.7
   07/07/2018 17:00     102.3     101.6       21     55.2      0.00      0.00      84.3     0.33      1010.4     3.1      SE   130   6.2       S   179   8.89    261      135.3
   07/07/2018 16:50     102.4     100.9       22     56.1      0.00      0.00      84.2     0.33      1010.5     3.7      SE   145   7.7      SE   129   8.90    261      302.6
   07/07/2018 16:40     102.7     101.5       22     56.5      0.00      0.00      84.1     0.33      1010.5     5.1     ESE   120  11.2      SE   129   8.90    261      324.7
   07/07/2018 16:30     102.6     101.8       22     56.1      0.00      0.00      84.1     0.33      1010.5     5.3     ENE    77  10.1       E    84   8.91    261      344.1
   07/07/2018 16:20     102.9     101.8       21     54.5      0.00      0.00      84.0     0.33      1010.4     5.9      SE   141  11.2      SE   134   8.91    261      362.8
   07/07/2018 16:10     103.6     101.6       19     52.6      0.00      0.00      83.9     0.33      1010.5     6.8      SE   127  10.5      SE   143   8.92    261      384.3
   07/07/2018 16:00     105.6     103.2       18     52.1      0.00      0.00      83.9     0.33      1010.3     5.8     ESE   119  15.2      SE   139   8.93    261      408.8
   07/07/2018 15:50     108.7     105.3       16     50.1      0.00      0.00      83.8     0.33      1010.2     6.6       E   100  10.1       E    99   8.94    261      436.5
   07/07/2018 15:40     108.7     107.0       12     44.3      0.00      0.00      83.7     0.33      1010.1     4.7      SE   138   9.7     ESE   115   8.95    260      453.8
   07/07/2018 15:30     109.2     106.6       12     43.4      0.00      0.00      83.6     0.33      1010.1     5.9      SE   140  11.4     ESE   110   8.96    261      373.3
   07/07/2018 15:20     109.1     107.7       12     43.8      0.00      0.00      83.5     0.33      1010.0     3.6     SSE   148   8.0     SSE   153   8.96    260      448.6
   07/07/2018 15:10     108.6     107.6       12     43.7      0.00      0.00      83.4     0.33      1010.0     4.1     SSE   162  11.5       S   174   8.97    260      319.8
   07/07/2018 15:00     108.1     106.9       12     43.7      0.00      0.00      83.3     0.33      1010.0     6.0      SE   139  11.1       E    88   8.98    261      516.5
   07/07/2018 14:50     108.0     106.8       12     43.1      0.00      0.00      83.3     0.33      1010.0     6.0     SSE   150   9.4      SE   133   8.98    261      528.9
   07/07/2018 14:40     109.2     106.9       11     42.5      0.00      0.00      83.2     0.33      1010.0     6.7     SSE   146  10.6      SE   142   8.99    260      338.6
   07/07/2018 14:30     109.7     108.9       11     42.4      0.00      0.00      83.2     0.33      1010.0     6.6      SE   145  10.6      SE   140   9.00    261      515.5
   07/07/2018 14:20     110.1     109.2       10     41.2      0.00      0.00      83.1     0.33      1010.1     6.2     SSE   157  10.0     SSE   157   9.01    261      531.7
   07/07/2018 14:10     110.2     109.2       10     40.8      0.00      0.00      83.0     0.32      1010.0     6.0       S   169  10.2       S   170   9.02    261      531.2
   07/07/2018 14:00     112.3     109.7        9     40.6      0.00      0.00      82.9     0.32      1010.0     7.0     SSE   148  13.8      SE   132   9.03    260      532.1
   07/07/2018 13:50     113.4     111.5        9     41.1      0.00      0.00      82.9     0.32      1010.1     3.2     SSE   164   8.9     SSE   161   9.04    260      532.5
   07/07/2018 13:40     112.8     111.1        9     41.0      0.00      0.00      82.8     0.32      1010.1     4.9      SE   142   9.1       S   185   9.04    260      539.9
   07/07/2018 13:30     112.5     111.3        9     41.2      0.00      0.00      82.7     0.32      1010.1     3.7      SE   145   6.9      SE   138   9.05    260      544.4
   07/07/2018 13:20     112.1     111.1       10     41.7      0.00      0.00      82.6     0.32      1010.2     3.8       S   170   7.4     ESE   117   9.05    260      545.5
   07/07/2018 13:10     113.2     111.8       10     43.5      0.00      0.00      82.6     0.32      1010.3     3.7     ESE   110   7.8      SE   144   9.06    260      544.4
   07/07/2018 13:00     113.0     111.8       10     42.9      0.00      0.00      82.6     0.32      1010.4     2.6       E    84   5.6     ESE   109   9.06    260      543.8
   07/07/2018 12:50     112.2     111.3       10     43.4      0.00      0.00      82.5     0.32      1010.5     2.5     ESE   112   6.1       S   190   9.07    260      544.0
   07/07/2018 12:40     111.7     110.3       10     43.0      0.00      0.00      82.5     0.32      1010.6     3.4      NE    45   5.9      NE    44   9.07    260      540.7
   07/07/2018 12:30     111.3     110.4       10     43.0      0.00      0.00      82.5     0.32      1010.7     3.8      NE    49   6.9      NE    37   9.07    260      539.0
   07/07/2018 12:20     111.1     110.4       10     41.3      0.00      0.00      82.5     0.32      1010.8     3.6     ENE    60   6.5     ENE    73   9.08    260      540.4
   07/07/2018 12:10     110.8     110.1       12     47.0      0.00      0.00      82.5     0.32      1010.8     3.5      NE    43   6.2     ENE    74   9.08    260      536.2
   07/07/2018 12:00     110.7     109.7       12     46.2      0.00      0.00      82.4     0.32      1010.9     3.6      NE    46   6.4     ENE    76   9.08    261      535.1
   07/07/2018 11:50     110.1     108.9       12     44.8      0.00      0.00      82.4     0.32      1011.0     3.1      NE    37   6.8      NE    51   9.08    260      520.7
   07/07/2018 11:40     109.6     108.2       11     43.0      0.00      0.00      82.4     0.32      1011.1     3.1      NE    46   4.8      NE    49   9.09    260      492.6
   07/07/2018 11:30     108.7     108.1       11     43.1      0.00      0.00      82.4     0.32      1011.2     2.9      NE    49   5.3     ENE    59   9.09    260      512.4
   07/07/2018 11:20     108.5     107.8       11     43.4      0.00      0.00      82.4     0.32      1011.2     2.6      NE    34   5.2     NNE    33   9.09    260      508.0
   07/07/2018 11:10     108.7     107.4       12     44.4      0.00      0.00      82.4     0.32      1011.2     2.2      NE    52   4.1      NE    49   9.09    260      512.8
   07/07/2018 11:00     107.5     106.2       13     45.3      0.00      0.00      82.3     0.32      1011.2     2.6      NE    52   4.4     ESE   112   9.09    260      527.4
   07/07/2018 10:50     108.0     106.0       12     43.2      0.00      0.00      82.3     0.32      1011.2     1.9      NE    46   3.5     NNE    30   9.09    260      239.7
   07/07/2018 10:40     107.8     106.2       12     44.2      0.00      0.00      82.5     0.32      1011.2     1.6     NNE    27   3.2     ENE    78   9.09    260      374.6
   07/07/2018 10:30     106.4     105.5       14     46.0      0.00      0.00      82.4     0.32      1011.3     2.2      NE    39   3.9     NNE    29   9.09    260      474.9
   07/07/2018 10:20     105.9     104.6       14     46.9      0.00      0.00      82.5     0.33      1011.3     1.5      NE    40   4.4     ENE    60   9.09    260      446.0
   07/07/2018 10:10     104.7     103.6       14     46.1      0.00      0.00      82.5     0.33      1011.3     1.8      NE    42   3.7       E    87   9.09    260      425.7
   07/07/2018 10:00     103.8     102.7       15     46.4      0.00      0.00      82.4     0.33      1011.4     1.6     NNE    21   3.8     NNE    12   9.09    261      407.2
   07/07/2018 09:50     102.9     101.7       16     47.6      0.00      0.00      82.5     0.33      1011.4     1.7     NNE    16   3.7       N     9   9.09    260      388.2
   07/07/2018 09:40     102.3     101.5       17     48.5      0.00      0.00      82.4     0.33      1011.5     1.9      NE    43   3.5     NNE    17   9.09    261      370.7
   07/07/2018 09:30     101.7      98.8       19     50.4      0.00      0.00      82.6     0.33      1011.5     1.1      NE    40   2.5      NE    42   9.09    261      354.8
   07/07/2018 09:20      98.9      97.7       21     51.4      0.00      0.00      82.6     0.33      1011.5     2.0      NE    38   4.1      NE    35   9.09    261      340.4
   07/07/2018 09:10      98.0      96.9       22     52.1      0.00      0.00      82.6     0.33      1011.5     1.6     NNE    33   2.8      NE    55   9.09    261      326.6
   07/07/2018 09:00      97.0      93.6       22     50.2      0.00      0.00      82.7     0.33      1011.6     1.0     ENE    65   3.4       E   100   9.09    261      322.0
   07/07/2018 08:50      93.7      91.5       24     50.5      0.00      0.00      82.7     0.33      1011.6     0.5      NE    55   1.9     ENE    72   9.10    261      180.2
   07/07/2018 08:40      91.6      90.1       26     50.9      0.00      0.00      82.8     0.33      1011.6     0.4      NE    36   1.7     NNE    33   9.10    262       12.5
   07/07/2018 08:30      90.3      88.7       26     49.8      0.00      0.00      82.8     0.33      1011.5     0.3      NE    39   1.2     ENE    71   9.10    262        6.8
   07/07/2018 08:20      88.8      87.4       29     51.4      0.00      0.00      82.8     0.33      1011.5     0.8       N   357   1.8       N   355   9.10    262        5.3
   07/07/2018 08:10      87.7      86.4       30     51.5      0.00      0.00      82.9     0.33      1011.5     0.7       N     9   1.6       N     3   9.10    262        9.1
   07/07/2018 08:00      86.4      85.5       30     50.7      0.00      0.00      82.8     0.33      1011.5     1.2     NNE    23   1.8     NNE    21   9.10    262        1.3
   07/07/2018 07:50      85.6      84.1       30     50.0      0.00      0.00      82.9     0.33      1011.4     0.3     NNE    16   1.6     NNE    20   9.10    262        6.7
   07/07/2018 07:40      84.1      82.7       32     50.6      0.00      0.00      82.9     0.33      1011.3     0.8     NNW   343   2.0       N     1   9.10    262       10.9
   07/07/2018 07:30      82.8      81.5       33     50.2      0.00      0.00      83.0     0.33      1011.4     0.9     NNW   338   2.0     NNW   342   9.10    262        3.1
   07/07/2018 07:20      81.6      80.1       33     49.2      0.00      0.00      83.0     0.33      1011.4     0.3       N     6   1.0       N     3   9.10    262       -8.4
   07/07/2018 07:10      80.1      78.3       34     48.1      0.00      0.00      83.0     0.33      1011.4     0.1     NNE    15   0.7       N   352   9.10    262       -9.8
   07/07/2018 07:00      78.4      77.4       35     47.7      0.00      0.00      83.0     0.33      1011.4     0.0       N     0   0.0      SE   130   9.10    262      -18.1
   07/07/2018 06:50      77.6      77.2       34     47.2      0.00      0.00      83.0     0.33      1011.2     0.0       N     0   0.0      SE   130   9.10    262      -23.1
   07/07/2018 06:40      77.6      77.2       35     47.5      0.00      0.00      83.0     0.33      1011.1     0.0      SE   126   0.6      SE   126   9.11    262      -29.3
   07/07/2018 06:30      77.7      77.2       32     45.6      0.00      0.00      83.1     0.33      1011.0     0.4     SSE   153   0.9      SE   145   9.11    262      -34.4
   07/07/2018 06:20      77.8      77.2       33     45.9      0.00      0.00      83.2     0.33      1011.0     0.0       N     0   0.0     SSE   156   9.11    262      -40.0
   07/07/2018 06:10      77.9      77.3       32     45.4      0.00      0.00      83.2     0.33      1011.0     0.3     SSE   157   0.8     SSE   156   9.11    262      -44.1
   07/07/2018 06:00      77.8      77.2       32     45.6      0.00      0.00      83.1     0.33      1011.0     0.3     SSE   167   1.2     SSE   159   9.11    262      -46.5
   07/07/2018 05:50      78.0      77.3       33     46.4      0.00      0.00      83.2     0.33      1010.9     0.2       S   181   0.9       S   181   9.11    262      -48.9
   07/07/2018 05:40      78.0      77.3       33     46.5      0.00      0.00      83.3     0.33      1010.9     1.1     SSE   158   1.8       S   180   9.11    262      -48.5
   07/07/2018 05:30      78.3      77.4       33     46.0      0.00      0.00      83.3     0.33      1010.9     0.6      SE   145   1.6      SE   142   9.11    262      -48.0
   07/07/2018 05:20      78.2      77.8       32     45.6      0.00      0.00      83.3     0.33      1010.9     0.5     SSE   158   0.9     SSE   156   9.11    262      -45.9
   07/07/2018 05:10      78.8      77.8       32     46.1      0.00      0.00      83.3     0.33      1010.9     0.3     SSE   165   1.2     SSW   193   9.12    262      -46.8
   07/07/2018 05:00      79.4      78.5       30     44.9      0.00      0.00      83.3     0.33      1010.8     0.0      SE   135   0.9     SSW   194   9.12    262      -46.5
   07/07/2018 04:50      79.7      79.1       30     45.5      0.00      0.00      83.4     0.33      1010.8     0.0      NE    37   0.7      NE    37   9.12    262      -46.9
   07/07/2018 04:40      79.9      79.3       29     44.6      0.00      0.00      83.4     0.33      1010.8     0.6     SSE   148   1.4     SSW   211   9.12    262      -47.1
   07/07/2018 04:30      79.7      79.1       29     44.2      0.00      0.00      83.4     0.33      1010.9     1.2       S   191   2.1     SSW   192   9.12    262      -45.4
   07/07/2018 04:20      79.8      79.2       29     44.3      0.00      0.00      83.4     0.33      1010.9     0.6     SSW   206   1.6      SW   219   9.12    262      -47.3
   07/07/2018 04:10      79.7      79.1       29     44.1      0.00      0.00      83.5     0.33      1010.8     0.4       S   172   1.8      SE   139   9.12    262      -49.7
   07/07/2018 04:00      80.1      79.3       29     44.8      0.00      0.00      83.5     0.33      1010.6     0.0       N     0   0.0     SSE   156   9.12    262      -50.9
   07/07/2018 03:50      80.8      79.8       28     44.2      0.00      0.00      83.5     0.33      1010.6     0.0     SSE   156   0.5     SSE   156   9.13    262      -50.4
   07/07/2018 03:40      81.1      80.5       26     42.8      0.00      0.00      83.5     0.33      1010.5     0.3       S   173   1.2     SSW   193   9.12    261      -49.1
   07/07/2018 03:30      81.6      80.8       26     43.0      0.00      0.00      83.5     0.33      1010.6     0.3       S   190   1.2      SW   215   9.13    261      -52.1
   07/07/2018 03:20      81.9      81.2       26     43.1      0.00      0.00      83.5     0.33      1010.7     0.5     SSW   200   1.5       S   184   9.13    261      -53.5
   07/07/2018 03:10      82.0      81.4       26     43.3      0.00      0.00      83.5     0.33      1010.7     0.1     SSE   148   0.9      SE   146   9.13    261      -55.0
   07/07/2018 03:00      83.0      81.7       25     43.4      0.00      0.00      83.5     0.33      1010.7     0.0       S   188   0.9       S   180   9.13    261      -56.6
   07/07/2018 02:50      83.7      82.6       25     43.2      0.00      0.00      83.6     0.33      1010.8     0.3     ESE   107   1.1       E    89   9.13    261      -57.7
   07/07/2018 02:40      84.2      83.4       23     42.2      0.00      0.00      83.6     0.33      1010.8     0.7       S   172   2.0     SSE   149   9.13    261      -58.5
   07/07/2018 02:30      84.1      83.2       23     42.3      0.00      0.00      83.6     0.33      1010.8     1.7     SSE   157   3.3      SE   135   9.13    261      -58.8
   07/07/2018 02:20      84.4      83.5       23     42.2      0.00      0.00      83.6     0.33      1010.9     1.6     SSE   158   2.4       S   174   9.14    261      -59.5
   07/07/2018 02:10      84.1      83.5       23     42.5      0.00      0.00      83.6     0.33      1011.0     1.1     SSE   153   2.7      SE   143   9.14    261      -59.8
   07/07/2018 02:00      85.5      83.8       23     42.9      0.00      0.00      83.6     0.33      1011.1     1.3     SSE   155   3.2      SE   144   9.14    261      -61.3
   07/07/2018 01:50      85.6      84.4       23     42.9      0.00      0.00      83.6     0.33      1011.0     2.4      SE   145   3.1      SE   140   9.14    261      -61.6
   07/07/2018 01:40      85.6      84.5       23     42.8      0.00      0.00      83.6     0.33      1010.9     1.7     SSE   147   2.6      SE   140   9.14    261      -62.1
   07/07/2018 01:30      86.1      85.1       22     41.8      0.00      0.00      83.6     0.33      1011.0     1.5     SSE   156   2.8      SE   140   9.15    261      -61.6
   07/07/2018 01:20      86.9      85.8       21     42.4      0.00      0.00      83.7     0.33      1011.0     1.7      SE   145   3.5      SE   133   9.15    261      -64.5
   07/07/2018 01:10      86.9      86.3       20     41.0      0.00      0.00      83.7     0.33      1011.1     1.6      SE   139   3.3      SE   135   9.15    261      -63.1
   07/07/2018 01:00      87.5      86.7       19     40.2      0.00      0.00      83.7     0.33      1011.0     1.7     SSE   164   3.4      SE   136   9.15    261      -62.8
   07/07/2018 00:50      88.1      87.0       20     40.9      0.00      0.00      83.7     0.33      1011.0     1.5     SSE   152   3.0      SE   142   9.15    261      -64.0
   07/07/2018 00:40      89.3      88.0       18     39.1      0.00      0.00      83.6     0.33      1010.9     1.4     SSE   167   2.9      SE   140   9.16    261      -65.5
   07/07/2018 00:30      89.9      88.2       18     39.6      0.00      0.00      83.7     0.33      1011.0     1.2       S   174   2.9     SSW   214   9.16    261      -66.5
   07/07/2018 00:20      91.6      89.6       16     38.3      0.00      0.00      83.6     0.33      1011.1     1.2     SSE   151   2.2     ESE   112   9.16    261      -66.3
   07/07/2018 00:10      91.8      90.9       15     36.5      0.00      0.00      83.7     0.33      1011.1     0.5       S   180   1.6     SSE   156   9.16    261      -64.8
   07/07/2018 00:00      92.7      91.6       14     36.4      0.00      0.00      83.7     0.33      1011.1     1.3     SSW   198   2.1     SSW   208   9.16    261      -65.5
   07/06/2018 23:50      95.2      92.3       13     36.0      0.00      0.00      83.7     0.33      1011.1     1.2     SSE   162   2.7     SSW   201   9.17    261      -68.7
   07/06/2018 23:40      96.1      95.0       12     36.0      0.00      0.00      83.7     0.33      1011.2     1.2       E    98   4.6     NNW   343   9.17    261      -71.9
   07/06/2018 23:30      95.3      92.6       13     36.0      0.00      0.00      83.7     0.33      1011.2     1.1     NNW   342   3.6       N   354   9.17    261      -71.3
   07/06/2018 23:20      93.8      92.6       14     37.2      0.00      0.00      83.7     0.33      1011.2     0.8      SE   127   2.4     SSE   147   9.17    261      -70.7
   07/06/2018 23:10      93.4      92.4       14     37.2      0.00      0.00      83.7     0.33      1011.2     1.1      SE   146   3.0     SSE   165   9.18    261      -71.3
   07/06/2018 23:00      95.1      93.1       13     36.3      0.00      0.00      83.7     0.33      1011.3     1.0     SSE   150   2.4     ESE   106   9.18    261      -72.2
   07/06/2018 22:50      95.0      92.4       13     36.2      0.00      0.00      83.6     0.33      1011.2     1.0     WNW   294   4.7     WNW   299   9.18    261      -72.6
   07/06/2018 22:40      93.1      92.3       15     37.8      0.00      0.00      83.6     0.33      1011.2     0.8      SE   136   1.8       E    98   9.18    261      -71.8
   07/06/2018 22:30      92.8      91.4       16     38.8      0.00      0.00      83.6     0.33      1011.2     0.4     SSE   151   1.5      SE   141   9.19    261      -72.3
   07/06/2018 22:20      93.9      92.6       14     37.8      0.00      0.00      83.6     0.33      1011.1     0.6     SSE   152   1.8       S   171   9.19    261      -74.0
   07/06/2018 22:10      94.2      92.4       14     38.0      0.00      0.00      83.5     0.33      1011.1     1.2      SE   145   2.5      SE   143   9.19    261      -74.9
   07/06/2018 22:00      95.4      92.6       15     38.3      0.00      0.00      83.6     0.33      1011.0     1.4      SE   143   2.9      SE   139   9.19    260      -75.8
   07/06/2018 21:50      98.9      95.1       13     37.6      0.00      0.00      83.6     0.33      1010.9     1.3      SE   137   2.9      SE   135   9.20    261      -78.2
   07/06/2018 21:40     100.4      98.7       11     36.7      0.00      0.00      83.5     0.33      1010.8     0.6     NNW   342   1.7     ESE   121   9.20    260      -80.8
   07/06/2018 21:30     100.5      99.9       11     36.3      0.00      0.00      83.5     0.33      1010.6     1.6     WNW   303   3.9       W   281   9.20    261      -81.5
   07/06/2018 21:20     100.2      99.1       11     36.2      0.00      0.00      83.4     0.33      1010.5     1.7      NW   316   4.4      NW   309   9.21    261      -81.3
   07/06/2018 21:10      99.1      96.0       12     37.0      0.00      0.00      83.4     0.33      1010.5     1.3     NNW   345   3.6       W   270   9.21    261      -80.5
   07/06/2018 21:00      96.3      95.2       13     37.9      0.00      0.00      83.3     0.33      1010.5     0.7     SSW   192   2.0     SSW   213   9.21    261      -80.4
   07/06/2018 20:50      96.6      94.9       16     41.5      0.00      0.00      83.4     0.33      1010.4     1.0       S   184   2.5     SSE   152   9.22    261      -82.5
   07/06/2018 20:40      98.7      96.6       14     41.3      0.00      0.00      83.3     0.33      1010.4     2.0     SSE   157   3.7       S   191   9.22    261      -83.7
   07/06/2018 20:30     102.6      98.5       12     39.6      0.00      0.00      83.3     0.33      1010.3     0.7     SSE   162   2.4       S   187   9.23    260      -87.3
   07/06/2018 20:20     102.7     102.3       11     38.8      0.00      0.00      83.2     0.33      1010.2     2.0       W   269   4.4       W   278   9.23    260      -91.5
   07/06/2018 20:10     103.2     102.3       12     39.6      0.00      0.00      83.2     0.33      1010.1     1.6       W   261   3.6      NW   319   9.23    261      -91.4
   07/06/2018 20:00     104.3     103.0       11     39.4      0.00      0.00      83.1     0.33      1010.1     2.7     WSW   246   5.9      SW   231   9.24    260      -89.2
   07/06/2018 19:50     104.8     103.9       11     39.4      0.00      0.00      83.1     0.33      1010.1     2.6       W   271   5.9     WSW   253   9.24    260      -86.1
   07/06/2018 19:40     105.5     104.5       10     38.2      0.00      0.00      83.1     0.33      1010.0     3.9     WSW   258   8.8       W   269   9.25    260      -77.0
   07/06/2018 19:30     106.5     105.1       10     38.4      0.00      0.00      83.0     0.33      1010.1     3.9     WNW   298   8.5     WSW   254   9.26    260      -63.9
   07/06/2018 19:20     107.4     106.4       10     39.6      0.00      0.00      83.0     0.33      1010.0     2.2     NNW   329   5.4      NW   317   9.26    260      -48.1
   07/06/2018 19:10     107.7     107.0       10     38.3      0.00      0.00      82.9     0.33      1009.8     2.7       W   280   7.3       W   270   9.26    260      -29.3
   07/06/2018 19:00     108.0     107.4        9     37.2      0.00      0.00      82.9     0.33      1009.9     2.5     WNW   295   5.9     WNW   301   9.27    260       -9.7
   07/06/2018 18:50     108.0     107.5        9     36.5      0.00      0.00      82.8     0.33      1009.8     3.9     WNW   294   7.7     WSW   251   9.28    260       11.3
   07/06/2018 18:40     108.2     107.5        9     36.2      0.00      0.00      82.7     0.33      1009.8     5.5       W   272   8.9      NW   309   9.29    260       32.3
   07/06/2018 18:30     108.6     107.9        9     36.9      0.00      0.00      82.7     0.33      1009.8     5.2       W   280  11.4       W   280   9.30    260       53.9
   07/06/2018 18:20     109.8     108.2        9     36.8      0.00      0.00      82.5     0.33      1009.8     5.3      NW   305  10.0     WSW   246   9.30    260       75.6
   07/06/2018 18:10     110.5     109.6        9     37.3      0.00      0.00      82.5     0.33      1009.8     4.1     WNW   287   8.8     WNW   292   9.31    260       94.3
   07/06/2018 18:00     110.2     109.6        8     35.8      0.00      0.00      82.4     0.33      1009.8     5.8       W   262  11.4     WSW   246   9.32    260      120.3
   07/06/2018 17:50     110.5     109.4        8     35.1      0.00      0.00      82.4     0.33      1009.8     7.9     WSW   252  12.9     WSW   250   9.33    260      151.0
   07/06/2018 17:40     110.9     110.0        8     34.5      0.00      0.00      82.1     0.33      1009.9     6.6       W   259  12.7     WSW   242   9.34    260      178.2
   07/06/2018 17:30     111.5     110.4        7     34.5      0.00      0.00      82.2     0.33      1009.9     6.8     WSW   242  12.0      SW   235   9.35    260      198.6
   07/06/2018 17:20     111.7     111.0        8     34.9      0.00      0.00      82.1     0.33      1010.1     6.1     WSW   239  11.2      SW   221   9.36    260      220.3
   07/06/2018 17:10     112.2     110.9        8     35.4      0.00      0.00      82.0     0.33      1010.1     6.4     WSW   251  10.0       W   261   9.36    260      243.9
   07/06/2018 17:00     112.3     111.3        8     35.3      0.00      0.00      82.0     0.33      1010.2     6.1       W   264  10.9     WSW   238   9.37    260      262.6
   07/06/2018 16:50     112.5     111.9        7     34.9      0.00      0.00      81.9     0.33      1010.3     6.7       W   265  11.5      SW   215   9.38    260      286.9
   07/06/2018 16:40     113.3     111.9        7     35.0      0.00      0.00      81.8     0.33      1010.3     6.4       W   274  11.6       W   273   9.39    260      311.7
   07/06/2018 16:30     113.4     112.6        7     34.8      0.00      0.00      81.7     0.33      1010.4     5.6       W   277  10.1     WSW   248   9.40    260      330.1
   07/06/2018 16:20     113.4     112.4        7     34.6      0.00      0.00      81.6     0.32      1010.4     6.2       W   262  10.2     WSW   238   9.41    260      351.6
   07/06/2018 16:10     113.6     112.9        7     34.3      0.00      0.00      81.5     0.32      1010.5     6.5     WSW   249  10.5       W   266   9.42    260      367.1
   07/06/2018 16:00     115.3     113.5        7     34.8      0.00      0.00      81.4     0.32      1010.5     5.6      SW   224  11.2       W   266   9.42    260      381.9
   07/06/2018 15:50     115.3     113.9        6     33.4      0.00      0.00      81.3     0.32      1010.6     4.1     WSW   253   9.2      SW   227   9.43    260      395.5
   07/06/2018 15:40     115.6     114.1        6     30.4      0.00      0.00      81.2     0.32      1010.6     4.4     SSW   209   9.7       S   184   9.44    260      410.0
   07/06/2018 15:30     115.4     114.2        6     29.7      0.00      0.00      81.1     0.32      1010.7     5.1       S   189   9.4      SW   233   9.45    260      428.9
   07/06/2018 15:20     114.9     113.8        6     29.8      0.00      0.00      81.0     0.32      1010.8     4.2      SW   218   9.2     WSW   259   9.45    260      443.8
   07/06/2018 15:10     115.6     114.0        6     30.2      0.00      0.00      80.9     0.32      1010.9     4.7       S   171   8.0       N     9   9.46    260      452.3
   07/06/2018 15:00     115.9     113.9        6     31.0      0.00      0.00      80.8     0.32      1010.9     4.2       S   184   8.5      SW   216   9.47    261      466.5
   07/06/2018 14:50     115.7     114.0        6     31.9      0.00      0.00      80.8     0.32      1011.0     2.9     ESE   114   9.3      SE   131   9.47    260      475.3
   07/06/2018 14:40     116.0     114.4        6     31.6      0.00      0.00      80.7     0.32      1011.1     4.3     SSE   157   9.5       E    95   9.48    260      487.5
   07/06/2018 14:30     115.7     114.0        6     32.1      0.00      0.00      80.6     0.32      1011.1     2.9     SSW   202   8.8      SE   142   9.48    260      496.7
   07/06/2018 14:20     116.6     114.0        6     31.9      0.00      0.00      80.5     0.32      1011.3     3.7      SW   223   7.5       W   262   9.49    261      504.8
   07/06/2018 14:10     116.3     114.4        6     33.0      0.00      0.00      80.4     0.32      1011.4     2.4     WNW   295   7.9       W   264   9.49    261      514.6
   07/06/2018 14:00     114.3     113.6        6     32.2      0.00      0.00      80.3     0.32      1011.5     2.8     SSE   150   6.5     ESE   123   9.50    261      527.0
   07/06/2018 13:50     116.9     113.8        6     31.8      0.00      0.00      80.2     0.32      1011.7     3.3       S   175   6.7      SW   215   9.50    260      526.9
   07/06/2018 13:40     116.8     113.4        6     31.9      0.00      0.00      80.2     0.32      1011.9     0.8      NE    38   2.2      NW   308   9.51    260      528.1
   07/06/2018 13:30     113.6     112.3        6     30.7      0.00      0.00      80.1     0.32      1012.1     2.1      SE   128   5.5      SE   144   9.51    260      536.3
   07/06/2018 13:20     113.2     112.4        6     31.3      0.00      0.00      80.0     0.32      1012.2     2.8     SSW   212   6.9     WSW   240   9.51    260      539.5
   07/06/2018 13:10     113.7     112.3        6     29.4      0.00      0.00      80.0     0.32      1012.3     2.8      SW   219   6.6     SSW   200   9.52    260      542.7
   07/06/2018 13:00     114.3     112.6        5     28.2      0.00      0.00      79.9     0.32      1012.4     3.8      SW   216   8.9     SSW   206   9.52    260      543.9
   07/06/2018 12:50     114.7     113.7        5     27.5      0.00      0.00      79.9     0.32      1012.6     2.9     WSW   242   7.6       W   264   9.52    260      541.8
   07/06/2018 12:40     114.9     113.5        5     27.4      0.00      0.00      79.9     0.32      1012.6     1.6       N     1   4.4     SSW   206   9.53    260      539.2
   07/06/2018 12:30     114.3     113.2        5     27.4      0.00      0.00      79.8     0.32      1012.7     2.2       N     6   4.1       N     7   9.53    260      536.9
   07/06/2018 12:20     113.8     112.9        5     25.9      0.00      0.00      79.8     0.32      1012.9     2.0       E    81   4.6      NE    56   9.53    260      532.3
   07/06/2018 12:10     113.6     112.4        5     25.9      0.00      0.00      79.8     0.32      1013.0     1.9       E    80   3.7      SE   129   9.53    260      530.1
   07/06/2018 12:00     113.2     111.6        5     24.9      0.00      0.00      79.7     0.32      1013.1     1.6     ENE    74   4.3      NE    34   9.53    260      526.5
   07/06/2018 11:50     112.3     111.7        5     25.2      0.00      0.00      79.7     0.32      1013.3     2.6     NNW   338   5.5     NNE    21   9.53    260      522.9
   07/06/2018 11:40     112.0     110.8        5     25.1      0.00      0.00      79.7     0.32      1013.4     2.3     ENE    76   5.1      SE   131   9.54    260      518.1
   07/06/2018 11:30     111.3     109.7        5     25.6      0.00      0.00      79.7     0.32      1013.5     2.5      NE    35   5.8       N     9   9.54    260      510.6
   07/06/2018 11:20     111.4     109.9        5     26.1      0.00      0.00      79.7     0.32      1013.5     2.8      NE    37   5.5      NE    56   9.54    260      503.3
   07/06/2018 11:10     110.3     109.8        5     25.5      0.00      0.00      79.7     0.32      1013.5     3.2       N     8   6.3       N     5   9.54    260      497.0
   07/06/2018 11:00     110.1     109.6        6     28.4      0.00      0.00      79.7     0.32      1013.5     3.1       N   355   6.7       N     9   9.54    260      487.9
   07/06/2018 10:50     109.7     108.1        7     31.7      0.00      0.00      79.7     0.32      1013.6     1.0       E    83   4.2     ENE    59   9.54    260      478.7
   07/06/2018 10:40     108.2     106.2        8     32.4      0.00      0.00      79.7     0.32      1013.7     1.0       N   351   3.0     NNE    28   9.54    260      467.3
   07/06/2018 10:30     106.4     105.1        8     31.9      0.00      0.00      79.8     0.32      1013.7     1.2     NNE    16   4.7     NNE    19   9.54    260      454.6
   07/06/2018 10:20     105.1     104.1        8     32.0      0.00      0.00      79.8     0.32      1013.7     1.5     NNW   334   4.6      NW   321   9.54    260      441.9
   07/06/2018 10:10     104.4     103.5        8     32.3      0.00      0.00      79.8     0.32      1013.8     1.6     NNW   327   3.9      NW   313   9.54    260      426.8
   07/06/2018 10:00     103.8     102.4        9     31.9      0.00      0.00      79.8     0.32      1013.9     1.1     NNW   340   2.8      NE    47   9.54    260      412.7
   07/06/2018 09:50     102.6     101.9        9     32.9      0.00      0.00      79.9     0.32      1014.0     1.6      NW   308   4.0     WNW   301   9.54    260      397.8
   07/06/2018 09:40     102.2     100.8        9     33.4      0.00      0.00      79.9     0.32      1014.2     0.7      NW   324   2.1     NNW   331   9.54    261      384.3
   07/06/2018 09:30     101.0      99.5       10     33.3      0.00      0.00      80.0     0.32      1014.3     0.7     WNW   288   1.9       N     8   9.54    261      369.1
   07/06/2018 09:20      99.7      98.0       11     35.3      0.00      0.00      80.0     0.33      1014.3     1.0     ESE   115   3.2       S   187   9.54    261      357.3
   07/06/2018 09:10      98.1      95.0       15     41.1      0.00      0.00      80.0     0.33      1014.4     1.0     ESE   112   3.0     NNE    24   9.54    261      348.2
   07/06/2018 09:00      95.0      91.6       20     46.7      0.00      0.00      80.1     0.33      1014.4     1.2     ENE    58   3.0       N     0   9.54    261      348.2
   07/06/2018 08:50      91.6      89.9       24     49.1      0.00      0.00      80.0     0.33      1014.6     1.4     NNE    13   3.0       N   350   9.54    263      165.1
   07/06/2018 08:40      89.9      88.6       29     52.4      0.00      0.00      80.1     0.33      1014.7     1.0     NNE    15   2.9     NNE    14   9.54    263      -18.0
   07/06/2018 08:30      88.8      86.9       29     51.2      0.00      0.00      80.2     0.33      1014.5     1.0       N     7   2.1       N   355   9.54    263      -23.5
   07/06/2018 08:20      87.0      85.0       29     49.9      0.00      0.00      80.2     0.33      1014.5     0.4       N     4   1.4       N     4   9.54    263      -22.7
   07/06/2018 08:10      85.0      83.0       30     49.4      0.00      0.00      80.2     0.33      1014.5     0.0       N     4   0.8       N     4   9.54    263      -17.7
   07/06/2018 08:00      83.0      80.9       31     48.2      0.00      0.00      80.3     0.33      1014.5     0.6       N   359   1.4       N     5   9.54    263      -25.5
   07/06/2018 07:50      81.0      79.0       32     47.8      0.00      0.00      80.4     0.33      1014.4     0.5      NE    47   1.3       E    89   9.54    263       -9.8
   07/06/2018 07:40      79.3      77.3       31     45.5      0.00      0.00      80.3     0.33      1014.3     0.2     NNE    16   1.8       N     7   9.54    263       -0.6
   07/06/2018 07:30      77.5      75.3       32     44.6      0.00      0.00      80.4     0.33      1014.3     0.5     NNE    26   1.6      SE   134   9.54    263       -8.2
   07/06/2018 07:20      75.5      74.1       34     44.3      0.00      0.00      80.4     0.33      1014.3     0.3      NE    53   1.3       N     4   9.54    263      -26.1
   07/06/2018 07:10      74.3      72.8       32     41.9      0.00      0.00      80.4     0.33      1014.2     0.1       S   174   0.9     SSE   165   9.54    263      -26.5
   07/06/2018 07:00      72.9      71.8       33     41.6      0.00      0.00      80.5     0.33      1014.2     0.3     ESE   115   1.6     NNE    17   9.54    263      -33.0
   07/06/2018 06:50      72.0      70.1       33     40.8      0.00      0.00      80.5     0.33      1014.1     0.1      SE   140   1.0     SSE   168   9.54    263      -34.5
   07/06/2018 06:40      70.4      69.1       33     39.4      0.00      0.00      80.6     0.33      1014.2     0.2     SSE   151   1.2     SSE   152   9.54    263      -39.0
   07/06/2018 06:30      69.4      69.0       32     38.1      0.00      0.00      80.5     0.33      1014.1     0.5      SE   142   1.3      SE   142   9.54    263      -46.5
   07/06/2018 06:20      69.3      68.2       32     37.8      0.00      0.00      80.6     0.33      1014.0     0.2       S   176   1.9     SSE   152   9.55    263      -42.7
   07/06/2018 06:10      69.2      68.1       32     37.4      0.00      0.00      80.6     0.33      1014.1     0.6     SSE   156   1.8      SE   145   9.55    263      -48.7
   07/06/2018 06:00      69.3      68.7       31     36.8      0.00      0.00      80.7     0.33      1014.2     0.6     SSW   204   1.8      SE   145   9.55    263      -53.0
   07/06/2018 05:50      69.0      68.5       32     37.4      0.00      0.00      80.7     0.33      1014.2     0.0       S   181   0.4       S   181   9.55    263      -56.1
   07/06/2018 05:40      69.2      68.6       32     38.0      0.00      0.00      80.7     0.33      1014.0     0.4       S   181   1.5       S   181   9.55    263      -57.6
   07/06/2018 05:30      69.5      69.0       31     37.6      0.00      0.00      80.8     0.33      1014.0     0.3       S   190   1.4       S   182   9.55    263      -58.9
   07/06/2018 05:20      69.8      69.1       31     37.5      0.00      0.00      80.7     0.33      1014.0     0.2     SSE   146   0.9     SSE   151   9.55    263      -59.5
   07/06/2018 05:10      70.0      69.2       31     37.7      0.00      0.00      80.9     0.33      1013.9     0.5       S   187   1.5     SSE   164   9.55    263      -59.5
   07/06/2018 05:00      71.1      69.8       31     38.0      0.00      0.00      80.8     0.33      1014.0     0.6     SSE   150   2.5      SE   143   9.55    263      -61.7
   07/06/2018 04:50      71.3      70.5       30     37.6      0.00      0.00      80.9     0.33      1014.0     1.0      NE    42   2.8      SE   132   9.56    263      -62.2
   07/06/2018 04:40      72.3      70.5       29     37.6      0.00      0.00      80.9     0.33      1014.0     1.2      SE   145   2.2      SE   136   9.56    263      -62.2
   07/06/2018 04:30      72.2      70.0       28     36.8      0.00      0.00      80.9     0.33      1014.0     1.2       W   269   2.2      NW   315   9.56    263      -61.9
   07/06/2018 04:20      70.3      69.8       33     39.3      0.00      0.00      80.9     0.33      1014.1     1.3     SSE   154   2.6     SSE   149   9.56    263      -63.5
   07/06/2018 04:10      71.5      70.0       30     38.0      0.00      0.00      80.9     0.33      1014.2     0.9     SSE   162   2.6     SSE   150   9.56    263      -65.3
   07/06/2018 04:00      71.5      70.8       29     37.2      0.00      0.00      81.0     0.33      1014.2     0.7     WSW   240   2.1      SW   231   9.56    263      -66.3
   07/06/2018 03:50      71.4      70.9       29     36.9      0.00      0.00      81.0     0.33      1014.1     0.4       S   172   1.5     SSE   150   9.57    263      -66.5
   07/06/2018 03:40      71.9      71.1       29     37.6      0.00      0.00      81.0     0.33      1014.2     0.6     WSW   252   1.4       S   187   9.57    263      -66.2
   07/06/2018 03:30      72.7      71.4       28     37.1      0.00      0.00      81.0     0.33      1014.3     0.8     SSE   152   2.4      SE   140   9.57    263      -65.8
   07/06/2018 03:20      73.5      72.3       27     37.0      0.00      0.00      81.0     0.33      1014.4     0.3      SE   140   1.7      SE   138   9.57    263      -66.7
   07/06/2018 03:10      73.6      73.1       26     36.6      0.00      0.00      81.1     0.33      1014.4     0.6     WSW   246   1.9      NW   310   9.57    262      -67.0
   07/06/2018 03:00      73.9      72.7       27     37.1      0.00      0.00      81.1     0.33      1014.4     0.9       S   171   2.2      SE   141   9.57    263      -66.3
   07/06/2018 02:50      74.5      73.6       25     35.5      0.00      0.00      81.1     0.33      1014.5     1.0       S   176   2.1      SE   141   9.57    263      -66.1
   07/06/2018 02:40      74.6      74.2       25     36.3      0.00      0.00      81.2     0.33      1014.6     0.0       S   178   0.5       S   177   9.57    262      -65.7
   07/06/2018 02:30      75.5      74.2       24     36.0      0.00      0.00      81.2     0.33      1014.7     0.2       S   178   0.9       S   178   9.58    262      -63.9
   07/06/2018 02:20      76.3      75.2       25     37.3      0.00      0.00      81.2     0.33      1014.8     0.6     SSE   152   1.9      SE   125   9.58    262      -61.3
   07/06/2018 02:10      76.7      75.9       24     36.5      0.00      0.00      81.2     0.33      1014.8     0.9     SSE   166   1.9      SE   135   9.58    262      -56.7
   07/06/2018 02:00      77.2      76.0       24     37.5      0.00      0.00      81.2     0.33      1014.9     0.8       S   173   2.7       S   169   9.58    262      -54.4
   07/06/2018 01:50      77.9      76.8       24     37.3      0.00      0.00      81.3     0.33      1015.0     0.4       S   187   1.2      SW   220   9.58    262      -52.1
   07/06/2018 01:40      78.3      77.4       23     36.9      0.00      0.00      81.3     0.33      1015.0     0.2     SSW   198   1.2       S   191   9.58    262      -48.4
   07/06/2018 01:30      78.9      78.0       22     36.1      0.00      0.00      81.3     0.33      1015.0     1.0      SE   141   2.0      SE   138   9.58    262      -45.9
   07/06/2018 01:20      79.6      78.5       21     35.8      0.00      0.00      81.3     0.33      1015.0     0.6      SE   135   1.6     SSE   155   9.58    262      -45.1
   07/06/2018 01:10      80.4      79.0       20     34.8      0.00      0.00      81.3     0.33      1015.0     0.8       S   169   1.4     SSE   163   9.58    262      -45.3
   07/06/2018 01:00      82.1      80.4       20     36.1      0.00      0.00      81.3     0.33      1015.1     0.4     SSE   155   1.8       S   177   9.59    262      -48.5
   07/06/2018 00:50      84.6      82.0       17     34.1      0.00      0.00      81.4     0.33      1015.0     0.8     ESE   110   2.3      SE   140   9.59    262      -47.6
   07/06/2018 00:40      84.5      81.1       16     31.6      0.00      0.00      81.4     0.33      1015.0     2.1     SSW   204   4.5      SW   216   9.59    262      -44.2
   07/06/2018 00:30      80.8      77.8       21     34.7      0.00      0.00      81.4     0.33      1015.1     1.9     SSE   165   3.4      SE   133   9.59    262      -50.4
   07/06/2018 00:20      78.6      77.8       23     37.0      0.00      0.00      81.4     0.33      1015.2     1.2       S   184   2.9      SE   130   9.59    262      -59.9
   07/06/2018 00:10      80.7      78.4       24     39.2      0.00      0.00      81.4     0.33      1015.3     0.5      SE   137   2.0     SSE   165   9.59    262      -70.9
   07/06/2018 00:00      81.3      79.0       20     35.9      0.00      0.00      81.5     0.33      1015.3     1.7     SSW   206   4.3      SW   232   9.59    262      -72.0
   07/05/2018 23:50      79.0      77.7       24     38.7      0.00      0.00      81.4     0.33      1015.3     1.6      SE   139   3.1     SSE   147   9.60    263      -71.6
   07/05/2018 23:40      79.4      78.2       25     40.0      0.00      0.00      81.4     0.33      1015.2     1.7     SSE   160   3.3     SSE   155   9.60    263      -73.2
   07/05/2018 23:30      80.7      79.3       24     40.1      0.00      0.00      81.4     0.33      1015.2     0.9       S   171   2.9     SSW   192   9.60    263      -74.9
   07/05/2018 23:20      80.7      78.8       25     41.1      0.00      0.00      81.5     0.33      1015.2     1.8     SSW   197   4.1     SSE   147   9.60    262      -76.9
   07/05/2018 23:10      79.8      78.4       27     41.9      0.00      0.00      81.5     0.33      1015.2     1.4      SE   126   3.6      SW   226   9.60    263      -75.8
   07/05/2018 23:00      80.2      79.4       26     41.9      0.00      0.00      81.5     0.33      1015.1     1.0     ESE   109   2.6     NNW   330   9.60    263      -78.2
   07/05/2018 22:50      79.8      78.4       28     43.1      0.00      0.00      81.4     0.33      1015.1     1.5       E    99   5.7     SSW   195   9.60    263      -77.0
   07/05/2018 22:40      80.3      79.2       28     43.7      0.00      0.00      81.5     0.33      1015.1     0.9       S   177   2.0       S   187   9.61    263      -77.5
   07/05/2018 22:30      81.6      80.1       28     44.2      0.00      0.00      81.5     0.33      1015.1     1.4     ESE   113   3.4     SSW   192   9.61    263      -77.6
   07/05/2018 22:20      82.5      81.3       26     43.6      0.00      0.00      81.4     0.33      1015.2     1.1     ESE   119   2.7     SSW   205   9.61    263      -77.8
   07/05/2018 22:10      82.3      79.3       27     43.7      0.00      0.00      81.4     0.33      1015.2     2.9     SSW   199   5.3       S   169   9.61    263      -75.7
   07/05/2018 22:00      79.5      78.8       31     46.0      0.00      0.00      81.4     0.33      1015.1     0.3     SSW   199   1.9     SSE   163   9.61    263      -73.3
   07/05/2018 21:50      79.6      79.1       32     46.7      0.00      0.00      81.4     0.33      1015.1     0.4     NNW   337   1.4     NNW   335   9.62    263      -76.7
   07/05/2018 21:40      80.7      79.4       31     47.0      0.00      0.00      81.4     0.33      1015.0     0.4     SSE   157   2.2       E    92   9.62    263      -81.5
   07/05/2018 21:30      81.5      80.4       31     47.0      0.00      0.00      81.4     0.33      1015.1     0.7     ENE    69   1.9     ESE   121   9.62    263      -86.1
   07/05/2018 21:20      82.0      81.4       30     46.9      0.00      0.00      81.4     0.33      1015.0     0.5     SSE   168   2.2     SSW   194   9.62    262      -88.8
   07/05/2018 21:10      81.8      81.4       30     46.9      0.00      0.00      81.3     0.33      1015.0     3.1     SSW   205   7.5      SW   222   9.62    262      -90.7
   07/05/2018 21:00      81.8      81.4       30     47.2      0.00      0.00      81.3     0.33      1014.9     6.1     SSW   211   9.5       S   186   9.63    262      -92.2
   07/05/2018 20:50      82.0      81.4       30     47.3      0.00      0.00      81.3     0.33      1014.8     5.1     SSW   213  10.0       S   180   9.64    262      -94.0
   07/05/2018 20:40      82.3      81.7       30     47.3      0.00      0.00      81.3     0.33      1014.8     4.5      SW   229  11.8     WSW   242   9.64    262      -94.8
   07/05/2018 20:30      82.8      81.8       30     47.3      0.00      0.00      81.2     0.33      1014.9     5.8      SW   233  12.1     WSW   249   9.64    262      -96.0
   07/05/2018 20:20      83.6      82.5       28     46.3      0.00      0.00      81.2     0.33      1014.9     4.4      SW   231   9.2     WSW   246   9.65    262      -96.9
   07/05/2018 20:10      84.9      83.4       23     41.8      0.00      0.00      81.2     0.33      1014.9     5.1      SW   218  10.4     SSW   199   9.66    261      -96.8
   07/05/2018 20:00      86.1      84.7       17     35.8      0.00      0.00      81.2     0.33      1014.9     3.8      SW   224   6.8      SW   224   9.66    261      -96.0
   07/05/2018 19:50      87.9      85.8       15     33.9      0.00      0.00      81.1     0.33      1014.9     4.8      SW   217   9.2      SW   220   9.67    261      -94.7
   07/05/2018 19:40      89.4      87.7       13     32.3      0.00      0.00      81.1     0.33      1014.9     5.8     WSW   243  10.4     WSW   244   9.67    261      -80.3
   07/05/2018 19:30      90.0      89.1       11     29.0      0.00      0.00      81.0     0.33      1014.9     5.8     WSW   257   8.9      SW   232   9.68    261      -59.3
   07/05/2018 19:20      90.5      89.7       11     29.2      0.00      0.00      81.0     0.33      1014.8     6.8     WSW   258  11.3     WSW   252   9.69    261      -40.1
   07/05/2018 19:10      91.1      90.0       13     32.4      0.00      0.00      81.0     0.33      1014.8     6.8       W   265  13.0     WNW   282   9.70    261      -18.4
   07/05/2018 19:00      91.3      90.7       12     31.6      0.00      0.00      80.9     0.33      1014.8     6.4       W   271  10.5      NW   326   9.71    261        4.7
   07/05/2018 18:50      92.5      90.8       12     31.6      0.00      0.00      80.8     0.33      1014.8     8.5     WSW   259  14.5     WSW   254   9.71    261       27.9
   07/05/2018 18:40      93.0      92.0       12     32.8      0.00      0.00      80.8     0.33      1014.7     6.6       W   261  10.9     WSW   248   9.72    261       51.8
   07/05/2018 18:30      94.1      92.7       12     34.2      0.00      0.00      80.7     0.33      1014.6     6.9       W   267  13.2       W   269   9.73    261       73.7
   07/05/2018 18:20      96.0      93.8       15     40.2      0.00      0.00      80.7     0.33      1014.5     6.9       W   271  14.0     WSW   256   9.74    261       96.9
   07/05/2018 18:10      96.5      95.8       15     40.2      0.00      0.00      80.7     0.33      1014.5     4.9     WNW   285  10.3       W   264   9.75    261      119.1
   07/05/2018 18:00      99.0      96.3       12     35.7      0.00      0.00      80.6     0.33      1014.4     5.8     WNW   291  12.0      NW   306   9.76    261      141.7
   07/05/2018 17:50      99.8      98.3        8     28.5      0.00      0.00      80.5     0.33      1014.4     4.8     WNW   294   9.5     WNW   288   9.76    261      164.8
   07/05/2018 17:40     100.2      99.4        7     26.1      0.00      0.00      80.5     0.33      1014.4     4.1      NW   307   9.1      NW   316   9.77    261      190.1
   07/05/2018 17:30     101.0      99.7        7     24.3      0.00      0.00      80.5     0.33      1014.4     5.2     WNW   296   9.6       W   274   9.77    261      220.5
   07/05/2018 17:20     101.0     100.5        8     27.6      0.00      0.00      80.4     0.33      1014.5     3.9     WNW   290   8.4     NNW   343   9.78    261      244.1
   07/05/2018 17:10     100.9     100.0        8     29.1      0.00      0.00      80.3     0.33      1014.6     4.2      NW   304  10.2       W   261   9.79    261      251.4
   07/05/2018 17:00     101.1     100.5        8     29.1      0.00      0.00      80.2     0.33      1014.7     4.2      NW   316   9.2     NNW   334   9.80    261      284.0
   07/05/2018 16:50     101.3     100.3        8     30.2      0.00      0.00      80.2     0.33      1014.8     3.7     WNW   298   8.1       W   271   9.80    261      308.5
   07/05/2018 16:40     101.0     100.1        9     31.0      0.00      0.00      80.1     0.33      1014.9     4.8      NW   315   8.6      NW   326   9.81    261      328.6
   07/05/2018 16:30     100.9     100.1       10     33.2      0.00      0.00      80.0     0.33      1015.1     4.1     WNW   300   8.1      NW   324   9.81    261      349.8
   07/05/2018 16:20     100.7      99.7       10     34.3      0.00      0.00      80.0     0.33      1015.2     4.6      NW   308   8.5      NW   316   9.82    261      371.0
   07/05/2018 16:10     100.8      99.1       11     37.1      0.00      0.00      79.9     0.33      1015.3     3.1      NW   313   7.6     WSW   238   9.83    261      390.4
   07/05/2018 16:00      99.9      99.3       13     40.8      0.00      0.00      79.9     0.32      1015.4     5.0      NW   304   8.2       N     3   9.83    261      411.7
   07/05/2018 15:50      99.9      99.0       15     44.1      0.00      0.00      79.6     0.32      1015.5     4.4     WNW   300   8.3     WNW   297   9.84    261      430.2
   07/05/2018 15:40      99.4      98.8       17     46.0      0.00      0.00      79.7     0.32      1015.6     4.7      NW   312   8.9       W   277   9.84    261      448.4
   07/05/2018 15:30     100.0      99.1       19     49.8      0.00      0.00      79.6     0.32      1015.6     4.8     WNW   295   9.7     NNW   327   9.85    261      463.6
   07/05/2018 15:20     100.4      99.4       20     51.8      0.00      0.00      79.6     0.32      1015.8     3.9     WNW   288   6.4      NW   318   9.85    261      473.0
   07/05/2018 15:10     101.1      99.6       17     47.6      0.00      0.00      79.5     0.32      1015.8     4.4      NW   315   9.8      NW   316   9.86    261      483.9
   07/05/2018 15:00     102.8     101.0       12     37.9      0.00      0.00      79.3     0.32      1015.9     2.8     NNW   338   7.3     NNW   327   9.86    261      493.6
   07/05/2018 14:50     102.1     100.2        5     19.4      0.00      0.00      79.3     0.32      1016.1     2.2     NNW   342   5.4     WNW   299   9.86    261      503.9
   07/05/2018 14:40     101.7     100.3        4     14.7      0.00      0.00      79.3     0.32      1016.2     3.5     NNW   337   6.2      NE    38   9.87    261      517.9
   07/05/2018 14:30     102.0      99.9        5     17.2      0.00      0.00      79.2     0.32      1016.3     3.3       W   275   6.1       W   261   9.87    261      527.5
   07/05/2018 14:20     100.1      99.4        6     19.9      0.00      0.00      79.2     0.32      1016.4     3.7     WNW   299   6.7     SSW   208   9.87    261      540.0
   07/05/2018 14:10     100.4      99.3        6     21.0      0.00      0.00      79.1     0.32      1016.6     3.7     WNW   281   9.4     WSW   254   9.88    261      549.3
   07/05/2018 14:00     100.3      98.9        7     23.3      0.00      0.00      79.1     0.32      1016.7     2.5      SW   221   6.5     WSW   255   9.88    261      555.9
   07/05/2018 13:50      99.3      97.2        9     28.9      0.00      0.00      79.0     0.32      1016.8     2.4     WSW   237   6.8      SW   236   9.89    261      564.5
   07/05/2018 13:40      99.1      97.5        7     23.8      0.00      0.00      79.0     0.32      1016.9     3.8       W   260   7.8     SSW   213   9.89    261      568.7
   07/05/2018 13:30      98.7      97.3        7     24.3      0.00      0.00      78.9     0.32      1017.0     3.6       W   262   7.7       W   264   9.89    261      576.7
   07/05/2018 13:20      98.4      96.3        8     25.8      0.00      0.00      78.9     0.32      1017.1     1.9      SW   226   3.7       W   259   9.89    261      580.0
   07/05/2018 13:10      97.4      96.3        9     28.7      0.00      0.00      78.9     0.32      1017.2     3.4       W   274   6.8     WSW   255   9.90    261      588.3
   07/05/2018 13:00      97.3      95.4       10     30.9      0.00      0.00      78.9     0.32      1017.2     2.4       W   260   6.0       W   280   9.90    261      599.4
   07/05/2018 12:50      96.2      94.5       10     29.1      0.00      0.00      78.8     0.32      1017.3     3.6     WNW   288   7.7     NNW   345   9.90    261      613.3
   07/05/2018 12:40      96.1      94.9       13     36.1      0.00      0.00      78.8     0.32      1017.3     3.1       W   262   7.7     WSW   253   9.91    261      552.6
   07/05/2018 12:30      95.6      93.9       17     42.5      0.00      0.00      78.8     0.32      1017.3     2.1     WNW   302   5.0       W   263   9.91    261      653.6
   07/05/2018 12:20      94.1      92.7       18     43.9      0.00      0.00      78.8     0.32      1017.4     1.6     NNE    19   4.4       N   353   9.91    261      592.1
   07/05/2018 12:10      92.8      91.3       19     43.6      0.00      0.00      78.8     0.32      1017.5     1.7       W   276   3.7      SW   218   9.91    262      562.8
   07/05/2018 12:00      91.8      90.3       20     44.4      0.00      0.00      78.8     0.32      1017.6     2.1     WSW   245   4.9     SSW   195   9.91    262      587.7
   07/05/2018 11:50      90.4      88.8       23     46.3      0.00      0.00      78.8     0.32      1017.5     2.3       N   360   4.8     NNE    25   9.91    262      610.9
   07/05/2018 11:40      89.4      86.8       23     45.8      0.00      0.00      78.8     0.32      1017.8     1.7     NNW   343   4.0       N   350   9.91    262      656.4
   07/05/2018 11:30      87.1      86.3       24     45.8      0.00      0.00      78.8     0.32      1018.0     1.7     ENE    61   2.9      NE    40   9.91    263      354.5
   07/05/2018 11:20      87.4      86.3       25     46.5      0.00      0.00      78.8     0.32      1018.1     1.3     ESE   118   3.1       S   179   9.91    263      289.4
   07/05/2018 11:10      87.2      86.4       26     47.8      0.00      0.00      78.8     0.32      1018.2     1.8     ENE    70   3.7       E    84   9.91    263      397.5
   07/05/2018 11:00      87.4      86.6       26     48.2      0.00      0.00      78.9     0.32      1018.2     1.5     ESE   113   4.6      SE   127   9.91    262      418.7
   07/05/2018 10:50      86.9      85.8       26     47.7      0.00      0.00      78.9     0.32      1018.2     1.5     NNE    18   3.9     NNE    17   9.91    262      550.6
   07/05/2018 10:40      85.9      84.0       29     48.9      0.00      0.00      78.9     0.32      1018.3     1.4       N   351   3.6     WNW   304   9.91    263      428.5
   07/05/2018 10:30      84.3      83.6       30     49.3      0.00      0.00      79.0     0.32      1018.4     2.0     NNE    18   3.8      NE    53   9.91    263      503.0
   07/05/2018 10:20      83.9      82.6       33     51.0      0.00      0.00      79.0     0.32      1018.5     1.8      NW   311   3.9     NNE    29   9.91    263      541.7
   07/05/2018 10:10      82.8      80.3       35     51.3      0.00      0.00      79.0     0.32      1018.5     1.5     NNE    21   5.3     NNW   338   9.91    263      509.9
   07/05/2018 10:00      81.0      80.2       37     51.8      0.00      0.00      79.1     0.32      1018.5     1.9       N   355   3.9     NNW   344   9.91    264      327.1
   07/05/2018 09:50      80.8      79.0       39     52.8      0.00      0.00      79.1     0.32      1018.7     1.4     NNE    13   3.5      NW   324   9.91    263      484.1
   07/05/2018 09:40      79.2      76.6       43     53.4      0.00      0.00      79.1     0.33      1018.8     0.7     ENE    79   2.3     ESE   110   9.91    264      460.8
   07/05/2018 09:30      77.4      76.5       45     53.8      0.00      0.00      79.2     0.33      1018.9     1.4      NE    35   3.2      NE    46   9.90    265      278.8
   07/05/2018 09:20      77.1      75.2       47     54.4      0.00      0.00      79.2     0.33      1018.6     1.2     NNE    15   3.8       N    11   9.90    264      429.2
   07/05/2018 09:10      75.4      74.4       49     54.2      0.00      0.00      79.3     0.33      1018.5     1.5     NNE    18   3.0     NNE    21   9.32    265      281.0
   07/05/2018 09:00      74.7      73.0       50     54.4      0.00      0.00      79.3     0.32      1018.6     1.9     NNE    27   3.6     NNW   343   9.32    265      378.4
   07/05/2018 08:50      73.1      71.7       54     54.5      0.00      0.00      79.3     0.33      1018.8     0.9     ESE   121   2.8       S   180   9.32    266      182.4
   07/05/2018 08:40      71.9      70.0       56     54.4      0.00      0.00      79.4     0.33      1018.7     0.7     ESE   121   2.5     ESE   105   9.32    267       38.0
   07/05/2018 08:30      70.1      68.6       59     54.4      0.00      0.00      79.4     0.33      1018.6     0.8     NNE    19   2.3      NE    49   9.32    267       17.8
   07/05/2018 08:20      68.6      67.2       61     54.1      0.00      0.00      79.5     0.33      1018.6     0.8       N     4   2.2     WNW   303   9.33    267      -10.8
   07/05/2018 08:10      67.4      66.3       63     53.8      0.00      0.00      79.5     0.33      1018.6     0.6     NNW   333   2.0     WNW   298   9.33    267      -25.4
   07/05/2018 08:00      66.6      65.3       65     53.7      0.00      0.00      79.6     0.33      1018.6     1.3       W   262   2.9     WSW   258   9.33    267      -34.9
   07/05/2018 07:50      65.5      64.5       67     53.6      0.00      0.00      79.6     0.33      1018.5     1.8     WNW   283   3.2       W   278   9.33    267       -9.8
   07/05/2018 07:40      64.6      63.7       68     53.5      0.00      0.00      79.7     0.33      1018.6     2.0     WNW   293   4.5     WSW   257   9.33    267       -1.8
   07/05/2018 07:30      63.8      63.1       69     53.3      0.00      0.00      79.7     0.33      1018.5     2.4     WNW   290   4.3     WNW   301   9.33    267       -9.6
   07/05/2018 07:20      63.4      62.5       71     53.1      0.00      0.00      79.8     0.33      1018.4     1.7       W   261   3.8       W   264   9.33    267      -26.9
   07/05/2018 07:10      62.6      62.1       71     52.9      0.00      0.00      79.8     0.33      1018.3     1.1     WSW   258   3.0       W   271   9.33    268      -36.2
   07/05/2018 07:00      62.3      61.5       72     52.6      0.00      0.00      79.8     0.33      1018.4     1.8      SW   231   3.5      SW   220   9.33    268      -45.3
   07/05/2018 06:50      61.6      59.3       76     52.8      0.00      0.00      79.9     0.33      1018.3     1.8      SW   227   3.9     WSW   237   9.33    268      -45.8
   07/05/2018 06:40      59.5      57.9       81     52.8      0.00      0.00      79.9     0.33      1018.3     0.2     WSW   239   1.8     WSW   239   9.33    268      -38.5
   07/05/2018 06:30      58.0      56.8       82     52.1      0.00      0.00      79.9     0.33      1018.3     0.1       S   183   1.1       S   183   9.33    268      -45.1
   07/05/2018 06:20      57.1      56.1       84     51.6      0.00      0.00      80.0     0.33      1018.4     0.9     SSE   165   1.6     SSE   166   9.33    267      -36.7
   07/05/2018 06:10      56.6      55.9       84     51.6      0.00      0.00      80.0     0.33      1018.4     0.5       S   174   1.5       S   178   9.33    268      -42.8
   07/05/2018 06:00      56.7      55.5       83     50.6      0.00      0.00      80.0     0.33      1018.3     0.1       S   174   1.0       S   174   9.33    272      -50.7
   07/05/2018 05:50      56.6      56.1       83     51.4      0.00      0.00      80.1     0.33      1018.2     0.4     SSE   167   1.1       S   174   9.33    272      -52.6
   07/05/2018 05:40      57.1      56.4       83     51.4      0.00      0.00      80.2     0.33      1018.2     0.4     SSE   148   1.1     SSE   148   9.33    272      -54.6
   07/05/2018 05:30      57.3      56.6       82     51.5      0.00      0.00      80.2     0.33      1018.3     0.0     SSE   148   0.9     SSE   148   9.33    272      -57.2
   07/05/2018 05:20      57.3      56.8       82     51.6      0.00      0.00      80.2     0.33      1018.4     0.2     SSE   154   1.1     SSE   148   9.34    270      -58.1
   07/05/2018 05:10      57.7      57.0       81     51.6      0.00      0.00      80.3     0.33      1018.2     0.8     SSE   165   2.0     SSW   196   9.34    270      -59.3
   07/05/2018 05:00      57.9      57.4       81     51.7      0.00      0.00      80.3     0.33      1018.0     0.2     SSE   157   0.5     SSE   157   9.34    270      -59.7
   07/05/2018 04:50      57.7      57.4       81     51.7      0.00      0.00      80.4     0.33      1017.8     0.4     SSE   157   1.0     SSE   157   9.34    269      -60.7
   07/05/2018 04:40      57.9      57.3       80     51.3      0.00      0.00      80.4     0.33      1017.8     0.5     SSE   167   1.4     SSE   160   9.34    268      -63.4
   07/05/2018 04:30      57.7      57.4       80     51.3      0.00      0.00      80.4     0.33      1017.7     0.7       S   187   2.1     SSW   192   9.34    268      -62.3
   07/05/2018 04:20      58.0      57.4       79     51.2      0.00      0.00      80.5     0.33      1017.6     0.6     SSE   160   1.5      SE   143   9.34    268      -64.5
   07/05/2018 04:10      58.2      57.7       79     51.3      0.00      0.00      80.5     0.33      1017.5     0.5       S   172   1.3       S   172   9.34    268      -64.1
   07/05/2018 04:00      58.6      57.9       78     51.5      0.00      0.00      80.6     0.33      1017.4     0.3       S   172   1.5       S   172   9.34    268      -63.9
   07/05/2018 03:50      58.5      58.1       79     51.8      0.00      0.00      80.6     0.33      1017.3     0.2       S   172   1.0       S   172   9.34    268      -64.1
   07/05/2018 03:40      58.5      58.0       79     51.9      0.00      0.00      80.6     0.33      1017.4     0.1       S   172   1.3       S   172   9.34    268      -65.5
   07/05/2018 03:30      59.0      58.2       78     51.9      0.00      0.00      80.7     0.33      1017.3     0.6     SSE   162   1.3       S   172   9.34    268      -66.4
   07/05/2018 03:20      59.0      58.6       80     52.5      0.00      0.00      80.7     0.33      1017.3     0.1     SSE   156   0.7     SSE   156   9.34    268      -64.6
   07/05/2018 03:10      59.0      58.5       80     52.5      0.00      0.00      80.7     0.33      1017.4     0.4     SSE   156   1.1     SSE   155   9.34    268      -65.2
   07/05/2018 03:00      59.1      58.5       79     52.1      0.00      0.00      80.8     0.33      1017.3     0.7     SSE   152   1.4     SSE   149   9.34    268      -66.4
   07/05/2018 02:50      59.8      58.6       78     52.0      0.00      0.00      80.8     0.33      1017.3     0.6     SSE   164   1.2       S   174   9.35    268      -66.9
   07/05/2018 02:40      59.8      59.4       78     52.7      0.00      0.00      80.8     0.33      1017.2     0.3     SSE   168   1.2     SSE   148   9.35    268      -66.3
   07/05/2018 02:30      59.8      59.3       78     52.5      0.00      0.00      80.9     0.33      1017.3     0.4       S   172   0.9       S   172   9.35    268      -67.3
   07/05/2018 02:20      59.9      59.4       76     52.3      0.00      0.00      80.9     0.33      1017.4     0.4       S   173   0.9       S   172   9.35    267      -68.2
   07/05/2018 02:10      60.4      59.7       76     52.3      0.00      0.00      80.9     0.33      1017.4     0.5       S   173   1.3       S   173   9.35    268      -68.2
   07/05/2018 02:00      60.7      60.2       75     52.5      0.00      0.00      81.0     0.33      1017.5     0.3       S   173   1.0       S   173   9.35    267      -68.2
   07/05/2018 01:50      60.9      60.4       75     52.4      0.00      0.00      81.0     0.33      1017.5     0.0       S   173   0.2       S   173   9.35    267      -68.6
   07/05/2018 01:40      60.9      60.4       73     52.0      0.00      0.00      81.0     0.33      1017.5     0.6     SSE   168   1.1       S   173   9.35    267      -69.6
   07/05/2018 01:30      61.4      60.7       73     52.2      0.00      0.00      81.1     0.33      1017.5     0.7     SSE   167   1.2     SSE   160   9.35    267      -70.4
   07/05/2018 01:20      61.9      61.1       72     52.2      0.00      0.00      81.1     0.33      1017.5     0.4       S   171   1.2       S   174   9.35    267      -71.4
   07/05/2018 01:10      61.8      61.0       72     52.3      0.00      0.00      81.1     0.33      1017.5     1.0     SSE   156   2.0      SE   141   9.35    266      -72.1
   07/05/2018 01:00      61.6      60.9       71     51.6      0.00      0.00      81.1     0.33      1017.5     0.4     SSE   160   1.6      SE   134   9.36    267      -72.2
   07/05/2018 00:50      62.3      61.3       70     51.9      0.00      0.00      81.1     0.33      1017.5     0.7     SSE   161   1.8      SE   144   9.36    266      -72.5
   07/05/2018 00:40      62.6      61.8       69     51.7      0.00      0.00      81.1     0.33      1017.5     0.7       S   182   1.3       S   191   9.36    266      -72.3
   07/05/2018 00:30      62.7      62.2       68     51.7      0.00      0.00      81.2     0.33      1017.4     0.3     SSW   193   1.1     SSW   193   9.36    266      -73.5
   07/05/2018 00:20      62.9      62.4       68     51.7      0.00      0.00      81.2     0.33      1017.4     0.6     SSW   193   1.5     SSW   193   9.36    266      -73.5
   07/05/2018 00:10      63.2      62.6       67     51.6      0.00      0.00      81.2     0.33      1017.4     0.2     SSW   193   0.9     SSW   193   9.36    266      -74.0
   07/05/2018 00:00      63.8      62.9       65     51.5      0.00      0.00      81.2     0.33      1017.3     0.3     SSW   193   1.5     SSW   193   9.36    266      -75.1
   07/04/2018 23:50      64.2      63.4       64     51.5      0.00      0.00      81.2     0.33      1017.3     0.4     SSW   193   1.5     SSW   193   9.36    266      -75.5
   07/04/2018 23:40      64.4      63.9       64     51.9      0.00      0.00      81.2     0.33      1017.3     0.4     SSW   193   1.2     SSW   194   9.36    266      -75.7
   07/04/2018 23:30      64.4      63.7       66     52.5      0.00      0.00      81.3     0.33      1017.3     0.6       S   184   2.3       S   184   9.36    266      -76.0
   07/04/2018 23:20      65.0      63.7       68     53.6      0.00      0.00      81.3     0.33      1017.3     0.8       S   185   1.5       S   188   9.36    266      -76.2
   07/04/2018 23:10      65.6      64.7       68     54.4      0.00      0.00      81.3     0.33      1017.3     0.1     SSW   194   1.2     SSW   194   9.37    266      -76.6
   07/04/2018 23:00      65.7      65.3       68     54.6      0.00      0.00      81.3     0.33      1017.4     0.0       N     0   0.0      SE   131   9.37    266      -77.0
   07/04/2018 22:50      66.4      65.5       66     54.3      0.00      0.00      81.3     0.33      1017.3     0.0       N     0   0.0      SE   131   9.37    266      -77.9
   07/04/2018 22:40      67.0      66.2       65     54.3      0.00      0.00      81.3     0.33      1017.3     0.0       N     0   0.0      SE   131   9.37    266      -78.5
   07/04/2018 22:30      67.6      66.5       63     53.8      0.00      0.00      81.4     0.33      1017.3     0.0      SE   131   0.7      SE   131   9.37    266      -80.0
   07/04/2018 22:20      68.5      67.4       61     54.0      0.00      0.00      81.3     0.33      1017.2     0.0     ESE   119   0.5       E    97   9.38    266      -81.5
   07/04/2018 22:10      69.0      68.2       59     53.8      0.00      0.00      81.3     0.33      1017.2     0.2     ENE    72   1.5     ENE    59   9.38    266      -83.3
   07/04/2018 22:00      69.4      68.6       56     52.6      0.00      0.00      81.3     0.33      1017.1     0.4       E    87   1.6     ENE    61   9.38    266      -83.6
   07/04/2018 21:50      70.0      69.1       52     51.3      0.00      0.00      81.3     0.33      1017.0     0.0       E    95   0.7       E    95   9.38    265      -83.4
   07/04/2018 21:40      71.0      69.7       50     50.8      0.00      0.00      81.3     0.33      1016.8     0.0       E    89   0.8       E    89   9.38    265      -85.9
   07/04/2018 21:30      71.7      70.7       49     51.1      0.00      0.00      81.4     0.33      1016.7     0.7       E   101   1.7     ESE   120   9.38    265      -87.2
   07/04/2018 21:20      72.0      71.3       49     51.4      0.00      0.00      81.3     0.33      1016.6     0.4      NE    53   1.5     ENE    57   9.39    264      -89.1
   07/04/2018 21:10      72.2      71.7       49     51.4      0.00      0.00      81.3     0.33      1016.5     0.6       E    85   2.5       E    93   9.39    265      -90.3
   07/04/2018 21:00      72.6      71.8       48     51.5      0.00      0.00      81.3     0.33      1016.4     0.8       E    84   2.2       E    83   9.39    264      -90.9
   07/04/2018 20:50      73.2      72.3       48     51.6      0.00      0.00      81.3     0.33      1016.4     1.4       E    98   3.5     ESE   112   9.39    264      -91.2
   07/04/2018 20:40      73.8      72.8       46     51.2      0.00      0.00      81.2     0.33      1016.2     1.6     ESE   104   2.5     ESE   118   9.39    264      -92.1
   07/04/2018 20:30      75.0      73.6       44     50.7      0.00      0.00      81.2     0.33      1016.1     1.5       E    81   3.4      SE   126   9.40    264      -93.6
   07/04/2018 20:20      76.0      74.6       39     48.4      0.00      0.00      81.2     0.33      1016.0     1.3     ENE    72   3.3      NE    38   9.40    264      -93.8
   07/04/2018 20:10      76.8      75.7       36     47.0      0.00      0.00      81.1     0.33      1015.9     1.2       E    80   2.1       E    88   9.40    263      -91.8
   07/04/2018 20:00      77.6      76.5       35     47.1      0.00      0.00      81.1     0.33      1015.8     1.8     ESE   111   3.5      NE    53   9.40    263      -89.3
   07/04/2018 19:50      78.7      77.4       34     47.5      0.00      0.00      81.1     0.33      1015.7     1.9       E    91   3.9       E    96   9.41    263      -86.4
   07/04/2018 19:40      79.7      78.5       33     47.8      0.00      0.00      81.1     0.33      1015.5     1.9       E    97   3.8       E    81   9.41    263      -71.8
   07/04/2018 19:30      80.4      79.3       32     47.5      0.00      0.00      81.1     0.33      1015.4     2.0       E    88   4.0       E    80   9.42    263      -51.5
   07/04/2018 19:20      80.6      79.7       31     46.8      0.00      0.00      81.1     0.33      1015.4     1.9      SE   132   5.4       S   185   9.42    263      -31.5
   07/04/2018 19:10      81.0      80.2       28     45.0      0.00      0.00      81.0     0.33      1015.3     2.8     ESE   102   5.8     ENE    66   9.42    263      -10.8
   07/04/2018 19:00      82.3      80.7       28     45.2      0.00      0.00      81.0     0.33      1015.2     4.0       E    99   7.3     ENE    68   9.43    263       10.6
   07/04/2018 18:50      82.6      82.2       31     48.7      0.00      0.00      80.9     0.33      1015.1     2.0      SE   140   5.9     ENE    75   9.43    263       31.1
   07/04/2018 18:40      82.5      81.7       32     49.7      0.00      0.00      80.9     0.33      1015.1     2.2     SSW   213   5.8     SSW   212   9.44    263       52.8
   07/04/2018 18:30      82.1      81.3       33     49.6      0.00      0.00      80.9     0.33      1015.0     3.4      SW   219   7.0     WSW   242   9.44    263       74.4
   07/04/2018 18:20      82.5      81.2       33     49.9      0.00      0.00      80.8     0.33      1014.9     5.1      SW   214   7.1      SW   217   9.45    263       95.2
   07/04/2018 18:10      83.7      82.1       32     49.5      0.00      0.00      80.8     0.33      1014.9     3.8       S   178   7.6       S   174   9.45    263      119.3
   07/04/2018 18:00      84.7      83.5       30     49.3      0.00      0.00      80.7     0.33      1014.8     3.6     SSE   160   7.1      SE   139   9.45    263      147.1
   07/04/2018 17:50      85.5      84.5       26     46.7      0.00      0.00      80.7     0.33      1014.7     3.3     ESE   116   7.4     ESE   120   9.46    263      170.5
   07/04/2018 17:40      85.9      84.7       25     45.6      0.00      0.00      80.4     0.33      1014.7     3.3       E    82   8.5     ENE    67   9.46    263      193.6
   07/04/2018 17:30      85.6      84.2       25     45.5      0.00      0.00      80.5     0.33      1014.7     3.2     ESE   121   7.3      SE   137   9.47    263      221.8
   07/04/2018 17:20      85.9      84.1       25     45.1      0.00      0.00      80.5     0.33      1014.7     5.1      SE   136  10.1      SE   124   9.47    263      246.6
   07/04/2018 17:10      86.7      85.5       24     44.8      0.00      0.00      80.4     0.33      1014.8     5.3      SE   144   9.6      SE   143   9.48    263      270.9
   07/04/2018 17:00      87.8      86.3       23     44.7      0.00      0.00      80.4     0.33      1014.7     4.6      SE   141   8.3       S   176   9.48    263      292.6
   07/04/2018 16:50      87.5      86.5       23     45.3      0.00      0.00      80.3     0.33      1014.7     2.8     ESE   124   6.6       E    89   9.49    263      314.0
   07/04/2018 16:40      87.3      86.6       23     45.0      0.00      0.00      80.3     0.33      1014.7     3.2       S   172   6.6     SSW   206   9.49    263      336.0
   07/04/2018 16:30      87.4      86.6       24     45.8      0.00      0.00      80.2     0.33      1014.8     3.3      SE   133   7.1      SE   129   9.50    263      356.0
   07/04/2018 16:20      87.0      86.1       24     45.9      0.00      0.00      80.2     0.33      1014.9     3.1       S   175   8.1     ESE   108   9.50    263      378.1
   07/04/2018 16:10      86.4      85.7       25     46.6      0.00      0.00      80.1     0.33      1015.0     4.0     SSE   169   8.3      SE   132   9.51    263      399.3
   07/04/2018 16:00      85.8      84.9       26     46.7      0.00      0.00      80.1     0.33      1015.1     4.0     SSE   166   7.0      SE   135   9.51    263      421.1
   07/04/2018 15:50      86.0      84.8       26     46.7      0.00      0.00      80.0     0.33      1015.2     4.6      SE   137   8.8      SE   129   9.52    263      442.1
   07/04/2018 15:40      85.7      84.7       26     46.4      0.00      0.00      79.9     0.33      1015.3     4.2     SSE   167   9.5     ESE   122   9.52    263      461.2
   07/04/2018 15:30      85.2      84.2       27     47.4      0.00      0.00      79.9     0.33      1015.4     5.0     SSE   166   8.7     SSW   200   9.53    263      478.0
   07/04/2018 15:20      85.4      84.5       28     47.9      0.00      0.00      79.8     0.33      1015.4     5.7     SSE   162  10.0      SE   136   9.53    263      494.3
   07/04/2018 15:10      85.3      84.2       28     48.0      0.00      0.00      79.7     0.33      1015.5     5.3       S   169   9.1     SSW   213   9.54    263      506.8
   07/04/2018 15:00      86.1      84.5       28     48.4      0.00      0.00      79.7     0.33      1015.6     5.1     SSE   152   9.9      SE   143   9.54    263      520.2
   07/04/2018 14:50      85.2      84.1       28     48.3      0.00      0.00      79.6     0.32      1015.7     5.1     SSE   168  10.1     SSE   148   9.55    263      532.0
   07/04/2018 14:40      86.0      84.8       29     49.5      0.00      0.00      79.5     0.32      1015.7     4.6     SSE   149   9.2       S   186   9.55    263      539.6
   07/04/2018 14:30      86.7      84.7       29     49.2      0.00      0.00      79.5     0.32      1015.8     3.6       E    97   8.7      SE   140   9.56    263      547.5
   07/04/2018 14:20      87.0      85.2       30     51.1      0.00      0.00      79.5     0.32      1015.7     2.6       E    84   8.9     SSE   148   9.56    263      554.9
   07/04/2018 14:10      86.3      85.0       31     51.9      0.00      0.00      79.4     0.32      1015.8     2.8     ESE   108   6.4      SE   144   9.56    263      566.1
   07/04/2018 14:00      85.6      84.7       32     51.9      0.00      0.00      79.3     0.32      1015.8     3.8     ENE    76   7.7       E   100   9.57    263      576.6
   07/04/2018 13:50      85.8      84.6       32     51.7      0.00      0.00      79.2     0.32      1015.7     3.7     ENE    68  10.1      NE    50   9.57    263      582.4
   07/04/2018 13:40      85.2      84.4       32     51.5      0.00      0.00      79.2     0.32      1015.7     3.6     ENE    76   7.2     ENE    57   9.57    263      587.2
   07/04/2018 13:30      85.8      84.1       32     51.8      0.00      0.00      79.2     0.32      1015.7     3.9     ENE    77   6.9      NE    56   9.57    263      591.5
   07/04/2018 13:20      84.9      83.7       32     51.4      0.00      0.00      79.0     0.32      1015.7     4.3      NE    56   7.1     NNE    14   9.58    263      593.4
   07/04/2018 13:10      84.8      83.9       31     50.7      0.00      0.00      79.0     0.32      1015.7     4.1     ENE    71   8.4     ENE    71   9.58    263      595.9
   07/04/2018 13:00      84.6      82.9       33     51.9      0.00      0.00      79.1     0.32      1015.7     3.0     ENE    62   6.9     ENE    57   9.58    263      593.6
   07/04/2018 12:50      83.6      82.8       34     51.7      0.00      0.00      79.1     0.32      1015.7     3.3       E    79   7.8      NE    35   9.58    263      594.6
   07/04/2018 12:40      83.3      82.5       35     52.3      0.00      0.00      78.9     0.32      1015.7     3.2     ENE    57   5.9     ENE    59   9.58    263      593.1
   07/04/2018 12:30      82.8      81.5       36     52.0      0.00      0.00      79.0     0.32      1015.7     2.9      NE    52   6.2     SSE   149   9.59    263      593.6
   07/04/2018 12:20      81.9      80.7       35     51.3      0.00      0.00      79.0     0.32      1015.7     2.6     ENE    66   5.5     NNE    33   9.59    263      594.0
   07/04/2018 12:10      81.3      79.1       38     52.1      0.00      0.00      79.0     0.32      1015.8     2.9     ENE    60   7.5       E    90   9.59    263      585.2
   07/04/2018 12:00      80.2      78.8       39     52.5      0.00      0.00      78.9     0.32      1015.9     3.1      NE    44   5.7      NE    43   9.59    263      580.4
   07/04/2018 11:50      79.6      78.6       41     53.2      0.00      0.00      79.0     0.32      1016.0     3.0     ENE    74   5.4     ENE    62   9.59    264      578.4
   07/04/2018 11:40      79.6      77.8       41     52.9      0.00      0.00      79.0     0.32      1016.2     2.9       E    84   6.0      NE    49   9.59    264      566.2
   07/04/2018 11:30      77.9      76.5       46     54.9      0.00      0.00      79.0     0.32      1016.2     1.8      NE    46   5.1      NE    47   9.59    264      556.0
   07/04/2018 11:20      76.8      75.1       48     54.8      0.00      0.00      79.0     0.32      1016.3     2.2     NNE    14   5.0      NE    45   9.59    264      547.8
   07/04/2018 11:10      76.4      75.3       48     54.7      0.00      0.00      79.0     0.32      1016.3     2.6     ENE    71   5.3     NNE    15   9.60    264      540.9
   07/04/2018 11:00      76.2      74.5       50     54.9      0.00      0.00      79.0     0.32      1016.3     2.2      NE    48   4.7      NE    43   9.60    264      529.0
   07/04/2018 10:50      74.7      73.7       51     54.9      0.00      0.00      79.1     0.32      1016.5     2.6     ENE    64   5.0     NNE    19   9.60    265      518.6
   07/04/2018 10:40      74.3      73.1       53     55.5      0.00      0.00      79.0     0.32      1016.6     2.1      NE    46   6.4      NE    54   9.60    264      504.7
   07/04/2018 10:30      73.4      71.9       55     55.7      0.00      0.00      79.0     0.32      1016.7     2.5     ENE    61   5.3     ENE    65   9.60    265      492.5
   07/04/2018 10:20      72.3      71.5       57     55.9      0.00      0.00      79.1     0.32      1016.7     2.9      NE    52   6.2     ENE    68   9.60    265      471.5
   07/04/2018 10:10      71.7      70.9       58     55.7      0.00      0.00      79.1     0.32      1016.7     2.5     ENE    69   5.7     ENE    62   9.60    265      456.8
   07/04/2018 10:00      71.5      70.6       58     55.7      0.00      0.00      79.1     0.32      1016.9     2.1      NE    35   5.6      NE    55   9.60    266      439.1
   07/04/2018 09:50      71.4      70.1       59     55.6      0.00      0.00      79.1     0.32      1017.0     1.9      NE    39   5.0     ESE   115   9.60    264      421.7
   07/04/2018 09:40      70.2      68.7       61     55.3      0.00      0.00      79.2     0.33      1017.0     2.2     ENE    63   5.7      NE    50   9.60    265      412.7
   07/04/2018 09:30      68.8      68.1       63     55.1      0.00      0.00      79.2     0.33      1017.0     2.3     ENE    56   6.9       E    95   9.60    266      333.7
   07/04/2018 09:20      68.5      67.2       64     55.0      0.00      0.00      79.3     0.33      1017.1     3.1       E    99   6.0       E    87   9.60    266      379.5
   07/04/2018 09:10      67.5      66.4       64     54.8      0.00      0.00      79.3     0.33      1017.1     2.3     ENE    78   5.5       E    79   9.60    266      259.3
   07/04/2018 09:00      66.7      65.7       66     54.5      0.00      0.00      79.3     0.33      1017.2     2.2     SSE   148   5.3      SE   142   9.60    266      293.7
   07/04/2018 08:50      66.3      65.7       66     54.4      0.00      0.00      79.3     0.33      1017.2     2.7       E    80   5.3     ENE    71   9.60    266      126.5
   07/04/2018 08:40      66.1      65.7       67     54.6      0.00      0.00      79.3     0.33      1017.1     2.0     ENE    59   4.8     NNE    14   9.60    266       89.9
   07/04/2018 08:30      65.9      64.8       68     54.6      0.00      0.00      79.4     0.33      1017.1     2.0      NE    53   4.1      NE    52   9.60    267      128.5
   07/04/2018 08:20      65.5      64.8       68     54.5      0.00      0.00      79.4     0.33      1017.1     2.5     ENE    74   5.7     ENE    62   9.60    267      124.3
   07/04/2018 08:10      65.2      64.3       70     54.5      0.00      0.00      79.5     0.33      1017.0     1.9     ENE    72   4.9      NE    36   9.60    267      116.5
   07/04/2018 08:00      64.7      64.1       70     54.3      0.00      0.00      79.5     0.33      1017.0     2.8      NE    51   4.7     ENE    66   9.60    267       94.3
   07/04/2018 07:50      64.5      63.6       71     54.4      0.00      0.00      79.5     0.33      1017.0     2.1     ENE    60   4.1     ENE    76   9.60    267       82.6
   07/04/2018 07:40      64.1      63.5       71     54.2      0.00      0.00      79.5     0.33      1017.0     3.1       E    96   5.8     ESE   120   9.60    267       70.8
   07/04/2018 07:30      64.1      63.7       71     54.1      0.00      0.00      79.6     0.33      1016.9     2.3       E    87   4.8       E    81   9.60    267       50.5
   07/04/2018 07:20      64.0      63.4       71     54.0      0.00      0.00      79.6     0.33      1016.9     1.8     ENE    71   3.9     SSE   163   9.60    267       39.7
   07/04/2018 07:10      63.7      63.3       70     53.8      0.00      0.00      79.6     0.33      1016.9     1.6       E    92   4.8     ESE   118   9.61    267       29.0
   07/04/2018 07:00      63.6      62.9       71     53.7      0.00      0.00      79.7     0.33      1016.8     0.9       E    85   3.1       E    86   9.61    267       19.9
   07/04/2018 06:50      63.2      62.8       72     53.6      0.00      0.00      79.7     0.33      1016.8     1.5       E    92   4.2     ENE    65   9.61    267       12.6
   07/04/2018 06:40      63.2      62.7       72     53.6      0.00      0.00      79.7     0.33      1016.7     1.8       E    91   4.5       E    86   9.61    267        4.5
   07/04/2018 06:30      63.0      62.5       72     53.6      0.00      0.00      79.8     0.33      1016.7     1.2       E    79   2.5       E    90   9.61    267       -3.6
   07/04/2018 06:20      62.9      62.5       72     53.6      0.00      0.00      79.8     0.33      1016.5     0.3       E    93   2.2      SE   125   9.61    267      -15.0
   07/04/2018 06:10      62.7      62.3       73     53.6      0.00      0.00      79.8     0.33      1016.5     0.3     ESE   120   1.2      SE   129   9.61    267      -23.4
   07/04/2018 06:00      62.8      62.4       73     53.6      0.00      0.00      79.8     0.33      1016.5     0.9     ESE   117   2.4      SE   145   9.61    267      -31.4
   07/04/2018 05:50      62.7      62.4       73     53.7      0.00      0.00      79.9     0.33      1016.5     1.5      SE   140   3.4     SSE   155   9.61    267      -19.5
   07/04/2018 05:40      62.7      62.4       73     53.9      0.00      0.00      79.9     0.33      1016.5     1.2     ESE   109   4.1      SE   137   9.61    267      -19.2
   07/04/2018 05:30      62.6      62.3       74     53.9      0.00      0.00      79.9     0.33      1016.3     0.9       E    97   2.6     ENE    66   9.61    267      -19.8
   07/04/2018 05:20      62.6      62.1       74     53.8      0.00      0.00      80.0     0.33      1016.2     0.9       E   100   2.2      SE   135   9.61    267      -25.1
   07/04/2018 05:10      62.3      61.9       74     53.7      0.00      0.00      80.0     0.33      1016.1     0.6     ESE   114   2.3      SE   125   9.61    267      -22.3
   07/04/2018 05:00      62.3      61.7       74     53.5      0.00      0.00      80.0     0.33      1016.0     1.3      SE   140   3.0     SSE   149   9.61    267      -32.4
   07/04/2018 04:50      62.1      61.7       74     53.6      0.00      0.00      80.1     0.33      1016.0     1.3     SSE   167   2.4     SSE   169   9.61    267      -46.9
   07/04/2018 04:40      62.2      61.8       75     53.8      0.00      0.00      80.1     0.33      1015.8     1.5     SSE   148   4.1      SE   128   9.61    267      -45.7
   07/04/2018 04:30      62.1      61.7       76     54.1      0.00      0.00      80.2     0.33      1015.8     0.4       E    82   1.4     ENE    78   9.61    267      -29.0
   07/04/2018 04:20      62.0      61.6       77     54.4      0.00      0.00      80.2     0.33      1015.8     0.0      SE   124   0.8     ENE    73   9.61    267      -32.2
   07/04/2018 04:10      61.9      61.4       77     54.5      0.00      0.00      80.2     0.33      1015.8     0.7      SE   138   1.8       S   186   9.61    268      -29.5
   07/04/2018 04:00      62.0      61.5       77     54.5      0.00      0.00      80.3     0.33      1015.7     1.7     SSW   194   3.4       S   177   9.61    267      -33.8
   07/04/2018 03:50      62.1      61.6       77     54.7      0.00      0.00      80.3     0.33      1015.7     1.6       S   177   3.0       S   184   9.62    267      -27.3
   07/04/2018 03:40      62.1      61.6       78     54.9      0.00      0.00      80.3     0.33      1015.7     1.5      SE   139   4.0      SE   138   9.62    267      -14.8
   07/04/2018 03:30      62.0      61.3       78     54.9      0.00      0.00      80.4     0.33      1015.5     1.1      SE   144   2.4     SSE   146   9.62    268      -14.0
   07/04/2018 03:20      61.5      61.0       79     54.7      0.00      0.00      80.4     0.33      1015.5     0.7     SSW   206   1.9     SSE   155   9.62    267      -13.4
   07/04/2018 03:10      61.3      60.8       79     54.5      0.00      0.00      80.4     0.33      1015.3     0.7     SSW   205   1.8     SSE   163   9.62    268      -12.7
   07/04/2018 03:00      61.2      60.3       80     54.5      0.00      0.00      80.5     0.33      1015.2     0.7     SSW   198   2.4     SSW   195   9.62    268      -12.5
   07/04/2018 02:50      60.5      59.8       81     54.3      0.00      0.00      80.5     0.33      1015.1     1.5     SSW   202   2.6     SSW   197   9.62    268      -11.6
   07/04/2018 02:40      59.9      59.4       82     54.0      0.00      0.00      80.5     0.33      1015.1     1.3     SSW   197   2.1     SSW   199   9.62    268      -13.5
   07/04/2018 02:30      59.6      59.3       82     53.8      0.00      0.00      80.6     0.33      1015.1     1.1       S   173   1.7       S   181   9.62    268      -37.2
   07/04/2018 02:20      60.1      59.3       82     53.9      0.00      0.00      80.6     0.33      1015.1     1.4       S   178   3.3     SSE   149   9.62    269      -67.8
   07/04/2018 02:10      60.7      59.8       81     54.4      0.00      0.00      80.6     0.33      1015.1     0.4       S   171   1.9     SSW   197   9.62    269      -69.3
   07/04/2018 02:00      61.2      60.4       81     54.7      0.00      0.00      80.6     0.33      1015.1     0.7     ENE    71   1.6      SE   127   9.62    269      -70.1
   07/04/2018 01:50      61.4      60.7       80     54.8      0.00      0.00      80.6     0.33      1015.1     1.2     ENE    64   2.7      NE    49   9.62    269      -70.6
   07/04/2018 01:40      61.7      61.0       79     54.8      0.00      0.00      80.7     0.33      1015.0     1.3     ENE    56   2.8      NE    55   9.62    269      -70.6
   07/04/2018 01:30      61.9      61.4       78     54.9      0.00      0.00      80.7     0.33      1015.0     1.2      NE    54   2.6      NE    52   9.63    268      -70.9
   07/04/2018 01:20      62.2      61.7       77     54.8      0.00      0.00      80.8     0.33      1015.0     1.4     ENE    70   3.1     ENE    64   9.63    268      -69.7
   07/04/2018 01:10      62.5      61.8       77     54.9      0.00      0.00      80.8     0.33      1015.0     0.5     ENE    60   1.6      NE    46   9.63    268      -69.9
   07/04/2018 01:00      62.4      61.8       78     55.0      0.00      0.00      80.8     0.33      1014.9     0.5      NE    50   2.1      NE    50   9.63    268      -69.9
   07/04/2018 00:50      62.5      61.9       77     54.8      0.00      0.00      80.9     0.33      1014.9     0.5     ENE    77   2.2     ENE    61   9.63    268      -69.8
   07/04/2018 00:40      62.7      62.1       76     54.9      0.00      0.00      80.9     0.33      1014.8     0.5       E    80   1.9     ENE    65   9.63    268      -70.3
   07/04/2018 00:30      63.0      62.4       76     55.0      0.00      0.00      80.9     0.33      1014.8     0.4     ENE    72   1.3      NE    53   9.63    268      -70.4
   07/04/2018 00:20      63.2      62.7       75     54.8      0.00      0.00      80.9     0.33      1014.6     0.2     ENE    59   1.5      NE    54   9.63    268      -70.7
   07/04/2018 00:10      63.5      62.9       75     55.0      0.00      0.00      80.9     0.33      1014.6     0.8       E    98   2.4      NE    56   9.63    267      -70.8
   07/04/2018 00:00      63.7      63.2       73     54.8      0.00      0.00      80.9     0.33      1014.6     0.8       E    94   3.0      NE    41   9.63    267      -71.0
   07/03/2018 23:50      63.9      63.5       73     54.8      0.00      0.00      81.0     0.33      1014.5     0.5     ENE    77   3.4     ENE    75   9.63    266      -70.5
   07/03/2018 23:40      64.0      63.5       72     54.5      0.00      0.00      81.0     0.33      1014.3     0.3     ENE    67   1.8     ENE    68   9.63    267      -70.7
   07/03/2018 23:30      64.1      63.7       71     54.4      0.00      0.00      81.0     0.33      1014.3     0.2     ENE    64   1.3     ENE    63   9.63    266      -70.1
   07/03/2018 23:20      64.4      63.8       71     54.4      0.00      0.00      81.0     0.33      1014.3     0.0     ENE    76   1.0     ENE    75   9.64    266      -69.5
   07/03/2018 23:10      64.6      64.1       69     54.1      0.00      0.00      81.0     0.33      1014.3     0.0       N     0   0.0     SSE   158   9.64    266      -69.9
   07/03/2018 23:00      64.8      64.3       68     53.7      0.00      0.00      81.0     0.33      1014.3     0.0      SE   129   0.3       E    90   9.64    266      -70.4
   07/03/2018 22:50      65.2      64.5       66     53.0      0.00      0.00      81.1     0.33      1014.2     0.0     SSE   159   0.5     SSE   159   9.64    266      -71.0
   07/03/2018 22:40      65.5      64.7       63     52.3      0.00      0.00      81.1     0.33      1014.2     0.0       N     0   0.0       S   177   9.64    266      -72.0
   07/03/2018 22:30      65.9      65.1       63     52.3      0.00      0.00      81.1     0.33      1014.1     0.3       S   177   1.0       S   177   9.64    266      -72.4
   07/03/2018 22:20      66.4      65.6       61     52.3      0.00      0.00      81.1     0.33      1014.0     0.3     SSE   169   1.1       S   177   9.65    266      -74.7
   07/03/2018 22:10      66.6      66.0       61     52.4      0.00      0.00      81.1     0.33      1014.0     0.2      SE   142   1.4      SE   145   9.65    266      -77.8
   07/03/2018 22:00      66.7      66.3       60     52.4      0.00      0.00      81.1     0.33      1014.0     1.6       S   170   2.8       S   177   9.65    266      -78.8
   07/03/2018 21:50      67.6      66.3       60     52.4      0.00      0.00      81.1     0.33      1013.9     1.8       S   175   2.5       S   176   9.65    266      -80.3
   07/03/2018 21:40      68.1      67.4       58     52.6      0.00      0.00      81.1     0.33      1013.8     1.6       S   179   3.2       S   188   9.65    266      -81.3
   07/03/2018 21:30      68.6      67.4       57     52.0      0.00      0.00      81.1     0.33      1013.7     1.2     SSE   167   3.0       S   180   9.66    266      -81.6
   07/03/2018 21:20      69.1      68.3       55     52.0      0.00      0.00      81.1     0.33      1013.6     0.1     SSE   150   1.2     SSE   160   9.66    265      -83.9
   07/03/2018 21:10      69.6      68.8       54     51.9      0.00      0.00      81.1     0.33      1013.4     1.0       S   191   2.6       S   187   9.66    265      -85.2
   07/03/2018 21:00      70.1      69.3       53     51.7      0.00      0.00      81.1     0.33      1013.4     1.6       S   188   3.4     SSW   208   9.66    265      -85.8
   07/03/2018 20:50      70.7      69.9       52     51.6      0.00      0.00      81.1     0.33      1013.3     1.2       S   188   2.9      SW   235   9.66    265      -86.8
   07/03/2018 20:40      71.3      70.3       50     51.1      0.00      0.00      81.1     0.33      1013.2     2.4       S   182   3.7       S   186   9.67    265      -88.3
   07/03/2018 20:30      71.5      71.0       51     51.9      0.00      0.00      81.0     0.33      1013.1     2.0     SSE   153   4.8     SSE   160   9.67    265      -89.7
   07/03/2018 20:20      72.3      71.3       50     51.8      0.00      0.00      81.0     0.33      1013.0     2.2       S   180   3.8       S   190   9.67    265      -89.9
   07/03/2018 20:10      73.1      72.0       48     51.9      0.00      0.00      81.0     0.33      1013.0     2.4       S   175   4.6     SSW   196   9.67    264      -87.8
   07/03/2018 20:00      74.3      72.7       47     51.8      0.00      0.00      81.0     0.33      1012.9     2.4       S   171   4.5       S   179   9.68    264      -84.9
   07/03/2018 19:50      75.5      74.1       44     51.4      0.00      0.00      80.9     0.33      1012.8     1.5     SSE   166   3.9       S   188   9.68    264      -82.3
   07/03/2018 19:40      75.8      75.2       42     50.9      0.00      0.00      80.9     0.33      1012.7     1.1      SE   141   2.9      SE   145   9.68    264      -72.3
   07/03/2018 19:30      76.2      75.5       40     49.5      0.00      0.00      80.9     0.33      1012.5     2.4      SE   144   4.6      SE   142   9.69    264      -57.3
   07/03/2018 19:20      76.9      76.0       39     49.6      0.00      0.00      80.9     0.33      1012.5     2.4      SE   132   5.3      SE   131   9.69    264      -40.5
   07/03/2018 19:10      77.0      76.5       36     47.6      0.00      0.00      80.9     0.33      1012.5     2.7     ESE   111   5.3      SE   136   9.70    263      -20.5
   07/03/2018 19:00      78.1      76.8       36     48.3      0.00      0.00      80.8     0.33      1012.4     3.4     ESE   102   7.0      SE   127   9.70    263        1.1
   07/03/2018 18:50      78.7      77.9       36     49.2      0.00      0.00      80.8     0.33      1012.4     2.8       E    94   5.9     ESE   111   9.71    263       25.6
   07/03/2018 18:40      79.5      78.3       38     50.9      0.00      0.00      80.8     0.33      1012.3     3.4       E    88   6.9       E    96   9.71    263       50.0
   07/03/2018 18:30      80.4      78.8       36     50.3      0.00      0.00      80.7     0.33      1012.2     3.3     ESE   113   6.7      SE   141   9.71    263       76.4
   07/03/2018 18:20      80.6      79.7       33     48.6      0.00      0.00      80.7     0.33      1012.2     2.8       E    81   7.2      NE    45   9.72    263      100.0
   07/03/2018 18:10      81.5      79.8       34     49.7      0.00      0.00      80.7     0.33      1012.1     4.1       E    90   8.1       E    97   9.72    263      125.6
   07/03/2018 18:00      82.8      81.3       31     47.8      0.00      0.00      80.7     0.33      1012.1     3.6     ESE   113   7.1     SSE   149   9.73    263      149.7
   07/03/2018 17:50      83.6      82.5       25     43.6      0.00      0.00      80.6     0.33      1012.1     2.7       E    85   5.9      SE   133   9.73    263      171.0
   07/03/2018 17:40      82.8      81.7       22     39.9      0.00      0.00      80.5     0.33      1012.1     3.2     ENE    74   7.1      SE   130   9.74    263      199.8
   07/03/2018 17:30      82.7      82.1       22     40.2      0.00      0.00      80.5     0.33      1012.1     3.5     ESE   112   7.2     ENE    75   9.74    263      225.8
   07/03/2018 17:20      83.4      82.2       21     39.2      0.00      0.00      80.4     0.33      1012.1     2.8     ESE   114   7.6      SE   141   9.74    263      247.4
   07/03/2018 17:10      82.9      82.1       23     41.1      0.00      0.00      80.4     0.33      1012.1     2.9     ESE   121   7.3       S   172   9.75    263      274.7
   07/03/2018 17:00      82.9      81.9       24     41.9      0.00      0.00      80.3     0.33      1012.2     3.7      SE   134   8.3     SSE   150   9.75    263      300.3
   07/03/2018 16:50      83.1      82.3       25     43.3      0.00      0.00      80.3     0.33      1012.2     4.1      SE   128   9.0      SE   134   9.76    263      323.4
   07/03/2018 16:40      83.1      82.2       27     45.2      0.00      0.00      80.2     0.33      1012.2     3.9     SSE   156   6.8      SE   136   9.76    263      345.6
   07/03/2018 16:30      83.9      82.6       25     43.4      0.00      0.00      80.2     0.33      1012.2     3.3     ESE   106   8.0     ENE    73   9.77    263      364.0
   07/03/2018 16:20      84.4      83.5       22     41.4      0.00      0.00      80.1     0.33      1012.2     3.3     ENE    71   5.8       E    93   9.77    263      384.3
   07/03/2018 16:10      83.6      82.2       23     41.5      0.00      0.00      80.1     0.33      1012.3     3.5      SE   124   5.9      SE   140   9.78    263      409.2
   07/03/2018 16:00      83.9      82.8       26     44.6      0.00      0.00      80.0     0.33      1012.4     3.7     ESE   117   6.4     ENE    58   9.78    263      429.9
   07/03/2018 15:50      84.2      82.3       26     44.9      0.00      0.00      80.0     0.33      1012.4     2.6      SE   130   7.0      SE   133   9.79    263      446.1
   07/03/2018 15:40      82.7      81.4       25     42.5      0.00      0.00      79.9     0.33      1012.4     3.3     SSE   166   7.9      SE   124   9.79    263      465.6
   07/03/2018 15:30      81.6      80.3       27     43.5      0.00      0.00      79.8     0.33      1012.5     4.6     ESE   123  10.1      SE   137   9.80    263      485.7
   07/03/2018 15:20      81.7      80.3       32     48.0      0.00      0.00      79.8     0.33      1012.6     5.0     SSE   147  10.1      SE   143   9.80    263      500.9
   07/03/2018 15:10      82.6      81.1       35     51.6      0.00      0.00      79.8     0.33      1012.7     4.0     ESE   104   7.2      SE   135   9.81    264      514.2
   07/03/2018 15:00      81.7      80.1       37     52.4      0.00      0.00      79.7     0.33      1012.7     3.4      SE   132   7.7     ENE    77   9.81    264      526.9
   07/03/2018 14:50      81.7      80.2       37     52.9      0.00      0.00      79.6     0.33      1012.7     4.6     SSE   156   8.9      SE   144   9.81    264      541.9
   07/03/2018 14:40      81.2      80.0       38     52.8      0.00      0.00      79.5     0.33      1012.8     4.8      SE   144  11.6      SE   144   9.82    264      553.4
   07/03/2018 14:30      82.0      80.9       38     53.6      0.00      0.00      79.5     0.32      1012.9     4.3     SSE   153   9.3      SE   129   9.82    264      557.2
   07/03/2018 14:20      82.6      81.2       40     55.2      0.00      0.00      79.5     0.32      1013.0     2.7     ESE   117   7.3     ESE   119   9.82    264      563.9
   07/03/2018 14:10      81.6      79.2       43     55.4      0.00      0.00      79.4     0.32      1013.1     3.6     SSW   208   8.6       S   185   9.83    265      579.7
   07/03/2018 14:00      81.5      80.6       42     55.9      0.00      0.00      79.4     0.32      1013.2     3.4       E    89   7.8       E    87   9.83    264      581.8
   07/03/2018 13:50      80.4      79.6       44     56.0      0.00      0.00      79.4     0.32      1013.2     2.7     SSE   159   7.0      SE   131   9.83    264      592.3
   07/03/2018 13:40      81.6      79.9       43     56.3      0.00      0.00      79.3     0.32      1013.3     2.9     ESE   105   6.9     ESE   103   9.83    264      595.8
   07/03/2018 13:30      81.5      79.7       43     56.2      0.00      0.00      79.3     0.32      1013.3     2.7     ESE   102   7.2     ENE    72   9.84    264      598.8
   07/03/2018 13:20      81.4      80.1       43     56.3      0.00      0.00      79.2     0.32      1013.4     2.9      NE    44   6.4       N     4   9.84    264      599.6
   07/03/2018 13:10      80.6      79.0       44     56.1      0.00      0.00      79.2     0.32      1013.6     3.5     ENE    68   7.4      SE   132   9.84    264      603.1
   07/03/2018 13:00      80.4      78.6       44     56.0      0.00      0.00      79.1     0.32      1013.7     3.0     SSW   204   5.5     SSE   154   9.84    264      604.5
   07/03/2018 12:50      80.7      78.3       44     55.9      0.00      0.00      79.2     0.32      1013.7     2.8      NE    48   6.6       N   354   9.84    264      603.9
   07/03/2018 12:40      79.8      78.4       44     55.4      0.00      0.00      79.2     0.32      1013.8     2.6       E    98   4.6     ESE   115   9.84    264      600.7
   07/03/2018 12:30      79.2      78.3       45     55.6      0.00      0.00      79.2     0.32      1013.8     3.1      NE    37   6.4     ENE    60   9.84    264      599.4
   07/03/2018 12:20      79.2      77.8       46     55.9      0.00      0.00      79.2     0.32      1013.9     3.0     NNE    25   5.7       N   350   9.85    264      595.0
   07/03/2018 12:10      78.4      76.8       47     56.0      0.00      0.00      79.2     0.32      1014.0     2.6     NNE    31   6.7     ESE   106   9.85    264      593.0
   07/03/2018 12:00      77.3      76.0       48     55.9      0.00      0.00      79.2     0.32      1014.1     3.0      NE    49   6.7     NNW   347   9.85    264      586.9
   07/03/2018 11:50      76.3      75.5       50     55.8      0.00      0.00      79.2     0.32      1014.2     3.1      NE    44   6.3      NE    50   9.85    264      581.3
   07/03/2018 11:40      75.9      74.3       51     55.9      0.00      0.00      79.2     0.32      1014.3     2.2     ENE    77   6.2     ENE    63   9.85    265      575.6
   07/03/2018 11:30      75.9      74.7       51     56.1      0.00      0.00      79.2     0.32      1014.4     3.1     ENE    64   7.4      NE    36   9.85    264      564.8
   07/03/2018 11:20      75.5      74.5       52     55.9      0.00      0.00      79.2     0.32      1014.4     2.5      NE    37   5.2     NNE    29   9.85    265      555.7
   07/03/2018 11:10      74.9      73.3       53     55.9      0.00      0.00      79.3     0.32      1014.4     2.1     ENE    62   5.0       E   100   9.85    265      548.6
   07/03/2018 11:00      74.2      73.3       53     55.8      0.00      0.00      79.3     0.32      1014.5     2.9     ESE   118   7.3       E    90   9.85    265      534.0
   07/03/2018 10:50      74.0      72.7       53     55.5      0.00      0.00      79.3     0.32      1014.5     2.0      NE    38   4.8     NNW   341   9.85    265      519.1
   07/03/2018 10:40      72.9      72.0       55     55.5      0.00      0.00      79.3     0.33      1014.5     2.3      NE    53   5.4      SE   141   9.85    265      507.9
   07/03/2018 10:30      72.7      71.3       56     55.4      0.00      0.00      79.3     0.33      1014.5     2.2      NE    55   5.3      NE    44   9.85    265      494.5
   07/03/2018 10:20      71.5      70.6       57     55.1      0.00      0.00      79.3     0.33      1014.7     2.4     ENE    73   5.7       E   101   9.85    265      476.7
   07/03/2018 10:10      71.1      69.7       58     55.2      0.00      0.00      79.4     0.33      1014.7     2.2     ENE    63   4.8     NNE    33   9.85    266      468.1
   07/03/2018 10:00      70.5      69.4       59     55.3      0.00      0.00      79.4     0.33      1014.7     2.2       E    97   5.6     SSE   155   9.85    266      464.7
   07/03/2018 09:50      69.5      68.2       62     55.2      0.00      0.00      79.4     0.33      1014.7     2.7       E    91   5.3      SE   145   9.85    266      397.4
   07/03/2018 09:40      68.4      67.7       64     55.1      0.00      0.00      79.5     0.33      1014.8     1.2     ESE   104   3.3       S   179   9.85    266      207.1
   07/03/2018 09:30      67.8      67.1       65     55.1      0.00      0.00      79.5     0.33      1014.7     2.1      NE    37   4.3     ENE    60   9.85    266      215.1
   07/03/2018 09:20      67.3      66.1       66     54.7      0.00      0.00      79.5     0.33      1014.7     1.8     ESE   113   6.4      SE   124   9.85    266      180.3
   07/03/2018 09:10      67.1      65.8       67     55.0      0.00      0.00      79.5     0.33      1014.8     2.1      SE   126   4.7      SE   144   9.85    266      179.4
   07/03/2018 09:00      65.9      65.2       68     54.9      0.00      0.00      79.6     0.33      1014.9     2.0     ESE   122   5.2     ESE   110   9.85    267      162.0
   07/03/2018 08:50      65.4      64.8       70     55.0      0.00      0.00      79.6     0.33      1014.9     2.0     ESE   118   4.2      SE   129   9.85    266      128.0
   07/03/2018 08:40      64.8      64.2       71     54.9      0.00      0.00      79.6     0.33      1014.9     1.9      SE   136   4.3       S   170   9.85    267      121.9
   07/03/2018 08:30      64.4      63.6       72     54.9      0.00      0.00      79.7     0.33      1014.9     1.3     ESE   108   3.4      SE   133   9.85    267       87.3
   07/03/2018 08:20      64.0      63.1       74     55.0      0.00      0.00      79.7     0.33      1014.9     1.6      SE   138   3.2      SE   126   9.85    267       66.3
   07/03/2018 08:10      63.3      62.9       75     55.2      0.00      0.00      79.8     0.33      1014.9     2.3     SSE   156   4.5     SSW   192   9.61    267       51.7
   07/03/2018 08:00      63.1      62.7       76     55.3      0.00      0.00      79.8     0.33      1015.0     1.9      SE   134   3.4      SE   144   9.61    267       37.3
   07/03/2018 07:50      62.9      62.4       77     55.4      0.00      0.00      79.8     0.33      1015.0     1.8       E    89   3.7     ESE   115   9.61    267       21.7
   07/03/2018 07:40      62.6      62.0       78     55.5      0.00      0.00      79.9     0.33      1014.9     1.1       E    89   3.0     ENE    66   9.61    268       22.3
   07/03/2018 07:30      62.4      61.8       80     55.7      0.00      0.00      79.9     0.33      1014.8     2.1     ENE    77   4.4     ENE    73   9.61    268       15.6
   07/03/2018 07:20      62.1      61.7       81     55.8      0.00      0.00      79.9     0.33      1014.8     1.4      SE   131   3.8      SE   139   9.61    268        5.8
   07/03/2018 07:10      61.9      61.5       82     56.1      0.00      0.00      80.0     0.33      1014.7     1.6       E    80   4.1      SE   126   9.61    268        2.6
   07/03/2018 07:00      61.7      61.3       83     56.2      0.00      0.00      80.0     0.33      1014.7     1.7       E    84   3.7     ENE    68   9.61    268       -0.8
   07/03/2018 06:50      61.6      61.3       83     56.1      0.00      0.00      80.0     0.33      1014.7     1.8     ESE   108   4.6      SE   138   9.61    268       -4.2
   07/03/2018 06:40      61.6      61.1       83     56.1      0.00      0.00      80.0     0.33      1014.6     2.6      SE   131   3.8      SE   136   9.61    268       -5.9
   07/03/2018 06:30      61.5      61.1       83     56.2      0.00      0.00      80.1     0.33      1014.6     1.5       E    92   2.9      SE   140   9.62    268       -7.4
   07/03/2018 06:20      61.3      60.8       84     56.1      0.00      0.00      80.1     0.33      1014.5     2.2      SE   133   5.3     ESE   114   9.62    268       -8.9
   07/03/2018 06:10      61.3      60.8       84     56.1      0.00      0.00      80.2     0.33      1014.4     0.6      SE   134   2.3     ENE    70   9.62    268      -10.7
   07/03/2018 06:00      61.1      60.7       84     56.0      0.00      0.00      80.2     0.33      1014.3     1.5     ESE   122   3.4      SW   218   9.62    268      -11.3
   07/03/2018 05:50      61.2      60.6       84     56.0      0.00      0.00      80.2     0.33      1014.4     2.3     SSE   155   4.1     SSE   147   9.62    268      -12.1
   07/03/2018 05:40      61.2      60.8       84     56.0      0.00      0.00      80.2     0.33      1014.4     2.4     ESE   115   5.4     ESE   113   9.62    269      -12.4
   07/03/2018 05:30      61.2      60.7       84     56.0      0.00      0.00      80.3     0.33      1014.2     2.9     SSE   161   5.2     ESE   105   9.62    268      -13.0
   07/03/2018 05:20      61.3      60.7       84     56.0      0.00      0.00      80.3     0.33      1014.3     2.5     SSE   149   5.1      SE   141   9.62    268      -13.0
   07/03/2018 05:10      61.5      60.9       83     56.0      0.00      0.00      80.3     0.33      1014.2     2.7     SSE   153   5.6      SE   146   9.62    268      -13.0
   07/03/2018 05:00      61.5      60.9       84     56.3      0.00      0.00      80.4     0.33      1014.2     2.0      SE   133   5.1      SE   135   9.62    268      -12.9
   07/03/2018 04:50      61.7      61.2       83     56.3      0.00      0.00      80.4     0.33      1014.2     2.4      SE   126   4.3      SE   133   9.62    268      -12.8
   07/03/2018 04:40      61.8      61.4       83     56.4      0.00      0.00      80.5     0.33      1014.2     2.0      SE   130   4.4      SE   137   9.62    269      -12.8
   07/03/2018 04:30      62.1      61.4       83     56.5      0.00      0.00      80.5     0.33      1014.2     2.0      SE   137   4.0      SE   126   9.62    269      -12.9
   07/03/2018 04:20      62.0      61.6       83     56.5      0.00      0.00      80.5     0.33      1014.3     0.9       E    83   2.6     ESE   122   9.63    269      -12.9
   07/03/2018 04:10      61.8      61.4       84     56.5      0.00      0.00      80.6     0.33      1014.2     0.7       E    96   2.1      SE   132   9.63    269      -12.1
   07/03/2018 04:00      61.7      61.3       83     56.2      0.00      0.00      80.6     0.33      1014.2     1.1       E    88   2.8     ENE    75   9.63    269      -14.4
   07/03/2018 03:50      61.5      60.8       83     55.8      0.00      0.00      80.6     0.33      1014.2     0.0      SE   132   1.1      SE   145   9.63    269      -15.8
   07/03/2018 03:40      61.2      60.5       83     55.4      0.00      0.00      80.7     0.33      1014.2     0.2     SSW   209   1.0     SSW   205   9.63    269      -23.0
   07/03/2018 03:30      60.9      60.5       81     54.9      0.00      0.00      80.7     0.33      1014.1     1.0     SSW   194   2.1     SSW   197   9.63    269      -38.6
   07/03/2018 03:20      60.9      60.4       79     54.1      0.00      0.00      80.7     0.33      1014.0     0.3     SSE   168   1.5       S   179   9.63    270      -59.0
   07/03/2018 03:10      61.3      60.7       79     54.5      0.00      0.00      80.8     0.33      1013.9     0.5      SE   129   1.6      SE   142   9.63    269      -62.6
   07/03/2018 03:00      61.8      61.0       79     54.9      0.00      0.00      80.7     0.33      1013.9     0.6     ESE   121   1.6      NE    43   9.63    270      -63.5
   07/03/2018 02:50      62.1      61.4       81     56.1      0.00      0.00      80.9     0.33      1013.7     0.8     ENE    70   2.3     ENE    62   9.63    270      -63.8
   07/03/2018 02:40      62.3      61.8       82     56.4      0.00      0.00      80.8     0.33      1013.7     0.8      NE    42   2.2      NE    48   9.63    270      -63.7
   07/03/2018 02:30      62.6      62.0       82     56.5      0.00      0.00      80.9     0.33      1013.7     0.7      NE    49   1.8      NE    35   9.63    269      -63.4
   07/03/2018 02:20      62.6      62.1       81     56.5      0.00      0.00      80.9     0.33      1013.6     1.0      NE    44   2.4      NE    45   9.63    269      -63.3
   07/03/2018 02:10      62.9      62.3       81     56.5      0.00      0.00      80.9     0.33      1013.6     0.9     ENE    68   2.0     ENE    62   9.63    269      -63.4
   07/03/2018 02:00      63.4      62.6       80     56.6      0.00      0.00      80.9     0.33      1013.5     0.9     ENE    63   1.9      NE    36   9.63    269      -64.3
   07/03/2018 01:50      63.8      63.0       79     56.6      0.00      0.00      81.0     0.33      1013.5     1.2      NE    49   2.8      NE    55   9.63    268      -64.4
   07/03/2018 01:40      64.2      63.5       76     56.3      0.00      0.00      81.0     0.33      1013.5     1.1     ENE    61   2.5     ENE    68   9.64    268      -64.8
   07/03/2018 01:30      64.5      63.9       75     56.1      0.00      0.00      81.0     0.33      1013.4     0.9     ENE    57   2.0      NE    53   9.64    267      -64.8
   07/03/2018 01:20      64.8      64.3       74     55.9      0.00      0.00      81.0     0.33      1013.4     0.7     ENE    65   2.4     NNE    33   9.64    267      -65.1
   07/03/2018 01:10      65.2      64.5       72     55.7      0.00      0.00      81.1     0.33      1013.3     0.2     ENE    72   1.4      NE    42   9.64    267      -65.5
   07/03/2018 01:00      65.5      64.8       71     55.5      0.00      0.00      81.1     0.33      1013.3     0.3     ESE   114   1.7     ENE    76   9.64    267      -65.5
   07/03/2018 00:50      65.7      65.2       70     55.2      0.00      0.00      81.0     0.33      1013.3     0.6     ESE   104   1.6       E    83   9.64    266      -65.4
   07/03/2018 00:40      65.8      65.4       69     55.1      0.00      0.00      81.1     0.33      1013.3     0.3       E    87   1.5     ESE   105   9.64    266      -64.8
   07/03/2018 00:30      66.1      65.5       68     55.0      0.00      0.00      81.1     0.33      1013.3     0.1     ESE   104   1.1     ESE   103   9.64    266      -64.0
   07/03/2018 00:20      65.9      65.5       69     55.1      0.00      0.00      81.2     0.33      1013.3     0.0       N     0   0.0      SE   131   9.64    266      -63.5
   07/03/2018 00:10      65.9      65.4       68     54.8      0.00      0.00      81.2     0.33      1013.3     0.2     ESE   119   1.3     ENE    77   9.65    266      -63.6
   07/03/2018 00:00      66.2      65.6       68     54.8      0.00      0.00      81.2     0.33      1013.2     0.0     SSW   194   0.2     SSW   194   9.65    266      -64.2
   07/02/2018 23:50      66.7      65.8       66     54.5      0.00      0.00      81.2     0.33      1013.2     0.0       N     0   0.0     SSW   194   9.65    266      -65.0
   07/02/2018 23:40      67.2      66.4       65     54.6      0.00      0.00      81.2     0.33      1013.2     0.0       N     0   0.0     SSW   194   9.65    266      -65.6
   07/02/2018 23:30      67.9      66.9       64     54.8      0.00      0.00      81.2     0.33      1013.2     0.2     SSW   194   1.2     SSW   194   9.65    266      -66.7
   07/02/2018 23:20      68.3      67.5       64     55.1      0.00      0.00      81.3     0.33      1013.2     1.6     SSW   212   2.2     SSW   199   9.65    266      -66.5
   07/02/2018 23:10      69.0      68.0       62     55.1      0.00      0.00      81.3     0.33      1013.2     1.4     SSW   211   2.6     SSW   201   9.65    266      -67.8
   07/02/2018 23:00      69.2      68.7       62     55.2      0.00      0.00      81.2     0.33      1013.1     1.6       W   262   3.2       W   261   9.66    266      -68.6
   07/02/2018 22:50      69.1      68.6       61     54.8      0.00      0.00      81.3     0.33      1013.0     1.4     WSW   257   2.7     WNW   291   9.66    266      -68.1
   07/02/2018 22:40      69.5      68.8       60     54.9      0.00      0.00      81.3     0.33      1013.0     1.4      SW   224   2.8      SW   226   9.66    266      -69.7
   07/02/2018 22:30      70.0      69.1       59     54.8      0.00      0.00      81.3     0.33      1013.0     1.5     SSW   204   2.9     WSW   237   9.66    266      -70.8
   07/02/2018 22:20      70.3      69.7       59     54.7      0.00      0.00      81.3     0.33      1013.0     1.9      SW   233   3.0     WSW   252   9.66    266      -71.1
   07/02/2018 22:10      70.7      70.0       58     54.6      0.00      0.00      81.3     0.33      1013.0     1.1      SW   214   3.0     SSW   201   9.66    265      -71.9
   07/02/2018 22:00      71.0      70.4       57     54.7      0.00      0.00      81.3     0.33      1013.0     2.2     WSW   248   3.8       W   268   9.67    265      -72.5
   07/02/2018 21:50      71.1      70.6       57     54.8      0.00      0.00      81.3     0.33      1013.0     2.4      SW   228   5.3      SW   230   9.67    265      -73.0
   07/02/2018 21:40      71.8      70.8       56     54.9      0.00      0.00      81.3     0.33      1012.8     3.1     SSW   203   5.6     SSW   203   9.67    265      -73.8
   07/02/2018 21:30      72.5      71.5       53     54.1      0.00      0.00      81.3     0.33      1012.7     2.7      SW   231   4.6      SW   220   9.67    265      -74.4
   07/02/2018 21:20      72.8      72.2       52     54.0      0.00      0.00      81.3     0.33      1012.5     3.8     WSW   243   6.9     WSW   252   9.68    265      -74.8
   07/02/2018 21:10      73.6      72.5       51     53.8      0.00      0.00      81.3     0.33      1012.4     3.4     SSW   212   5.6     SSW   212   9.68    265      -76.1
   07/02/2018 21:00      74.4      73.5       48     53.2      0.00      0.00      81.3     0.33      1012.2     1.7      SW   216   4.1     WSW   239   9.68    265      -77.1
   07/02/2018 20:50      75.0      74.2       47     52.8      0.00      0.00      81.2     0.33      1012.1     2.1      SW   226   4.1     WSW   245   9.69    264      -77.8
   07/02/2018 20:40      75.6      74.7       45     52.4      0.00      0.00      81.2     0.33      1012.1     2.1      SW   234   4.1       S   189   9.69    264      -78.6
   07/02/2018 20:30      76.3      75.3       44     52.0      0.00      0.00      81.2     0.33      1012.0     2.7      SW   230   5.1     WSW   242   9.69    264      -79.1
   07/02/2018 20:20      77.2      76.1       42     51.6      0.00      0.00      81.2     0.33      1012.0     2.5      SW   228   4.5      SW   232   9.69    264      -79.0
   07/02/2018 20:10      78.0      76.8       40     51.4      0.00      0.00      81.2     0.33      1012.0     3.4     WSW   241   6.7      SW   231   9.70    264      -77.0
   07/02/2018 20:00      78.3      77.8       40     51.9      0.00      0.00      81.1     0.33      1012.0     3.4     WSW   254   6.6     WSW   252   9.70    264      -73.9
   07/02/2018 19:50      79.0      78.0       41     53.0      0.00      0.00      81.1     0.33      1012.0     3.6      SW   226   6.0       S   180   9.71    264      -70.0
   07/02/2018 19:40      80.8      78.8       40     53.4      0.00      0.00      81.1     0.33      1011.9     4.5      SW   232   8.1     WSW   256   9.71    264      -57.8
   07/02/2018 19:30      81.5      80.6       39     53.6      0.00      0.00      81.1     0.33      1011.9     3.7       W   259   7.5     SSW   202   9.72    264      -41.3
   07/02/2018 19:20      82.1      81.1       38     53.1      0.00      0.00      81.0     0.33      1011.8     3.6       W   259   6.9       W   264   9.72    264      -24.3
   07/02/2018 19:10      82.8      81.6       37     52.8      0.00      0.00      81.0     0.33      1011.8     3.3     WNW   301   5.9     WNW   289   9.73    264       -6.1
   07/02/2018 19:00      83.0      82.4       35     52.6      0.00      0.00      81.0     0.33      1011.8     2.9     WNW   300   6.3      NW   317   9.73    264       14.0
   07/02/2018 18:50      83.0      82.1       36     52.9      0.00      0.00      80.9     0.33      1011.8     3.6      NW   320   7.3      NW   309   9.74    264       36.7
   07/02/2018 18:40      83.7      82.7       36     53.6      0.00      0.00      80.9     0.33      1011.7     3.9      NW   317   7.8      NW   314   9.74    264       59.3
   07/02/2018 18:30      83.9      83.0       36     53.6      0.00      0.00      80.9     0.33      1011.7     3.6      NW   304   9.1     WSW   256   9.74    264       82.6
   07/02/2018 18:20      84.8      83.7       35     53.8      0.00      0.00      80.8     0.33      1011.6     3.8      NW   320   6.5     NNW   329   9.75    264      105.9
   07/02/2018 18:10      85.2      84.4       35     54.0      0.00      0.00      80.8     0.33      1011.6     3.6     WNW   289   6.4     WNW   291   9.75    264      131.4
   07/02/2018 18:00      86.0      85.0       34     53.9      0.00      0.00      80.8     0.33      1011.5     3.9     WNW   296  10.6       W   263   9.76    264      155.4
   07/02/2018 17:50      86.1      85.5       33     53.7      0.00      0.00      80.7     0.33      1011.6     4.1      NW   317   7.8     WNW   299   9.77    263      180.1
   07/02/2018 17:40      86.1      85.2       33     53.6      0.00      0.00      80.7     0.33      1011.6     4.0       W   278   7.4     NNW   329   9.77    263      205.0
   07/02/2018 17:30      86.9      85.1       33     53.1      0.00      0.00      80.6     0.33      1011.7     3.7     SSW   197   7.9     SSW   203   9.77    263      229.8
   07/02/2018 17:20      87.0      86.3       32     53.3      0.00      0.00      80.5     0.33      1011.9     2.9     WSW   241   5.9     WSW   255   9.78    263      255.1
   07/02/2018 17:10      87.2      85.9       32     53.5      0.00      0.00      80.5     0.33      1011.9     4.0      SW   231   7.8     SSW   210   9.78    263      280.0
   07/02/2018 17:00      86.6      85.7       33     53.7      0.00      0.00      80.5     0.33      1012.0     5.0     SSW   207   8.2     SSW   206   9.79    263      305.3
   07/02/2018 16:50      87.1      86.2       32     53.1      0.00      0.00      80.4     0.33      1012.1     5.2     SSE   168  10.1       S   190   9.79    263      325.8
   07/02/2018 16:40      87.9      86.2       32     53.1      0.00      0.00      80.3     0.33      1012.2     4.7       S   183   8.4       S   176   9.80    263      344.7
   07/02/2018 16:30      89.5      87.7       30     52.8      0.00      0.00      80.3     0.33      1012.3     2.5       S   181   7.3     SSW   207   9.81    263      361.0
   07/02/2018 16:20      89.6      88.5       27     51.0      0.00      0.00      80.2     0.33      1012.3     2.6     SSE   158   5.4     SSW   212   9.81    263      380.8
   07/02/2018 16:10      89.3      88.3       27     50.2      0.00      0.00      80.2     0.33      1012.3     3.0     ENE    61   7.0     ENE    60   9.82    263      403.0
   07/02/2018 16:00      89.3      88.3       26     49.2      0.00      0.00      80.1     0.33      1012.5     3.1     NNE    15   6.8     NNW   337   9.82    263      417.4
   07/02/2018 15:50      89.2      88.1       25     48.5      0.00      0.00      80.0     0.33      1012.7     2.9     NNE    15   5.5       N     0   9.82    263      434.7
   07/02/2018 15:40      89.5      88.5       25     48.6      0.00      0.00      80.0     0.33      1012.8     3.0     NNE    29   7.7      NW   323   9.83    263      453.9
   07/02/2018 15:30      89.3      88.0       25     48.7      0.00      0.00      79.9     0.33      1012.9     2.6     NNE    24   7.5     ENE    74   9.83    263      471.0
   07/02/2018 15:20      89.0      88.0       25     48.6      0.00      0.00      79.9     0.33      1013.0     2.6     NNE    29   7.0      NE    48   9.83    263      486.6
   07/02/2018 15:10      88.4      87.6       24     47.3      0.00      0.00      79.8     0.33      1013.1     3.4     ENE    64   6.3     ENE    62   9.84    263      501.4
   07/02/2018 15:00      88.4      86.8       25     47.8      0.00      0.00      79.8     0.33      1013.3     3.4      NE    45   6.7     ENE    57   9.84    264      515.2
   07/02/2018 14:50      87.5      86.7       27     48.9      0.00      0.00      79.7     0.33      1013.4     3.2     ENE    59   6.1      NE    42   9.84    264      530.8
   07/02/2018 14:40      86.9      85.7       30     51.3      0.00      0.00      79.7     0.33      1013.5     3.3       E    93   7.5      SE   132   9.85    264      544.1
   07/02/2018 14:30      86.8      85.2       33     53.7      0.00      0.00      79.6     0.33      1013.7     2.9     ESE   116   7.5      SE   129   9.85    264      556.8
   07/02/2018 14:20      87.7      85.0       34     54.6      0.00      0.00      79.5     0.33      1013.8     2.9     ENE    67   7.3       E    92   9.85    264      567.4
   07/02/2018 14:10      86.2      84.9       36     55.7      0.00      0.00      79.5     0.32      1013.9     4.2       E    79   8.7      NE    54   9.86    264      576.7
   07/02/2018 14:00      86.0      84.2       37     56.1      0.00      0.00      79.5     0.32      1014.1     3.3      NE    50   6.4      NE    41   9.86    264      580.8
   07/02/2018 13:50      84.9      83.6       37     55.3      0.00      0.00      79.4     0.32      1014.3     2.8     ESE   108   5.9     ENE    58   9.86    264      590.7
   07/02/2018 13:40      85.7      83.5       36     54.8      0.00      0.00      79.4     0.32      1014.4     2.8       E    90   6.0     SSE   160   9.86    264      596.0
   07/02/2018 13:30      84.9      83.7       35     54.0      0.00      0.00      79.3     0.32      1014.5     2.6       E    82   5.8     ESE   113   9.87    264      598.9
   07/02/2018 13:20      84.7      83.0       37     54.8      0.00      0.00      79.3     0.32      1014.5     2.8     ENE    56   5.9     ENE    71   9.87    264      604.9
   07/02/2018 13:10      84.5      82.4       36     53.9      0.00      0.00      79.3     0.32      1014.7     3.4       E    90   6.3     ESE   102   9.87    264      610.5
   07/02/2018 13:00      85.2      83.7       34     52.9      0.00      0.00      79.2     0.32      1014.8     2.5      NE    47   5.7     ENE    69   9.87    263      605.5
   07/02/2018 12:50      85.0      83.3       33     51.6      0.00      0.00      79.2     0.32      1014.9     2.3      NE    38   5.6     NNE    20   9.87    264      605.5
   07/02/2018 12:40      84.7      83.3       32     50.6      0.00      0.00      79.2     0.32      1015.0     1.5       W   276   4.3       N   354   9.87    264      603.3
   07/02/2018 12:30      83.4      81.8       35     52.5      0.00      0.00      79.2     0.32      1015.1     2.4       N     4   5.2       N     9   9.88    264      603.5
   07/02/2018 12:20      82.0      81.1       38     53.0      0.00      0.00      79.1     0.32      1015.2     2.3     ENE    68   4.9      NE    52   9.88    264      602.0
   07/02/2018 12:10      81.7      80.2       39     53.2      0.00      0.00      79.1     0.32      1015.3     2.0     ENE    67   5.0      NE    51   9.88    264      598.6
   07/02/2018 12:00      80.6      79.6       41     54.7      0.00      0.00      79.2     0.32      1015.3     2.5      NE    34   5.2     NNE    26   9.88    264      593.2
   07/02/2018 11:50      80.0      79.2       43     55.4      0.00      0.00      79.1     0.32      1015.4     1.6     WSW   241   4.0     SSW   211   9.88    264      587.2
   07/02/2018 11:40      79.6      77.8       45     55.9      0.00      0.00      79.1     0.33      1015.6     2.3      NE    34   4.6       S   176   9.88    264      579.9
   07/02/2018 11:30      79.0      78.2       46     56.1      0.00      0.00      79.2     0.33      1015.6     2.4     NNE    30   5.1     NNE    15   9.88    264      572.7
   07/02/2018 11:20      78.3      77.2       48     56.4      0.00      0.00      79.2     0.33      1015.8     2.5       N   357   4.6       N     3   9.88    264      562.8
   07/02/2018 11:10      77.5      76.2       49     56.4      0.00      0.00      79.3     0.33      1015.9     2.2      NE    47   5.0       N   352   9.88    264      555.5
   07/02/2018 11:00      76.8      75.7       49     55.8      0.00      0.00      79.2     0.33      1016.0     1.8      NE    53   4.7     NNE    26   9.88    264      545.3
   07/02/2018 10:50      76.1      73.8       51     55.3      0.00      0.00      79.2     0.33      1016.1     1.4       N   353   3.8       S   186   9.88    264      535.5
   07/02/2018 10:40      74.6      72.8       51     54.6      0.00      0.00      79.3     0.33      1016.1     1.7       W   277   3.6     WSW   249   9.88    264      521.5
   07/02/2018 10:30      73.0      72.4       53     54.8      0.00      0.00      79.3     0.33      1016.1     2.1     NNW   341   4.3     WNW   300   9.88    264      507.1
   07/02/2018 10:20      73.1      72.1       54     55.2      0.00      0.00      79.3     0.33      1016.1     2.0      NW   316   4.7     NNW   347   9.88    264      492.5
   07/02/2018 10:10      72.4      71.3       56     55.3      0.00      0.00      79.3     0.33      1016.0     2.2       N   355   4.1      NW   326   9.88    264      475.8
   07/02/2018 10:00      71.5      70.3       58     55.5      0.00      0.00      79.3     0.33      1016.1     1.9      NE    45   4.3     ESE   121   9.88    265      458.5
   07/02/2018 09:50      70.3      69.1       61     55.5      0.00      0.00      79.4     0.33      1016.1     1.6      NE    55   3.1     NNE    23   9.88    265      441.8
   07/02/2018 09:40      70.0      68.8       61     55.5      0.00      0.00      79.3     0.33      1016.2     2.2       W   263   4.4      NE    36   9.88    265      422.7
   07/02/2018 09:30      70.1      68.3       62     55.7      0.00      0.00      79.4     0.33      1016.2     1.3       W   278   4.4       W   262   9.88    265      405.9
   07/02/2018 09:20      68.5      66.7       65     55.5      0.00      0.00      79.4     0.33      1016.3     0.9       E    80   2.6       N     6   9.88    294      385.3
   07/02/2018 09:10      66.8      65.8       68     55.4      0.00      0.00      79.5     0.33      1016.3     0.8     ESE   106   2.0      SE   131   9.88    315      371.6
   07/02/2018 08:50      65.1      63.1       75     55.7      0.00      0.00      79.5     0.33      1016.3     2.5     WSW   257   8.1       E   101   9.88    320      251.8
   07/02/2018 08:40      63.5      62.8       77     55.7      0.00      0.00      79.6     0.33      1016.3     2.4     SSW   208   4.8     SSW   211   9.89    321      171.7
   07/02/2018 08:30      63.1      62.6       77     55.8      0.00      0.00      79.6     0.33      1016.2     1.8       S   175   4.7     SSE   156   9.89    317      129.7
   07/02/2018 08:20      63.0      62.5       78     55.9      0.00      0.00      79.7     0.33      1016.3     1.6     SSW   194   3.8     SSW   193   8.96    268      102.2
   07/02/2018 08:10      63.0      62.2       79     55.9      0.00      0.00      79.7     0.33      1016.2     1.4     SSW   196   3.5     SSW   193   8.96    268       81.7
   07/02/2018 08:00      62.5      61.9       80     56.0      0.00      0.00      79.7     0.33      1016.2     0.9      SW   215   2.7     SSW   192   8.96    268       70.0
   07/02/2018 07:50      62.2      61.4       81     56.0      0.00      0.00      79.8     0.33      1016.2     1.1     SSW   198   2.7     SSW   205   8.96    268       60.6
   07/02/2018 07:40      61.9      61.4       81     55.9      0.00      0.00      79.8     0.33      1016.2     2.2     SSE   163   4.1      SE   138   8.96    268       48.3
   07/02/2018 07:30      62.0      61.3       82     56.0      0.00      0.00      79.8     0.33      1016.1     1.5     SSE   155   3.2       S   178   8.96    268       36.4
   07/02/2018 07:20      61.6      61.3       82     55.9      0.00      0.00      79.9     0.33      1016.0     1.1       S   173   2.7      SE   137   8.96    268       30.2
   07/02/2018 07:10      61.7      61.1       82     55.7      0.00      0.00      79.9     0.33      1016.0     1.6       E    96   3.7      SE   142   8.96    268       27.8
   07/02/2018 07:00      61.7      61.3       81     55.6      0.00      0.00      79.9     0.33      1016.0     1.2       E    85   3.2     NNE    18   8.96    268       23.8
   07/02/2018 06:50      61.5      61.2       82     55.7      0.00      0.00      80.0     0.33      1015.9     0.8       E    97   2.1     ESE   113   8.96    268       18.6
   07/02/2018 06:40      61.4      61.0       82     55.8      0.00      0.00      80.0     0.33      1016.0     0.6     ENE    76   1.8     ESE   115   8.96    268        6.8
   07/02/2018 06:30      61.5      61.1       83     56.0      0.00      0.00      80.1     0.33      1016.0     1.1       E    80   2.0       E    89   8.96    268       -5.8
   07/02/2018 06:20      61.6      61.0       84     56.3      0.00      0.00      80.1     0.33      1015.8     0.3      NE    53   1.9     ENE    68   8.96    268       -5.9
   07/02/2018 06:10      61.4      60.8       84     56.3      0.00      0.00      80.1     0.33      1015.8     1.1      NE    56   2.2       N     3   8.96    268       -6.4
   07/02/2018 06:00      61.2      60.7       85     56.3      0.00      0.00      80.2     0.33      1015.7     1.1     ENE    59   3.4      NE    50   8.96    268       -9.7
   07/02/2018 05:50      61.0      60.7       85     56.2      0.00      0.00      80.2     0.33      1015.6     0.8     ESE   112   2.5      SE   138   8.96    268      -15.8
   07/02/2018 05:40      61.2      60.7       84     56.1      0.00      0.00      80.3     0.33      1015.6     0.6       E    84   2.4     ESE   110   8.96    268      -23.0
   07/02/2018 05:30      61.4      60.9       84     56.3      0.00      0.00      80.3     0.33      1015.5     1.2     ENE    71   2.6      NE    53   8.96    268      -26.8
   07/02/2018 05:20      61.3      60.9       84     56.2      0.00      0.00      80.3     0.33      1015.4     1.0      NE    49   1.9     NNE    31   8.96    268      -25.0
   07/02/2018 05:10      61.3      60.9       84     56.2      0.00      0.00      80.3     0.33      1015.2     1.0      NE    40   2.5       N    11   8.96    268      -31.7
   07/02/2018 05:00      61.2      60.6       84     56.1      0.00      0.00      80.4     0.33      1015.2     1.5      NE    47   3.9      NE    51   8.96    268      -26.4
   07/02/2018 04:50      60.8      59.7       83     55.0      0.00      0.00      80.4     0.33      1015.2     0.3     ENE    64   2.6      NE    52   8.96    268      -25.3
   07/02/2018 04:40      59.8      59.1       84     54.5      0.00      0.00      80.5     0.33      1015.2     0.3     SSE   157   1.7      SE   144   8.97    268      -24.5
   07/02/2018 04:30      59.4      59.0       84     54.3      0.00      0.00      80.5     0.33      1015.1     0.4       S   174   0.9       S   174   8.97    268      -36.0
   07/02/2018 04:20      59.2      58.8       83     54.0      0.00      0.00      80.5     0.33      1015.1     0.4     SSE   160   0.9       S   174   8.97    268      -49.2
   07/02/2018 04:10      59.6      58.6       83     53.9      0.00      0.00      80.5     0.33      1015.1     0.0       S   190   0.5       S   190   8.97    268      -56.1
   07/02/2018 04:00      59.8      59.3       83     54.1      0.00      0.00      80.6     0.33      1015.1     0.1       S   191   0.7       S   191   8.97    268      -56.2
   07/02/2018 03:50      60.1      59.4       82     54.2      0.00      0.00      80.6     0.33      1015.1     0.7       S   191   1.2       S   191   8.97    268      -56.9
   07/02/2018 03:40      60.2      59.8       82     54.4      0.00      0.00      80.7     0.33      1015.0     0.2       S   191   1.0       S   190   8.97    268      -57.3
   07/02/2018 03:30      60.2      59.8       82     54.6      0.00      0.00      80.7     0.33      1015.0     0.6       S   184   1.9       S   189   8.97    268      -57.9
   07/02/2018 03:20      60.4      59.8       81     54.1      0.00      0.00      80.7     0.33      1015.0     0.8       S   177   1.7       S   184   8.97    268      -58.1
   07/02/2018 03:10      60.6      60.1       81     54.4      0.00      0.00      80.7     0.33      1015.1     0.4       S   172   1.4       S   177   8.97    267      -59.3
   07/02/2018 03:00      60.8      60.2       80     54.4      0.00      0.00      80.8     0.33      1015.1     0.0     SSE   163   1.5       S   170   8.97    268      -60.9
   07/02/2018 02:50      60.9      60.5       80     54.4      0.00      0.00      80.8     0.33      1015.2     1.3       S   183   2.4       S   177   8.97    267      -61.0
   07/02/2018 02:40      60.8      60.4       79     54.2      0.00      0.00      80.8     0.33      1015.2     0.1       E    94   0.9     ENE    66   8.97    267      -62.1
   07/02/2018 02:30      61.3      60.5       78     54.1      0.00      0.00      80.8     0.33      1015.2     0.2     SSE   162   1.1      SE   131   8.97    267      -62.2
   07/02/2018 02:20      61.8      61.1       78     54.4      0.00      0.00      80.8     0.33      1015.2     0.6     SSW   201   1.6     SSW   202   8.97    268      -62.5
   07/02/2018 02:10      62.5      61.5       76     54.3      0.00      0.00      80.8     0.33      1015.2     1.0     SSW   213   1.6      SW   216   8.97    268      -62.7
   07/02/2018 02:00      62.7      62.2       76     54.6      0.00      0.00      80.9     0.33      1015.3     1.4      SW   217   1.7      SW   216   8.98    268      -61.9
   07/02/2018 01:50      63.2      62.4       75     54.6      0.00      0.00      80.9     0.33      1015.3     1.0     SSW   204   1.8     SSW   205   8.98    268      -62.4
   07/02/2018 01:40      63.5      62.9       74     54.6      0.00      0.00      81.0     0.33      1015.3     0.6       S   174   2.1      SE   138   8.98    268      -64.3
   07/02/2018 01:30      63.5      63.1       74     54.7      0.00      0.00      81.0     0.33      1015.4     1.2       S   172   2.4       S   184   8.98    268      -65.1
   07/02/2018 01:20      63.5      63.2       73     54.5      0.00      0.00      81.0     0.33      1015.3     1.1     SSE   167   2.2       S   185   8.98    268      -64.8
   07/02/2018 01:10      64.0      63.1       70     53.6      0.00      0.00      81.0     0.33      1015.3     0.8       S   175   1.9     SSE   165   8.98    267      -64.4
   07/02/2018 01:00      64.1      63.5       68     53.1      0.00      0.00      81.0     0.33      1015.4     0.0       S   180   0.7       S   180   8.98    267      -64.2
   07/02/2018 00:50      64.4      63.8       68     53.2      0.00      0.00      81.1     0.33      1015.4     0.4       S   177   1.6       S   181   8.98    267      -64.2
   07/02/2018 00:40      64.7      64.2       67     53.1      0.00      0.00      81.1     0.33      1015.4     1.3     SSW   198   2.0     SSW   194   8.98    267      -63.8
   07/02/2018 00:30      65.4      64.4       68     54.0      0.00      0.00      81.1     0.33      1015.5     0.9       S   190   1.9     SSW   194   8.99    267      -63.8
   07/02/2018 00:20      65.9      65.0       68     54.5      0.00      0.00      81.1     0.33      1015.6     0.0       N     0   0.0       E    80   8.99    267      -64.1
   07/02/2018 00:10      66.4      65.7       66     54.6      0.00      0.00      81.1     0.33      1015.6     0.2       E    82   1.2     ENE    73   8.99    267      -65.5
   07/02/2018 00:00      66.5      66.1       66     54.4      0.00      0.00      81.1     0.33      1015.6     0.2     ESE   105   1.6     ENE    77   8.99    267      -66.1
   07/01/2018 23:50      66.4      65.9       65     54.2      0.00      0.00      81.1     0.33      1015.7     0.5     ESE   113   1.6      SE   142   8.99    266      -66.4
   07/01/2018 23:40      66.9      66.0       66     54.6      0.00      0.00      81.2     0.33      1015.7     0.2       S   172   1.0      SE   136   8.99    266      -66.1
   07/01/2018 23:30      67.6      66.5       64     54.5      0.00      0.00      81.2     0.33      1015.6     0.0       N     0   0.0       S   183   8.99    266      -66.3
   07/01/2018 23:20      69.1      67.5       62     54.8      0.00      0.00      81.2     0.33      1015.6     0.8     SSW   207   1.6     SSW   196   9.00    266      -67.6
   07/01/2018 23:10      68.9      68.1       63     55.6      0.00      0.00      81.2     0.33      1015.6     1.2     WNW   286   2.1     WNW   282   9.00    266      -68.4
   07/01/2018 23:00      68.4      67.5       61     53.8      0.00      0.00      81.2     0.33      1015.6     0.4     WNW   300   1.9     WNW   295   9.00    266      -67.8
   07/01/2018 22:50      69.0      67.9       59     53.5      0.00      0.00      81.2     0.33      1015.6     0.0       N     0   0.0      SW   234   9.00    266      -69.8
   07/01/2018 22:40      68.9      68.2       59     53.5      0.00      0.00      81.1     0.33      1015.6     0.6     WSW   238   2.4      SW   230   9.00    266      -70.2
   07/01/2018 22:30      69.5      68.5       55     52.2      0.00      0.00      81.1     0.33      1015.6     0.0     ENE    59   1.1     ENE    59   9.00    266      -71.8
   07/01/2018 22:20      70.0      69.2       55     52.4      0.00      0.00      81.2     0.33      1015.6     0.4     ENE    70   1.2     ENE    59   9.01    266      -72.5
   07/01/2018 22:10      70.5      69.7       54     52.8      0.00      0.00      81.1     0.33      1015.6     0.3       E    87   1.2     ENE    72   9.01    266      -74.2
   07/01/2018 22:00      70.7      70.2       54     53.2      0.00      0.00      81.2     0.33      1015.5     0.5       S   181   1.9       S   188   9.01    266      -75.0
   07/01/2018 21:50      71.2      70.4       53     52.8      0.00      0.00      81.2     0.33      1015.5     1.1       S   169   2.1     SSW   192   9.01    266      -75.9
   07/01/2018 21:40      71.8      70.9       51     52.2      0.00      0.00      81.2     0.33      1015.4     0.9       S   172   2.5     SSE   168   9.01    266      -76.4
   07/01/2018 21:30      72.0      71.5       49     51.7      0.00      0.00      81.1     0.33      1015.3     0.8     SSW   192   2.0     SSW   196   9.01    266      -76.7
   07/01/2018 21:20      72.8      71.7       48     51.4      0.00      0.00      81.1     0.33      1015.1     1.2       S   185   1.9       S   189   9.02    265      -78.0
   07/01/2018 21:10      73.2      72.4       47     51.5      0.00      0.00      81.2     0.33      1015.0     1.4       S   171   3.4     SSW   193   9.02    265      -79.2
   07/01/2018 21:00      73.3      72.9       47     51.4      0.00      0.00      81.1     0.33      1014.9     0.4      NE    50   2.1     NNE    25   9.02    265      -80.3
   07/01/2018 20:50      73.8      73.1       46     51.1      0.00      0.00      81.0     0.33      1014.8     0.8     SSE   152   2.3     SSE   152   9.02    265      -81.5
   07/01/2018 20:40      74.6      73.5       45     51.0      0.00      0.00      81.0     0.33      1014.7     1.5       S   183   3.1     SSW   204   9.02    264      -82.6
   07/01/2018 20:30      75.4      74.3       43     51.0      0.00      0.00      81.0     0.33      1014.6     2.8       S   188   4.3     SSW   202   9.02    264      -83.4
   07/01/2018 20:20      76.9      75.2       42     50.9      0.00      0.00      80.9     0.33      1014.6     2.7     SSW   194   4.6      SW   220   9.03    264      -83.4
   07/01/2018 20:10      78.4      76.6       40     51.1      0.00      0.00      81.0     0.33      1014.5     1.3     SSW   196   2.7     SSW   192   9.03    264      -82.4
   07/01/2018 20:00      79.5      78.2       40     52.7      0.00      0.00      80.9     0.33      1014.4     2.3     WSW   253   4.8     WSW   253   9.04    264      -79.1
   07/01/2018 19:50      80.2      79.3       39     52.7      0.00      0.00      80.9     0.33      1014.4     2.0     WNW   287   4.4      NW   313   9.04    264      -76.0
   07/01/2018 19:40      81.0      79.8       38     52.6      0.00      0.00      80.9     0.33      1014.3     2.6     WNW   292   5.2      NW   305   9.04    264      -62.9
   07/01/2018 19:30      82.0      80.8       37     52.5      0.00      0.00      80.8     0.33      1014.3     3.3     WNW   303   7.6     NNW   329   9.05    264      -46.0
   07/01/2018 19:20      82.3      81.7       35     51.5      0.00      0.00      80.8     0.33      1014.2     3.2     WNW   300   6.4     WNW   298   9.05    263      -25.2
   07/01/2018 19:10      83.1      81.9       34     51.5      0.00      0.00      80.8     0.33      1014.2     4.4     WNW   299   7.5     NNW   330   9.06    263       -7.5
   07/01/2018 19:00      83.7      82.9       35     52.8      0.00      0.00      80.7     0.33      1014.1     3.8     WNW   301   7.3     WNW   290   9.06    263       13.5
   07/01/2018 18:50      83.9      83.3       36     53.8      0.00      0.00      80.7     0.33      1014.1     3.8     WNW   295   7.4     WSW   247   9.07    263       37.9
   07/01/2018 18:40      85.0      83.5       37     54.9      0.00      0.00      80.6     0.33      1014.0     4.2     WNW   303   9.1     NNW   327   9.07    263       60.3
   07/01/2018 18:30      85.5      84.4       37     55.3      0.00      0.00      80.6     0.33      1014.0     4.2       W   273   9.7     WNW   282   9.08    263       83.5
   07/01/2018 18:20      85.7      85.0       33     52.9      0.00      0.00      80.5     0.33      1013.9     4.5     WSW   239   7.2      SW   234   9.08    263      106.7
   07/01/2018 18:10      85.3      84.6       31     50.9      0.00      0.00      80.5     0.33      1014.0     3.5     SSW   209   6.0      SW   218   9.09    263      131.4
   07/01/2018 18:00      85.5      84.7       30     50.3      0.00      0.00      80.4     0.33      1013.9     4.7       S   187   9.2     WSW   240   9.09    263      156.5
   07/01/2018 17:50      85.6      85.0       30     50.0      0.00      0.00      80.3     0.33      1013.9     4.6     SSE   162   8.9      SE   137   9.09    263      182.0
   07/01/2018 17:40      85.6      84.6       31     50.8      0.00      0.00      80.3     0.33      1014.0     5.2       S   178   8.5       S   191   9.10    263      208.3
   07/01/2018 17:30      86.4      85.4       30     51.0      0.00      0.00      80.2     0.33      1014.0     4.6       S   170   7.6      SW   219   9.11    263      231.3
   07/01/2018 17:20      86.5      85.1       31     51.6      0.00      0.00      80.2     0.33      1014.0     3.8       S   172   6.4     SSW   196   9.11    263      255.5
   07/01/2018 17:10      86.2      85.5       31     51.4      0.00      0.00      80.1     0.33      1014.0     5.1     SSE   167   8.5       S   172   9.12    263      280.7
   07/01/2018 17:00      86.4      85.6       31     51.7      0.00      0.00      80.0     0.33      1014.0     5.2     SSE   163   9.2       S   175   9.12    263      304.2
   07/01/2018 16:50      86.6      86.0       31     51.8      0.00      0.00      80.0     0.33      1014.1     5.4       S   182   9.7       S   180   9.13    263      326.0
   07/01/2018 16:40      87.0      86.2       30     51.8      0.00      0.00      79.9     0.33      1014.1     5.2       S   178   9.4       S   179   9.13    263      346.9
   07/01/2018 16:30      87.3      86.2       31     52.2      0.00      0.00      79.8     0.33      1014.2     4.8       S   175   8.1     SSW   207   9.14    263      366.2
   07/01/2018 16:20      87.0      85.6       32     52.5      0.00      0.00      79.8     0.33      1014.3     5.0     SSE   163   9.3       S   180   9.14    263      387.6
   07/01/2018 16:10      87.8      86.6       31     52.8      0.00      0.00      79.7     0.33      1014.3     5.5       S   184   8.5     SSW   193   9.15    263      404.7
   07/01/2018 16:00      87.9      87.4       31     52.9      0.00      0.00      79.7     0.33      1014.3     4.5     SSE   161   7.5      SE   131   9.16    263      421.8
   07/01/2018 15:50      88.3      87.5       31     53.1      0.00      0.00      79.6     0.33      1014.4     3.8     SSE   165   8.4     SSW   205   9.16    263      438.5
   07/01/2018 15:40      89.5      87.7       30     53.2      0.00      0.00      79.5     0.33      1014.3     3.3      SE   132   7.7      SE   135   9.17    263      453.7
   07/01/2018 15:30      89.9      87.9       29     53.2      0.00      0.00      79.4     0.33      1014.4     3.3     ENE    76   7.8     ENE    78   9.17    263      469.4
   07/01/2018 15:20      89.7      88.4       30     53.3      0.00      0.00      79.4     0.33      1014.4     2.6     ENE    58   5.5     ENE    59   9.17    263      481.9
   07/01/2018 15:10      88.8      87.8       31     53.5      0.00      0.00      79.3     0.33      1014.5     2.9       E    98   8.0      SE   133   9.18    264      498.7
   07/01/2018 15:00      89.0      88.1       29     52.7      0.00      0.00      79.2     0.33      1014.6     3.5     ENE    68   6.2     ENE    58   9.18    263      506.9
   07/01/2018 14:50      89.4      88.3       29     52.9      0.00      0.00      79.2     0.33      1014.7     3.0     NNE    18   5.7      NE    45   9.18    263      518.6
   07/01/2018 14:40      89.7      88.4       30     53.7      0.00      0.00      79.1     0.32      1014.9     2.8      NE    37   5.2      NE    53   9.18    263      529.6
   07/01/2018 14:30      89.3      87.7       31     54.4      0.00      0.00      79.1     0.32      1015.0     3.1     NNE    31   6.9     NNE    25   9.19    264      543.8
   07/01/2018 14:20      88.9      85.7       31     52.9      0.00      0.00      79.0     0.32      1015.1     3.0     NNW   331   5.8      NE    53   9.19    264      559.1
   07/01/2018 14:10      86.9      85.8       32     52.8      0.00      0.00      79.0     0.32      1015.2     3.3     SSE   165   6.7       E    83   9.19    263      571.1
   07/01/2018 14:00      87.7      86.7       32     53.6      0.00      0.00      78.9     0.32      1015.3     3.0      NE    52   5.4     NNE    30   9.19    264      571.1
   07/01/2018 13:50      87.5      85.6       29     50.7      0.00      0.00      78.8     0.32      1015.5     3.2      NW   318   7.9     WNW   299   9.20    263      578.9
   07/01/2018 13:40      87.7      86.6       29     50.9      0.00      0.00      78.8     0.32      1015.6     2.7     NNW   337   6.5     NNW   346   9.20    263      583.8
   07/01/2018 13:30      87.6      86.7       27     49.5      0.00      0.00      78.8     0.32      1015.7     2.7      NW   325   6.3     NNW   342   9.20    263      587.9
   07/01/2018 13:20      86.9      85.2       28     48.9      0.00      0.00      78.7     0.32      1015.9     2.3     NNW   345   6.2     NNW   348   9.20    263      591.4
   07/01/2018 13:10      85.2      83.4       30     49.0      0.00      0.00      78.7     0.32      1016.0     2.2     NNE    25   4.8       N     5   9.21    263      600.8
   07/01/2018 13:00      84.1      83.3       35     53.0      0.00      0.00      78.6     0.32      1016.0     2.6     NNW   339   5.5      NW   326   9.21    264      602.0
   07/01/2018 12:50      84.2      83.1       36     54.2      0.00      0.00      78.6     0.32      1016.2     2.8     NNE    13   5.1     NNE    28   9.21    264      599.6
   07/01/2018 12:40      83.4      81.6       38     54.5      0.00      0.00      78.6     0.32      1016.3     2.1       N     0   4.2       N     0   9.21    264      600.6
   07/01/2018 12:30      82.6      81.4       39     54.7      0.00      0.00      78.4     0.32      1016.5     2.2       N   360   5.0       N     9   9.21    264      600.3
   07/01/2018 12:20      81.8      80.0       41     54.7      0.00      0.00      78.5     0.32      1016.5     1.8     NNW   344   3.7       N     9   9.21    264      599.4
   07/01/2018 12:10      81.1      79.9       41     54.7      0.00      0.00      78.5     0.32      1016.6     1.8     ENE    71   3.5      NE    55   9.21    264      593.7
   07/01/2018 12:00      80.4      78.4       43     55.0      0.00      0.00      78.5     0.32      1016.6     2.2      NE    39   6.1      SW   229   9.21    264      589.8
   07/01/2018 11:50      79.5      78.3       44     55.3      0.00      0.00      78.6     0.32      1016.7     2.0       N   354   5.0       N     0   9.21    264      581.7
   07/01/2018 11:40      78.8      77.8       45     55.4      0.00      0.00      78.5     0.32      1016.7     2.1     NNW   340   4.8       N     0   9.21    264      575.6
   07/01/2018 11:30      78.5      77.2       47     55.9      0.00      0.00      78.5     0.32      1016.8     1.8     NNW   341   3.7      NE    45   9.21    264      567.4
   07/01/2018 11:20      77.4      75.7       49     56.0      0.00      0.00      78.5     0.32      1016.8     2.1     NNE    16   4.3     NNW   345   9.21    265      558.4
   07/01/2018 11:10      75.8      74.2       51     55.7      0.00      0.00      78.5     0.32      1016.8     1.9       N     9   4.4     NNE    13   9.21    265      552.1
   07/01/2018 11:00      74.9      73.8       52     55.6      0.00      0.00      78.6     0.32      1016.9     2.3     WSW   245   4.1      SW   217   9.21    265      540.8
   07/01/2018 10:50      74.8      73.8       52     55.6      0.00      0.00      78.6     0.32      1017.0     1.6     NNW   332   3.8     WNW   288   9.22    265      528.0
   07/01/2018 10:40      74.2      72.1       54     55.6      0.00      0.00      78.6     0.32      1017.0     1.0       N     9   2.8     WNW   284   9.22    265      514.5
   07/01/2018 10:30      72.4      71.3       56     55.4      0.00      0.00      78.6     0.32      1017.1     1.4     NNW   331   3.5      NE    47   9.22    265      500.3
   07/01/2018 10:20      72.4      70.1       57     55.5      0.00      0.00      78.7     0.33      1017.1     1.5     NNW   347   3.6      NW   311   9.22    266      484.9
   07/01/2018 10:10      70.4      69.6       60     55.3      0.00      0.00      78.7     0.33      1017.1     2.2       N   355   4.3      NW   306   9.22    266      466.4
   07/01/2018 10:00      70.1      69.1       61     55.4      0.00      0.00      78.7     0.33      1017.0     1.8      NW   308   4.8     NNW   337   9.22    266      450.0
   07/01/2018 09:50      70.1      68.7       61     55.7      0.00      0.00      78.7     0.33      1017.0     1.7     NNW   347   5.3     WNW   299   9.22    266      432.8
   07/01/2018 09:40      69.0      66.8       65     55.7      0.00      0.00      78.8     0.33      1017.0     1.0     NNW   334   3.6       W   264   9.22    266      415.6
   07/01/2018 09:30      67.0      66.2       68     55.5      0.00      0.00      78.8     0.33      1017.0     1.7     WSW   257   3.2       W   262   9.22    266      402.1
   07/01/2018 09:20      66.5      65.4       70     56.2      0.00      0.00      78.8     0.33      1017.1     1.2       W   272   4.4       E    85   9.22    267      256.1
   07/01/2018 09:10      65.4      63.4       75     56.2      0.00      0.00      78.8     0.33      1017.1     1.5     NNW   337   5.1       N     6   9.22    268      186.0
   07/01/2018 09:00      63.6      62.7       77     55.9      0.00      0.00      78.8     0.33      1017.0     1.8       S   172   3.9     SSW   204   9.22    268      205.5
   07/01/2018 08:50      63.1      62.4       79     56.0      0.00      0.00      78.9     0.33      1017.1     2.2     SSE   150   5.4      SE   133   9.22    268      129.1
   07/01/2018 08:40      63.0      62.4       79     56.1      0.00      0.00      78.9     0.33      1017.1     1.9      SW   215   4.3      SW   220   9.22    268      101.1
   07/01/2018 08:30      62.9      62.3       80     56.2      0.00      0.00      78.9     0.33      1017.1     2.1     SSE   167   4.7      SE   139   9.22    268       77.7
   07/01/2018 08:20      62.7      62.2       81     56.6      0.00      0.00      78.9     0.33      1017.1     1.6     SSE   155   4.6     SSE   162   9.22    268       59.5
   07/01/2018 08:10      62.5      61.9       82     56.6      0.00      0.00      79.0     0.33      1017.0     1.3       S   177   3.4      SE   140   9.22    268       48.7
   07/01/2018 08:00      62.2      61.7       83     56.6      0.00      0.00      79.0     0.33      1016.8     2.0     SSE   148   3.8       S   187   9.22    268       41.9
   07/01/2018 07:50      62.0      61.6       83     56.5      0.00      0.00      79.0     0.33      1016.8     2.0      SE   135   4.0       E    80   9.22    269       31.4
   07/01/2018 07:40      62.0      61.6       83     56.6      0.00      0.00      79.1     0.33      1016.7     1.7      SE   135   4.1       E    82   9.22    268       25.1
   07/01/2018 07:30      62.1      61.7       83     56.6      0.00      0.00      79.1     0.33      1016.7     1.4     ESE   114   3.5     ESE   121   9.22    269       24.2
   07/01/2018 07:20      62.0      61.6       83     56.5      0.00      0.00      79.2     0.33      1016.7     0.8      SW   235   1.9       S   178   9.22    268       21.7
   07/01/2018 07:10      61.9      61.4       83     56.5      0.00      0.00      79.1     0.33      1016.7     0.9     ENE    57   2.6     ENE    73   9.22    269       18.2
   07/01/2018 07:00      61.8      61.4       84     56.5      0.00      0.00      79.2     0.33      1016.6     0.8      NE    45   2.7       E   100   9.22    268        8.3
   07/01/2018 06:50      61.6      61.1       84     56.5      0.00      0.00      79.2     0.33      1016.5     0.7     ENE    56   2.8      NE    35   9.22    268        3.8
   07/01/2018 06:40      61.7      61.1       84     56.4      0.00      0.00      79.2     0.33      1016.4     1.6     ESE   114   3.9      SE   135   9.22    268        2.5
   07/01/2018 06:30      61.7      61.3       83     56.3      0.00      0.00      79.3     0.33      1016.3     1.4       E    94   3.3      SE   134   9.22    268       -0.7
   07/01/2018 06:20      61.6      60.8       83     56.0      0.00      0.00      79.3     0.33      1016.2     0.7     ESE   113   3.0      SE   132   9.22    268       -4.8
   07/01/2018 06:10      61.1      60.6       85     56.2      0.00      0.00      79.3     0.33      1016.2     0.2     ENE    63   1.3      NE    54   9.22    268       -7.5
   07/01/2018 06:00      60.8      60.4       85     56.1      0.00      0.00      79.3     0.33      1016.2     0.6     SSW   200   1.5       S   179   9.22    268       -9.5
   07/01/2018 05:50      60.8      60.3       86     56.2      0.00      0.00      79.4     0.33      1016.1     0.5     SSW   197   1.8      SW   222   9.22    268      -10.9
   07/01/2018 05:40      60.5      60.2       86     56.3      0.00      0.00      79.4     0.33      1016.0     1.2     SSE   157   3.2     SSE   153   9.22    268      -11.4
   07/01/2018 05:30      60.5      60.0       87     56.2      0.00      0.00      79.5     0.33      1016.0     2.3     SSE   164   4.4       S   179   9.22    268      -11.3
   07/01/2018 05:20      60.8      60.0       86     56.1      0.00      0.00      79.5     0.33      1015.8     2.4       S   170   4.4      SE   137   9.23    268      -11.0
   07/01/2018 05:10      61.0      60.5       85     56.3      0.00      0.00      79.5     0.33      1015.6     2.2     SSE   168   4.4     SSE   152   9.23    268      -11.2
   07/01/2018 05:00      61.1      60.6       85     56.3      0.00      0.00      79.5     0.33      1015.5     2.4      SE   138   4.0      SE   140   9.23    268      -11.1
   07/01/2018 04:50      61.2      60.8       85     56.2      0.00      0.00      79.6     0.33      1015.4     2.1     SSE   153   4.4      SE   141   9.23    268      -11.0
   07/01/2018 04:40      61.2      60.8       84     56.2      0.00      0.00      79.6     0.33      1015.3     2.0      SE   139   3.4      SE   137   9.23    268      -10.7
   07/01/2018 04:30      61.2      60.7       84     56.1      0.00      0.00      79.7     0.33      1015.2     1.9     SSE   156   3.1      SE   142   9.23    268      -10.7
   07/01/2018 04:20      61.2      60.7       84     56.1      0.00      0.00      79.7     0.33      1015.2     1.3     SSE   153   2.8     SSE   150   9.23    268      -10.7
   07/01/2018 04:10      61.6      61.0       86     56.9      0.00      0.00      79.7     0.33      1015.1     1.1     ESE   109   2.7      SE   142   9.23    268      -11.1
   07/01/2018 04:00      61.6      60.9       87     57.3      0.00      0.00      79.7     0.33      1015.1     0.7      NE    49   1.7      NE    43   9.23    268      -11.0
   07/01/2018 03:50      61.2      60.9       87     57.1      0.00      0.00      79.7     0.33      1015.0     1.0       E    96   2.1     ESE   108   9.23    268      -11.6
   07/01/2018 03:40      61.4      60.9       87     57.1      0.00      0.00      79.8     0.33      1015.0     1.3     ESE   108   2.7      NE    42   9.23    268      -12.4
   07/01/2018 03:30      61.4      60.7       86     56.9      0.00      0.00      79.8     0.33      1014.9     0.6     ENE    68   2.0      NE    54   9.23    268      -13.6
   07/01/2018 03:20      61.3      60.7       85     56.5      0.00      0.00      79.8     0.33      1014.9     0.5       E    85   1.8     WNW   303   9.23    270      -23.1
   07/01/2018 03:10      61.3      60.9       85     56.5      0.00      0.00      79.9     0.33      1014.9     0.9     ENE    56   2.0      NE    49   9.23    273      -48.4
   07/01/2018 03:00      61.3      60.6       84     56.1      0.00      0.00      79.9     0.33      1014.9     1.0      NE    50   2.1      NE    55   9.23    272      -52.3
   07/01/2018 02:50      61.1      60.7       83     55.8      0.00      0.00      80.0     0.33      1014.9     0.3     ENE    59   1.4      NE    47   9.23    271      -54.0
   07/01/2018 02:40      61.2      60.7       83     55.5      0.00      0.00      80.0     0.33      1015.0     0.1      NE    54   1.2      NE    53   9.23    270      -54.4
   07/01/2018 02:30      61.2      60.8       82     55.5      0.00      0.00      80.0     0.33      1015.0     0.0       N     0   0.0       S   191   9.23    270      -55.8
   07/01/2018 02:20      61.4      60.9       82     55.4      0.00      0.00      79.9     0.33      1015.0     0.0       N     0   0.0       S   191   9.23    270      -57.1
   07/01/2018 02:10      61.3      60.9       81     55.1      0.00      0.00      80.1     0.33      1015.0     0.0       N     0   0.0     SSW   191   9.24    268      -57.9
   07/01/2018 02:00      61.2      60.9       80     54.9      0.00      0.00      80.1     0.33      1015.0     0.0       N     0   0.0       S   191   9.24    268      -58.1
   07/01/2018 01:50      61.6      60.8       80     55.0      0.00      0.00      80.1     0.33      1014.9     0.3       S   191   1.3     SSW   192   9.24    268      -58.5
   07/01/2018 01:40      61.7      61.3       80     55.4      0.00      0.00      80.2     0.33      1014.9     0.0       N     0   0.0       S   191   9.24    268      -58.6
   07/01/2018 01:30      61.8      61.3       80     55.3      0.00      0.00      80.2     0.33      1015.0     0.2     SSW   191   0.8     SSW   191   9.24    268      -59.3
   07/01/2018 01:20      61.9      61.3       79     55.1      0.00      0.00      80.2     0.33      1015.0     0.2     SSW   191   0.9     SSW   191   9.24    268      -61.4
   07/01/2018 01:10      62.3      61.6       79     55.2      0.00      0.00      80.2     0.33      1015.0     0.4       S   191   1.3     SSW   191   9.24    268      -61.1
   07/01/2018 01:00      62.4      61.8       78     55.3      0.00      0.00      80.3     0.33      1015.1     0.0       S   191   0.7       S   191   9.24    267      -61.5
   07/01/2018 00:50      62.6      61.9       77     55.0      0.00      0.00      80.3     0.33      1015.1     0.2       S   191   1.5       S   191   9.24    268      -62.6
   07/01/2018 00:40      63.3      62.2       76     55.1      0.00      0.00      80.3     0.33      1015.1     1.2       S   189   1.8       S   189   9.24    268      -62.2
   07/01/2018 00:30      63.6      62.8       75     55.0      0.00      0.00      80.3     0.33      1015.1     0.0      SE   146   0.2      SE   146   9.24    268      -63.1
   07/01/2018 00:20      64.2      63.4       75     55.5      0.00      0.00      80.3     0.33      1015.1     0.3      SE   135   1.2      SE   137   9.24    268      -63.8
   07/01/2018 00:10      64.2      63.8       74     55.7      0.00      0.00      80.4     0.33      1015.1     0.0       N     0   0.0       E    96   9.24    268      -64.4
   07/01/2018 00:00      64.0      63.6       74     55.2      0.00      0.00      80.3     0.33      1015.2     0.5     ESE   111   1.5     ESE   111   9.25    268      -65.2


Back to data home page